<?xml version="1.0" encoding="UTF-8" standalone="no" ?>
<gpx xmlns="http://www.topografix.com/GPX/1/1" xmlns:xsi="http://www.w3.org/2001/XMLSchema-instance" xsi:schemaLocation="http://www.topografix.com/GPX/1/1 http://www.topografix.com/GPX/1/1/gpx.xsd" version="1.1" creator="VisuGPX - https://www.visugpx.com">
  <metadata>
    <name>Boucle en forêt de fontainebleau - Sucremont Coquibus 100 marches</name>
    <desc><![CDATA[Rando menée par PIerre sur un parcours très agréable]]></desc>
  </metadata>
  <trk>
    <name><![CDATA[SityTrail - Boucle fontainebleau sucremont coquibus 100 marches]]></name>
    <desc><![CDATA[Rando menée par PIerre sur un parcours très agréable]]></desc>
    <trkseg>
      <trkpt lat="48.40506" lon="2.50824">
        <ele>74</ele>
        <time>2022-04-27T07:47:43.629Z</time>
      </trkpt>
      <trkpt lat="48.4051" lon="2.50827">
        <ele>74</ele>
        <time>2022-04-27T07:53:20.112Z</time>
      </trkpt>
      <trkpt lat="48.40511" lon="2.50828">
        <ele>74</ele>
        <time>2022-04-27T07:53:24.115Z</time>
      </trkpt>
      <trkpt lat="48.40513" lon="2.50833">
        <ele>74</ele>
        <time>2022-04-27T07:53:29.114Z</time>
      </trkpt>
      <trkpt lat="48.40516" lon="2.5084">
        <ele>76</ele>
        <time>2022-04-27T07:53:34.110Z</time>
      </trkpt>
      <trkpt lat="48.40519" lon="2.50846">
        <ele>76</ele>
        <time>2022-04-27T07:53:39.114Z</time>
      </trkpt>
      <trkpt lat="48.40524" lon="2.50851">
        <ele>76</ele>
        <time>2022-04-27T07:53:43.126Z</time>
      </trkpt>
      <trkpt lat="48.40528" lon="2.50848">
        <ele>76</ele>
        <time>2022-04-27T07:53:48.106Z</time>
      </trkpt>
      <trkpt lat="48.40532" lon="2.50844">
        <ele>76</ele>
        <time>2022-04-27T07:53:53.113Z</time>
      </trkpt>
      <trkpt lat="48.40536" lon="2.5084">
        <ele>76</ele>
        <time>2022-04-27T07:53:58.107Z</time>
      </trkpt>
      <trkpt lat="48.4054" lon="2.50835">
        <ele>76</ele>
        <time>2022-04-27T07:54:03.114Z</time>
      </trkpt>
      <trkpt lat="48.40542" lon="2.5083">
        <ele>77</ele>
        <time>2022-04-27T07:54:07.113Z</time>
      </trkpt>
      <trkpt lat="48.40546" lon="2.50826">
        <ele>77</ele>
        <time>2022-04-27T07:54:11.113Z</time>
      </trkpt>
      <trkpt lat="48.4055" lon="2.5082">
        <ele>77</ele>
        <time>2022-04-27T07:54:16.118Z</time>
      </trkpt>
      <trkpt lat="48.40556" lon="2.50813">
        <ele>79</ele>
        <time>2022-04-27T07:54:21.130Z</time>
      </trkpt>
      <trkpt lat="48.40561" lon="2.50807">
        <ele>79</ele>
        <time>2022-04-27T07:54:26.117Z</time>
      </trkpt>
      <trkpt lat="48.40565" lon="2.50802">
        <ele>79</ele>
        <time>2022-04-27T07:54:30.123Z</time>
      </trkpt>
      <trkpt lat="48.4057" lon="2.50796">
        <ele>78</ele>
        <time>2022-04-27T07:54:35.119Z</time>
      </trkpt>
      <trkpt lat="48.40575" lon="2.5079">
        <ele>79</ele>
        <time>2022-04-27T07:54:39.999Z</time>
      </trkpt>
      <trkpt lat="48.40579" lon="2.50784">
        <ele>79</ele>
        <time>2022-04-27T07:54:44.117Z</time>
      </trkpt>
      <trkpt lat="48.40584" lon="2.50779">
        <ele>79</ele>
        <time>2022-04-27T07:54:49.114Z</time>
      </trkpt>
      <trkpt lat="48.40589" lon="2.50774">
        <ele>79</ele>
        <time>2022-04-27T07:54:54.108Z</time>
      </trkpt>
      <trkpt lat="48.40594" lon="2.50767">
        <ele>79</ele>
        <time>2022-04-27T07:54:58.113Z</time>
      </trkpt>
      <trkpt lat="48.40599" lon="2.50761">
        <ele>79</ele>
        <time>2022-04-27T07:55:03.107Z</time>
      </trkpt>
      <trkpt lat="48.40603" lon="2.50755">
        <ele>79</ele>
        <time>2022-04-27T07:55:07.113Z</time>
      </trkpt>
      <trkpt lat="48.40605" lon="2.50748">
        <ele>79</ele>
        <time>2022-04-27T07:55:12.108Z</time>
      </trkpt>
      <trkpt lat="48.4061" lon="2.50745">
        <ele>79</ele>
        <time>2022-04-27T07:55:17.113Z</time>
      </trkpt>
      <trkpt lat="48.40614" lon="2.50741">
        <ele>79</ele>
        <time>2022-04-27T07:55:21.122Z</time>
      </trkpt>
      <trkpt lat="48.40619" lon="2.50736">
        <ele>79</ele>
        <time>2022-04-27T07:55:26.111Z</time>
      </trkpt>
      <trkpt lat="48.40624" lon="2.5073">
        <ele>79</ele>
        <time>2022-04-27T07:55:31.127Z</time>
      </trkpt>
      <trkpt lat="48.40628" lon="2.50724">
        <ele>80</ele>
        <time>2022-04-27T07:55:36.117Z</time>
      </trkpt>
      <trkpt lat="48.40633" lon="2.50716">
        <ele>80</ele>
        <time>2022-04-27T07:55:41.118Z</time>
      </trkpt>
      <trkpt lat="48.40637" lon="2.50709">
        <ele>80</ele>
        <time>2022-04-27T07:55:46.111Z</time>
      </trkpt>
      <trkpt lat="48.40642" lon="2.50704">
        <ele>81</ele>
        <time>2022-04-27T07:55:50.121Z</time>
      </trkpt>
      <trkpt lat="48.40646" lon="2.50696">
        <ele>81</ele>
        <time>2022-04-27T07:55:55.115Z</time>
      </trkpt>
      <trkpt lat="48.40651" lon="2.5069">
        <ele>81</ele>
        <time>2022-04-27T07:56:00.126Z</time>
      </trkpt>
      <trkpt lat="48.40657" lon="2.50685">
        <ele>81</ele>
        <time>2022-04-27T07:56:05.113Z</time>
      </trkpt>
      <trkpt lat="48.40662" lon="2.50679">
        <ele>82</ele>
        <time>2022-04-27T07:56:10.104Z</time>
      </trkpt>
      <trkpt lat="48.40666" lon="2.50672">
        <ele>82</ele>
        <time>2022-04-27T07:56:14.110Z</time>
      </trkpt>
      <trkpt lat="48.40671" lon="2.50665">
        <ele>82</ele>
        <time>2022-04-27T07:56:19.103Z</time>
      </trkpt>
      <trkpt lat="48.40675" lon="2.5066">
        <ele>82</ele>
        <time>2022-04-27T07:56:23.105Z</time>
      </trkpt>
      <trkpt lat="48.40679" lon="2.50655">
        <ele>82</ele>
        <time>2022-04-27T07:56:27.117Z</time>
      </trkpt>
      <trkpt lat="48.40685" lon="2.50649">
        <ele>81</ele>
        <time>2022-04-27T07:56:32.110Z</time>
      </trkpt>
      <trkpt lat="48.4069" lon="2.50642">
        <ele>81</ele>
        <time>2022-04-27T07:56:37.114Z</time>
      </trkpt>
      <trkpt lat="48.40695" lon="2.50637">
        <ele>81</ele>
        <time>2022-04-27T07:56:42.111Z</time>
      </trkpt>
      <trkpt lat="48.40699" lon="2.50633">
        <ele>81</ele>
        <time>2022-04-27T07:56:46.120Z</time>
      </trkpt>
      <trkpt lat="48.40704" lon="2.50627">
        <ele>81</ele>
        <time>2022-04-27T07:56:51.114Z</time>
      </trkpt>
      <trkpt lat="48.40709" lon="2.50621">
        <ele>81</ele>
        <time>2022-04-27T07:56:56.110Z</time>
      </trkpt>
      <trkpt lat="48.40714" lon="2.50616">
        <ele>81</ele>
        <time>2022-04-27T07:57:01.114Z</time>
      </trkpt>
      <trkpt lat="48.40719" lon="2.5061">
        <ele>81</ele>
        <time>2022-04-27T07:57:06.106Z</time>
      </trkpt>
      <trkpt lat="48.40723" lon="2.50605">
        <ele>81</ele>
        <time>2022-04-27T07:57:11.114Z</time>
      </trkpt>
      <trkpt lat="48.40727" lon="2.506">
        <ele>81</ele>
        <time>2022-04-27T07:57:15.117Z</time>
      </trkpt>
      <trkpt lat="48.40732" lon="2.50593">
        <ele>81</ele>
        <time>2022-04-27T07:57:20.116Z</time>
      </trkpt>
      <trkpt lat="48.40736" lon="2.50588">
        <ele>80</ele>
        <time>2022-04-27T07:57:25.127Z</time>
      </trkpt>
      <trkpt lat="48.40741" lon="2.50585">
        <ele>80</ele>
        <time>2022-04-27T07:57:30.107Z</time>
      </trkpt>
      <trkpt lat="48.40746" lon="2.50581">
        <ele>80</ele>
        <time>2022-04-27T07:57:34.110Z</time>
      </trkpt>
      <trkpt lat="48.40749" lon="2.50577">
        <ele>80</ele>
        <time>2022-04-27T07:57:38.114Z</time>
      </trkpt>
      <trkpt lat="48.40753" lon="2.50571">
        <ele>80</ele>
        <time>2022-04-27T07:57:43.111Z</time>
      </trkpt>
      <trkpt lat="48.40758" lon="2.50566">
        <ele>80</ele>
        <time>2022-04-27T07:57:48.116Z</time>
      </trkpt>
      <trkpt lat="48.40761" lon="2.50562">
        <ele>80</ele>
        <time>2022-04-27T07:57:51.111Z</time>
      </trkpt>
      <trkpt lat="48.40767" lon="2.50554">
        <ele>81</ele>
        <time>2022-04-27T07:57:58.115Z</time>
      </trkpt>
      <trkpt lat="48.40772" lon="2.50547">
        <ele>81</ele>
        <time>2022-04-27T07:58:03.105Z</time>
      </trkpt>
      <trkpt lat="48.40777" lon="2.5054">
        <ele>81</ele>
        <time>2022-04-27T07:58:08.117Z</time>
      </trkpt>
      <trkpt lat="48.40783" lon="2.50535">
        <ele>81</ele>
        <time>2022-04-27T07:58:13.109Z</time>
      </trkpt>
      <trkpt lat="48.40786" lon="2.5053">
        <ele>81</ele>
        <time>2022-04-27T07:58:17.114Z</time>
      </trkpt>
      <trkpt lat="48.40791" lon="2.50523">
        <ele>81</ele>
        <time>2022-04-27T07:58:22.112Z</time>
      </trkpt>
      <trkpt lat="48.40795" lon="2.50518">
        <ele>81</ele>
        <time>2022-04-27T07:58:26.115Z</time>
      </trkpt>
      <trkpt lat="48.40799" lon="2.50513">
        <ele>81</ele>
        <time>2022-04-27T07:58:30.118Z</time>
      </trkpt>
      <trkpt lat="48.40805" lon="2.50511">
        <ele>81</ele>
        <time>2022-04-27T07:58:35.108Z</time>
      </trkpt>
      <trkpt lat="48.40811" lon="2.50506">
        <ele>81</ele>
        <time>2022-04-27T07:58:40.113Z</time>
      </trkpt>
      <trkpt lat="48.40817" lon="2.50501">
        <ele>81</ele>
        <time>2022-04-27T07:58:45.106Z</time>
      </trkpt>
      <trkpt lat="48.40821" lon="2.50496">
        <ele>80</ele>
        <time>2022-04-27T07:58:49.115Z</time>
      </trkpt>
      <trkpt lat="48.40826" lon="2.50489">
        <ele>80</ele>
        <time>2022-04-27T07:58:54.107Z</time>
      </trkpt>
      <trkpt lat="48.40831" lon="2.50482">
        <ele>80</ele>
        <time>2022-04-27T07:58:59.115Z</time>
      </trkpt>
      <trkpt lat="48.40835" lon="2.50477">
        <ele>80</ele>
        <time>2022-04-27T07:59:04.108Z</time>
      </trkpt>
      <trkpt lat="48.4084" lon="2.50471">
        <ele>80</ele>
        <time>2022-04-27T07:59:09.111Z</time>
      </trkpt>
      <trkpt lat="48.40845" lon="2.50466">
        <ele>80</ele>
        <time>2022-04-27T07:59:13.116Z</time>
      </trkpt>
      <trkpt lat="48.4085" lon="2.50459">
        <ele>80</ele>
        <time>2022-04-27T07:59:18.117Z</time>
      </trkpt>
      <trkpt lat="48.40856" lon="2.50453">
        <ele>81</ele>
        <time>2022-04-27T07:59:23.115Z</time>
      </trkpt>
      <trkpt lat="48.40861" lon="2.50448">
        <ele>81</ele>
        <time>2022-04-27T07:59:28.114Z</time>
      </trkpt>
      <trkpt lat="48.40866" lon="2.50443">
        <ele>81</ele>
        <time>2022-04-27T07:59:33.113Z</time>
      </trkpt>
      <trkpt lat="48.40871" lon="2.50438">
        <ele>81</ele>
        <time>2022-04-27T07:59:38.114Z</time>
      </trkpt>
      <trkpt lat="48.40877" lon="2.50432">
        <ele>80</ele>
        <time>2022-04-27T07:59:43.105Z</time>
      </trkpt>
      <trkpt lat="48.40882" lon="2.50428">
        <ele>81</ele>
        <time>2022-04-27T07:59:48.109Z</time>
      </trkpt>
      <trkpt lat="48.40887" lon="2.50424">
        <ele>81</ele>
        <time>2022-04-27T07:59:53.109Z</time>
      </trkpt>
      <trkpt lat="48.40893" lon="2.50419">
        <ele>81</ele>
        <time>2022-04-27T07:59:58.106Z</time>
      </trkpt>
      <trkpt lat="48.40898" lon="2.50415">
        <ele>81</ele>
        <time>2022-04-27T08:00:03.111Z</time>
      </trkpt>
      <trkpt lat="48.40904" lon="2.50411">
        <ele>81</ele>
        <time>2022-04-27T08:00:08.110Z</time>
      </trkpt>
      <trkpt lat="48.40908" lon="2.50407">
        <ele>81</ele>
        <time>2022-04-27T08:00:12.102Z</time>
      </trkpt>
      <trkpt lat="48.40914" lon="2.50402">
        <ele>81</ele>
        <time>2022-04-27T08:00:17.103Z</time>
      </trkpt>
      <trkpt lat="48.40918" lon="2.50398">
        <ele>81</ele>
        <time>2022-04-27T08:00:21.107Z</time>
      </trkpt>
      <trkpt lat="48.40923" lon="2.50393">
        <ele>81</ele>
        <time>2022-04-27T08:00:26.113Z</time>
      </trkpt>
      <trkpt lat="48.40927" lon="2.50387">
        <ele>81</ele>
        <time>2022-04-27T08:00:31.106Z</time>
      </trkpt>
      <trkpt lat="48.40933" lon="2.50385">
        <ele>81</ele>
        <time>2022-04-27T08:00:36.111Z</time>
      </trkpt>
      <trkpt lat="48.40938" lon="2.5038">
        <ele>81</ele>
        <time>2022-04-27T08:00:41.108Z</time>
      </trkpt>
      <trkpt lat="48.40944" lon="2.50373">
        <ele>82</ele>
        <time>2022-04-27T08:00:46.108Z</time>
      </trkpt>
      <trkpt lat="48.40948" lon="2.50365">
        <ele>82</ele>
        <time>2022-04-27T08:00:51.114Z</time>
      </trkpt>
      <trkpt lat="48.4095" lon="2.50356">
        <ele>82</ele>
        <time>2022-04-27T08:00:56.108Z</time>
      </trkpt>
      <trkpt lat="48.40952" lon="2.50348">
        <ele>82</ele>
        <time>2022-04-27T08:01:01.106Z</time>
      </trkpt>
      <trkpt lat="48.40953" lon="2.5034">
        <ele>82</ele>
        <time>2022-04-27T08:01:05.111Z</time>
      </trkpt>
      <trkpt lat="48.40955" lon="2.50331">
        <ele>82</ele>
        <time>2022-04-27T08:01:10.104Z</time>
      </trkpt>
      <trkpt lat="48.40956" lon="2.50322">
        <ele>82</ele>
        <time>2022-04-27T08:01:15.114Z</time>
      </trkpt>
      <trkpt lat="48.40956" lon="2.50312">
        <ele>83</ele>
        <time>2022-04-27T08:01:20.114Z</time>
      </trkpt>
      <trkpt lat="48.40958" lon="2.50303">
        <ele>83</ele>
        <time>2022-04-27T08:01:25.105Z</time>
      </trkpt>
      <trkpt lat="48.40959" lon="2.50295">
        <ele>82</ele>
        <time>2022-04-27T08:01:29.111Z</time>
      </trkpt>
      <trkpt lat="48.4096" lon="2.50286">
        <ele>83</ele>
        <time>2022-04-27T08:01:34.122Z</time>
      </trkpt>
      <trkpt lat="48.40961" lon="2.50277">
        <ele>83</ele>
        <time>2022-04-27T08:01:39.112Z</time>
      </trkpt>
      <trkpt lat="48.40962" lon="2.50268">
        <ele>83</ele>
        <time>2022-04-27T08:01:44.104Z</time>
      </trkpt>
      <trkpt lat="48.40964" lon="2.50259">
        <ele>83</ele>
        <time>2022-04-27T08:01:49.112Z</time>
      </trkpt>
      <trkpt lat="48.40965" lon="2.50249">
        <ele>83</ele>
        <time>2022-04-27T08:01:54.110Z</time>
      </trkpt>
      <trkpt lat="48.40966" lon="2.50239">
        <ele>83</ele>
        <time>2022-04-27T08:01:59.104Z</time>
      </trkpt>
      <trkpt lat="48.40967" lon="2.50231">
        <ele>85</ele>
        <time>2022-04-27T08:02:03.103Z</time>
      </trkpt>
      <trkpt lat="48.40969" lon="2.50222">
        <ele>85</ele>
        <time>2022-04-27T08:02:08.105Z</time>
      </trkpt>
      <trkpt lat="48.4097" lon="2.50211">
        <ele>85</ele>
        <time>2022-04-27T08:02:13.105Z</time>
      </trkpt>
      <trkpt lat="48.40971" lon="2.50202">
        <ele>87</ele>
        <time>2022-04-27T08:02:17.118Z</time>
      </trkpt>
      <trkpt lat="48.40973" lon="2.50192">
        <ele>87</ele>
        <time>2022-04-27T08:02:22.111Z</time>
      </trkpt>
      <trkpt lat="48.40975" lon="2.50182">
        <ele>87</ele>
        <time>2022-04-27T08:02:27.208Z</time>
      </trkpt>
      <trkpt lat="48.40977" lon="2.50175">
        <ele>88</ele>
        <time>2022-04-27T08:02:32.118Z</time>
      </trkpt>
      <trkpt lat="48.40978" lon="2.50167">
        <ele>88</ele>
        <time>2022-04-27T08:02:36.121Z</time>
      </trkpt>
      <trkpt lat="48.40978" lon="2.50156">
        <ele>88</ele>
        <time>2022-04-27T08:02:41.103Z</time>
      </trkpt>
      <trkpt lat="48.40979" lon="2.50148">
        <ele>89</ele>
        <time>2022-04-27T08:02:45.113Z</time>
      </trkpt>
      <trkpt lat="48.40979" lon="2.50138">
        <ele>89</ele>
        <time>2022-04-27T08:02:50.103Z</time>
      </trkpt>
      <trkpt lat="48.4098" lon="2.50131">
        <ele>89</ele>
        <time>2022-04-27T08:02:54.104Z</time>
      </trkpt>
      <trkpt lat="48.40981" lon="2.50124">
        <ele>89</ele>
        <time>2022-04-27T08:02:58.111Z</time>
      </trkpt>
      <trkpt lat="48.40981" lon="2.50116">
        <ele>89</ele>
        <time>2022-04-27T08:03:02.119Z</time>
      </trkpt>
      <trkpt lat="48.40981" lon="2.50106">
        <ele>89</ele>
        <time>2022-04-27T08:03:07.102Z</time>
      </trkpt>
      <trkpt lat="48.40981" lon="2.50098">
        <ele>89</ele>
        <time>2022-04-27T08:03:11.116Z</time>
      </trkpt>
      <trkpt lat="48.40981" lon="2.50088">
        <ele>89</ele>
        <time>2022-04-27T08:03:16.113Z</time>
      </trkpt>
      <trkpt lat="48.40982" lon="2.50078">
        <ele>89</ele>
        <time>2022-04-27T08:03:21.106Z</time>
      </trkpt>
      <trkpt lat="48.40983" lon="2.50072">
        <ele>89</ele>
        <time>2022-04-27T08:03:25.110Z</time>
      </trkpt>
      <trkpt lat="48.40982" lon="2.50063">
        <ele>89</ele>
        <time>2022-04-27T08:03:30.110Z</time>
      </trkpt>
      <trkpt lat="48.40982" lon="2.50057">
        <ele>89</ele>
        <time>2022-04-27T08:03:34.113Z</time>
      </trkpt>
      <trkpt lat="48.40983" lon="2.50047">
        <ele>89</ele>
        <time>2022-04-27T08:03:39.114Z</time>
      </trkpt>
      <trkpt lat="48.40986" lon="2.50038">
        <ele>88</ele>
        <time>2022-04-27T08:03:44.107Z</time>
      </trkpt>
      <trkpt lat="48.40988" lon="2.50029">
        <ele>87</ele>
        <time>2022-04-27T08:03:49.106Z</time>
      </trkpt>
      <trkpt lat="48.40992" lon="2.5002">
        <ele>87</ele>
        <time>2022-04-27T08:03:54.106Z</time>
      </trkpt>
      <trkpt lat="48.40994" lon="2.50011">
        <ele>87</ele>
        <time>2022-04-27T08:03:59.108Z</time>
      </trkpt>
      <trkpt lat="48.40997" lon="2.50003">
        <ele>87</ele>
        <time>2022-04-27T08:04:04.107Z</time>
      </trkpt>
      <trkpt lat="48.40999" lon="2.49994">
        <ele>87</ele>
        <time>2022-04-27T08:04:08.112Z</time>
      </trkpt>
      <trkpt lat="48.41002" lon="2.49985">
        <ele>88</ele>
        <time>2022-04-27T08:04:13.105Z</time>
      </trkpt>
      <trkpt lat="48.41003" lon="2.49975">
        <ele>88</ele>
        <time>2022-04-27T08:04:18.109Z</time>
      </trkpt>
      <trkpt lat="48.41006" lon="2.49968">
        <ele>88</ele>
        <time>2022-04-27T08:04:22.109Z</time>
      </trkpt>
      <trkpt lat="48.41012" lon="2.4996">
        <ele>88</ele>
        <time>2022-04-27T08:04:27.109Z</time>
      </trkpt>
      <trkpt lat="48.41015" lon="2.49954">
        <ele>88</ele>
        <time>2022-04-27T08:04:31.119Z</time>
      </trkpt>
      <trkpt lat="48.41019" lon="2.49946">
        <ele>88</ele>
        <time>2022-04-27T08:04:36.119Z</time>
      </trkpt>
      <trkpt lat="48.41022" lon="2.49939">
        <ele>88</ele>
        <time>2022-04-27T08:04:40.120Z</time>
      </trkpt>
      <trkpt lat="48.41026" lon="2.49929">
        <ele>89</ele>
        <time>2022-04-27T08:04:45.109Z</time>
      </trkpt>
      <trkpt lat="48.41029" lon="2.49921">
        <ele>89</ele>
        <time>2022-04-27T08:04:50.112Z</time>
      </trkpt>
      <trkpt lat="48.41032" lon="2.49916">
        <ele>89</ele>
        <time>2022-04-27T08:04:54.110Z</time>
      </trkpt>
      <trkpt lat="48.41038" lon="2.4991">
        <ele>89</ele>
        <time>2022-04-27T08:04:59.106Z</time>
      </trkpt>
      <trkpt lat="48.41044" lon="2.49904">
        <ele>88</ele>
        <time>2022-04-27T08:05:04.109Z</time>
      </trkpt>
      <trkpt lat="48.4105" lon="2.49901">
        <ele>88</ele>
        <time>2022-04-27T08:05:09.102Z</time>
      </trkpt>
      <trkpt lat="48.41055" lon="2.49899">
        <ele>88</ele>
        <time>2022-04-27T08:05:13.110Z</time>
      </trkpt>
      <trkpt lat="48.41062" lon="2.49898">
        <ele>88</ele>
        <time>2022-04-27T08:05:18.105Z</time>
      </trkpt>
      <trkpt lat="48.41069" lon="2.49895">
        <ele>88</ele>
        <time>2022-04-27T08:05:23.103Z</time>
      </trkpt>
      <trkpt lat="48.41074" lon="2.49892">
        <ele>88</ele>
        <time>2022-04-27T08:05:27.111Z</time>
      </trkpt>
      <trkpt lat="48.41081" lon="2.4989">
        <ele>88</ele>
        <time>2022-04-27T08:05:32.111Z</time>
      </trkpt>
      <trkpt lat="48.41087" lon="2.49887">
        <ele>88</ele>
        <time>2022-04-27T08:05:37.109Z</time>
      </trkpt>
      <trkpt lat="48.41094" lon="2.49884">
        <ele>88</ele>
        <time>2022-04-27T08:05:42.103Z</time>
      </trkpt>
      <trkpt lat="48.41099" lon="2.4988">
        <ele>87</ele>
        <time>2022-04-27T08:05:47.104Z</time>
      </trkpt>
      <trkpt lat="48.41105" lon="2.49878">
        <ele>87</ele>
        <time>2022-04-27T08:05:51.109Z</time>
      </trkpt>
      <trkpt lat="48.41111" lon="2.49874">
        <ele>88</ele>
        <time>2022-04-27T08:05:56.110Z</time>
      </trkpt>
      <trkpt lat="48.41117" lon="2.49871">
        <ele>88</ele>
        <time>2022-04-27T08:06:01.103Z</time>
      </trkpt>
      <trkpt lat="48.41125" lon="2.49867">
        <ele>88</ele>
        <time>2022-04-27T08:06:06.104Z</time>
      </trkpt>
      <trkpt lat="48.41131" lon="2.49864">
        <ele>88</ele>
        <time>2022-04-27T08:06:10.111Z</time>
      </trkpt>
      <trkpt lat="48.41137" lon="2.49861">
        <ele>88</ele>
        <time>2022-04-27T08:06:15.102Z</time>
      </trkpt>
      <trkpt lat="48.41143" lon="2.49859">
        <ele>88</ele>
        <time>2022-04-27T08:06:20.104Z</time>
      </trkpt>
      <trkpt lat="48.41149" lon="2.49855">
        <ele>88</ele>
        <time>2022-04-27T08:06:25.104Z</time>
      </trkpt>
      <trkpt lat="48.41154" lon="2.49851">
        <ele>89</ele>
        <time>2022-04-27T08:06:29.109Z</time>
      </trkpt>
      <trkpt lat="48.4116" lon="2.49847">
        <ele>91</ele>
        <time>2022-04-27T08:06:34.110Z</time>
      </trkpt>
      <trkpt lat="48.41166" lon="2.49843">
        <ele>91</ele>
        <time>2022-04-27T08:06:39.105Z</time>
      </trkpt>
      <trkpt lat="48.41172" lon="2.49841">
        <ele>91</ele>
        <time>2022-04-27T08:06:44.105Z</time>
      </trkpt>
      <trkpt lat="48.4118" lon="2.49838">
        <ele>91</ele>
        <time>2022-04-27T08:06:49.111Z</time>
      </trkpt>
      <trkpt lat="48.41186" lon="2.49838">
        <ele>91</ele>
        <time>2022-04-27T08:06:54.108Z</time>
      </trkpt>
      <trkpt lat="48.41192" lon="2.4984">
        <ele>91</ele>
        <time>2022-04-27T08:06:59.104Z</time>
      </trkpt>
      <trkpt lat="48.41198" lon="2.49842">
        <ele>91</ele>
        <time>2022-04-27T08:07:03.111Z</time>
      </trkpt>
      <trkpt lat="48.41205" lon="2.49844">
        <ele>91</ele>
        <time>2022-04-27T08:07:08.111Z</time>
      </trkpt>
      <trkpt lat="48.41212" lon="2.49846">
        <ele>90</ele>
        <time>2022-04-27T08:07:13.104Z</time>
      </trkpt>
      <trkpt lat="48.41218" lon="2.49848">
        <ele>89</ele>
        <time>2022-04-27T08:07:18.104Z</time>
      </trkpt>
      <trkpt lat="48.41224" lon="2.4985">
        <ele>89</ele>
        <time>2022-04-27T08:07:22.111Z</time>
      </trkpt>
      <trkpt lat="48.4123" lon="2.49851">
        <ele>89</ele>
        <time>2022-04-27T08:07:26.112Z</time>
      </trkpt>
      <trkpt lat="48.41237" lon="2.4985">
        <ele>90</ele>
        <time>2022-04-27T08:07:31.107Z</time>
      </trkpt>
      <trkpt lat="48.41245" lon="2.4985">
        <ele>90</ele>
        <time>2022-04-27T08:07:36.105Z</time>
      </trkpt>
      <trkpt lat="48.41251" lon="2.4985">
        <ele>90</ele>
        <time>2022-04-27T08:07:41.106Z</time>
      </trkpt>
      <trkpt lat="48.41257" lon="2.49851">
        <ele>90</ele>
        <time>2022-04-27T08:07:46.106Z</time>
      </trkpt>
      <trkpt lat="48.41264" lon="2.49853">
        <ele>90</ele>
        <time>2022-04-27T08:07:51.101Z</time>
      </trkpt>
      <trkpt lat="48.41269" lon="2.49856">
        <ele>92</ele>
        <time>2022-04-27T08:07:55.111Z</time>
      </trkpt>
      <trkpt lat="48.41276" lon="2.4986">
        <ele>92</ele>
        <time>2022-04-27T08:08:00.104Z</time>
      </trkpt>
      <trkpt lat="48.41281" lon="2.49864">
        <ele>92</ele>
        <time>2022-04-27T08:08:04.107Z</time>
      </trkpt>
      <trkpt lat="48.41287" lon="2.49868">
        <ele>92</ele>
        <time>2022-04-27T08:08:09.102Z</time>
      </trkpt>
      <trkpt lat="48.41292" lon="2.49871">
        <ele>93</ele>
        <time>2022-04-27T08:08:13.110Z</time>
      </trkpt>
      <trkpt lat="48.41299" lon="2.49876">
        <ele>91</ele>
        <time>2022-04-27T08:08:18.106Z</time>
      </trkpt>
      <trkpt lat="48.41306" lon="2.49881">
        <ele>91</ele>
        <time>2022-04-27T08:08:23.106Z</time>
      </trkpt>
      <trkpt lat="48.41312" lon="2.49885">
        <ele>91</ele>
        <time>2022-04-27T08:08:28.104Z</time>
      </trkpt>
      <trkpt lat="48.41318" lon="2.4989">
        <ele>91</ele>
        <time>2022-04-27T08:08:33.103Z</time>
      </trkpt>
      <trkpt lat="48.41323" lon="2.49895">
        <ele>92</ele>
        <time>2022-04-27T08:08:37.108Z</time>
      </trkpt>
      <trkpt lat="48.41328" lon="2.499">
        <ele>92</ele>
        <time>2022-04-27T08:08:42.105Z</time>
      </trkpt>
      <trkpt lat="48.41334" lon="2.49907">
        <ele>89</ele>
        <time>2022-04-27T08:08:47.105Z</time>
      </trkpt>
      <trkpt lat="48.41338" lon="2.49913">
        <ele>89</ele>
        <time>2022-04-27T08:08:51.107Z</time>
      </trkpt>
      <trkpt lat="48.41344" lon="2.49919">
        <ele>89</ele>
        <time>2022-04-27T08:08:56.107Z</time>
      </trkpt>
      <trkpt lat="48.41349" lon="2.49925">
        <ele>93</ele>
        <time>2022-04-27T08:09:01.104Z</time>
      </trkpt>
      <trkpt lat="48.41354" lon="2.4993">
        <ele>93</ele>
        <time>2022-04-27T08:09:06.110Z</time>
      </trkpt>
      <trkpt lat="48.4136" lon="2.49934">
        <ele>90</ele>
        <time>2022-04-27T08:09:11.105Z</time>
      </trkpt>
      <trkpt lat="48.41365" lon="2.49939">
        <ele>90</ele>
        <time>2022-04-27T08:09:16.106Z</time>
      </trkpt>
      <trkpt lat="48.41371" lon="2.49944">
        <ele>90</ele>
        <time>2022-04-27T08:09:21.105Z</time>
      </trkpt>
      <trkpt lat="48.41376" lon="2.49948">
        <ele>93</ele>
        <time>2022-04-27T08:09:26.121Z</time>
      </trkpt>
      <trkpt lat="48.41382" lon="2.49951">
        <ele>93</ele>
        <time>2022-04-27T08:09:31.106Z</time>
      </trkpt>
      <trkpt lat="48.41388" lon="2.49955">
        <ele>93</ele>
        <time>2022-04-27T08:09:36.106Z</time>
      </trkpt>
      <trkpt lat="48.41393" lon="2.4996">
        <ele>92</ele>
        <time>2022-04-27T08:09:41.106Z</time>
      </trkpt>
      <trkpt lat="48.414" lon="2.49965">
        <ele>92</ele>
        <time>2022-04-27T08:09:46.112Z</time>
      </trkpt>
      <trkpt lat="48.41406" lon="2.49969">
        <ele>95</ele>
        <time>2022-04-27T08:09:51.105Z</time>
      </trkpt>
      <trkpt lat="48.41411" lon="2.49972">
        <ele>95</ele>
        <time>2022-04-27T08:09:55.105Z</time>
      </trkpt>
      <trkpt lat="48.41418" lon="2.49976">
        <ele>95</ele>
        <time>2022-04-27T08:10:00.106Z</time>
      </trkpt>
      <trkpt lat="48.41424" lon="2.49981">
        <ele>95</ele>
        <time>2022-04-27T08:10:05.110Z</time>
      </trkpt>
      <trkpt lat="48.41429" lon="2.49988">
        <ele>93</ele>
        <time>2022-04-27T08:10:10.104Z</time>
      </trkpt>
      <trkpt lat="48.41434" lon="2.49996">
        <ele>95</ele>
        <time>2022-04-27T08:10:15.120Z</time>
      </trkpt>
      <trkpt lat="48.41439" lon="2.50005">
        <ele>95</ele>
        <time>2022-04-27T08:10:20.109Z</time>
      </trkpt>
      <trkpt lat="48.41442" lon="2.50015">
        <ele>94</ele>
        <time>2022-04-27T08:10:25.212Z</time>
      </trkpt>
      <trkpt lat="48.41446" lon="2.50023">
        <ele>94</ele>
        <time>2022-04-27T08:10:30.109Z</time>
      </trkpt>
      <trkpt lat="48.4145" lon="2.50027">
        <ele>94</ele>
        <time>2022-04-27T08:10:34.115Z</time>
      </trkpt>
      <trkpt lat="48.41454" lon="2.50034">
        <ele>94</ele>
        <time>2022-04-27T08:10:39.108Z</time>
      </trkpt>
      <trkpt lat="48.41457" lon="2.50039">
        <ele>94</ele>
        <time>2022-04-27T08:10:43.110Z</time>
      </trkpt>
      <trkpt lat="48.41461" lon="2.50044">
        <ele>93</ele>
        <time>2022-04-27T08:10:48.110Z</time>
      </trkpt>
      <trkpt lat="48.41465" lon="2.50047">
        <ele>93</ele>
        <time>2022-04-27T08:10:52.115Z</time>
      </trkpt>
      <trkpt lat="48.4147" lon="2.50049">
        <ele>93</ele>
        <time>2022-04-27T08:10:57.103Z</time>
      </trkpt>
      <trkpt lat="48.41475" lon="2.50052">
        <ele>93</ele>
        <time>2022-04-27T08:11:02.116Z</time>
      </trkpt>
      <trkpt lat="48.41479" lon="2.50053">
        <ele>93</ele>
        <time>2022-04-27T08:11:06.119Z</time>
      </trkpt>
      <trkpt lat="48.41485" lon="2.50054">
        <ele>93</ele>
        <time>2022-04-27T08:11:11.112Z</time>
      </trkpt>
      <trkpt lat="48.4149" lon="2.50054">
        <ele>95</ele>
        <time>2022-04-27T08:11:15.117Z</time>
      </trkpt>
      <trkpt lat="48.41495" lon="2.50059">
        <ele>95</ele>
        <time>2022-04-27T08:11:20.108Z</time>
      </trkpt>
      <trkpt lat="48.415" lon="2.50065">
        <ele>95</ele>
        <time>2022-04-27T08:11:25.111Z</time>
      </trkpt>
      <trkpt lat="48.41504" lon="2.50068">
        <ele>95</ele>
        <time>2022-04-27T08:11:29.121Z</time>
      </trkpt>
      <trkpt lat="48.4151" lon="2.50071">
        <ele>94</ele>
        <time>2022-04-27T08:11:34.105Z</time>
      </trkpt>
      <trkpt lat="48.41514" lon="2.50075">
        <ele>98</ele>
        <time>2022-04-27T08:11:38.103Z</time>
      </trkpt>
      <trkpt lat="48.4152" lon="2.50074">
        <ele>98</ele>
        <time>2022-04-27T08:11:43.105Z</time>
      </trkpt>
      <trkpt lat="48.41525" lon="2.50073">
        <ele>98</ele>
        <time>2022-04-27T08:11:48.114Z</time>
      </trkpt>
      <trkpt lat="48.4153" lon="2.50076">
        <ele>98</ele>
        <time>2022-04-27T08:11:53.107Z</time>
      </trkpt>
      <trkpt lat="48.41534" lon="2.50075">
        <ele>98</ele>
        <time>2022-04-27T08:11:57.108Z</time>
      </trkpt>
      <trkpt lat="48.41538" lon="2.50073">
        <ele>98</ele>
        <time>2022-04-27T08:12:02.110Z</time>
      </trkpt>
      <trkpt lat="48.41542" lon="2.50074">
        <ele>102</ele>
        <time>2022-04-27T08:12:07.105Z</time>
      </trkpt>
      <trkpt lat="48.41546" lon="2.50075">
        <ele>102</ele>
        <time>2022-04-27T08:12:11.112Z</time>
      </trkpt>
      <trkpt lat="48.41551" lon="2.50079">
        <ele>102</ele>
        <time>2022-04-27T08:12:16.117Z</time>
      </trkpt>
      <trkpt lat="48.41555" lon="2.50076">
        <ele>102</ele>
        <time>2022-04-27T08:12:21.110Z</time>
      </trkpt>
      <trkpt lat="48.41558" lon="2.50075">
        <ele>102</ele>
        <time>2022-04-27T08:12:25.118Z</time>
      </trkpt>
      <trkpt lat="48.4156" lon="2.50074">
        <ele>102</ele>
        <time>2022-04-27T08:12:29.110Z</time>
      </trkpt>
      <trkpt lat="48.41564" lon="2.5007">
        <ele>102</ele>
        <time>2022-04-27T08:12:34.114Z</time>
      </trkpt>
      <trkpt lat="48.41569" lon="2.50074">
        <ele>102</ele>
        <time>2022-04-27T08:12:39.113Z</time>
      </trkpt>
      <trkpt lat="48.41573" lon="2.50073">
        <ele>105</ele>
        <time>2022-04-27T08:12:44.115Z</time>
      </trkpt>
      <trkpt lat="48.41578" lon="2.50073">
        <ele>105</ele>
        <time>2022-04-27T08:12:49.111Z</time>
      </trkpt>
      <trkpt lat="48.41582" lon="2.50075">
        <ele>105</ele>
        <time>2022-04-27T08:12:54.114Z</time>
      </trkpt>
      <trkpt lat="48.41583" lon="2.50079">
        <ele>105</ele>
        <time>2022-04-27T08:12:58.111Z</time>
      </trkpt>
      <trkpt lat="48.41587" lon="2.50083">
        <ele>105</ele>
        <time>2022-04-27T08:13:03.115Z</time>
      </trkpt>
      <trkpt lat="48.41592" lon="2.50082">
        <ele>105</ele>
        <time>2022-04-27T08:13:07.129Z</time>
      </trkpt>
      <trkpt lat="48.41598" lon="2.50079">
        <ele>109</ele>
        <time>2022-04-27T08:13:12.116Z</time>
      </trkpt>
      <trkpt lat="48.41602" lon="2.5008">
        <ele>109</ele>
        <time>2022-04-27T08:13:16.114Z</time>
      </trkpt>
      <trkpt lat="48.41606" lon="2.50082">
        <ele>109</ele>
        <time>2022-04-27T08:13:21.111Z</time>
      </trkpt>
      <trkpt lat="48.4161" lon="2.50082">
        <ele>109</ele>
        <time>2022-04-27T08:13:25.116Z</time>
      </trkpt>
      <trkpt lat="48.41611" lon="2.50081">
        <ele>109</ele>
        <time>2022-04-27T08:13:29.117Z</time>
      </trkpt>
      <trkpt lat="48.41616" lon="2.50072">
        <ele>109</ele>
        <time>2022-04-27T08:13:34.110Z</time>
      </trkpt>
      <trkpt lat="48.41618" lon="2.50071">
        <ele>109</ele>
        <time>2022-04-27T08:13:39.109Z</time>
      </trkpt>
      <trkpt lat="48.41621" lon="2.50074">
        <ele>109</ele>
        <time>2022-04-27T08:13:43.117Z</time>
      </trkpt>
      <trkpt lat="48.41626" lon="2.50076">
        <ele>114</ele>
        <time>2022-04-27T08:13:48.110Z</time>
      </trkpt>
      <trkpt lat="48.41629" lon="2.50076">
        <ele>114</ele>
        <time>2022-04-27T08:13:53.105Z</time>
      </trkpt>
      <trkpt lat="48.41631" lon="2.50077">
        <ele>114</ele>
        <time>2022-04-27T08:13:57.110Z</time>
      </trkpt>
      <trkpt lat="48.41635" lon="2.50076">
        <ele>114</ele>
        <time>2022-04-27T08:14:02.107Z</time>
      </trkpt>
      <trkpt lat="48.41637" lon="2.50074">
        <ele>114</ele>
        <time>2022-04-27T08:14:06.108Z</time>
      </trkpt>
      <trkpt lat="48.4164" lon="2.50076">
        <ele>114</ele>
        <time>2022-04-27T08:14:11.115Z</time>
      </trkpt>
      <trkpt lat="48.41642" lon="2.50082">
        <ele>114</ele>
        <time>2022-04-27T08:14:16.108Z</time>
      </trkpt>
      <trkpt lat="48.41646" lon="2.50087">
        <ele>114</ele>
        <time>2022-04-27T08:14:20.114Z</time>
      </trkpt>
      <trkpt lat="48.4165" lon="2.50088">
        <ele>114</ele>
        <time>2022-04-27T08:14:25.113Z</time>
      </trkpt>
      <trkpt lat="48.41654" lon="2.50092">
        <ele>119</ele>
        <time>2022-04-27T08:14:30.108Z</time>
      </trkpt>
      <trkpt lat="48.41656" lon="2.50097">
        <ele>119</ele>
        <time>2022-04-27T08:14:34.116Z</time>
      </trkpt>
      <trkpt lat="48.41659" lon="2.50102">
        <ele>121</ele>
        <time>2022-04-27T08:14:38.115Z</time>
      </trkpt>
      <trkpt lat="48.41661" lon="2.50106">
        <ele>121</ele>
        <time>2022-04-27T08:14:43.110Z</time>
      </trkpt>
      <trkpt lat="48.41663" lon="2.50108">
        <ele>121</ele>
        <time>2022-04-27T08:14:47.116Z</time>
      </trkpt>
      <trkpt lat="48.41667" lon="2.50108">
        <ele>121</ele>
        <time>2022-04-27T08:14:52.109Z</time>
      </trkpt>
      <trkpt lat="48.4167" lon="2.50112">
        <ele>121</ele>
        <time>2022-04-27T08:14:57.116Z</time>
      </trkpt>
      <trkpt lat="48.41671" lon="2.50118">
        <ele>121</ele>
        <time>2022-04-27T08:15:02.113Z</time>
      </trkpt>
      <trkpt lat="48.41672" lon="2.50122">
        <ele>121</ele>
        <time>2022-04-27T08:15:06.116Z</time>
      </trkpt>
      <trkpt lat="48.41675" lon="2.50126">
        <ele>123</ele>
        <time>2022-04-27T08:15:11.111Z</time>
      </trkpt>
      <trkpt lat="48.41678" lon="2.50128">
        <ele>123</ele>
        <time>2022-04-27T08:15:16.122Z</time>
      </trkpt>
      <trkpt lat="48.41682" lon="2.5013">
        <ele>127</ele>
        <time>2022-04-27T08:15:21.111Z</time>
      </trkpt>
      <trkpt lat="48.41686" lon="2.50137">
        <ele>127</ele>
        <time>2022-04-27T08:15:26.117Z</time>
      </trkpt>
      <trkpt lat="48.41688" lon="2.50142">
        <ele>127</ele>
        <time>2022-04-27T08:15:30.118Z</time>
      </trkpt>
      <trkpt lat="48.41694" lon="2.50158">
        <ele>128</ele>
        <time>2022-04-27T08:20:08.113Z</time>
      </trkpt>
      <trkpt lat="48.41696" lon="2.50157">
        <ele>128</ele>
        <time>2022-04-27T08:20:13.111Z</time>
      </trkpt>
      <trkpt lat="48.417" lon="2.50158">
        <ele>128</ele>
        <time>2022-04-27T08:20:18.115Z</time>
      </trkpt>
      <trkpt lat="48.41704" lon="2.50159">
        <ele>128</ele>
        <time>2022-04-27T08:20:23.115Z</time>
      </trkpt>
      <trkpt lat="48.41708" lon="2.50161">
        <ele>128</ele>
        <time>2022-04-27T08:20:28.101Z</time>
      </trkpt>
      <trkpt lat="48.41712" lon="2.50162">
        <ele>130</ele>
        <time>2022-04-27T08:20:32.111Z</time>
      </trkpt>
      <trkpt lat="48.41717" lon="2.50163">
        <ele>130</ele>
        <time>2022-04-27T08:20:36.116Z</time>
      </trkpt>
      <trkpt lat="48.41722" lon="2.50164">
        <ele>130</ele>
        <time>2022-04-27T08:20:41.112Z</time>
      </trkpt>
      <trkpt lat="48.41728" lon="2.50165">
        <ele>130</ele>
        <time>2022-04-27T08:20:46.119Z</time>
      </trkpt>
      <trkpt lat="48.41734" lon="2.50171">
        <ele>130</ele>
        <time>2022-04-27T08:20:51.111Z</time>
      </trkpt>
      <trkpt lat="48.41738" lon="2.50176">
        <ele>131</ele>
        <time>2022-04-27T08:20:55.127Z</time>
      </trkpt>
      <trkpt lat="48.41742" lon="2.50186">
        <ele>131</ele>
        <time>2022-04-27T08:21:00.113Z</time>
      </trkpt>
      <trkpt lat="48.41748" lon="2.50193">
        <ele>131</ele>
        <time>2022-04-27T08:21:05.108Z</time>
      </trkpt>
      <trkpt lat="48.41755" lon="2.50199">
        <ele>131</ele>
        <time>2022-04-27T08:21:10.103Z</time>
      </trkpt>
      <trkpt lat="48.41763" lon="2.50205">
        <ele>131</ele>
        <time>2022-04-27T08:21:15.114Z</time>
      </trkpt>
      <trkpt lat="48.41768" lon="2.50209">
        <ele>132</ele>
        <time>2022-04-27T08:21:19.112Z</time>
      </trkpt>
      <trkpt lat="48.41773" lon="2.50214">
        <ele>132</ele>
        <time>2022-04-27T08:21:24.109Z</time>
      </trkpt>
      <trkpt lat="48.41779" lon="2.50219">
        <ele>132</ele>
        <time>2022-04-27T08:21:29.112Z</time>
      </trkpt>
      <trkpt lat="48.41784" lon="2.50223">
        <ele>132</ele>
        <time>2022-04-27T08:21:33.111Z</time>
      </trkpt>
      <trkpt lat="48.41791" lon="2.50225">
        <ele>132</ele>
        <time>2022-04-27T08:21:38.121Z</time>
      </trkpt>
      <trkpt lat="48.41797" lon="2.50225">
        <ele>132</ele>
        <time>2022-04-27T08:21:43.114Z</time>
      </trkpt>
      <trkpt lat="48.41804" lon="2.50224">
        <ele>132</ele>
        <time>2022-04-27T08:21:48.114Z</time>
      </trkpt>
      <trkpt lat="48.41809" lon="2.50221">
        <ele>132</ele>
        <time>2022-04-27T08:21:52.113Z</time>
      </trkpt>
      <trkpt lat="48.41813" lon="2.50219">
        <ele>132</ele>
        <time>2022-04-27T08:21:56.114Z</time>
      </trkpt>
      <trkpt lat="48.41818" lon="2.50217">
        <ele>132</ele>
        <time>2022-04-27T08:22:01.113Z</time>
      </trkpt>
      <trkpt lat="48.41822" lon="2.50216">
        <ele>131</ele>
        <time>2022-04-27T08:22:05.111Z</time>
      </trkpt>
      <trkpt lat="48.41828" lon="2.50214">
        <ele>131</ele>
        <time>2022-04-27T08:22:10.118Z</time>
      </trkpt>
      <trkpt lat="48.41833" lon="2.50212">
        <ele>131</ele>
        <time>2022-04-27T08:22:15.112Z</time>
      </trkpt>
      <trkpt lat="48.4184" lon="2.50212">
        <ele>131</ele>
        <time>2022-04-27T08:22:20.109Z</time>
      </trkpt>
      <trkpt lat="48.41846" lon="2.50213">
        <ele>131</ele>
        <time>2022-04-27T08:22:25.115Z</time>
      </trkpt>
      <trkpt lat="48.41851" lon="2.50215">
        <ele>131</ele>
        <time>2022-04-27T08:22:29.120Z</time>
      </trkpt>
      <trkpt lat="48.41856" lon="2.50221">
        <ele>131</ele>
        <time>2022-04-27T08:22:34.113Z</time>
      </trkpt>
      <trkpt lat="48.41862" lon="2.50227">
        <ele>131</ele>
        <time>2022-04-27T08:22:39.120Z</time>
      </trkpt>
      <trkpt lat="48.41866" lon="2.50233">
        <ele>131</ele>
        <time>2022-04-27T08:22:44.115Z</time>
      </trkpt>
      <trkpt lat="48.41872" lon="2.5024">
        <ele>133</ele>
        <time>2022-04-27T08:22:49.117Z</time>
      </trkpt>
      <trkpt lat="48.41876" lon="2.50245">
        <ele>133</ele>
        <time>2022-04-27T08:22:53.114Z</time>
      </trkpt>
      <trkpt lat="48.4188" lon="2.50252">
        <ele>133</ele>
        <time>2022-04-27T08:22:58.112Z</time>
      </trkpt>
      <trkpt lat="48.41884" lon="2.50257">
        <ele>133</ele>
        <time>2022-04-27T08:23:02.115Z</time>
      </trkpt>
      <trkpt lat="48.41888" lon="2.50263">
        <ele>133</ele>
        <time>2022-04-27T08:23:07.111Z</time>
      </trkpt>
      <trkpt lat="48.41892" lon="2.50268">
        <ele>134</ele>
        <time>2022-04-27T08:23:11.117Z</time>
      </trkpt>
      <trkpt lat="48.41897" lon="2.50275">
        <ele>134</ele>
        <time>2022-04-27T08:23:16.114Z</time>
      </trkpt>
      <trkpt lat="48.41901" lon="2.50281">
        <ele>134</ele>
        <time>2022-04-27T08:23:20.118Z</time>
      </trkpt>
      <trkpt lat="48.41906" lon="2.50288">
        <ele>135</ele>
        <time>2022-04-27T08:23:25.119Z</time>
      </trkpt>
      <trkpt lat="48.41911" lon="2.50296">
        <ele>136</ele>
        <time>2022-04-27T08:23:30.114Z</time>
      </trkpt>
      <trkpt lat="48.41916" lon="2.50303">
        <ele>136</ele>
        <time>2022-04-27T08:23:35.118Z</time>
      </trkpt>
      <trkpt lat="48.41921" lon="2.50311">
        <ele>136</ele>
        <time>2022-04-27T08:23:40.106Z</time>
      </trkpt>
      <trkpt lat="48.41925" lon="2.50316">
        <ele>136</ele>
        <time>2022-04-27T08:23:44.105Z</time>
      </trkpt>
      <trkpt lat="48.41929" lon="2.50321">
        <ele>136</ele>
        <time>2022-04-27T08:23:49.102Z</time>
      </trkpt>
      <trkpt lat="48.41934" lon="2.50328">
        <ele>135</ele>
        <time>2022-04-27T08:23:54.114Z</time>
      </trkpt>
      <trkpt lat="48.41939" lon="2.50334">
        <ele>135</ele>
        <time>2022-04-27T08:23:59.107Z</time>
      </trkpt>
      <trkpt lat="48.41943" lon="2.5034">
        <ele>135</ele>
        <time>2022-04-27T08:24:03.110Z</time>
      </trkpt>
      <trkpt lat="48.41946" lon="2.50348">
        <ele>135</ele>
        <time>2022-04-27T08:24:08.114Z</time>
      </trkpt>
      <trkpt lat="48.41952" lon="2.50354">
        <ele>135</ele>
        <time>2022-04-27T08:24:13.116Z</time>
      </trkpt>
      <trkpt lat="48.41958" lon="2.50359">
        <ele>135</ele>
        <time>2022-04-27T08:24:18.108Z</time>
      </trkpt>
      <trkpt lat="48.41962" lon="2.50364">
        <ele>134</ele>
        <time>2022-04-27T08:24:22.114Z</time>
      </trkpt>
      <trkpt lat="48.41967" lon="2.50372">
        <ele>134</ele>
        <time>2022-04-27T08:24:27.111Z</time>
      </trkpt>
      <trkpt lat="48.4197" lon="2.50378">
        <ele>135</ele>
        <time>2022-04-27T08:24:31.110Z</time>
      </trkpt>
      <trkpt lat="48.41975" lon="2.50385">
        <ele>135</ele>
        <time>2022-04-27T08:24:36.119Z</time>
      </trkpt>
      <trkpt lat="48.41979" lon="2.5039">
        <ele>135</ele>
        <time>2022-04-27T08:24:40.114Z</time>
      </trkpt>
      <trkpt lat="48.41984" lon="2.50397">
        <ele>135</ele>
        <time>2022-04-27T08:24:45.109Z</time>
      </trkpt>
      <trkpt lat="48.41988" lon="2.50404">
        <ele>136</ele>
        <time>2022-04-27T08:24:50.116Z</time>
      </trkpt>
      <trkpt lat="48.41993" lon="2.50412">
        <ele>136</ele>
        <time>2022-04-27T08:24:55.101Z</time>
      </trkpt>
      <trkpt lat="48.41997" lon="2.50417">
        <ele>136</ele>
        <time>2022-04-27T08:24:59.104Z</time>
      </trkpt>
      <trkpt lat="48.42001" lon="2.50424">
        <ele>136</ele>
        <time>2022-04-27T08:25:04.104Z</time>
      </trkpt>
      <trkpt lat="48.42006" lon="2.5043">
        <ele>136</ele>
        <time>2022-04-27T08:25:09.117Z</time>
      </trkpt>
      <trkpt lat="48.42011" lon="2.50434">
        <ele>136</ele>
        <time>2022-04-27T08:25:14.111Z</time>
      </trkpt>
      <trkpt lat="48.42016" lon="2.50441">
        <ele>136</ele>
        <time>2022-04-27T08:25:19.114Z</time>
      </trkpt>
      <trkpt lat="48.4202" lon="2.50446">
        <ele>136</ele>
        <time>2022-04-27T08:25:23.118Z</time>
      </trkpt>
      <trkpt lat="48.42024" lon="2.50453">
        <ele>136</ele>
        <time>2022-04-27T08:25:28.109Z</time>
      </trkpt>
      <trkpt lat="48.4203" lon="2.50461">
        <ele>135</ele>
        <time>2022-04-27T08:25:33.120Z</time>
      </trkpt>
      <trkpt lat="48.42035" lon="2.50466">
        <ele>135</ele>
        <time>2022-04-27T08:25:38.113Z</time>
      </trkpt>
      <trkpt lat="48.42039" lon="2.50471">
        <ele>135</ele>
        <time>2022-04-27T08:25:42.118Z</time>
      </trkpt>
      <trkpt lat="48.42044" lon="2.50477">
        <ele>131</ele>
        <time>2022-04-27T08:25:47.111Z</time>
      </trkpt>
      <trkpt lat="48.4205" lon="2.50488">
        <ele>130</ele>
        <time>2022-04-27T08:25:52.112Z</time>
      </trkpt>
      <trkpt lat="48.42055" lon="2.50497">
        <ele>130</ele>
        <time>2022-04-27T08:25:57.118Z</time>
      </trkpt>
      <trkpt lat="48.42058" lon="2.50504">
        <ele>130</ele>
        <time>2022-04-27T08:26:01.116Z</time>
      </trkpt>
      <trkpt lat="48.42065" lon="2.50507">
        <ele>130</ele>
        <time>2022-04-27T08:26:06.110Z</time>
      </trkpt>
      <trkpt lat="48.42069" lon="2.50513">
        <ele>130</ele>
        <time>2022-04-27T08:26:11.118Z</time>
      </trkpt>
      <trkpt lat="48.42067" lon="2.50521">
        <ele>130</ele>
        <time>2022-04-27T08:26:16.110Z</time>
      </trkpt>
      <trkpt lat="48.42066" lon="2.50529">
        <ele>130</ele>
        <time>2022-04-27T08:26:21.106Z</time>
      </trkpt>
      <trkpt lat="48.42065" lon="2.50535">
        <ele>130</ele>
        <time>2022-04-27T08:26:25.111Z</time>
      </trkpt>
      <trkpt lat="48.42064" lon="2.50543">
        <ele>129</ele>
        <time>2022-04-27T08:26:30.112Z</time>
      </trkpt>
      <trkpt lat="48.42063" lon="2.50551">
        <ele>129</ele>
        <time>2022-04-27T08:26:34.114Z</time>
      </trkpt>
      <trkpt lat="48.42063" lon="2.5056">
        <ele>129</ele>
        <time>2022-04-27T08:26:39.111Z</time>
      </trkpt>
      <trkpt lat="48.42063" lon="2.50569">
        <ele>129</ele>
        <time>2022-04-27T08:26:44.115Z</time>
      </trkpt>
      <trkpt lat="48.42063" lon="2.50578">
        <ele>127</ele>
        <time>2022-04-27T08:26:49.115Z</time>
      </trkpt>
      <trkpt lat="48.42062" lon="2.50587">
        <ele>127</ele>
        <time>2022-04-27T08:26:54.118Z</time>
      </trkpt>
      <trkpt lat="48.42065" lon="2.50594">
        <ele>127</ele>
        <time>2022-04-27T08:26:59.115Z</time>
      </trkpt>
      <trkpt lat="48.42064" lon="2.506">
        <ele>126</ele>
        <time>2022-04-27T08:27:03.115Z</time>
      </trkpt>
      <trkpt lat="48.42062" lon="2.50608">
        <ele>126</ele>
        <time>2022-04-27T08:27:08.109Z</time>
      </trkpt>
      <trkpt lat="48.4206" lon="2.50616">
        <ele>126</ele>
        <time>2022-04-27T08:27:12.121Z</time>
      </trkpt>
      <trkpt lat="48.42058" lon="2.50624">
        <ele>126</ele>
        <time>2022-04-27T08:27:17.112Z</time>
      </trkpt>
      <trkpt lat="48.42055" lon="2.50632">
        <ele>126</ele>
        <time>2022-04-27T08:27:22.113Z</time>
      </trkpt>
      <trkpt lat="48.42052" lon="2.50639">
        <ele>126</ele>
        <time>2022-04-27T08:27:27.111Z</time>
      </trkpt>
      <trkpt lat="48.42049" lon="2.50645">
        <ele>126</ele>
        <time>2022-04-27T08:27:31.121Z</time>
      </trkpt>
      <trkpt lat="48.42048" lon="2.50655">
        <ele>125</ele>
        <time>2022-04-27T08:27:36.110Z</time>
      </trkpt>
      <trkpt lat="48.42049" lon="2.50666">
        <ele>125</ele>
        <time>2022-04-27T08:27:41.115Z</time>
      </trkpt>
      <trkpt lat="48.42053" lon="2.50674">
        <ele>125</ele>
        <time>2022-04-27T08:27:46.108Z</time>
      </trkpt>
      <trkpt lat="48.42057" lon="2.50677">
        <ele>125</ele>
        <time>2022-04-27T08:27:50.114Z</time>
      </trkpt>
      <trkpt lat="48.42062" lon="2.50678">
        <ele>125</ele>
        <time>2022-04-27T08:27:55.110Z</time>
      </trkpt>
      <trkpt lat="48.42067" lon="2.50678">
        <ele>125</ele>
        <time>2022-04-27T08:28:00.112Z</time>
      </trkpt>
      <trkpt lat="48.42072" lon="2.50678">
        <ele>122</ele>
        <time>2022-04-27T08:28:05.107Z</time>
      </trkpt>
      <trkpt lat="48.42077" lon="2.50678">
        <ele>122</ele>
        <time>2022-04-27T08:28:09.116Z</time>
      </trkpt>
      <trkpt lat="48.4208" lon="2.50681">
        <ele>121</ele>
        <time>2022-04-27T08:28:14.109Z</time>
      </trkpt>
      <trkpt lat="48.42082" lon="2.50684">
        <ele>121</ele>
        <time>2022-04-27T08:28:18.116Z</time>
      </trkpt>
      <trkpt lat="48.42085" lon="2.50685">
        <ele>121</ele>
        <time>2022-04-27T08:28:23.114Z</time>
      </trkpt>
      <trkpt lat="48.42088" lon="2.50688">
        <ele>121</ele>
        <time>2022-04-27T08:28:27.135Z</time>
      </trkpt>
      <trkpt lat="48.42092" lon="2.50689">
        <ele>121</ele>
        <time>2022-04-27T08:28:32.115Z</time>
      </trkpt>
      <trkpt lat="48.42096" lon="2.50686">
        <ele>121</ele>
        <time>2022-04-27T08:28:36.117Z</time>
      </trkpt>
      <trkpt lat="48.42098" lon="2.5069">
        <ele>115</ele>
        <time>2022-04-27T08:28:41.118Z</time>
      </trkpt>
      <trkpt lat="48.42102" lon="2.50692">
        <ele>115</ele>
        <time>2022-04-27T08:28:46.115Z</time>
      </trkpt>
      <trkpt lat="48.42105" lon="2.50692">
        <ele>115</ele>
        <time>2022-04-27T08:28:51.110Z</time>
      </trkpt>
      <trkpt lat="48.42108" lon="2.50692">
        <ele>115</ele>
        <time>2022-04-27T08:28:55.111Z</time>
      </trkpt>
      <trkpt lat="48.42112" lon="2.50691">
        <ele>115</ele>
        <time>2022-04-27T08:29:00.113Z</time>
      </trkpt>
      <trkpt lat="48.42117" lon="2.50689">
        <ele>115</ele>
        <time>2022-04-27T08:29:05.113Z</time>
      </trkpt>
      <trkpt lat="48.42121" lon="2.50684">
        <ele>115</ele>
        <time>2022-04-27T08:29:10.104Z</time>
      </trkpt>
      <trkpt lat="48.42124" lon="2.50681">
        <ele>115</ele>
        <time>2022-04-27T08:29:14.109Z</time>
      </trkpt>
      <trkpt lat="48.4213" lon="2.5068">
        <ele>107</ele>
        <time>2022-04-27T08:29:19.109Z</time>
      </trkpt>
      <trkpt lat="48.42134" lon="2.50678">
        <ele>107</ele>
        <time>2022-04-27T08:29:23.110Z</time>
      </trkpt>
      <trkpt lat="48.42138" lon="2.50677">
        <ele>107</ele>
        <time>2022-04-27T08:29:28.110Z</time>
      </trkpt>
      <trkpt lat="48.42142" lon="2.50679">
        <ele>107</ele>
        <time>2022-04-27T08:29:33.106Z</time>
      </trkpt>
      <trkpt lat="48.42145" lon="2.5068">
        <ele>107</ele>
        <time>2022-04-27T08:29:37.111Z</time>
      </trkpt>
      <trkpt lat="48.4215" lon="2.50677">
        <ele>107</ele>
        <time>2022-04-27T08:29:42.112Z</time>
      </trkpt>
      <trkpt lat="48.42154" lon="2.50676">
        <ele>102</ele>
        <time>2022-04-27T08:29:47.115Z</time>
      </trkpt>
      <trkpt lat="48.42159" lon="2.50676">
        <ele>102</ele>
        <time>2022-04-27T08:29:52.111Z</time>
      </trkpt>
      <trkpt lat="48.42168" lon="2.50673">
        <ele>102</ele>
        <time>2022-04-27T08:30:15.111Z</time>
      </trkpt>
      <trkpt lat="48.42169" lon="2.50672">
        <ele>102</ele>
        <time>2022-04-27T08:30:20.108Z</time>
      </trkpt>
      <trkpt lat="48.42174" lon="2.50669">
        <ele>102</ele>
        <time>2022-04-27T08:30:25.108Z</time>
      </trkpt>
      <trkpt lat="48.42177" lon="2.50665">
        <ele>102</ele>
        <time>2022-04-27T08:30:30.115Z</time>
      </trkpt>
      <trkpt lat="48.4218" lon="2.5066">
        <ele>102</ele>
        <time>2022-04-27T08:30:35.124Z</time>
      </trkpt>
      <trkpt lat="48.42185" lon="2.5066">
        <ele>101</ele>
        <time>2022-04-27T08:30:40.115Z</time>
      </trkpt>
      <trkpt lat="48.42188" lon="2.50654">
        <ele>101</ele>
        <time>2022-04-27T08:30:44.115Z</time>
      </trkpt>
      <trkpt lat="48.42191" lon="2.50648">
        <ele>102</ele>
        <time>2022-04-27T08:30:49.112Z</time>
      </trkpt>
      <trkpt lat="48.42195" lon="2.50647">
        <ele>102</ele>
        <time>2022-04-27T08:30:54.112Z</time>
      </trkpt>
      <trkpt lat="48.42199" lon="2.50648">
        <ele>102</ele>
        <time>2022-04-27T08:30:59.112Z</time>
      </trkpt>
      <trkpt lat="48.42202" lon="2.50647">
        <ele>102</ele>
        <time>2022-04-27T08:31:04.108Z</time>
      </trkpt>
      <trkpt lat="48.42207" lon="2.50644">
        <ele>102</ele>
        <time>2022-04-27T08:31:09.109Z</time>
      </trkpt>
      <trkpt lat="48.4221" lon="2.5064">
        <ele>101</ele>
        <time>2022-04-27T08:31:14.112Z</time>
      </trkpt>
      <trkpt lat="48.42214" lon="2.50639">
        <ele>101</ele>
        <time>2022-04-27T08:31:19.116Z</time>
      </trkpt>
      <trkpt lat="48.4222" lon="2.50639">
        <ele>101</ele>
        <time>2022-04-27T08:31:24.106Z</time>
      </trkpt>
      <trkpt lat="48.42223" lon="2.50642">
        <ele>101</ele>
        <time>2022-04-27T08:31:29.108Z</time>
      </trkpt>
      <trkpt lat="48.42225" lon="2.50645">
        <ele>101</ele>
        <time>2022-04-27T08:31:34.115Z</time>
      </trkpt>
      <trkpt lat="48.42226" lon="2.50644">
        <ele>101</ele>
        <time>2022-04-27T08:33:18.107Z</time>
      </trkpt>
      <trkpt lat="48.42227" lon="2.50645">
        <ele>101</ele>
        <time>2022-04-27T08:33:23.116Z</time>
      </trkpt>
      <trkpt lat="48.42228" lon="2.50646">
        <ele>101</ele>
        <time>2022-04-27T08:33:28.115Z</time>
      </trkpt>
      <trkpt lat="48.42233" lon="2.50645">
        <ele>101</ele>
        <time>2022-04-27T08:33:33.116Z</time>
      </trkpt>
      <trkpt lat="48.42238" lon="2.50646">
        <ele>98</ele>
        <time>2022-04-27T08:33:38.117Z</time>
      </trkpt>
      <trkpt lat="48.42242" lon="2.50648">
        <ele>98</ele>
        <time>2022-04-27T08:33:42.124Z</time>
      </trkpt>
      <trkpt lat="48.42246" lon="2.50651">
        <ele>98</ele>
        <time>2022-04-27T08:33:47.113Z</time>
      </trkpt>
      <trkpt lat="48.42247" lon="2.50654">
        <ele>97</ele>
        <time>2022-04-27T08:33:52.120Z</time>
      </trkpt>
      <trkpt lat="48.42246" lon="2.5066">
        <ele>97</ele>
        <time>2022-04-27T08:33:57.109Z</time>
      </trkpt>
      <trkpt lat="48.42246" lon="2.50664">
        <ele>97</ele>
        <time>2022-04-27T08:34:01.118Z</time>
      </trkpt>
      <trkpt lat="48.42244" lon="2.50671">
        <ele>97</ele>
        <time>2022-04-27T08:34:06.118Z</time>
      </trkpt>
      <trkpt lat="48.42241" lon="2.50678">
        <ele>97</ele>
        <time>2022-04-27T08:34:11.112Z</time>
      </trkpt>
      <trkpt lat="48.42239" lon="2.50685">
        <ele>95</ele>
        <time>2022-04-27T08:34:16.125Z</time>
      </trkpt>
      <trkpt lat="48.42237" lon="2.50694">
        <ele>95</ele>
        <time>2022-04-27T08:34:21.114Z</time>
      </trkpt>
      <trkpt lat="48.42236" lon="2.50701">
        <ele>95</ele>
        <time>2022-04-27T08:34:25.111Z</time>
      </trkpt>
      <trkpt lat="48.42233" lon="2.50709">
        <ele>95</ele>
        <time>2022-04-27T08:34:30.121Z</time>
      </trkpt>
      <trkpt lat="48.42231" lon="2.50719">
        <ele>95</ele>
        <time>2022-04-27T08:34:35.115Z</time>
      </trkpt>
      <trkpt lat="48.42229" lon="2.50728">
        <ele>95</ele>
        <time>2022-04-27T08:34:40.118Z</time>
      </trkpt>
      <trkpt lat="48.42227" lon="2.50737">
        <ele>93</ele>
        <time>2022-04-27T08:34:45.123Z</time>
      </trkpt>
      <trkpt lat="48.42225" lon="2.50747">
        <ele>93</ele>
        <time>2022-04-27T08:34:50.119Z</time>
      </trkpt>
      <trkpt lat="48.42224" lon="2.50757">
        <ele>93</ele>
        <time>2022-04-27T08:34:55.113Z</time>
      </trkpt>
      <trkpt lat="48.42223" lon="2.50765">
        <ele>91</ele>
        <time>2022-04-27T08:34:59.135Z</time>
      </trkpt>
      <trkpt lat="48.42222" lon="2.50775">
        <ele>91</ele>
        <time>2022-04-27T08:35:04.130Z</time>
      </trkpt>
      <trkpt lat="48.4222" lon="2.50782">
        <ele>91</ele>
        <time>2022-04-27T08:35:08.134Z</time>
      </trkpt>
      <trkpt lat="48.4222" lon="2.50789">
        <ele>91</ele>
        <time>2022-04-27T08:35:12.134Z</time>
      </trkpt>
      <trkpt lat="48.42218" lon="2.50798">
        <ele>90</ele>
        <time>2022-04-27T08:35:17.128Z</time>
      </trkpt>
      <trkpt lat="48.42218" lon="2.50808">
        <ele>90</ele>
        <time>2022-04-27T08:35:22.122Z</time>
      </trkpt>
      <trkpt lat="48.42217" lon="2.50819">
        <ele>90</ele>
        <time>2022-04-27T08:35:27.127Z</time>
      </trkpt>
      <trkpt lat="48.42217" lon="2.5083">
        <ele>90</ele>
        <time>2022-04-27T08:35:32.133Z</time>
      </trkpt>
      <trkpt lat="48.42217" lon="2.50841">
        <ele>90</ele>
        <time>2022-04-27T08:35:37.127Z</time>
      </trkpt>
      <trkpt lat="48.42216" lon="2.50851">
        <ele>90</ele>
        <time>2022-04-27T08:35:42.132Z</time>
      </trkpt>
      <trkpt lat="48.42216" lon="2.50861">
        <ele>90</ele>
        <time>2022-04-27T08:35:47.133Z</time>
      </trkpt>
      <trkpt lat="48.42215" lon="2.50872">
        <ele>90</ele>
        <time>2022-04-27T08:35:52.136Z</time>
      </trkpt>
      <trkpt lat="48.42212" lon="2.5088">
        <ele>87</ele>
        <time>2022-04-27T08:35:57.127Z</time>
      </trkpt>
      <trkpt lat="48.4221" lon="2.50888">
        <ele>87</ele>
        <time>2022-04-27T08:36:01.132Z</time>
      </trkpt>
      <trkpt lat="48.42208" lon="2.50898">
        <ele>91</ele>
        <time>2022-04-27T08:36:06.130Z</time>
      </trkpt>
      <trkpt lat="48.42207" lon="2.50909">
        <ele>90</ele>
        <time>2022-04-27T08:36:11.130Z</time>
      </trkpt>
      <trkpt lat="48.42206" lon="2.50917">
        <ele>90</ele>
        <time>2022-04-27T08:36:15.139Z</time>
      </trkpt>
      <trkpt lat="48.42205" lon="2.50925">
        <ele>90</ele>
        <time>2022-04-27T08:36:20.135Z</time>
      </trkpt>
      <trkpt lat="48.42203" lon="2.50933">
        <ele>89</ele>
        <time>2022-04-27T08:36:25.128Z</time>
      </trkpt>
      <trkpt lat="48.42201" lon="2.50942">
        <ele>89</ele>
        <time>2022-04-27T08:36:30.122Z</time>
      </trkpt>
      <trkpt lat="48.422" lon="2.50952">
        <ele>89</ele>
        <time>2022-04-27T08:36:35.127Z</time>
      </trkpt>
      <trkpt lat="48.422" lon="2.50961">
        <ele>87</ele>
        <time>2022-04-27T08:36:39.130Z</time>
      </trkpt>
      <trkpt lat="48.422" lon="2.50969">
        <ele>87</ele>
        <time>2022-04-27T08:36:43.141Z</time>
      </trkpt>
      <trkpt lat="48.42198" lon="2.50982">
        <ele>87</ele>
        <time>2022-04-27T08:36:48.133Z</time>
      </trkpt>
      <trkpt lat="48.42197" lon="2.50992">
        <ele>85</ele>
        <time>2022-04-27T08:36:53.140Z</time>
      </trkpt>
      <trkpt lat="48.42196" lon="2.51002">
        <ele>85</ele>
        <time>2022-04-27T08:36:58.131Z</time>
      </trkpt>
      <trkpt lat="48.42195" lon="2.51009">
        <ele>85</ele>
        <time>2022-04-27T08:37:02.137Z</time>
      </trkpt>
      <trkpt lat="48.42193" lon="2.51018">
        <ele>84</ele>
        <time>2022-04-27T08:37:07.126Z</time>
      </trkpt>
      <trkpt lat="48.42191" lon="2.51024">
        <ele>84</ele>
        <time>2022-04-27T08:37:11.136Z</time>
      </trkpt>
      <trkpt lat="48.42189" lon="2.51034">
        <ele>84</ele>
        <time>2022-04-27T08:37:16.127Z</time>
      </trkpt>
      <trkpt lat="48.42187" lon="2.51041">
        <ele>84</ele>
        <time>2022-04-27T08:37:20.133Z</time>
      </trkpt>
      <trkpt lat="48.42185" lon="2.51049">
        <ele>82</ele>
        <time>2022-04-27T08:37:25.135Z</time>
      </trkpt>
      <trkpt lat="48.42182" lon="2.51057">
        <ele>82</ele>
        <time>2022-04-27T08:37:30.128Z</time>
      </trkpt>
      <trkpt lat="48.42179" lon="2.51065">
        <ele>87</ele>
        <time>2022-04-27T08:37:35.132Z</time>
      </trkpt>
      <trkpt lat="48.42175" lon="2.51072">
        <ele>85</ele>
        <time>2022-04-27T08:37:40.129Z</time>
      </trkpt>
      <trkpt lat="48.42172" lon="2.51079">
        <ele>85</ele>
        <time>2022-04-27T08:37:45.135Z</time>
      </trkpt>
      <trkpt lat="48.42169" lon="2.51088">
        <ele>85</ele>
        <time>2022-04-27T08:37:50.132Z</time>
      </trkpt>
      <trkpt lat="48.42168" lon="2.51095">
        <ele>85</ele>
        <time>2022-04-27T08:37:54.146Z</time>
      </trkpt>
      <trkpt lat="48.42169" lon="2.51105">
        <ele>84</ele>
        <time>2022-04-27T08:37:59.127Z</time>
      </trkpt>
      <trkpt lat="48.42171" lon="2.51114">
        <ele>84</ele>
        <time>2022-04-27T08:38:04.122Z</time>
      </trkpt>
      <trkpt lat="48.42173" lon="2.51124">
        <ele>84</ele>
        <time>2022-04-27T08:38:09.129Z</time>
      </trkpt>
      <trkpt lat="48.42175" lon="2.5113">
        <ele>83</ele>
        <time>2022-04-27T08:38:13.141Z</time>
      </trkpt>
      <trkpt lat="48.42175" lon="2.51139">
        <ele>83</ele>
        <time>2022-04-27T08:38:18.124Z</time>
      </trkpt>
      <trkpt lat="48.42176" lon="2.51147">
        <ele>83</ele>
        <time>2022-04-27T08:38:22.143Z</time>
      </trkpt>
      <trkpt lat="48.42176" lon="2.51155">
        <ele>83</ele>
        <time>2022-04-27T08:38:27.132Z</time>
      </trkpt>
      <trkpt lat="48.42176" lon="2.51162">
        <ele>83</ele>
        <time>2022-04-27T08:38:31.140Z</time>
      </trkpt>
      <trkpt lat="48.42175" lon="2.5117">
        <ele>83</ele>
        <time>2022-04-27T08:38:36.132Z</time>
      </trkpt>
      <trkpt lat="48.42171" lon="2.51177">
        <ele>83</ele>
        <time>2022-04-27T08:38:41.123Z</time>
      </trkpt>
      <trkpt lat="48.42167" lon="2.51184">
        <ele>84</ele>
        <time>2022-04-27T08:38:46.128Z</time>
      </trkpt>
      <trkpt lat="48.42164" lon="2.51188">
        <ele>84</ele>
        <time>2022-04-27T08:38:50.135Z</time>
      </trkpt>
      <trkpt lat="48.42159" lon="2.51193">
        <ele>84</ele>
        <time>2022-04-27T08:38:55.124Z</time>
      </trkpt>
      <trkpt lat="48.42155" lon="2.51199">
        <ele>84</ele>
        <time>2022-04-27T08:39:00.136Z</time>
      </trkpt>
      <trkpt lat="48.42152" lon="2.51205">
        <ele>85</ele>
        <time>2022-04-27T08:39:04.144Z</time>
      </trkpt>
      <trkpt lat="48.42149" lon="2.51214">
        <ele>85</ele>
        <time>2022-04-27T08:39:09.137Z</time>
      </trkpt>
      <trkpt lat="48.42146" lon="2.51224">
        <ele>85</ele>
        <time>2022-04-27T08:39:14.146Z</time>
      </trkpt>
      <trkpt lat="48.42143" lon="2.51234">
        <ele>85</ele>
        <time>2022-04-27T08:39:19.136Z</time>
      </trkpt>
      <trkpt lat="48.42142" lon="2.51243">
        <ele>84</ele>
        <time>2022-04-27T08:39:24.134Z</time>
      </trkpt>
      <trkpt lat="48.42139" lon="2.51251">
        <ele>84</ele>
        <time>2022-04-27T08:39:29.134Z</time>
      </trkpt>
      <trkpt lat="48.42137" lon="2.51259">
        <ele>84</ele>
        <time>2022-04-27T08:39:34.131Z</time>
      </trkpt>
      <trkpt lat="48.42136" lon="2.51266">
        <ele>83</ele>
        <time>2022-04-27T08:39:38.136Z</time>
      </trkpt>
      <trkpt lat="48.42135" lon="2.51275">
        <ele>83</ele>
        <time>2022-04-27T08:39:43.138Z</time>
      </trkpt>
      <trkpt lat="48.42135" lon="2.51285">
        <ele>83</ele>
        <time>2022-04-27T08:39:48.127Z</time>
      </trkpt>
      <trkpt lat="48.42135" lon="2.51295">
        <ele>82</ele>
        <time>2022-04-27T08:39:53.125Z</time>
      </trkpt>
      <trkpt lat="48.42135" lon="2.51303">
        <ele>82</ele>
        <time>2022-04-27T08:39:57.138Z</time>
      </trkpt>
      <trkpt lat="48.42135" lon="2.51311">
        <ele>82</ele>
        <time>2022-04-27T08:40:01.141Z</time>
      </trkpt>
      <trkpt lat="48.42134" lon="2.5132">
        <ele>82</ele>
        <time>2022-04-27T08:40:06.131Z</time>
      </trkpt>
      <trkpt lat="48.42134" lon="2.51329">
        <ele>82</ele>
        <time>2022-04-27T08:40:11.124Z</time>
      </trkpt>
      <trkpt lat="48.42132" lon="2.51337">
        <ele>82</ele>
        <time>2022-04-27T08:40:16.118Z</time>
      </trkpt>
      <trkpt lat="48.42132" lon="2.51346">
        <ele>82</ele>
        <time>2022-04-27T08:40:21.139Z</time>
      </trkpt>
      <trkpt lat="48.42131" lon="2.51354">
        <ele>82</ele>
        <time>2022-04-27T08:40:26.123Z</time>
      </trkpt>
      <trkpt lat="48.4213" lon="2.51361">
        <ele>82</ele>
        <time>2022-04-27T08:40:30.131Z</time>
      </trkpt>
      <trkpt lat="48.4213" lon="2.51372">
        <ele>82</ele>
        <time>2022-04-27T08:40:35.124Z</time>
      </trkpt>
      <trkpt lat="48.4213" lon="2.5138">
        <ele>83</ele>
        <time>2022-04-27T08:40:39.129Z</time>
      </trkpt>
      <trkpt lat="48.4213" lon="2.51391">
        <ele>83</ele>
        <time>2022-04-27T08:40:44.128Z</time>
      </trkpt>
      <trkpt lat="48.4213" lon="2.514">
        <ele>83</ele>
        <time>2022-04-27T08:40:49.125Z</time>
      </trkpt>
      <trkpt lat="48.42129" lon="2.5141">
        <ele>84</ele>
        <time>2022-04-27T08:40:54.131Z</time>
      </trkpt>
      <trkpt lat="48.42127" lon="2.51418">
        <ele>84</ele>
        <time>2022-04-27T08:40:59.115Z</time>
      </trkpt>
      <trkpt lat="48.42125" lon="2.51426">
        <ele>84</ele>
        <time>2022-04-27T08:41:03.129Z</time>
      </trkpt>
      <trkpt lat="48.42121" lon="2.51434">
        <ele>83</ele>
        <time>2022-04-27T08:41:08.127Z</time>
      </trkpt>
      <trkpt lat="48.42116" lon="2.51439">
        <ele>83</ele>
        <time>2022-04-27T08:41:13.132Z</time>
      </trkpt>
      <trkpt lat="48.4211" lon="2.51443">
        <ele>83</ele>
        <time>2022-04-27T08:41:18.127Z</time>
      </trkpt>
      <trkpt lat="48.42105" lon="2.51446">
        <ele>83</ele>
        <time>2022-04-27T08:41:23.123Z</time>
      </trkpt>
      <trkpt lat="48.421" lon="2.51451">
        <ele>83</ele>
        <time>2022-04-27T08:41:27.132Z</time>
      </trkpt>
      <trkpt lat="48.42097" lon="2.51459">
        <ele>82</ele>
        <time>2022-04-27T08:41:32.138Z</time>
      </trkpt>
      <trkpt lat="48.42096" lon="2.51469">
        <ele>82</ele>
        <time>2022-04-27T08:41:37.122Z</time>
      </trkpt>
      <trkpt lat="48.42094" lon="2.51478">
        <ele>82</ele>
        <time>2022-04-27T08:41:41.128Z</time>
      </trkpt>
      <trkpt lat="48.42093" lon="2.51489">
        <ele>82</ele>
        <time>2022-04-27T08:41:46.134Z</time>
      </trkpt>
      <trkpt lat="48.42093" lon="2.51498">
        <ele>82</ele>
        <time>2022-04-27T08:41:51.125Z</time>
      </trkpt>
      <trkpt lat="48.42093" lon="2.51508">
        <ele>82</ele>
        <time>2022-04-27T08:41:56.116Z</time>
      </trkpt>
      <trkpt lat="48.42093" lon="2.51515">
        <ele>82</ele>
        <time>2022-04-27T08:42:00.130Z</time>
      </trkpt>
      <trkpt lat="48.42094" lon="2.51521">
        <ele>82</ele>
        <time>2022-04-27T08:42:04.129Z</time>
      </trkpt>
      <trkpt lat="48.42095" lon="2.51531">
        <ele>82</ele>
        <time>2022-04-27T08:42:09.120Z</time>
      </trkpt>
      <trkpt lat="48.42098" lon="2.51538">
        <ele>81</ele>
        <time>2022-04-27T08:42:13.140Z</time>
      </trkpt>
      <trkpt lat="48.42099" lon="2.51547">
        <ele>81</ele>
        <time>2022-04-27T08:42:18.130Z</time>
      </trkpt>
      <trkpt lat="48.42101" lon="2.51557">
        <ele>81</ele>
        <time>2022-04-27T08:42:23.127Z</time>
      </trkpt>
      <trkpt lat="48.42101" lon="2.51566">
        <ele>81</ele>
        <time>2022-04-27T08:42:28.130Z</time>
      </trkpt>
      <trkpt lat="48.42102" lon="2.51574">
        <ele>80</ele>
        <time>2022-04-27T08:42:33.141Z</time>
      </trkpt>
      <trkpt lat="48.42101" lon="2.51581">
        <ele>80</ele>
        <time>2022-04-27T08:42:38.125Z</time>
      </trkpt>
      <trkpt lat="48.42099" lon="2.5159">
        <ele>80</ele>
        <time>2022-04-27T08:42:43.128Z</time>
      </trkpt>
      <trkpt lat="48.42098" lon="2.51599">
        <ele>81</ele>
        <time>2022-04-27T08:42:48.139Z</time>
      </trkpt>
      <trkpt lat="48.42097" lon="2.51608">
        <ele>83</ele>
        <time>2022-04-27T08:42:53.131Z</time>
      </trkpt>
      <trkpt lat="48.42096" lon="2.51617">
        <ele>83</ele>
        <time>2022-04-27T08:42:58.120Z</time>
      </trkpt>
      <trkpt lat="48.42094" lon="2.51627">
        <ele>83</ele>
        <time>2022-04-27T08:43:03.124Z</time>
      </trkpt>
      <trkpt lat="48.42093" lon="2.51637">
        <ele>83</ele>
        <time>2022-04-27T08:43:08.131Z</time>
      </trkpt>
      <trkpt lat="48.42092" lon="2.51646">
        <ele>83</ele>
        <time>2022-04-27T08:43:13.131Z</time>
      </trkpt>
      <trkpt lat="48.42091" lon="2.51656">
        <ele>83</ele>
        <time>2022-04-27T08:43:18.130Z</time>
      </trkpt>
      <trkpt lat="48.42089" lon="2.51664">
        <ele>83</ele>
        <time>2022-04-27T08:43:23.123Z</time>
      </trkpt>
      <trkpt lat="48.42087" lon="2.5167">
        <ele>83</ele>
        <time>2022-04-27T08:43:27.125Z</time>
      </trkpt>
      <trkpt lat="48.42084" lon="2.51677">
        <ele>83</ele>
        <time>2022-04-27T08:43:32.124Z</time>
      </trkpt>
      <trkpt lat="48.42082" lon="2.51685">
        <ele>82</ele>
        <time>2022-04-27T08:43:37.129Z</time>
      </trkpt>
      <trkpt lat="48.4208" lon="2.51693">
        <ele>82</ele>
        <time>2022-04-27T08:43:42.130Z</time>
      </trkpt>
      <trkpt lat="48.42078" lon="2.51701">
        <ele>82</ele>
        <time>2022-04-27T08:43:47.127Z</time>
      </trkpt>
      <trkpt lat="48.42078" lon="2.51708">
        <ele>82</ele>
        <time>2022-04-27T08:43:51.133Z</time>
      </trkpt>
      <trkpt lat="48.42077" lon="2.51717">
        <ele>82</ele>
        <time>2022-04-27T08:43:56.123Z</time>
      </trkpt>
      <trkpt lat="48.42076" lon="2.51727">
        <ele>82</ele>
        <time>2022-04-27T08:44:01.129Z</time>
      </trkpt>
      <trkpt lat="48.42073" lon="2.51736">
        <ele>82</ele>
        <time>2022-04-27T08:44:06.123Z</time>
      </trkpt>
      <trkpt lat="48.42069" lon="2.51745">
        <ele>79</ele>
        <time>2022-04-27T08:44:11.130Z</time>
      </trkpt>
      <trkpt lat="48.42066" lon="2.51752">
        <ele>79</ele>
        <time>2022-04-27T08:44:16.128Z</time>
      </trkpt>
      <trkpt lat="48.42065" lon="2.51761">
        <ele>79</ele>
        <time>2022-04-27T08:44:20.145Z</time>
      </trkpt>
      <trkpt lat="48.42065" lon="2.51769">
        <ele>78</ele>
        <time>2022-04-27T08:44:24.147Z</time>
      </trkpt>
      <trkpt lat="48.42065" lon="2.51779">
        <ele>78</ele>
        <time>2022-04-27T08:44:29.132Z</time>
      </trkpt>
      <trkpt lat="48.42064" lon="2.51787">
        <ele>78</ele>
        <time>2022-04-27T08:44:34.131Z</time>
      </trkpt>
      <trkpt lat="48.42066" lon="2.51799">
        <ele>77</ele>
        <time>2022-04-27T08:44:39.137Z</time>
      </trkpt>
      <trkpt lat="48.42066" lon="2.51809">
        <ele>77</ele>
        <time>2022-04-27T08:44:44.130Z</time>
      </trkpt>
      <trkpt lat="48.42066" lon="2.5182">
        <ele>77</ele>
        <time>2022-04-27T08:44:49.137Z</time>
      </trkpt>
      <trkpt lat="48.42065" lon="2.5183">
        <ele>77</ele>
        <time>2022-04-27T08:44:54.129Z</time>
      </trkpt>
      <trkpt lat="48.42064" lon="2.51839">
        <ele>77</ele>
        <time>2022-04-27T08:44:59.120Z</time>
      </trkpt>
      <trkpt lat="48.42064" lon="2.51847">
        <ele>77</ele>
        <time>2022-04-27T08:45:03.126Z</time>
      </trkpt>
      <trkpt lat="48.42065" lon="2.51856">
        <ele>78</ele>
        <time>2022-04-27T08:45:08.121Z</time>
      </trkpt>
      <trkpt lat="48.42067" lon="2.51866">
        <ele>78</ele>
        <time>2022-04-27T08:45:13.129Z</time>
      </trkpt>
      <trkpt lat="48.42069" lon="2.51876">
        <ele>78</ele>
        <time>2022-04-27T08:45:18.125Z</time>
      </trkpt>
      <trkpt lat="48.42071" lon="2.51884">
        <ele>79</ele>
        <time>2022-04-27T08:45:22.126Z</time>
      </trkpt>
      <trkpt lat="48.42072" lon="2.51894">
        <ele>79</ele>
        <time>2022-04-27T08:45:27.129Z</time>
      </trkpt>
      <trkpt lat="48.42076" lon="2.51901">
        <ele>79</ele>
        <time>2022-04-27T08:45:32.129Z</time>
      </trkpt>
      <trkpt lat="48.42079" lon="2.51908">
        <ele>78</ele>
        <time>2022-04-27T08:45:37.127Z</time>
      </trkpt>
      <trkpt lat="48.42082" lon="2.51917">
        <ele>78</ele>
        <time>2022-04-27T08:45:42.125Z</time>
      </trkpt>
      <trkpt lat="48.42084" lon="2.51925">
        <ele>78</ele>
        <time>2022-04-27T08:45:47.124Z</time>
      </trkpt>
      <trkpt lat="48.42084" lon="2.51932">
        <ele>79</ele>
        <time>2022-04-27T08:45:51.130Z</time>
      </trkpt>
      <trkpt lat="48.42085" lon="2.5194">
        <ele>79</ele>
        <time>2022-04-27T08:45:56.141Z</time>
      </trkpt>
      <trkpt lat="48.4208" lon="2.51942">
        <ele>79</ele>
        <time>2022-04-27T08:46:01.134Z</time>
      </trkpt>
      <trkpt lat="48.42076" lon="2.51944">
        <ele>79</ele>
        <time>2022-04-27T08:46:06.121Z</time>
      </trkpt>
      <trkpt lat="48.42073" lon="2.51944">
        <ele>79</ele>
        <time>2022-04-27T08:46:10.130Z</time>
      </trkpt>
      <trkpt lat="48.42068" lon="2.5194">
        <ele>78</ele>
        <time>2022-04-27T08:46:15.146Z</time>
      </trkpt>
      <trkpt lat="48.42064" lon="2.51938">
        <ele>78</ele>
        <time>2022-04-27T08:46:20.129Z</time>
      </trkpt>
      <trkpt lat="48.4206" lon="2.51937">
        <ele>78</ele>
        <time>2022-04-27T08:46:25.131Z</time>
      </trkpt>
      <trkpt lat="48.42056" lon="2.51932">
        <ele>78</ele>
        <time>2022-04-27T08:46:30.136Z</time>
      </trkpt>
      <trkpt lat="48.42053" lon="2.51928">
        <ele>78</ele>
        <time>2022-04-27T08:46:35.122Z</time>
      </trkpt>
      <trkpt lat="48.4205" lon="2.51923">
        <ele>78</ele>
        <time>2022-04-27T08:46:39.127Z</time>
      </trkpt>
      <trkpt lat="48.42047" lon="2.51917">
        <ele>78</ele>
        <time>2022-04-27T08:46:44.134Z</time>
      </trkpt>
      <trkpt lat="48.42047" lon="2.51908">
        <ele>78</ele>
        <time>2022-04-27T08:46:49.129Z</time>
      </trkpt>
      <trkpt lat="48.42045" lon="2.519">
        <ele>78</ele>
        <time>2022-04-27T08:46:54.126Z</time>
      </trkpt>
      <trkpt lat="48.42043" lon="2.51893">
        <ele>78</ele>
        <time>2022-04-27T08:46:59.125Z</time>
      </trkpt>
      <trkpt lat="48.4204" lon="2.51887">
        <ele>77</ele>
        <time>2022-04-27T08:47:03.130Z</time>
      </trkpt>
      <trkpt lat="48.42035" lon="2.51879">
        <ele>77</ele>
        <time>2022-04-27T08:47:08.132Z</time>
      </trkpt>
      <trkpt lat="48.42032" lon="2.51873">
        <ele>76</ele>
        <time>2022-04-27T08:47:13.130Z</time>
      </trkpt>
      <trkpt lat="48.42029" lon="2.51865">
        <ele>76</ele>
        <time>2022-04-27T08:47:18.125Z</time>
      </trkpt>
      <trkpt lat="48.42025" lon="2.51861">
        <ele>76</ele>
        <time>2022-04-27T08:47:22.131Z</time>
      </trkpt>
      <trkpt lat="48.42022" lon="2.51852">
        <ele>76</ele>
        <time>2022-04-27T08:47:27.145Z</time>
      </trkpt>
      <trkpt lat="48.4202" lon="2.51843">
        <ele>76</ele>
        <time>2022-04-27T08:47:32.141Z</time>
      </trkpt>
      <trkpt lat="48.42016" lon="2.51835">
        <ele>76</ele>
        <time>2022-04-27T08:47:37.135Z</time>
      </trkpt>
      <trkpt lat="48.42012" lon="2.51828">
        <ele>78</ele>
        <time>2022-04-27T08:47:42.123Z</time>
      </trkpt>
      <trkpt lat="48.42008" lon="2.51823">
        <ele>78</ele>
        <time>2022-04-27T08:47:46.128Z</time>
      </trkpt>
      <trkpt lat="48.42006" lon="2.51815">
        <ele>78</ele>
        <time>2022-04-27T08:47:51.125Z</time>
      </trkpt>
      <trkpt lat="48.42001" lon="2.5181">
        <ele>78</ele>
        <time>2022-04-27T08:47:56.136Z</time>
      </trkpt>
      <trkpt lat="48.41997" lon="2.51804">
        <ele>78</ele>
        <time>2022-04-27T08:48:01.142Z</time>
      </trkpt>
      <trkpt lat="48.41992" lon="2.51799">
        <ele>78</ele>
        <time>2022-04-27T08:48:06.143Z</time>
      </trkpt>
      <trkpt lat="48.41987" lon="2.51795">
        <ele>78</ele>
        <time>2022-04-27T08:48:11.116Z</time>
      </trkpt>
      <trkpt lat="48.41984" lon="2.51791">
        <ele>82</ele>
        <time>2022-04-27T08:48:15.134Z</time>
      </trkpt>
      <trkpt lat="48.41979" lon="2.51786">
        <ele>82</ele>
        <time>2022-04-27T08:48:20.122Z</time>
      </trkpt>
      <trkpt lat="48.41976" lon="2.51783">
        <ele>82</ele>
        <time>2022-04-27T08:48:24.129Z</time>
      </trkpt>
      <trkpt lat="48.4197" lon="2.51778">
        <ele>82</ele>
        <time>2022-04-27T08:48:29.126Z</time>
      </trkpt>
      <trkpt lat="48.41965" lon="2.51773">
        <ele>82</ele>
        <time>2022-04-27T08:48:34.131Z</time>
      </trkpt>
      <trkpt lat="48.41959" lon="2.51768">
        <ele>82</ele>
        <time>2022-04-27T08:48:39.128Z</time>
      </trkpt>
      <trkpt lat="48.41953" lon="2.51767">
        <ele>83</ele>
        <time>2022-04-27T08:48:44.132Z</time>
      </trkpt>
      <trkpt lat="48.41948" lon="2.51766">
        <ele>83</ele>
        <time>2022-04-27T08:48:49.134Z</time>
      </trkpt>
      <trkpt lat="48.41942" lon="2.51764">
        <ele>83</ele>
        <time>2022-04-27T08:48:54.133Z</time>
      </trkpt>
      <trkpt lat="48.41937" lon="2.5176">
        <ele>84</ele>
        <time>2022-04-27T08:48:59.123Z</time>
      </trkpt>
      <trkpt lat="48.41933" lon="2.51756">
        <ele>84</ele>
        <time>2022-04-27T08:49:04.138Z</time>
      </trkpt>
      <trkpt lat="48.41929" lon="2.51752">
        <ele>88</ele>
        <time>2022-04-27T08:49:09.127Z</time>
      </trkpt>
      <trkpt lat="48.41926" lon="2.51749">
        <ele>88</ele>
        <time>2022-04-27T08:49:13.135Z</time>
      </trkpt>
      <trkpt lat="48.4192" lon="2.51745">
        <ele>88</ele>
        <time>2022-04-27T08:49:18.137Z</time>
      </trkpt>
      <trkpt lat="48.41915" lon="2.51742">
        <ele>88</ele>
        <time>2022-04-27T08:49:23.120Z</time>
      </trkpt>
      <trkpt lat="48.41911" lon="2.51739">
        <ele>88</ele>
        <time>2022-04-27T08:49:27.129Z</time>
      </trkpt>
      <trkpt lat="48.41907" lon="2.51736">
        <ele>91</ele>
        <time>2022-04-27T08:49:31.129Z</time>
      </trkpt>
      <trkpt lat="48.41901" lon="2.51733">
        <ele>94</ele>
        <time>2022-04-27T08:49:36.126Z</time>
      </trkpt>
      <trkpt lat="48.41897" lon="2.51729">
        <ele>94</ele>
        <time>2022-04-27T08:49:41.127Z</time>
      </trkpt>
      <trkpt lat="48.41891" lon="2.51727">
        <ele>94</ele>
        <time>2022-04-27T08:49:46.123Z</time>
      </trkpt>
      <trkpt lat="48.41886" lon="2.51726">
        <ele>94</ele>
        <time>2022-04-27T08:49:50.130Z</time>
      </trkpt>
      <trkpt lat="48.4188" lon="2.51724">
        <ele>94</ele>
        <time>2022-04-27T08:49:55.123Z</time>
      </trkpt>
      <trkpt lat="48.41877" lon="2.51721">
        <ele>94</ele>
        <time>2022-04-27T08:49:59.128Z</time>
      </trkpt>
      <trkpt lat="48.41873" lon="2.51717">
        <ele>100</ele>
        <time>2022-04-27T08:50:03.138Z</time>
      </trkpt>
      <trkpt lat="48.41868" lon="2.51714">
        <ele>100</ele>
        <time>2022-04-27T08:50:08.141Z</time>
      </trkpt>
      <trkpt lat="48.41862" lon="2.51711">
        <ele>100</ele>
        <time>2022-04-27T08:50:13.130Z</time>
      </trkpt>
      <trkpt lat="48.41856" lon="2.51708">
        <ele>100</ele>
        <time>2022-04-27T08:50:18.132Z</time>
      </trkpt>
      <trkpt lat="48.41851" lon="2.51704">
        <ele>101</ele>
        <time>2022-04-27T08:50:23.127Z</time>
      </trkpt>
      <trkpt lat="48.41846" lon="2.51699">
        <ele>104</ele>
        <time>2022-04-27T08:50:28.137Z</time>
      </trkpt>
      <trkpt lat="48.41842" lon="2.51694">
        <ele>104</ele>
        <time>2022-04-27T08:50:33.133Z</time>
      </trkpt>
      <trkpt lat="48.41838" lon="2.5169">
        <ele>104</ele>
        <time>2022-04-27T08:50:38.135Z</time>
      </trkpt>
      <trkpt lat="48.41832" lon="2.51683">
        <ele>104</ele>
        <time>2022-04-27T08:50:43.130Z</time>
      </trkpt>
      <trkpt lat="48.41827" lon="2.51679">
        <ele>104</ele>
        <time>2022-04-27T08:50:48.134Z</time>
      </trkpt>
      <trkpt lat="48.41822" lon="2.51674">
        <ele>104</ele>
        <time>2022-04-27T08:50:53.136Z</time>
      </trkpt>
      <trkpt lat="48.41817" lon="2.51668">
        <ele>105</ele>
        <time>2022-04-27T08:50:58.127Z</time>
      </trkpt>
      <trkpt lat="48.41812" lon="2.51664">
        <ele>105</ele>
        <time>2022-04-27T08:51:02.139Z</time>
      </trkpt>
      <trkpt lat="48.41806" lon="2.51662">
        <ele>105</ele>
        <time>2022-04-27T08:51:07.124Z</time>
      </trkpt>
      <trkpt lat="48.41803" lon="2.51669">
        <ele>105</ele>
        <time>2022-04-27T08:51:12.122Z</time>
      </trkpt>
      <trkpt lat="48.41805" lon="2.51678">
        <ele>105</ele>
        <time>2022-04-27T08:51:17.136Z</time>
      </trkpt>
      <trkpt lat="48.41808" lon="2.51684">
        <ele>104</ele>
        <time>2022-04-27T08:51:22.128Z</time>
      </trkpt>
      <trkpt lat="48.4181" lon="2.51692">
        <ele>104</ele>
        <time>2022-04-27T08:51:27.133Z</time>
      </trkpt>
      <trkpt lat="48.41812" lon="2.51699">
        <ele>104</ele>
        <time>2022-04-27T08:51:32.121Z</time>
      </trkpt>
      <trkpt lat="48.41814" lon="2.51705">
        <ele>104</ele>
        <time>2022-04-27T08:51:36.124Z</time>
      </trkpt>
      <trkpt lat="48.41817" lon="2.51712">
        <ele>107</ele>
        <time>2022-04-27T08:51:41.122Z</time>
      </trkpt>
      <trkpt lat="48.41819" lon="2.5172">
        <ele>107</ele>
        <time>2022-04-27T08:51:46.128Z</time>
      </trkpt>
      <trkpt lat="48.41819" lon="2.51725">
        <ele>107</ele>
        <time>2022-04-27T08:51:50.135Z</time>
      </trkpt>
      <trkpt lat="48.41819" lon="2.51732">
        <ele>107</ele>
        <time>2022-04-27T08:51:55.133Z</time>
      </trkpt>
      <trkpt lat="48.41817" lon="2.51738">
        <ele>110</ele>
        <time>2022-04-27T08:52:00.123Z</time>
      </trkpt>
      <trkpt lat="48.41814" lon="2.51744">
        <ele>110</ele>
        <time>2022-04-27T08:52:05.127Z</time>
      </trkpt>
      <trkpt lat="48.41812" lon="2.51749">
        <ele>110</ele>
        <time>2022-04-27T08:52:10.133Z</time>
      </trkpt>
      <trkpt lat="48.41811" lon="2.51755">
        <ele>110</ele>
        <time>2022-04-27T08:52:14.137Z</time>
      </trkpt>
      <trkpt lat="48.4181" lon="2.51761">
        <ele>110</ele>
        <time>2022-04-27T08:52:19.126Z</time>
      </trkpt>
      <trkpt lat="48.41808" lon="2.51766">
        <ele>113</ele>
        <time>2022-04-27T08:52:23.128Z</time>
      </trkpt>
      <trkpt lat="48.41807" lon="2.51774">
        <ele>113</ele>
        <time>2022-04-27T08:52:28.129Z</time>
      </trkpt>
      <trkpt lat="48.41806" lon="2.51781">
        <ele>113</ele>
        <time>2022-04-27T08:52:32.137Z</time>
      </trkpt>
      <trkpt lat="48.41804" lon="2.51788">
        <ele>113</ele>
        <time>2022-04-27T08:52:37.124Z</time>
      </trkpt>
      <trkpt lat="48.41803" lon="2.51794">
        <ele>115</ele>
        <time>2022-04-27T08:52:41.118Z</time>
      </trkpt>
      <trkpt lat="48.41802" lon="2.51802">
        <ele>115</ele>
        <time>2022-04-27T08:52:46.117Z</time>
      </trkpt>
      <trkpt lat="48.418" lon="2.5181">
        <ele>115</ele>
        <time>2022-04-27T08:52:51.130Z</time>
      </trkpt>
      <trkpt lat="48.41799" lon="2.51816">
        <ele>115</ele>
        <time>2022-04-27T08:52:56.124Z</time>
      </trkpt>
      <trkpt lat="48.41798" lon="2.51822">
        <ele>117</ele>
        <time>2022-04-27T08:53:01.133Z</time>
      </trkpt>
      <trkpt lat="48.41795" lon="2.51829">
        <ele>117</ele>
        <time>2022-04-27T08:53:06.125Z</time>
      </trkpt>
      <trkpt lat="48.41792" lon="2.51835">
        <ele>118</ele>
        <time>2022-04-27T08:53:11.134Z</time>
      </trkpt>
      <trkpt lat="48.41788" lon="2.51839">
        <ele>118</ele>
        <time>2022-04-27T08:53:16.132Z</time>
      </trkpt>
      <trkpt lat="48.41783" lon="2.51838">
        <ele>118</ele>
        <time>2022-04-27T08:53:20.140Z</time>
      </trkpt>
      <trkpt lat="48.41779" lon="2.51838">
        <ele>118</ele>
        <time>2022-04-27T08:53:25.129Z</time>
      </trkpt>
      <trkpt lat="48.41776" lon="2.5184">
        <ele>118</ele>
        <time>2022-04-27T08:53:29.137Z</time>
      </trkpt>
      <trkpt lat="48.41773" lon="2.51846">
        <ele>118</ele>
        <time>2022-04-27T08:53:34.125Z</time>
      </trkpt>
      <trkpt lat="48.41771" lon="2.51851">
        <ele>121</ele>
        <time>2022-04-27T08:53:38.128Z</time>
      </trkpt>
      <trkpt lat="48.41768" lon="2.51858">
        <ele>121</ele>
        <time>2022-04-27T08:53:43.129Z</time>
      </trkpt>
      <trkpt lat="48.41767" lon="2.51865">
        <ele>121</ele>
        <time>2022-04-27T08:53:48.121Z</time>
      </trkpt>
      <trkpt lat="48.41765" lon="2.51873">
        <ele>121</ele>
        <time>2022-04-27T08:53:52.134Z</time>
      </trkpt>
      <trkpt lat="48.41766" lon="2.51882">
        <ele>122</ele>
        <time>2022-04-27T08:53:57.144Z</time>
      </trkpt>
      <trkpt lat="48.41768" lon="2.51889">
        <ele>122</ele>
        <time>2022-04-27T08:54:02.130Z</time>
      </trkpt>
      <trkpt lat="48.41768" lon="2.51897">
        <ele>122</ele>
        <time>2022-04-27T08:54:07.136Z</time>
      </trkpt>
      <trkpt lat="48.4177" lon="2.51904">
        <ele>122</ele>
        <time>2022-04-27T08:54:12.143Z</time>
      </trkpt>
      <trkpt lat="48.4177" lon="2.51914">
        <ele>122</ele>
        <time>2022-04-27T08:54:17.120Z</time>
      </trkpt>
      <trkpt lat="48.4177" lon="2.5192">
        <ele>122</ele>
        <time>2022-04-27T08:54:21.124Z</time>
      </trkpt>
      <trkpt lat="48.4177" lon="2.51928">
        <ele>122</ele>
        <time>2022-04-27T08:54:26.123Z</time>
      </trkpt>
      <trkpt lat="48.4177" lon="2.51935">
        <ele>122</ele>
        <time>2022-04-27T08:54:30.135Z</time>
      </trkpt>
      <trkpt lat="48.4177" lon="2.51943">
        <ele>122</ele>
        <time>2022-04-27T08:54:35.130Z</time>
      </trkpt>
      <trkpt lat="48.4177" lon="2.51951">
        <ele>122</ele>
        <time>2022-04-27T08:54:40.122Z</time>
      </trkpt>
      <trkpt lat="48.41771" lon="2.51958">
        <ele>122</ele>
        <time>2022-04-27T08:54:44.125Z</time>
      </trkpt>
      <trkpt lat="48.41772" lon="2.51967">
        <ele>121</ele>
        <time>2022-04-27T08:54:49.137Z</time>
      </trkpt>
      <trkpt lat="48.41772" lon="2.51975">
        <ele>121</ele>
        <time>2022-04-27T08:54:54.142Z</time>
      </trkpt>
      <trkpt lat="48.41773" lon="2.51983">
        <ele>121</ele>
        <time>2022-04-27T08:54:59.127Z</time>
      </trkpt>
      <trkpt lat="48.41773" lon="2.51991">
        <ele>121</ele>
        <time>2022-04-27T08:55:04.132Z</time>
      </trkpt>
      <trkpt lat="48.41773" lon="2.52">
        <ele>121</ele>
        <time>2022-04-27T08:55:09.140Z</time>
      </trkpt>
      <trkpt lat="48.41771" lon="2.52009">
        <ele>121</ele>
        <time>2022-04-27T08:55:14.118Z</time>
      </trkpt>
      <trkpt lat="48.41771" lon="2.52016">
        <ele>121</ele>
        <time>2022-04-27T08:55:18.133Z</time>
      </trkpt>
      <trkpt lat="48.4177" lon="2.52024">
        <ele>121</ele>
        <time>2022-04-27T08:55:23.122Z</time>
      </trkpt>
      <trkpt lat="48.4177" lon="2.52032">
        <ele>121</ele>
        <time>2022-04-27T08:55:27.126Z</time>
      </trkpt>
      <trkpt lat="48.4177" lon="2.52042">
        <ele>121</ele>
        <time>2022-04-27T08:55:32.133Z</time>
      </trkpt>
      <trkpt lat="48.41772" lon="2.52049">
        <ele>121</ele>
        <time>2022-04-27T08:55:37.119Z</time>
      </trkpt>
      <trkpt lat="48.41773" lon="2.52055">
        <ele>121</ele>
        <time>2022-04-27T08:55:41.125Z</time>
      </trkpt>
      <trkpt lat="48.41774" lon="2.52061">
        <ele>121</ele>
        <time>2022-04-27T08:55:45.143Z</time>
      </trkpt>
      <trkpt lat="48.41776" lon="2.5207">
        <ele>120</ele>
        <time>2022-04-27T08:55:50.124Z</time>
      </trkpt>
      <trkpt lat="48.41777" lon="2.52078">
        <ele>120</ele>
        <time>2022-04-27T08:55:55.133Z</time>
      </trkpt>
      <trkpt lat="48.41778" lon="2.52087">
        <ele>120</ele>
        <time>2022-04-27T08:56:00.125Z</time>
      </trkpt>
      <trkpt lat="48.41779" lon="2.52096">
        <ele>120</ele>
        <time>2022-04-27T08:56:05.124Z</time>
      </trkpt>
      <trkpt lat="48.41778" lon="2.52104">
        <ele>118</ele>
        <time>2022-04-27T08:56:10.131Z</time>
      </trkpt>
      <trkpt lat="48.41778" lon="2.52111">
        <ele>118</ele>
        <time>2022-04-27T08:56:14.132Z</time>
      </trkpt>
      <trkpt lat="48.41777" lon="2.52122">
        <ele>118</ele>
        <time>2022-04-27T08:56:19.126Z</time>
      </trkpt>
      <trkpt lat="48.41776" lon="2.5213">
        <ele>117</ele>
        <time>2022-04-27T08:56:24.126Z</time>
      </trkpt>
      <trkpt lat="48.41775" lon="2.52136">
        <ele>117</ele>
        <time>2022-04-27T08:56:28.130Z</time>
      </trkpt>
      <trkpt lat="48.41774" lon="2.52143">
        <ele>117</ele>
        <time>2022-04-27T08:56:32.135Z</time>
      </trkpt>
      <trkpt lat="48.41771" lon="2.52153">
        <ele>116</ele>
        <time>2022-04-27T08:56:37.137Z</time>
      </trkpt>
      <trkpt lat="48.41768" lon="2.52163">
        <ele>116</ele>
        <time>2022-04-27T08:56:42.128Z</time>
      </trkpt>
      <trkpt lat="48.41766" lon="2.52169">
        <ele>116</ele>
        <time>2022-04-27T08:56:46.134Z</time>
      </trkpt>
      <trkpt lat="48.41763" lon="2.52178">
        <ele>118</ele>
        <time>2022-04-27T08:56:51.124Z</time>
      </trkpt>
      <trkpt lat="48.41761" lon="2.52183">
        <ele>118</ele>
        <time>2022-04-27T08:56:55.133Z</time>
      </trkpt>
      <trkpt lat="48.41757" lon="2.52187">
        <ele>118</ele>
        <time>2022-04-27T08:57:00.127Z</time>
      </trkpt>
      <trkpt lat="48.41753" lon="2.52192">
        <ele>118</ele>
        <time>2022-04-27T08:57:05.137Z</time>
      </trkpt>
      <trkpt lat="48.41749" lon="2.52196">
        <ele>118</ele>
        <time>2022-04-27T08:57:10.136Z</time>
      </trkpt>
      <trkpt lat="48.41745" lon="2.52201">
        <ele>118</ele>
        <time>2022-04-27T08:57:15.130Z</time>
      </trkpt>
      <trkpt lat="48.41739" lon="2.52203">
        <ele>118</ele>
        <time>2022-04-27T08:57:20.131Z</time>
      </trkpt>
      <trkpt lat="48.41734" lon="2.52202">
        <ele>121</ele>
        <time>2022-04-27T08:57:25.133Z</time>
      </trkpt>
      <trkpt lat="48.41728" lon="2.52202">
        <ele>121</ele>
        <time>2022-04-27T08:57:30.120Z</time>
      </trkpt>
      <trkpt lat="48.41723" lon="2.52201">
        <ele>121</ele>
        <time>2022-04-27T08:57:35.129Z</time>
      </trkpt>
      <trkpt lat="48.41717" lon="2.52203">
        <ele>121</ele>
        <time>2022-04-27T08:57:40.137Z</time>
      </trkpt>
      <trkpt lat="48.41711" lon="2.52204">
        <ele>121</ele>
        <time>2022-04-27T08:57:45.118Z</time>
      </trkpt>
      <trkpt lat="48.41707" lon="2.52204">
        <ele>123</ele>
        <time>2022-04-27T08:57:49.119Z</time>
      </trkpt>
      <trkpt lat="48.41701" lon="2.52207">
        <ele>123</ele>
        <time>2022-04-27T08:57:54.119Z</time>
      </trkpt>
      <trkpt lat="48.41697" lon="2.5221">
        <ele>122</ele>
        <time>2022-04-27T08:57:58.131Z</time>
      </trkpt>
      <trkpt lat="48.41692" lon="2.52217">
        <ele>122</ele>
        <time>2022-04-27T08:58:03.129Z</time>
      </trkpt>
      <trkpt lat="48.41689" lon="2.52225">
        <ele>122</ele>
        <time>2022-04-27T08:58:08.124Z</time>
      </trkpt>
      <trkpt lat="48.41685" lon="2.52234">
        <ele>122</ele>
        <time>2022-04-27T08:58:13.124Z</time>
      </trkpt>
      <trkpt lat="48.41683" lon="2.52241">
        <ele>122</ele>
        <time>2022-04-27T08:58:17.127Z</time>
      </trkpt>
      <trkpt lat="48.41681" lon="2.52248">
        <ele>122</ele>
        <time>2022-04-27T08:58:21.131Z</time>
      </trkpt>
      <trkpt lat="48.41678" lon="2.52256">
        <ele>121</ele>
        <time>2022-04-27T08:58:26.128Z</time>
      </trkpt>
      <trkpt lat="48.41676" lon="2.52265">
        <ele>121</ele>
        <time>2022-04-27T08:58:31.127Z</time>
      </trkpt>
      <trkpt lat="48.41674" lon="2.52271">
        <ele>121</ele>
        <time>2022-04-27T08:58:35.134Z</time>
      </trkpt>
      <trkpt lat="48.41672" lon="2.52278">
        <ele>121</ele>
        <time>2022-04-27T08:58:40.137Z</time>
      </trkpt>
      <trkpt lat="48.41669" lon="2.52285">
        <ele>121</ele>
        <time>2022-04-27T08:58:45.134Z</time>
      </trkpt>
      <trkpt lat="48.41667" lon="2.52291">
        <ele>121</ele>
        <time>2022-04-27T08:58:49.131Z</time>
      </trkpt>
      <trkpt lat="48.41664" lon="2.52298">
        <ele>120</ele>
        <time>2022-04-27T08:58:54.122Z</time>
      </trkpt>
      <trkpt lat="48.41662" lon="2.52305">
        <ele>120</ele>
        <time>2022-04-27T08:58:58.123Z</time>
      </trkpt>
      <trkpt lat="48.4166" lon="2.52313">
        <ele>120</ele>
        <time>2022-04-27T08:59:03.129Z</time>
      </trkpt>
      <trkpt lat="48.41659" lon="2.5232">
        <ele>120</ele>
        <time>2022-04-27T08:59:08.131Z</time>
      </trkpt>
      <trkpt lat="48.41657" lon="2.52328">
        <ele>120</ele>
        <time>2022-04-27T08:59:13.137Z</time>
      </trkpt>
      <trkpt lat="48.41655" lon="2.52334">
        <ele>120</ele>
        <time>2022-04-27T08:59:17.131Z</time>
      </trkpt>
      <trkpt lat="48.41653" lon="2.52341">
        <ele>120</ele>
        <time>2022-04-27T08:59:22.127Z</time>
      </trkpt>
      <trkpt lat="48.4165" lon="2.52347">
        <ele>120</ele>
        <time>2022-04-27T08:59:26.133Z</time>
      </trkpt>
      <trkpt lat="48.41647" lon="2.52356">
        <ele>120</ele>
        <time>2022-04-27T08:59:31.129Z</time>
      </trkpt>
      <trkpt lat="48.41645" lon="2.52365">
        <ele>120</ele>
        <time>2022-04-27T08:59:36.126Z</time>
      </trkpt>
      <trkpt lat="48.41644" lon="2.52371">
        <ele>120</ele>
        <time>2022-04-27T08:59:40.126Z</time>
      </trkpt>
      <trkpt lat="48.41641" lon="2.52379">
        <ele>120</ele>
        <time>2022-04-27T08:59:45.118Z</time>
      </trkpt>
      <trkpt lat="48.41639" lon="2.52385">
        <ele>120</ele>
        <time>2022-04-27T08:59:49.124Z</time>
      </trkpt>
      <trkpt lat="48.41637" lon="2.52391">
        <ele>120</ele>
        <time>2022-04-27T08:59:53.160Z</time>
      </trkpt>
      <trkpt lat="48.41635" lon="2.524">
        <ele>120</ele>
        <time>2022-04-27T08:59:58.121Z</time>
      </trkpt>
      <trkpt lat="48.41632" lon="2.5241">
        <ele>120</ele>
        <time>2022-04-27T09:00:03.120Z</time>
      </trkpt>
      <trkpt lat="48.41629" lon="2.52416">
        <ele>120</ele>
        <time>2022-04-27T09:00:07.124Z</time>
      </trkpt>
      <trkpt lat="48.41626" lon="2.52424">
        <ele>120</ele>
        <time>2022-04-27T09:00:12.125Z</time>
      </trkpt>
      <trkpt lat="48.41622" lon="2.52431">
        <ele>120</ele>
        <time>2022-04-27T09:00:17.120Z</time>
      </trkpt>
      <trkpt lat="48.41617" lon="2.52433">
        <ele>120</ele>
        <time>2022-04-27T09:00:21.126Z</time>
      </trkpt>
      <trkpt lat="48.41613" lon="2.52441">
        <ele>120</ele>
        <time>2022-04-27T09:00:26.124Z</time>
      </trkpt>
      <trkpt lat="48.41609" lon="2.5245">
        <ele>120</ele>
        <time>2022-04-27T09:00:31.122Z</time>
      </trkpt>
      <trkpt lat="48.416" lon="2.52467">
        <ele>120</ele>
        <time>2022-04-27T09:09:28.133Z</time>
      </trkpt>
      <trkpt lat="48.416" lon="2.52467">
        <ele>120</ele>
        <time>2022-04-27T09:09:33.126Z</time>
      </trkpt>
      <trkpt lat="48.416" lon="2.52467">
        <ele>120</ele>
        <time>2022-04-27T09:09:37.128Z</time>
      </trkpt>
      <trkpt lat="48.416" lon="2.52467">
        <ele>120</ele>
        <time>2022-04-27T09:09:42.133Z</time>
      </trkpt>
      <trkpt lat="48.416" lon="2.52467">
        <ele>120</ele>
        <time>2022-04-27T09:09:47.126Z</time>
      </trkpt>
      <trkpt lat="48.41601" lon="2.52466">
        <ele>120</ele>
        <time>2022-04-27T09:11:31.119Z</time>
      </trkpt>
      <trkpt lat="48.41604" lon="2.52468">
        <ele>120</ele>
        <time>2022-04-27T09:11:35.127Z</time>
      </trkpt>
      <trkpt lat="48.41606" lon="2.5247">
        <ele>120</ele>
        <time>2022-04-27T09:11:39.130Z</time>
      </trkpt>
      <trkpt lat="48.41607" lon="2.52474">
        <ele>120</ele>
        <time>2022-04-27T09:11:43.134Z</time>
      </trkpt>
      <trkpt lat="48.41609" lon="2.52478">
        <ele>120</ele>
        <time>2022-04-27T09:11:47.132Z</time>
      </trkpt>
      <trkpt lat="48.41612" lon="2.52483">
        <ele>120</ele>
        <time>2022-04-27T09:11:52.125Z</time>
      </trkpt>
      <trkpt lat="48.41615" lon="2.52488">
        <ele>119</ele>
        <time>2022-04-27T09:11:56.132Z</time>
      </trkpt>
      <trkpt lat="48.41616" lon="2.52495">
        <ele>119</ele>
        <time>2022-04-27T09:12:01.125Z</time>
      </trkpt>
      <trkpt lat="48.41617" lon="2.52503">
        <ele>119</ele>
        <time>2022-04-27T09:12:06.127Z</time>
      </trkpt>
      <trkpt lat="48.41615" lon="2.52511">
        <ele>119</ele>
        <time>2022-04-27T09:12:11.126Z</time>
      </trkpt>
      <trkpt lat="48.41613" lon="2.52517">
        <ele>119</ele>
        <time>2022-04-27T09:12:16.118Z</time>
      </trkpt>
      <trkpt lat="48.4161" lon="2.52523">
        <ele>119</ele>
        <time>2022-04-27T09:12:20.120Z</time>
      </trkpt>
      <trkpt lat="48.41607" lon="2.52527">
        <ele>119</ele>
        <time>2022-04-27T09:12:24.123Z</time>
      </trkpt>
      <trkpt lat="48.41605" lon="2.52533">
        <ele>119</ele>
        <time>2022-04-27T09:12:28.122Z</time>
      </trkpt>
      <trkpt lat="48.41601" lon="2.52539">
        <ele>119</ele>
        <time>2022-04-27T09:12:32.133Z</time>
      </trkpt>
      <trkpt lat="48.41598" lon="2.52546">
        <ele>119</ele>
        <time>2022-04-27T09:12:37.124Z</time>
      </trkpt>
      <trkpt lat="48.41595" lon="2.52555">
        <ele>119</ele>
        <time>2022-04-27T09:12:42.125Z</time>
      </trkpt>
      <trkpt lat="48.41592" lon="2.52562">
        <ele>119</ele>
        <time>2022-04-27T09:12:46.132Z</time>
      </trkpt>
      <trkpt lat="48.41589" lon="2.52571">
        <ele>119</ele>
        <time>2022-04-27T09:12:51.118Z</time>
      </trkpt>
      <trkpt lat="48.41586" lon="2.52579">
        <ele>119</ele>
        <time>2022-04-27T09:12:56.122Z</time>
      </trkpt>
      <trkpt lat="48.41584" lon="2.52588">
        <ele>119</ele>
        <time>2022-04-27T09:13:01.128Z</time>
      </trkpt>
      <trkpt lat="48.41582" lon="2.52594">
        <ele>119</ele>
        <time>2022-04-27T09:13:05.131Z</time>
      </trkpt>
      <trkpt lat="48.41579" lon="2.52603">
        <ele>120</ele>
        <time>2022-04-27T09:13:10.123Z</time>
      </trkpt>
      <trkpt lat="48.41576" lon="2.52611">
        <ele>120</ele>
        <time>2022-04-27T09:13:14.130Z</time>
      </trkpt>
      <trkpt lat="48.41576" lon="2.52621">
        <ele>120</ele>
        <time>2022-04-27T09:13:19.130Z</time>
      </trkpt>
      <trkpt lat="48.41576" lon="2.5263">
        <ele>120</ele>
        <time>2022-04-27T09:13:24.131Z</time>
      </trkpt>
      <trkpt lat="48.41576" lon="2.5264">
        <ele>120</ele>
        <time>2022-04-27T09:13:29.129Z</time>
      </trkpt>
      <trkpt lat="48.41575" lon="2.5265">
        <ele>120</ele>
        <time>2022-04-27T09:13:34.122Z</time>
      </trkpt>
      <trkpt lat="48.41578" lon="2.52657">
        <ele>121</ele>
        <time>2022-04-27T09:13:38.129Z</time>
      </trkpt>
      <trkpt lat="48.41584" lon="2.52661">
        <ele>121</ele>
        <time>2022-04-27T09:13:43.128Z</time>
      </trkpt>
      <trkpt lat="48.4159" lon="2.52665">
        <ele>121</ele>
        <time>2022-04-27T09:13:48.127Z</time>
      </trkpt>
      <trkpt lat="48.41596" lon="2.5267">
        <ele>121</ele>
        <time>2022-04-27T09:13:53.126Z</time>
      </trkpt>
      <trkpt lat="48.416" lon="2.52675">
        <ele>119</ele>
        <time>2022-04-27T09:13:57.134Z</time>
      </trkpt>
      <trkpt lat="48.41604" lon="2.52682">
        <ele>119</ele>
        <time>2022-04-27T09:14:02.129Z</time>
      </trkpt>
      <trkpt lat="48.41608" lon="2.52689">
        <ele>119</ele>
        <time>2022-04-27T09:14:07.134Z</time>
      </trkpt>
      <trkpt lat="48.41611" lon="2.52697">
        <ele>119</ele>
        <time>2022-04-27T09:14:12.133Z</time>
      </trkpt>
      <trkpt lat="48.41612" lon="2.52707">
        <ele>119</ele>
        <time>2022-04-27T09:14:17.118Z</time>
      </trkpt>
      <trkpt lat="48.41613" lon="2.52716">
        <ele>119</ele>
        <time>2022-04-27T09:14:22.130Z</time>
      </trkpt>
      <trkpt lat="48.41617" lon="2.52724">
        <ele>119</ele>
        <time>2022-04-27T09:14:27.231Z</time>
      </trkpt>
      <trkpt lat="48.4162" lon="2.52734">
        <ele>119</ele>
        <time>2022-04-27T09:14:32.125Z</time>
      </trkpt>
      <trkpt lat="48.41622" lon="2.52741">
        <ele>120</ele>
        <time>2022-04-27T09:14:36.128Z</time>
      </trkpt>
      <trkpt lat="48.41623" lon="2.5275">
        <ele>120</ele>
        <time>2022-04-27T09:14:41.123Z</time>
      </trkpt>
      <trkpt lat="48.41628" lon="2.52758">
        <ele>116</ele>
        <time>2022-04-27T09:14:46.132Z</time>
      </trkpt>
      <trkpt lat="48.41634" lon="2.52765">
        <ele>115</ele>
        <time>2022-04-27T09:14:51.127Z</time>
      </trkpt>
      <trkpt lat="48.41638" lon="2.52774">
        <ele>115</ele>
        <time>2022-04-27T09:14:56.126Z</time>
      </trkpt>
      <trkpt lat="48.41644" lon="2.52781">
        <ele>115</ele>
        <time>2022-04-27T09:15:01.116Z</time>
      </trkpt>
      <trkpt lat="48.41646" lon="2.52789">
        <ele>115</ele>
        <time>2022-04-27T09:15:05.117Z</time>
      </trkpt>
      <trkpt lat="48.4165" lon="2.52795">
        <ele>114</ele>
        <time>2022-04-27T09:15:09.121Z</time>
      </trkpt>
      <trkpt lat="48.41652" lon="2.52802">
        <ele>114</ele>
        <time>2022-04-27T09:15:13.124Z</time>
      </trkpt>
      <trkpt lat="48.41654" lon="2.52811">
        <ele>106</ele>
        <time>2022-04-27T09:15:18.129Z</time>
      </trkpt>
      <trkpt lat="48.41656" lon="2.5282">
        <ele>105</ele>
        <time>2022-04-27T09:15:22.130Z</time>
      </trkpt>
      <trkpt lat="48.41658" lon="2.5283">
        <ele>105</ele>
        <time>2022-04-27T09:15:27.128Z</time>
      </trkpt>
      <trkpt lat="48.41659" lon="2.52839">
        <ele>105</ele>
        <time>2022-04-27T09:15:31.131Z</time>
      </trkpt>
      <trkpt lat="48.41657" lon="2.52848">
        <ele>104</ele>
        <time>2022-04-27T09:15:36.120Z</time>
      </trkpt>
      <trkpt lat="48.41652" lon="2.52846">
        <ele>114</ele>
        <time>2022-04-27T09:15:41.121Z</time>
      </trkpt>
      <trkpt lat="48.41648" lon="2.52849">
        <ele>114</ele>
        <time>2022-04-27T09:15:45.133Z</time>
      </trkpt>
      <trkpt lat="48.41648" lon="2.52847">
        <ele>114</ele>
        <time>2022-04-27T09:15:50.129Z</time>
      </trkpt>
      <trkpt lat="48.41647" lon="2.52843">
        <ele>114</ele>
        <time>2022-04-27T09:15:55.140Z</time>
      </trkpt>
      <trkpt lat="48.41645" lon="2.52839">
        <ele>114</ele>
        <time>2022-04-27T09:16:00.137Z</time>
      </trkpt>
      <trkpt lat="48.41644" lon="2.52837">
        <ele>114</ele>
        <time>2022-04-27T09:16:05.127Z</time>
      </trkpt>
      <trkpt lat="48.41643" lon="2.52837">
        <ele>114</ele>
        <time>2022-04-27T09:16:09.132Z</time>
      </trkpt>
      <trkpt lat="48.41638" lon="2.52838">
        <ele>114</ele>
        <time>2022-04-27T09:16:14.130Z</time>
      </trkpt>
      <trkpt lat="48.41635" lon="2.52837">
        <ele>114</ele>
        <time>2022-04-27T09:16:19.129Z</time>
      </trkpt>
      <trkpt lat="48.41635" lon="2.52834">
        <ele>114</ele>
        <time>2022-04-27T09:16:24.137Z</time>
      </trkpt>
      <trkpt lat="48.41634" lon="2.52831">
        <ele>114</ele>
        <time>2022-04-27T09:16:28.132Z</time>
      </trkpt>
      <trkpt lat="48.41632" lon="2.52825">
        <ele>114</ele>
        <time>2022-04-27T09:16:33.131Z</time>
      </trkpt>
      <trkpt lat="48.41633" lon="2.52822">
        <ele>114</ele>
        <time>2022-04-27T09:16:37.143Z</time>
      </trkpt>
      <trkpt lat="48.41628" lon="2.52821">
        <ele>114</ele>
        <time>2022-04-27T09:16:47.122Z</time>
      </trkpt>
      <trkpt lat="48.41625" lon="2.52821">
        <ele>114</ele>
        <time>2022-04-27T09:16:51.118Z</time>
      </trkpt>
      <trkpt lat="48.41623" lon="2.52822">
        <ele>119</ele>
        <time>2022-04-27T09:16:55.122Z</time>
      </trkpt>
      <trkpt lat="48.41621" lon="2.5282">
        <ele>119</ele>
        <time>2022-04-27T09:17:00.137Z</time>
      </trkpt>
      <trkpt lat="48.41619" lon="2.52817">
        <ele>119</ele>
        <time>2022-04-27T09:17:05.123Z</time>
      </trkpt>
      <trkpt lat="48.41617" lon="2.52818">
        <ele>119</ele>
        <time>2022-04-27T09:17:10.132Z</time>
      </trkpt>
      <trkpt lat="48.41616" lon="2.52818">
        <ele>119</ele>
        <time>2022-04-27T09:17:14.141Z</time>
      </trkpt>
      <trkpt lat="48.41614" lon="2.52822">
        <ele>119</ele>
        <time>2022-04-27T09:17:18.131Z</time>
      </trkpt>
      <trkpt lat="48.41613" lon="2.52831">
        <ele>119</ele>
        <time>2022-04-27T09:17:23.126Z</time>
      </trkpt>
      <trkpt lat="48.41609" lon="2.5284">
        <ele>119</ele>
        <time>2022-04-27T09:18:29.130Z</time>
      </trkpt>
      <trkpt lat="48.41607" lon="2.5284">
        <ele>119</ele>
        <time>2022-04-27T09:18:33.134Z</time>
      </trkpt>
      <trkpt lat="48.416" lon="2.52837">
        <ele>119</ele>
        <time>2022-04-27T09:18:38.132Z</time>
      </trkpt>
      <trkpt lat="48.41595" lon="2.52833">
        <ele>121</ele>
        <time>2022-04-27T09:18:43.133Z</time>
      </trkpt>
      <trkpt lat="48.41592" lon="2.52828">
        <ele>121</ele>
        <time>2022-04-27T09:18:48.132Z</time>
      </trkpt>
      <trkpt lat="48.41586" lon="2.52828">
        <ele>121</ele>
        <time>2022-04-27T09:18:53.148Z</time>
      </trkpt>
      <trkpt lat="48.41581" lon="2.52824">
        <ele>121</ele>
        <time>2022-04-27T09:18:58.125Z</time>
      </trkpt>
      <trkpt lat="48.41577" lon="2.52817">
        <ele>122</ele>
        <time>2022-04-27T09:19:03.129Z</time>
      </trkpt>
      <trkpt lat="48.41574" lon="2.52811">
        <ele>122</ele>
        <time>2022-04-27T09:19:08.121Z</time>
      </trkpt>
      <trkpt lat="48.4157" lon="2.52809">
        <ele>122</ele>
        <time>2022-04-27T09:19:12.126Z</time>
      </trkpt>
      <trkpt lat="48.41566" lon="2.5281">
        <ele>121</ele>
        <time>2022-04-27T09:19:17.120Z</time>
      </trkpt>
      <trkpt lat="48.41562" lon="2.5281">
        <ele>121</ele>
        <time>2022-04-27T09:19:21.123Z</time>
      </trkpt>
      <trkpt lat="48.41561" lon="2.52803">
        <ele>121</ele>
        <time>2022-04-27T09:19:26.121Z</time>
      </trkpt>
      <trkpt lat="48.41556" lon="2.52802">
        <ele>121</ele>
        <time>2022-04-27T09:19:30.128Z</time>
      </trkpt>
      <trkpt lat="48.41547" lon="2.52805">
        <ele>121</ele>
        <time>2022-04-27T09:19:35.126Z</time>
      </trkpt>
      <trkpt lat="48.41541" lon="2.52808">
        <ele>121</ele>
        <time>2022-04-27T09:19:40.130Z</time>
      </trkpt>
      <trkpt lat="48.41538" lon="2.52814">
        <ele>121</ele>
        <time>2022-04-27T09:19:45.135Z</time>
      </trkpt>
      <trkpt lat="48.41534" lon="2.52815">
        <ele>121</ele>
        <time>2022-04-27T09:19:49.142Z</time>
      </trkpt>
      <trkpt lat="48.4153" lon="2.52819">
        <ele>121</ele>
        <time>2022-04-27T09:19:53.155Z</time>
      </trkpt>
      <trkpt lat="48.41525" lon="2.5282">
        <ele>120</ele>
        <time>2022-04-27T09:19:58.127Z</time>
      </trkpt>
      <trkpt lat="48.41519" lon="2.52824">
        <ele>120</ele>
        <time>2022-04-27T09:20:03.131Z</time>
      </trkpt>
      <trkpt lat="48.41515" lon="2.52824">
        <ele>120</ele>
        <time>2022-04-27T09:20:08.128Z</time>
      </trkpt>
      <trkpt lat="48.4151" lon="2.5283">
        <ele>121</ele>
        <time>2022-04-27T09:20:13.128Z</time>
      </trkpt>
      <trkpt lat="48.41505" lon="2.52828">
        <ele>121</ele>
        <time>2022-04-27T09:20:18.132Z</time>
      </trkpt>
      <trkpt lat="48.41502" lon="2.52835">
        <ele>121</ele>
        <time>2022-04-27T09:20:23.130Z</time>
      </trkpt>
      <trkpt lat="48.41499" lon="2.52831">
        <ele>121</ele>
        <time>2022-04-27T09:20:28.135Z</time>
      </trkpt>
      <trkpt lat="48.415" lon="2.52826">
        <ele>121</ele>
        <time>2022-04-27T09:20:32.139Z</time>
      </trkpt>
      <trkpt lat="48.41499" lon="2.52822">
        <ele>121</ele>
        <time>2022-04-27T09:20:37.123Z</time>
      </trkpt>
      <trkpt lat="48.41497" lon="2.52816">
        <ele>122</ele>
        <time>2022-04-27T09:20:41.135Z</time>
      </trkpt>
      <trkpt lat="48.41491" lon="2.52821">
        <ele>121</ele>
        <time>2022-04-27T09:20:46.131Z</time>
      </trkpt>
      <trkpt lat="48.41487" lon="2.5283">
        <ele>121</ele>
        <time>2022-04-27T09:20:51.136Z</time>
      </trkpt>
      <trkpt lat="48.41484" lon="2.5284">
        <ele>121</ele>
        <time>2022-04-27T09:20:56.126Z</time>
      </trkpt>
      <trkpt lat="48.41477" lon="2.52846">
        <ele>121</ele>
        <time>2022-04-27T09:21:01.127Z</time>
      </trkpt>
      <trkpt lat="48.41472" lon="2.52846">
        <ele>121</ele>
        <time>2022-04-27T09:21:05.133Z</time>
      </trkpt>
      <trkpt lat="48.4147" lon="2.52838">
        <ele>121</ele>
        <time>2022-04-27T09:21:09.136Z</time>
      </trkpt>
      <trkpt lat="48.41462" lon="2.52834">
        <ele>121</ele>
        <time>2022-04-27T09:21:14.123Z</time>
      </trkpt>
      <trkpt lat="48.41457" lon="2.52836">
        <ele>122</ele>
        <time>2022-04-27T09:21:18.129Z</time>
      </trkpt>
      <trkpt lat="48.41455" lon="2.5283">
        <ele>122</ele>
        <time>2022-04-27T09:21:23.124Z</time>
      </trkpt>
      <trkpt lat="48.41454" lon="2.52825">
        <ele>122</ele>
        <time>2022-04-27T09:21:28.121Z</time>
      </trkpt>
      <trkpt lat="48.4145" lon="2.52828">
        <ele>122</ele>
        <time>2022-04-27T09:21:33.128Z</time>
      </trkpt>
      <trkpt lat="48.41444" lon="2.52831">
        <ele>122</ele>
        <time>2022-04-27T09:21:38.128Z</time>
      </trkpt>
      <trkpt lat="48.41443" lon="2.52838">
        <ele>122</ele>
        <time>2022-04-27T09:21:43.121Z</time>
      </trkpt>
      <trkpt lat="48.41441" lon="2.52845">
        <ele>122</ele>
        <time>2022-04-27T09:21:47.129Z</time>
      </trkpt>
      <trkpt lat="48.41439" lon="2.5285">
        <ele>122</ele>
        <time>2022-04-27T09:21:51.127Z</time>
      </trkpt>
      <trkpt lat="48.41435" lon="2.52853">
        <ele>122</ele>
        <time>2022-04-27T09:21:56.125Z</time>
      </trkpt>
      <trkpt lat="48.41431" lon="2.52854">
        <ele>122</ele>
        <time>2022-04-27T09:22:00.130Z</time>
      </trkpt>
      <trkpt lat="48.41426" lon="2.5286">
        <ele>123</ele>
        <time>2022-04-27T09:22:05.124Z</time>
      </trkpt>
      <trkpt lat="48.41424" lon="2.5287">
        <ele>123</ele>
        <time>2022-04-27T09:22:10.125Z</time>
      </trkpt>
      <trkpt lat="48.41426" lon="2.52873">
        <ele>123</ele>
        <time>2022-04-27T09:22:15.133Z</time>
      </trkpt>
      <trkpt lat="48.41424" lon="2.52878">
        <ele>124</ele>
        <time>2022-04-27T09:22:20.126Z</time>
      </trkpt>
      <trkpt lat="48.41424" lon="2.52882">
        <ele>124</ele>
        <time>2022-04-27T09:22:24.128Z</time>
      </trkpt>
      <trkpt lat="48.41421" lon="2.52887">
        <ele>124</ele>
        <time>2022-04-27T09:22:29.124Z</time>
      </trkpt>
      <trkpt lat="48.4142" lon="2.52892">
        <ele>124</ele>
        <time>2022-04-27T09:22:33.127Z</time>
      </trkpt>
      <trkpt lat="48.41418" lon="2.52895">
        <ele>124</ele>
        <time>2022-04-27T09:22:37.128Z</time>
      </trkpt>
      <trkpt lat="48.41415" lon="2.52897">
        <ele>124</ele>
        <time>2022-04-27T09:22:42.130Z</time>
      </trkpt>
      <trkpt lat="48.41412" lon="2.52901">
        <ele>124</ele>
        <time>2022-04-27T09:22:47.132Z</time>
      </trkpt>
      <trkpt lat="48.4141" lon="2.52907">
        <ele>124</ele>
        <time>2022-04-27T09:22:52.122Z</time>
      </trkpt>
      <trkpt lat="48.41409" lon="2.52911">
        <ele>124</ele>
        <time>2022-04-27T09:22:56.123Z</time>
      </trkpt>
      <trkpt lat="48.41406" lon="2.52917">
        <ele>124</ele>
        <time>2022-04-27T09:23:01.122Z</time>
      </trkpt>
      <trkpt lat="48.41404" lon="2.5292">
        <ele>124</ele>
        <time>2022-04-27T09:23:05.133Z</time>
      </trkpt>
      <trkpt lat="48.41402" lon="2.52926">
        <ele>120</ele>
        <time>2022-04-27T09:23:10.124Z</time>
      </trkpt>
      <trkpt lat="48.414" lon="2.52932">
        <ele>121</ele>
        <time>2022-04-27T09:23:14.130Z</time>
      </trkpt>
      <trkpt lat="48.41395" lon="2.52936">
        <ele>121</ele>
        <time>2022-04-27T09:23:19.126Z</time>
      </trkpt>
      <trkpt lat="48.41391" lon="2.52938">
        <ele>121</ele>
        <time>2022-04-27T09:23:23.136Z</time>
      </trkpt>
      <trkpt lat="48.41391" lon="2.52946">
        <ele>121</ele>
        <time>2022-04-27T09:23:28.123Z</time>
      </trkpt>
      <trkpt lat="48.41389" lon="2.52954">
        <ele>121</ele>
        <time>2022-04-27T09:23:33.129Z</time>
      </trkpt>
      <trkpt lat="48.41387" lon="2.52958">
        <ele>121</ele>
        <time>2022-04-27T09:23:38.129Z</time>
      </trkpt>
      <trkpt lat="48.41385" lon="2.52963">
        <ele>121</ele>
        <time>2022-04-27T09:23:43.133Z</time>
      </trkpt>
      <trkpt lat="48.41386" lon="2.52967">
        <ele>121</ele>
        <time>2022-04-27T09:23:48.127Z</time>
      </trkpt>
      <trkpt lat="48.41387" lon="2.52971">
        <ele>121</ele>
        <time>2022-04-27T09:23:53.138Z</time>
      </trkpt>
      <trkpt lat="48.41386" lon="2.52976">
        <ele>121</ele>
        <time>2022-04-27T09:23:58.130Z</time>
      </trkpt>
      <trkpt lat="48.41385" lon="2.52986">
        <ele>120</ele>
        <time>2022-04-27T09:24:03.133Z</time>
      </trkpt>
      <trkpt lat="48.41378" lon="2.52989">
        <ele>120</ele>
        <time>2022-04-27T09:24:07.136Z</time>
      </trkpt>
      <trkpt lat="48.41377" lon="2.52983">
        <ele>121</ele>
        <time>2022-04-27T09:24:12.135Z</time>
      </trkpt>
      <trkpt lat="48.41376" lon="2.5299">
        <ele>120</ele>
        <time>2022-04-27T09:24:17.126Z</time>
      </trkpt>
      <trkpt lat="48.41377" lon="2.52997">
        <ele>120</ele>
        <time>2022-04-27T09:24:21.133Z</time>
      </trkpt>
      <trkpt lat="48.41377" lon="2.53004">
        <ele>120</ele>
        <time>2022-04-27T09:24:26.125Z</time>
      </trkpt>
      <trkpt lat="48.41378" lon="2.5301">
        <ele>120</ele>
        <time>2022-04-27T09:24:31.126Z</time>
      </trkpt>
      <trkpt lat="48.41375" lon="2.53013">
        <ele>114</ele>
        <time>2022-04-27T09:24:36.130Z</time>
      </trkpt>
      <trkpt lat="48.41369" lon="2.53018">
        <ele>114</ele>
        <time>2022-04-27T09:24:41.125Z</time>
      </trkpt>
      <trkpt lat="48.41367" lon="2.5303">
        <ele>114</ele>
        <time>2022-04-27T09:24:46.133Z</time>
      </trkpt>
      <trkpt lat="48.41369" lon="2.53036">
        <ele>114</ele>
        <time>2022-04-27T09:24:51.122Z</time>
      </trkpt>
      <trkpt lat="48.4137" lon="2.5304">
        <ele>114</ele>
        <time>2022-04-27T09:24:55.132Z</time>
      </trkpt>
      <trkpt lat="48.41369" lon="2.53044">
        <ele>114</ele>
        <time>2022-04-27T09:25:00.139Z</time>
      </trkpt>
      <trkpt lat="48.41367" lon="2.53052">
        <ele>114</ele>
        <time>2022-04-27T09:25:05.136Z</time>
      </trkpt>
      <trkpt lat="48.41366" lon="2.53059">
        <ele>114</ele>
        <time>2022-04-27T09:25:10.137Z</time>
      </trkpt>
      <trkpt lat="48.41362" lon="2.53066">
        <ele>114</ele>
        <time>2022-04-27T09:25:15.132Z</time>
      </trkpt>
      <trkpt lat="48.41363" lon="2.53068">
        <ele>114</ele>
        <time>2022-04-27T09:25:19.141Z</time>
      </trkpt>
      <trkpt lat="48.41363" lon="2.53076">
        <ele>114</ele>
        <time>2022-04-27T09:25:24.134Z</time>
      </trkpt>
      <trkpt lat="48.41363" lon="2.5308">
        <ele>114</ele>
        <time>2022-04-27T09:25:29.128Z</time>
      </trkpt>
      <trkpt lat="48.41363" lon="2.53086">
        <ele>114</ele>
        <time>2022-04-27T09:25:34.127Z</time>
      </trkpt>
      <trkpt lat="48.41362" lon="2.53092">
        <ele>114</ele>
        <time>2022-04-27T09:25:39.153Z</time>
      </trkpt>
      <trkpt lat="48.41362" lon="2.53096">
        <ele>114</ele>
        <time>2022-04-27T09:25:44.166Z</time>
      </trkpt>
      <trkpt lat="48.41361" lon="2.53098">
        <ele>115</ele>
        <time>2022-04-27T09:25:49.122Z</time>
      </trkpt>
      <trkpt lat="48.41359" lon="2.53104">
        <ele>115</ele>
        <time>2022-04-27T09:25:54.121Z</time>
      </trkpt>
      <trkpt lat="48.41356" lon="2.53107">
        <ele>115</ele>
        <time>2022-04-27T09:25:59.150Z</time>
      </trkpt>
      <trkpt lat="48.41354" lon="2.5311">
        <ele>115</ele>
        <time>2022-04-27T09:26:04.139Z</time>
      </trkpt>
      <trkpt lat="48.41353" lon="2.53117">
        <ele>115</ele>
        <time>2022-04-27T09:26:09.135Z</time>
      </trkpt>
      <trkpt lat="48.41353" lon="2.5312">
        <ele>115</ele>
        <time>2022-04-27T09:26:14.123Z</time>
      </trkpt>
      <trkpt lat="48.41352" lon="2.53123">
        <ele>115</ele>
        <time>2022-04-27T09:26:19.123Z</time>
      </trkpt>
      <trkpt lat="48.41351" lon="2.53131">
        <ele>116</ele>
        <time>2022-04-27T09:26:24.120Z</time>
      </trkpt>
      <trkpt lat="48.4135" lon="2.53134">
        <ele>116</ele>
        <time>2022-04-27T09:26:29.135Z</time>
      </trkpt>
      <trkpt lat="48.41353" lon="2.53139">
        <ele>116</ele>
        <time>2022-04-27T09:26:34.128Z</time>
      </trkpt>
      <trkpt lat="48.4135" lon="2.53144">
        <ele>116</ele>
        <time>2022-04-27T09:26:38.140Z</time>
      </trkpt>
      <trkpt lat="48.41349" lon="2.53148">
        <ele>116</ele>
        <time>2022-04-27T09:26:43.122Z</time>
      </trkpt>
      <trkpt lat="48.41349" lon="2.53151">
        <ele>116</ele>
        <time>2022-04-27T09:26:47.135Z</time>
      </trkpt>
      <trkpt lat="48.41347" lon="2.53158">
        <ele>115</ele>
        <time>2022-04-27T09:26:52.134Z</time>
      </trkpt>
      <trkpt lat="48.41345" lon="2.53167">
        <ele>115</ele>
        <time>2022-04-27T09:26:57.123Z</time>
      </trkpt>
      <trkpt lat="48.41345" lon="2.53175">
        <ele>115</ele>
        <time>2022-04-27T09:27:02.134Z</time>
      </trkpt>
      <trkpt lat="48.41343" lon="2.53184">
        <ele>116</ele>
        <time>2022-04-27T09:27:07.133Z</time>
      </trkpt>
      <trkpt lat="48.41341" lon="2.53191">
        <ele>116</ele>
        <time>2022-04-27T09:27:12.124Z</time>
      </trkpt>
      <trkpt lat="48.4134" lon="2.53195">
        <ele>116</ele>
        <time>2022-04-27T09:27:16.138Z</time>
      </trkpt>
      <trkpt lat="48.4134" lon="2.53201">
        <ele>116</ele>
        <time>2022-04-27T09:27:21.131Z</time>
      </trkpt>
      <trkpt lat="48.41339" lon="2.53206">
        <ele>116</ele>
        <time>2022-04-27T09:27:25.134Z</time>
      </trkpt>
      <trkpt lat="48.41337" lon="2.53211">
        <ele>117</ele>
        <time>2022-04-27T09:27:30.138Z</time>
      </trkpt>
      <trkpt lat="48.41333" lon="2.53212">
        <ele>117</ele>
        <time>2022-04-27T09:27:35.128Z</time>
      </trkpt>
      <trkpt lat="48.41332" lon="2.53211">
        <ele>117</ele>
        <time>2022-04-27T09:27:39.134Z</time>
      </trkpt>
      <trkpt lat="48.4133" lon="2.53215">
        <ele>117</ele>
        <time>2022-04-27T09:27:43.141Z</time>
      </trkpt>
      <trkpt lat="48.41329" lon="2.53217">
        <ele>117</ele>
        <time>2022-04-27T09:27:48.138Z</time>
      </trkpt>
      <trkpt lat="48.41327" lon="2.53219">
        <ele>117</ele>
        <time>2022-04-27T09:27:52.146Z</time>
      </trkpt>
      <trkpt lat="48.41324" lon="2.53225">
        <ele>117</ele>
        <time>2022-04-27T09:27:57.134Z</time>
      </trkpt>
      <trkpt lat="48.4132" lon="2.53227">
        <ele>117</ele>
        <time>2022-04-27T09:28:01.143Z</time>
      </trkpt>
      <trkpt lat="48.41316" lon="2.53228">
        <ele>113</ele>
        <time>2022-04-27T09:28:06.138Z</time>
      </trkpt>
      <trkpt lat="48.41314" lon="2.53229">
        <ele>113</ele>
        <time>2022-04-27T09:28:11.139Z</time>
      </trkpt>
      <trkpt lat="48.41311" lon="2.53231">
        <ele>113</ele>
        <time>2022-04-27T09:28:16.137Z</time>
      </trkpt>
      <trkpt lat="48.41308" lon="2.53235">
        <ele>113</ele>
        <time>2022-04-27T09:28:20.119Z</time>
      </trkpt>
      <trkpt lat="48.41307" lon="2.53239">
        <ele>115</ele>
        <time>2022-04-27T09:28:29.149Z</time>
      </trkpt>
      <trkpt lat="48.41306" lon="2.5324">
        <ele>115</ele>
        <time>2022-04-27T09:28:34.123Z</time>
      </trkpt>
      <trkpt lat="48.41305" lon="2.53245">
        <ele>115</ele>
        <time>2022-04-27T09:28:38.146Z</time>
      </trkpt>
      <trkpt lat="48.41303" lon="2.53251">
        <ele>115</ele>
        <time>2022-04-27T09:28:43.140Z</time>
      </trkpt>
      <trkpt lat="48.413" lon="2.53256">
        <ele>115</ele>
        <time>2022-04-27T09:28:48.141Z</time>
      </trkpt>
      <trkpt lat="48.413" lon="2.53256">
        <ele>115</ele>
        <time>2022-04-27T09:28:53.139Z</time>
      </trkpt>
      <trkpt lat="48.413" lon="2.53256">
        <ele>115</ele>
        <time>2022-04-27T09:28:58.126Z</time>
      </trkpt>
      <trkpt lat="48.41298" lon="2.53265">
        <ele>116</ele>
        <time>2022-04-27T09:29:03.137Z</time>
      </trkpt>
      <trkpt lat="48.41295" lon="2.5327">
        <ele>116</ele>
        <time>2022-04-27T09:29:08.118Z</time>
      </trkpt>
      <trkpt lat="48.41295" lon="2.53276">
        <ele>116</ele>
        <time>2022-04-27T09:29:12.134Z</time>
      </trkpt>
      <trkpt lat="48.41292" lon="2.53278">
        <ele>112</ele>
        <time>2022-04-27T09:29:17.136Z</time>
      </trkpt>
      <trkpt lat="48.41289" lon="2.53276">
        <ele>112</ele>
        <time>2022-04-27T09:29:21.138Z</time>
      </trkpt>
      <trkpt lat="48.41287" lon="2.53279">
        <ele>112</ele>
        <time>2022-04-27T09:29:25.152Z</time>
      </trkpt>
      <trkpt lat="48.41286" lon="2.53285">
        <ele>112</ele>
        <time>2022-04-27T09:29:30.139Z</time>
      </trkpt>
      <trkpt lat="48.41285" lon="2.53293">
        <ele>112</ele>
        <time>2022-04-27T09:29:35.131Z</time>
      </trkpt>
      <trkpt lat="48.41287" lon="2.53295">
        <ele>112</ele>
        <time>2022-04-27T09:29:40.132Z</time>
      </trkpt>
      <trkpt lat="48.41287" lon="2.53301">
        <ele>112</ele>
        <time>2022-04-27T09:29:45.125Z</time>
      </trkpt>
      <trkpt lat="48.41286" lon="2.53306">
        <ele>112</ele>
        <time>2022-04-27T09:29:50.130Z</time>
      </trkpt>
      <trkpt lat="48.41282" lon="2.53312">
        <ele>112</ele>
        <time>2022-04-27T09:29:58.141Z</time>
      </trkpt>
      <trkpt lat="48.4128" lon="2.53311">
        <ele>112</ele>
        <time>2022-04-27T09:30:03.129Z</time>
      </trkpt>
      <trkpt lat="48.41279" lon="2.53316">
        <ele>112</ele>
        <time>2022-04-27T09:30:07.140Z</time>
      </trkpt>
      <trkpt lat="48.41279" lon="2.53318">
        <ele>112</ele>
        <time>2022-04-27T09:30:12.141Z</time>
      </trkpt>
      <trkpt lat="48.41277" lon="2.53321">
        <ele>109</ele>
        <time>2022-04-27T09:30:17.141Z</time>
      </trkpt>
      <trkpt lat="48.41275" lon="2.53327">
        <ele>109</ele>
        <time>2022-04-27T09:30:27.122Z</time>
      </trkpt>
      <trkpt lat="48.41274" lon="2.5333">
        <ele>109</ele>
        <time>2022-04-27T09:30:31.123Z</time>
      </trkpt>
      <trkpt lat="48.41275" lon="2.53333">
        <ele>109</ele>
        <time>2022-04-27T09:30:35.130Z</time>
      </trkpt>
      <trkpt lat="48.41275" lon="2.53337">
        <ele>109</ele>
        <time>2022-04-27T09:30:40.132Z</time>
      </trkpt>
      <trkpt lat="48.41275" lon="2.53342">
        <ele>109</ele>
        <time>2022-04-27T09:30:45.139Z</time>
      </trkpt>
      <trkpt lat="48.41275" lon="2.53343">
        <ele>109</ele>
        <time>2022-04-27T09:30:50.136Z</time>
      </trkpt>
      <trkpt lat="48.41277" lon="2.53348">
        <ele>106</ele>
        <time>2022-04-27T09:30:55.161Z</time>
      </trkpt>
      <trkpt lat="48.4128" lon="2.53349">
        <ele>106</ele>
        <time>2022-04-27T09:31:00.122Z</time>
      </trkpt>
      <trkpt lat="48.41284" lon="2.53353">
        <ele>106</ele>
        <time>2022-04-27T09:31:05.122Z</time>
      </trkpt>
      <trkpt lat="48.41285" lon="2.53358">
        <ele>106</ele>
        <time>2022-04-27T09:31:10.122Z</time>
      </trkpt>
      <trkpt lat="48.41285" lon="2.53363">
        <ele>106</ele>
        <time>2022-04-27T09:31:14.123Z</time>
      </trkpt>
      <trkpt lat="48.41285" lon="2.53369">
        <ele>106</ele>
        <time>2022-04-27T09:31:19.126Z</time>
      </trkpt>
      <trkpt lat="48.41284" lon="2.53374">
        <ele>106</ele>
        <time>2022-04-27T09:31:24.129Z</time>
      </trkpt>
      <trkpt lat="48.41284" lon="2.5338">
        <ele>103</ele>
        <time>2022-04-27T09:31:28.132Z</time>
      </trkpt>
      <trkpt lat="48.41282" lon="2.53387">
        <ele>103</ele>
        <time>2022-04-27T09:31:33.132Z</time>
      </trkpt>
      <trkpt lat="48.41279" lon="2.53392">
        <ele>103</ele>
        <time>2022-04-27T09:31:38.126Z</time>
      </trkpt>
      <trkpt lat="48.41277" lon="2.5339">
        <ele>103</ele>
        <time>2022-04-27T09:31:42.130Z</time>
      </trkpt>
      <trkpt lat="48.41281" lon="2.53396">
        <ele>103</ele>
        <time>2022-04-27T09:31:47.115Z</time>
      </trkpt>
      <trkpt lat="48.41282" lon="2.53398">
        <ele>103</ele>
        <time>2022-04-27T09:31:51.133Z</time>
      </trkpt>
      <trkpt lat="48.41284" lon="2.53403">
        <ele>103</ele>
        <time>2022-04-27T09:31:56.126Z</time>
      </trkpt>
      <trkpt lat="48.41286" lon="2.53408">
        <ele>100</ele>
        <time>2022-04-27T09:32:01.125Z</time>
      </trkpt>
      <trkpt lat="48.41286" lon="2.53416">
        <ele>100</ele>
        <time>2022-04-27T09:32:06.117Z</time>
      </trkpt>
      <trkpt lat="48.4129" lon="2.5342">
        <ele>100</ele>
        <time>2022-04-27T09:32:10.121Z</time>
      </trkpt>
      <trkpt lat="48.41293" lon="2.53425">
        <ele>102</ele>
        <time>2022-04-27T09:32:14.122Z</time>
      </trkpt>
      <trkpt lat="48.41296" lon="2.53433">
        <ele>100</ele>
        <time>2022-04-27T09:32:19.120Z</time>
      </trkpt>
      <trkpt lat="48.41298" lon="2.53437">
        <ele>100</ele>
        <time>2022-04-27T09:32:23.129Z</time>
      </trkpt>
      <trkpt lat="48.41298" lon="2.53444">
        <ele>100</ele>
        <time>2022-04-27T09:32:28.122Z</time>
      </trkpt>
      <trkpt lat="48.41297" lon="2.53452">
        <ele>100</ele>
        <time>2022-04-27T09:32:33.122Z</time>
      </trkpt>
      <trkpt lat="48.41295" lon="2.53457">
        <ele>100</ele>
        <time>2022-04-27T09:32:37.127Z</time>
      </trkpt>
      <trkpt lat="48.41294" lon="2.53466">
        <ele>97</ele>
        <time>2022-04-27T09:32:42.130Z</time>
      </trkpt>
      <trkpt lat="48.41289" lon="2.53471">
        <ele>95</ele>
        <time>2022-04-27T09:32:47.117Z</time>
      </trkpt>
      <trkpt lat="48.41291" lon="2.53476">
        <ele>95</ele>
        <time>2022-04-27T09:32:52.123Z</time>
      </trkpt>
      <trkpt lat="48.41294" lon="2.53479">
        <ele>97</ele>
        <time>2022-04-27T09:32:56.125Z</time>
      </trkpt>
      <trkpt lat="48.41295" lon="2.53482">
        <ele>97</ele>
        <time>2022-04-27T09:33:00.132Z</time>
      </trkpt>
      <trkpt lat="48.41294" lon="2.53488">
        <ele>96</ele>
        <time>2022-04-27T09:33:04.134Z</time>
      </trkpt>
      <trkpt lat="48.41295" lon="2.53495">
        <ele>96</ele>
        <time>2022-04-27T09:33:09.125Z</time>
      </trkpt>
      <trkpt lat="48.41296" lon="2.53503">
        <ele>96</ele>
        <time>2022-04-27T09:33:14.124Z</time>
      </trkpt>
      <trkpt lat="48.41298" lon="2.53508">
        <ele>96</ele>
        <time>2022-04-27T09:33:18.137Z</time>
      </trkpt>
      <trkpt lat="48.41299" lon="2.53516">
        <ele>95</ele>
        <time>2022-04-27T09:33:23.127Z</time>
      </trkpt>
      <trkpt lat="48.41299" lon="2.53518">
        <ele>95</ele>
        <time>2022-04-27T09:33:28.124Z</time>
      </trkpt>
      <trkpt lat="48.413" lon="2.53524">
        <ele>95</ele>
        <time>2022-04-27T09:33:32.131Z</time>
      </trkpt>
      <trkpt lat="48.413" lon="2.53532">
        <ele>95</ele>
        <time>2022-04-27T09:33:37.122Z</time>
      </trkpt>
      <trkpt lat="48.41297" lon="2.53537">
        <ele>95</ele>
        <time>2022-04-27T09:33:41.141Z</time>
      </trkpt>
      <trkpt lat="48.41294" lon="2.53542">
        <ele>94</ele>
        <time>2022-04-27T09:33:46.133Z</time>
      </trkpt>
      <trkpt lat="48.41293" lon="2.5355">
        <ele>94</ele>
        <time>2022-04-27T09:33:51.140Z</time>
      </trkpt>
      <trkpt lat="48.41295" lon="2.53557">
        <ele>94</ele>
        <time>2022-04-27T09:33:56.127Z</time>
      </trkpt>
      <trkpt lat="48.41294" lon="2.53563">
        <ele>94</ele>
        <time>2022-04-27T09:34:00.137Z</time>
      </trkpt>
      <trkpt lat="48.41296" lon="2.53572">
        <ele>93</ele>
        <time>2022-04-27T09:34:05.145Z</time>
      </trkpt>
      <trkpt lat="48.41298" lon="2.53577">
        <ele>93</ele>
        <time>2022-04-27T09:34:10.127Z</time>
      </trkpt>
      <trkpt lat="48.41297" lon="2.53585">
        <ele>93</ele>
        <time>2022-04-27T09:34:14.132Z</time>
      </trkpt>
      <trkpt lat="48.41301" lon="2.53599">
        <ele>91</ele>
        <time>2022-04-27T09:34:28.129Z</time>
      </trkpt>
      <trkpt lat="48.41299" lon="2.53604">
        <ele>91</ele>
        <time>2022-04-27T09:34:32.135Z</time>
      </trkpt>
      <trkpt lat="48.41299" lon="2.53619">
        <ele>91</ele>
        <time>2022-04-27T09:34:37.126Z</time>
      </trkpt>
      <trkpt lat="48.41297" lon="2.53625">
        <ele>91</ele>
        <time>2022-04-27T09:34:41.133Z</time>
      </trkpt>
      <trkpt lat="48.41297" lon="2.53631">
        <ele>91</ele>
        <time>2022-04-27T09:34:45.141Z</time>
      </trkpt>
      <trkpt lat="48.41297" lon="2.53638">
        <ele>91</ele>
        <time>2022-04-27T09:34:50.135Z</time>
      </trkpt>
      <trkpt lat="48.41295" lon="2.53642">
        <ele>91</ele>
        <time>2022-04-27T09:34:55.144Z</time>
      </trkpt>
      <trkpt lat="48.41295" lon="2.53648">
        <ele>91</ele>
        <time>2022-04-27T09:34:59.136Z</time>
      </trkpt>
      <trkpt lat="48.41293" lon="2.53656">
        <ele>91</ele>
        <time>2022-04-27T09:35:04.132Z</time>
      </trkpt>
      <trkpt lat="48.41292" lon="2.53662">
        <ele>89</ele>
        <time>2022-04-27T09:35:08.139Z</time>
      </trkpt>
      <trkpt lat="48.41294" lon="2.53668">
        <ele>91</ele>
        <time>2022-04-27T09:35:13.138Z</time>
      </trkpt>
      <trkpt lat="48.41297" lon="2.53671">
        <ele>91</ele>
        <time>2022-04-27T09:35:18.136Z</time>
      </trkpt>
      <trkpt lat="48.41299" lon="2.53676">
        <ele>91</ele>
        <time>2022-04-27T09:35:23.134Z</time>
      </trkpt>
      <trkpt lat="48.41297" lon="2.53681">
        <ele>90</ele>
        <time>2022-04-27T09:35:27.141Z</time>
      </trkpt>
      <trkpt lat="48.41298" lon="2.53688">
        <ele>90</ele>
        <time>2022-04-27T09:35:32.140Z</time>
      </trkpt>
      <trkpt lat="48.41298" lon="2.53697">
        <ele>90</ele>
        <time>2022-04-27T09:35:37.145Z</time>
      </trkpt>
      <trkpt lat="48.41296" lon="2.53701">
        <ele>90</ele>
        <time>2022-04-27T09:35:42.135Z</time>
      </trkpt>
      <trkpt lat="48.41292" lon="2.53704">
        <ele>90</ele>
        <time>2022-04-27T09:35:47.132Z</time>
      </trkpt>
      <trkpt lat="48.41293" lon="2.53707">
        <ele>90</ele>
        <time>2022-04-27T09:35:52.134Z</time>
      </trkpt>
      <trkpt lat="48.41293" lon="2.53713">
        <ele>90</ele>
        <time>2022-04-27T09:35:57.133Z</time>
      </trkpt>
      <trkpt lat="48.4129" lon="2.53717">
        <ele>91</ele>
        <time>2022-04-27T09:36:02.131Z</time>
      </trkpt>
      <trkpt lat="48.41289" lon="2.53721">
        <ele>91</ele>
        <time>2022-04-27T09:36:07.129Z</time>
      </trkpt>
      <trkpt lat="48.41286" lon="2.53724">
        <ele>91</ele>
        <time>2022-04-27T09:36:11.138Z</time>
      </trkpt>
      <trkpt lat="48.41284" lon="2.53729">
        <ele>91</ele>
        <time>2022-04-27T09:36:16.139Z</time>
      </trkpt>
      <trkpt lat="48.41285" lon="2.53736">
        <ele>91</ele>
        <time>2022-04-27T09:36:20.151Z</time>
      </trkpt>
      <trkpt lat="48.41285" lon="2.53742">
        <ele>90</ele>
        <time>2022-04-27T09:36:25.159Z</time>
      </trkpt>
      <trkpt lat="48.41282" lon="2.53747">
        <ele>90</ele>
        <time>2022-04-27T09:36:30.141Z</time>
      </trkpt>
      <trkpt lat="48.41283" lon="2.53753">
        <ele>90</ele>
        <time>2022-04-27T09:36:35.137Z</time>
      </trkpt>
      <trkpt lat="48.41283" lon="2.53759">
        <ele>90</ele>
        <time>2022-04-27T09:36:40.145Z</time>
      </trkpt>
      <trkpt lat="48.41282" lon="2.53762">
        <ele>90</ele>
        <time>2022-04-27T09:36:45.127Z</time>
      </trkpt>
      <trkpt lat="48.41276" lon="2.5377">
        <ele>89</ele>
        <time>2022-04-27T09:40:19.124Z</time>
      </trkpt>
      <trkpt lat="48.41273" lon="2.53771">
        <ele>89</ele>
        <time>2022-04-27T09:40:23.139Z</time>
      </trkpt>
      <trkpt lat="48.41267" lon="2.53775">
        <ele>89</ele>
        <time>2022-04-27T09:40:28.136Z</time>
      </trkpt>
      <trkpt lat="48.41261" lon="2.53778">
        <ele>86</ele>
        <time>2022-04-27T09:40:33.139Z</time>
      </trkpt>
      <trkpt lat="48.41255" lon="2.53783">
        <ele>86</ele>
        <time>2022-04-27T09:40:38.148Z</time>
      </trkpt>
      <trkpt lat="48.4125" lon="2.53788">
        <ele>86</ele>
        <time>2022-04-27T09:40:43.135Z</time>
      </trkpt>
      <trkpt lat="48.41246" lon="2.53793">
        <ele>86</ele>
        <time>2022-04-27T09:40:47.147Z</time>
      </trkpt>
      <trkpt lat="48.4124" lon="2.53799">
        <ele>86</ele>
        <time>2022-04-27T09:40:52.136Z</time>
      </trkpt>
      <trkpt lat="48.41237" lon="2.53802">
        <ele>86</ele>
        <time>2022-04-27T09:40:56.139Z</time>
      </trkpt>
      <trkpt lat="48.41232" lon="2.53807">
        <ele>83</ele>
        <time>2022-04-27T09:41:01.123Z</time>
      </trkpt>
      <trkpt lat="48.41228" lon="2.53811">
        <ele>83</ele>
        <time>2022-04-27T09:41:05.131Z</time>
      </trkpt>
      <trkpt lat="48.41223" lon="2.53816">
        <ele>83</ele>
        <time>2022-04-27T09:41:10.126Z</time>
      </trkpt>
      <trkpt lat="48.41217" lon="2.53823">
        <ele>84</ele>
        <time>2022-04-27T09:41:15.124Z</time>
      </trkpt>
      <trkpt lat="48.41212" lon="2.53832">
        <ele>84</ele>
        <time>2022-04-27T09:41:20.131Z</time>
      </trkpt>
      <trkpt lat="48.4121" lon="2.53841">
        <ele>84</ele>
        <time>2022-04-27T09:41:25.120Z</time>
      </trkpt>
      <trkpt lat="48.41207" lon="2.53848">
        <ele>82</ele>
        <time>2022-04-27T09:41:29.120Z</time>
      </trkpt>
      <trkpt lat="48.41203" lon="2.53856">
        <ele>82</ele>
        <time>2022-04-27T09:41:33.125Z</time>
      </trkpt>
      <trkpt lat="48.412" lon="2.53862">
        <ele>82</ele>
        <time>2022-04-27T09:41:37.134Z</time>
      </trkpt>
      <trkpt lat="48.41196" lon="2.5387">
        <ele>82</ele>
        <time>2022-04-27T09:41:42.128Z</time>
      </trkpt>
      <trkpt lat="48.41193" lon="2.53876">
        <ele>84</ele>
        <time>2022-04-27T09:41:47.125Z</time>
      </trkpt>
      <trkpt lat="48.41186" lon="2.53881">
        <ele>84</ele>
        <time>2022-04-27T09:41:52.124Z</time>
      </trkpt>
      <trkpt lat="48.41182" lon="2.53884">
        <ele>84</ele>
        <time>2022-04-27T09:41:56.127Z</time>
      </trkpt>
      <trkpt lat="48.41176" lon="2.53887">
        <ele>81</ele>
        <time>2022-04-27T09:42:01.123Z</time>
      </trkpt>
      <trkpt lat="48.41172" lon="2.53889">
        <ele>81</ele>
        <time>2022-04-27T09:42:05.133Z</time>
      </trkpt>
      <trkpt lat="48.41166" lon="2.53892">
        <ele>81</ele>
        <time>2022-04-27T09:42:10.130Z</time>
      </trkpt>
      <trkpt lat="48.4116" lon="2.53894">
        <ele>81</ele>
        <time>2022-04-27T09:42:15.131Z</time>
      </trkpt>
      <trkpt lat="48.41155" lon="2.53895">
        <ele>81</ele>
        <time>2022-04-27T09:42:20.122Z</time>
      </trkpt>
      <trkpt lat="48.41149" lon="2.53898">
        <ele>79</ele>
        <time>2022-04-27T09:42:25.123Z</time>
      </trkpt>
      <trkpt lat="48.41143" lon="2.53898">
        <ele>79</ele>
        <time>2022-04-27T09:42:30.132Z</time>
      </trkpt>
      <trkpt lat="48.41138" lon="2.53897">
        <ele>79</ele>
        <time>2022-04-27T09:42:34.140Z</time>
      </trkpt>
      <trkpt lat="48.4113" lon="2.53896">
        <ele>79</ele>
        <time>2022-04-27T09:42:39.137Z</time>
      </trkpt>
      <trkpt lat="48.41123" lon="2.53896">
        <ele>78</ele>
        <time>2022-04-27T09:42:44.122Z</time>
      </trkpt>
      <trkpt lat="48.41117" lon="2.53898">
        <ele>78</ele>
        <time>2022-04-27T09:42:48.128Z</time>
      </trkpt>
      <trkpt lat="48.41112" lon="2.53899">
        <ele>78</ele>
        <time>2022-04-27T09:42:52.142Z</time>
      </trkpt>
      <trkpt lat="48.41104" lon="2.53899">
        <ele>78</ele>
        <time>2022-04-27T09:42:57.124Z</time>
      </trkpt>
      <trkpt lat="48.41096" lon="2.53911">
        <ele>77</ele>
        <time>2022-04-27T09:43:02.124Z</time>
      </trkpt>
      <trkpt lat="48.41091" lon="2.53919">
        <ele>77</ele>
        <time>2022-04-27T09:43:07.121Z</time>
      </trkpt>
      <trkpt lat="48.41087" lon="2.53922">
        <ele>77</ele>
        <time>2022-04-27T09:43:12.125Z</time>
      </trkpt>
      <trkpt lat="48.4108" lon="2.53927">
        <ele>77</ele>
        <time>2022-04-27T09:43:17.123Z</time>
      </trkpt>
      <trkpt lat="48.41074" lon="2.53931">
        <ele>78</ele>
        <time>2022-04-27T09:43:22.126Z</time>
      </trkpt>
      <trkpt lat="48.4107" lon="2.5394">
        <ele>78</ele>
        <time>2022-04-27T09:43:26.131Z</time>
      </trkpt>
      <trkpt lat="48.41072" lon="2.53948">
        <ele>78</ele>
        <time>2022-04-27T09:43:30.138Z</time>
      </trkpt>
      <trkpt lat="48.41075" lon="2.53955">
        <ele>78</ele>
        <time>2022-04-27T09:43:35.132Z</time>
      </trkpt>
      <trkpt lat="48.41078" lon="2.53961">
        <ele>79</ele>
        <time>2022-04-27T09:43:39.137Z</time>
      </trkpt>
      <trkpt lat="48.4108" lon="2.53967">
        <ele>79</ele>
        <time>2022-04-27T09:43:44.128Z</time>
      </trkpt>
      <trkpt lat="48.41083" lon="2.53975">
        <ele>79</ele>
        <time>2022-04-27T09:43:49.123Z</time>
      </trkpt>
      <trkpt lat="48.41085" lon="2.5398">
        <ele>79</ele>
        <time>2022-04-27T09:43:53.140Z</time>
      </trkpt>
      <trkpt lat="48.41087" lon="2.53987">
        <ele>79</ele>
        <time>2022-04-27T09:43:58.136Z</time>
      </trkpt>
      <trkpt lat="48.41088" lon="2.53997">
        <ele>79</ele>
        <time>2022-04-27T09:44:03.137Z</time>
      </trkpt>
      <trkpt lat="48.41091" lon="2.54002">
        <ele>79</ele>
        <time>2022-04-27T09:44:07.141Z</time>
      </trkpt>
      <trkpt lat="48.41094" lon="2.5401">
        <ele>79</ele>
        <time>2022-04-27T09:44:12.142Z</time>
      </trkpt>
      <trkpt lat="48.41096" lon="2.54017">
        <ele>79</ele>
        <time>2022-04-27T09:44:17.132Z</time>
      </trkpt>
      <trkpt lat="48.41098" lon="2.54026">
        <ele>81</ele>
        <time>2022-04-27T09:44:22.126Z</time>
      </trkpt>
      <trkpt lat="48.41099" lon="2.54036">
        <ele>81</ele>
        <time>2022-04-27T09:44:27.131Z</time>
      </trkpt>
      <trkpt lat="48.41102" lon="2.54043">
        <ele>80</ele>
        <time>2022-04-27T09:44:32.123Z</time>
      </trkpt>
      <trkpt lat="48.41103" lon="2.54051">
        <ele>80</ele>
        <time>2022-04-27T09:44:36.136Z</time>
      </trkpt>
      <trkpt lat="48.41105" lon="2.54059">
        <ele>80</ele>
        <time>2022-04-27T09:44:41.133Z</time>
      </trkpt>
      <trkpt lat="48.41108" lon="2.54065">
        <ele>80</ele>
        <time>2022-04-27T09:44:45.130Z</time>
      </trkpt>
      <trkpt lat="48.4111" lon="2.54074">
        <ele>80</ele>
        <time>2022-04-27T09:44:50.121Z</time>
      </trkpt>
      <trkpt lat="48.41111" lon="2.54084">
        <ele>80</ele>
        <time>2022-04-27T09:44:54.131Z</time>
      </trkpt>
      <trkpt lat="48.41114" lon="2.54092">
        <ele>80</ele>
        <time>2022-04-27T09:44:58.138Z</time>
      </trkpt>
      <trkpt lat="48.41116" lon="2.54102">
        <ele>80</ele>
        <time>2022-04-27T09:45:03.126Z</time>
      </trkpt>
      <trkpt lat="48.41117" lon="2.54114">
        <ele>80</ele>
        <time>2022-04-27T09:45:08.131Z</time>
      </trkpt>
      <trkpt lat="48.4112" lon="2.54124">
        <ele>80</ele>
        <time>2022-04-27T09:45:13.124Z</time>
      </trkpt>
      <trkpt lat="48.4112" lon="2.54135">
        <ele>80</ele>
        <time>2022-04-27T09:45:18.129Z</time>
      </trkpt>
      <trkpt lat="48.41121" lon="2.54146">
        <ele>80</ele>
        <time>2022-04-27T09:45:23.122Z</time>
      </trkpt>
      <trkpt lat="48.41123" lon="2.54157">
        <ele>81</ele>
        <time>2022-04-27T09:45:28.126Z</time>
      </trkpt>
      <trkpt lat="48.41126" lon="2.54168">
        <ele>84</ele>
        <time>2022-04-27T09:45:33.127Z</time>
      </trkpt>
      <trkpt lat="48.41127" lon="2.54177">
        <ele>84</ele>
        <time>2022-04-27T09:45:37.131Z</time>
      </trkpt>
      <trkpt lat="48.41128" lon="2.54187">
        <ele>85</ele>
        <time>2022-04-27T09:45:42.129Z</time>
      </trkpt>
      <trkpt lat="48.41131" lon="2.54196">
        <ele>85</ele>
        <time>2022-04-27T09:45:47.127Z</time>
      </trkpt>
      <trkpt lat="48.41135" lon="2.54204">
        <ele>85</ele>
        <time>2022-04-27T09:45:52.138Z</time>
      </trkpt>
      <trkpt lat="48.41138" lon="2.54213">
        <ele>86</ele>
        <time>2022-04-27T09:45:57.127Z</time>
      </trkpt>
      <trkpt lat="48.41142" lon="2.5422">
        <ele>86</ele>
        <time>2022-04-27T09:46:02.135Z</time>
      </trkpt>
      <trkpt lat="48.41141" lon="2.54232">
        <ele>86</ele>
        <time>2022-04-27T09:46:07.126Z</time>
      </trkpt>
      <trkpt lat="48.41137" lon="2.5424">
        <ele>86</ele>
        <time>2022-04-27T09:46:11.136Z</time>
      </trkpt>
      <trkpt lat="48.41137" lon="2.54249">
        <ele>86</ele>
        <time>2022-04-27T09:46:16.132Z</time>
      </trkpt>
      <trkpt lat="48.41141" lon="2.54254">
        <ele>86</ele>
        <time>2022-04-27T09:46:20.132Z</time>
      </trkpt>
      <trkpt lat="48.41149" lon="2.54265">
        <ele>87</ele>
        <time>2022-04-27T09:46:25.127Z</time>
      </trkpt>
      <trkpt lat="48.41151" lon="2.54274">
        <ele>87</ele>
        <time>2022-04-27T09:46:29.129Z</time>
      </trkpt>
      <trkpt lat="48.41153" lon="2.54281">
        <ele>87</ele>
        <time>2022-04-27T09:46:33.133Z</time>
      </trkpt>
      <trkpt lat="48.41154" lon="2.54288">
        <ele>87</ele>
        <time>2022-04-27T09:46:37.137Z</time>
      </trkpt>
      <trkpt lat="48.41157" lon="2.54297">
        <ele>88</ele>
        <time>2022-04-27T09:46:42.134Z</time>
      </trkpt>
      <trkpt lat="48.41159" lon="2.54307">
        <ele>88</ele>
        <time>2022-04-27T09:46:47.148Z</time>
      </trkpt>
      <trkpt lat="48.41162" lon="2.54315">
        <ele>88</ele>
        <time>2022-04-27T09:46:52.131Z</time>
      </trkpt>
      <trkpt lat="48.41165" lon="2.54318">
        <ele>88</ele>
        <time>2022-04-27T09:46:56.129Z</time>
      </trkpt>
      <trkpt lat="48.41168" lon="2.54314">
        <ele>88</ele>
        <time>2022-04-27T09:47:01.128Z</time>
      </trkpt>
      <trkpt lat="48.41171" lon="2.54312">
        <ele>88</ele>
        <time>2022-04-27T09:47:06.130Z</time>
      </trkpt>
      <trkpt lat="48.41175" lon="2.54312">
        <ele>88</ele>
        <time>2022-04-27T09:47:11.125Z</time>
      </trkpt>
      <trkpt lat="48.41176" lon="2.5432">
        <ele>89</ele>
        <time>2022-04-27T09:47:16.138Z</time>
      </trkpt>
      <trkpt lat="48.41177" lon="2.54329">
        <ele>89</ele>
        <time>2022-04-27T09:47:21.115Z</time>
      </trkpt>
      <trkpt lat="48.41179" lon="2.54336">
        <ele>89</ele>
        <time>2022-04-27T09:47:25.132Z</time>
      </trkpt>
      <trkpt lat="48.41179" lon="2.54345">
        <ele>89</ele>
        <time>2022-04-27T09:47:30.131Z</time>
      </trkpt>
      <trkpt lat="48.41178" lon="2.54353">
        <ele>90</ele>
        <time>2022-04-27T09:47:34.138Z</time>
      </trkpt>
      <trkpt lat="48.41179" lon="2.54353">
        <ele>90</ele>
        <time>2022-04-27T09:47:39.131Z</time>
      </trkpt>
      <trkpt lat="48.41181" lon="2.54359">
        <ele>91</ele>
        <time>2022-04-27T09:47:44.130Z</time>
      </trkpt>
      <trkpt lat="48.41182" lon="2.54361">
        <ele>91</ele>
        <time>2022-04-27T09:47:48.140Z</time>
      </trkpt>
      <trkpt lat="48.41185" lon="2.54368">
        <ele>91</ele>
        <time>2022-04-27T09:47:53.131Z</time>
      </trkpt>
      <trkpt lat="48.4118" lon="2.54427">
        <ele>92</ele>
        <time>2022-04-27T09:47:58.127Z</time>
      </trkpt>
      <trkpt lat="48.41178" lon="2.54429">
        <ele>92</ele>
        <time>2022-04-27T09:48:02.129Z</time>
      </trkpt>
      <trkpt lat="48.41176" lon="2.54432">
        <ele>93</ele>
        <time>2022-04-27T09:48:07.134Z</time>
      </trkpt>
      <trkpt lat="48.41175" lon="2.54432">
        <ele>93</ele>
        <time>2022-04-27T09:48:12.130Z</time>
      </trkpt>
      <trkpt lat="48.41171" lon="2.54437">
        <ele>93</ele>
        <time>2022-04-27T09:48:16.137Z</time>
      </trkpt>
      <trkpt lat="48.41168" lon="2.54446">
        <ele>93</ele>
        <time>2022-04-27T09:48:21.134Z</time>
      </trkpt>
      <trkpt lat="48.41163" lon="2.54449">
        <ele>93</ele>
        <time>2022-04-27T09:48:26.124Z</time>
      </trkpt>
      <trkpt lat="48.41161" lon="2.54451">
        <ele>93</ele>
        <time>2022-04-27T09:48:30.127Z</time>
      </trkpt>
      <trkpt lat="48.41157" lon="2.54454">
        <ele>93</ele>
        <time>2022-04-27T09:48:34.130Z</time>
      </trkpt>
      <trkpt lat="48.41154" lon="2.54458">
        <ele>93</ele>
        <time>2022-04-27T09:48:38.138Z</time>
      </trkpt>
      <trkpt lat="48.4115" lon="2.54462">
        <ele>91</ele>
        <time>2022-04-27T09:48:43.128Z</time>
      </trkpt>
      <trkpt lat="48.41146" lon="2.54466">
        <ele>91</ele>
        <time>2022-04-27T09:48:47.137Z</time>
      </trkpt>
      <trkpt lat="48.41143" lon="2.54472">
        <ele>91</ele>
        <time>2022-04-27T09:48:52.120Z</time>
      </trkpt>
      <trkpt lat="48.41138" lon="2.54476">
        <ele>91</ele>
        <time>2022-04-27T09:48:56.143Z</time>
      </trkpt>
      <trkpt lat="48.41135" lon="2.54483">
        <ele>91</ele>
        <time>2022-04-27T09:49:01.130Z</time>
      </trkpt>
      <trkpt lat="48.41131" lon="2.54481">
        <ele>91</ele>
        <time>2022-04-27T09:49:06.140Z</time>
      </trkpt>
      <trkpt lat="48.41127" lon="2.54483">
        <ele>91</ele>
        <time>2022-04-27T09:49:11.134Z</time>
      </trkpt>
      <trkpt lat="48.41122" lon="2.54484">
        <ele>90</ele>
        <time>2022-04-27T09:49:15.125Z</time>
      </trkpt>
      <trkpt lat="48.41118" lon="2.54488">
        <ele>90</ele>
        <time>2022-04-27T09:49:20.124Z</time>
      </trkpt>
      <trkpt lat="48.41113" lon="2.54491">
        <ele>90</ele>
        <time>2022-04-27T09:49:25.123Z</time>
      </trkpt>
      <trkpt lat="48.4111" lon="2.54493">
        <ele>90</ele>
        <time>2022-04-27T09:49:29.128Z</time>
      </trkpt>
      <trkpt lat="48.41106" lon="2.54494">
        <ele>90</ele>
        <time>2022-04-27T09:49:34.143Z</time>
      </trkpt>
      <trkpt lat="48.41103" lon="2.54491">
        <ele>90</ele>
        <time>2022-04-27T09:49:39.137Z</time>
      </trkpt>
      <trkpt lat="48.411" lon="2.54489">
        <ele>90</ele>
        <time>2022-04-27T09:49:44.135Z</time>
      </trkpt>
      <trkpt lat="48.41097" lon="2.54487">
        <ele>88</ele>
        <time>2022-04-27T09:49:49.128Z</time>
      </trkpt>
      <trkpt lat="48.41094" lon="2.54488">
        <ele>88</ele>
        <time>2022-04-27T09:49:53.135Z</time>
      </trkpt>
      <trkpt lat="48.41091" lon="2.54487">
        <ele>88</ele>
        <time>2022-04-27T09:49:58.136Z</time>
      </trkpt>
      <trkpt lat="48.41087" lon="2.54487">
        <ele>88</ele>
        <time>2022-04-27T09:50:03.133Z</time>
      </trkpt>
      <trkpt lat="48.41083" lon="2.54488">
        <ele>88</ele>
        <time>2022-04-27T09:50:08.129Z</time>
      </trkpt>
      <trkpt lat="48.41079" lon="2.54489">
        <ele>88</ele>
        <time>2022-04-27T09:50:12.142Z</time>
      </trkpt>
      <trkpt lat="48.41077" lon="2.54485">
        <ele>88</ele>
        <time>2022-04-27T09:50:17.128Z</time>
      </trkpt>
      <trkpt lat="48.41075" lon="2.54482">
        <ele>88</ele>
        <time>2022-04-27T09:50:21.131Z</time>
      </trkpt>
      <trkpt lat="48.41075" lon="2.54475">
        <ele>88</ele>
        <time>2022-04-27T09:50:26.134Z</time>
      </trkpt>
      <trkpt lat="48.41074" lon="2.54468">
        <ele>88</ele>
        <time>2022-04-27T09:50:31.134Z</time>
      </trkpt>
      <trkpt lat="48.41073" lon="2.54461">
        <ele>88</ele>
        <time>2022-04-27T09:50:36.122Z</time>
      </trkpt>
      <trkpt lat="48.41071" lon="2.54461">
        <ele>88</ele>
        <time>2022-04-27T09:50:40.149Z</time>
      </trkpt>
      <trkpt lat="48.41066" lon="2.54463">
        <ele>85</ele>
        <time>2022-04-27T09:50:45.124Z</time>
      </trkpt>
      <trkpt lat="48.41062" lon="2.54462">
        <ele>85</ele>
        <time>2022-04-27T09:50:49.141Z</time>
      </trkpt>
      <trkpt lat="48.41058" lon="2.54462">
        <ele>85</ele>
        <time>2022-04-27T09:50:54.134Z</time>
      </trkpt>
      <trkpt lat="48.41054" lon="2.54462">
        <ele>85</ele>
        <time>2022-04-27T09:50:59.125Z</time>
      </trkpt>
      <trkpt lat="48.41051" lon="2.54456">
        <ele>85</ele>
        <time>2022-04-27T09:51:04.130Z</time>
      </trkpt>
      <trkpt lat="48.41049" lon="2.54449">
        <ele>85</ele>
        <time>2022-04-27T09:51:09.125Z</time>
      </trkpt>
      <trkpt lat="48.41045" lon="2.54449">
        <ele>85</ele>
        <time>2022-04-27T09:51:13.128Z</time>
      </trkpt>
      <trkpt lat="48.41043" lon="2.54453">
        <ele>85</ele>
        <time>2022-04-27T09:51:17.125Z</time>
      </trkpt>
      <trkpt lat="48.41035" lon="2.54449">
        <ele>83</ele>
        <time>2022-04-27T09:51:22.126Z</time>
      </trkpt>
      <trkpt lat="48.41035" lon="2.54446">
        <ele>83</ele>
        <time>2022-04-27T09:51:27.129Z</time>
      </trkpt>
      <trkpt lat="48.41028" lon="2.54452">
        <ele>83</ele>
        <time>2022-04-27T09:51:32.132Z</time>
      </trkpt>
      <trkpt lat="48.41025" lon="2.54459">
        <ele>83</ele>
        <time>2022-04-27T09:51:36.141Z</time>
      </trkpt>
      <trkpt lat="48.41024" lon="2.54459">
        <ele>83</ele>
        <time>2022-04-27T09:51:41.125Z</time>
      </trkpt>
      <trkpt lat="48.41021" lon="2.54462">
        <ele>83</ele>
        <time>2022-04-27T09:51:46.126Z</time>
      </trkpt>
      <trkpt lat="48.4102" lon="2.54471">
        <ele>83</ele>
        <time>2022-04-27T09:51:51.132Z</time>
      </trkpt>
      <trkpt lat="48.41021" lon="2.54487">
        <ele>83</ele>
        <time>2022-04-27T09:51:56.126Z</time>
      </trkpt>
      <trkpt lat="48.4102" lon="2.54494">
        <ele>83</ele>
        <time>2022-04-27T09:52:01.123Z</time>
      </trkpt>
      <trkpt lat="48.41019" lon="2.54499">
        <ele>83</ele>
        <time>2022-04-27T09:52:05.126Z</time>
      </trkpt>
      <trkpt lat="48.41018" lon="2.54508">
        <ele>83</ele>
        <time>2022-04-27T09:52:10.119Z</time>
      </trkpt>
      <trkpt lat="48.41019" lon="2.54513">
        <ele>83</ele>
        <time>2022-04-27T09:52:14.138Z</time>
      </trkpt>
      <trkpt lat="48.41021" lon="2.54519">
        <ele>83</ele>
        <time>2022-04-27T09:52:19.125Z</time>
      </trkpt>
      <trkpt lat="48.41022" lon="2.54526">
        <ele>83</ele>
        <time>2022-04-27T09:52:23.129Z</time>
      </trkpt>
      <trkpt lat="48.41023" lon="2.54534">
        <ele>83</ele>
        <time>2022-04-27T09:52:28.128Z</time>
      </trkpt>
      <trkpt lat="48.41021" lon="2.54539">
        <ele>83</ele>
        <time>2022-04-27T09:52:32.138Z</time>
      </trkpt>
      <trkpt lat="48.41018" lon="2.54545">
        <ele>82</ele>
        <time>2022-04-27T09:52:37.127Z</time>
      </trkpt>
      <trkpt lat="48.41017" lon="2.54545">
        <ele>82</ele>
        <time>2022-04-27T09:52:47.130Z</time>
      </trkpt>
      <trkpt lat="48.41017" lon="2.54546">
        <ele>82</ele>
        <time>2022-04-27T09:52:52.121Z</time>
      </trkpt>
      <trkpt lat="48.41017" lon="2.54546">
        <ele>82</ele>
        <time>2022-04-27T09:52:56.124Z</time>
      </trkpt>
      <trkpt lat="48.41015" lon="2.5455">
        <ele>82</ele>
        <time>2022-04-27T09:53:00.137Z</time>
      </trkpt>
      <trkpt lat="48.41012" lon="2.54557">
        <ele>79</ele>
        <time>2022-04-27T09:53:05.135Z</time>
      </trkpt>
      <trkpt lat="48.41008" lon="2.54564">
        <ele>79</ele>
        <time>2022-04-27T09:53:10.125Z</time>
      </trkpt>
      <trkpt lat="48.41008" lon="2.54571">
        <ele>79</ele>
        <time>2022-04-27T09:53:15.126Z</time>
      </trkpt>
      <trkpt lat="48.41005" lon="2.54578">
        <ele>79</ele>
        <time>2022-04-27T09:53:20.124Z</time>
      </trkpt>
      <trkpt lat="48.41002" lon="2.54584">
        <ele>79</ele>
        <time>2022-04-27T09:53:25.132Z</time>
      </trkpt>
      <trkpt lat="48.40999" lon="2.5459">
        <ele>79</ele>
        <time>2022-04-27T09:53:30.128Z</time>
      </trkpt>
      <trkpt lat="48.40996" lon="2.54596">
        <ele>79</ele>
        <time>2022-04-27T09:53:35.131Z</time>
      </trkpt>
      <trkpt lat="48.40992" lon="2.54601">
        <ele>79</ele>
        <time>2022-04-27T09:53:39.131Z</time>
      </trkpt>
      <trkpt lat="48.40989" lon="2.54609">
        <ele>79</ele>
        <time>2022-04-27T09:53:44.120Z</time>
      </trkpt>
      <trkpt lat="48.40986" lon="2.54616">
        <ele>77</ele>
        <time>2022-04-27T09:53:49.122Z</time>
      </trkpt>
      <trkpt lat="48.40984" lon="2.54622">
        <ele>77</ele>
        <time>2022-04-27T09:53:54.125Z</time>
      </trkpt>
      <trkpt lat="48.40981" lon="2.54628">
        <ele>78</ele>
        <time>2022-04-27T09:53:58.126Z</time>
      </trkpt>
      <trkpt lat="48.40977" lon="2.54635">
        <ele>78</ele>
        <time>2022-04-27T09:54:03.124Z</time>
      </trkpt>
      <trkpt lat="48.40973" lon="2.54642">
        <ele>78</ele>
        <time>2022-04-27T09:54:08.127Z</time>
      </trkpt>
      <trkpt lat="48.40969" lon="2.54649">
        <ele>78</ele>
        <time>2022-04-27T09:54:13.128Z</time>
      </trkpt>
      <trkpt lat="48.40966" lon="2.54647">
        <ele>78</ele>
        <time>2022-04-27T09:54:18.123Z</time>
      </trkpt>
      <trkpt lat="48.40963" lon="2.54643">
        <ele>78</ele>
        <time>2022-04-27T09:54:22.126Z</time>
      </trkpt>
      <trkpt lat="48.40959" lon="2.54639">
        <ele>78</ele>
        <time>2022-04-27T09:54:26.145Z</time>
      </trkpt>
      <trkpt lat="48.40955" lon="2.54634">
        <ele>78</ele>
        <time>2022-04-27T09:54:31.142Z</time>
      </trkpt>
      <trkpt lat="48.40952" lon="2.54627">
        <ele>78</ele>
        <time>2022-04-27T09:54:36.130Z</time>
      </trkpt>
      <trkpt lat="48.4095" lon="2.54622">
        <ele>77</ele>
        <time>2022-04-27T09:54:40.139Z</time>
      </trkpt>
      <trkpt lat="48.40946" lon="2.54614">
        <ele>77</ele>
        <time>2022-04-27T09:54:45.135Z</time>
      </trkpt>
      <trkpt lat="48.40942" lon="2.54606">
        <ele>77</ele>
        <time>2022-04-27T09:54:50.133Z</time>
      </trkpt>
      <trkpt lat="48.40939" lon="2.546">
        <ele>77</ele>
        <time>2022-04-27T09:54:54.143Z</time>
      </trkpt>
      <trkpt lat="48.40935" lon="2.54593">
        <ele>76</ele>
        <time>2022-04-27T09:54:59.120Z</time>
      </trkpt>
      <trkpt lat="48.40933" lon="2.54588">
        <ele>76</ele>
        <time>2022-04-27T09:55:03.136Z</time>
      </trkpt>
      <trkpt lat="48.40929" lon="2.5458">
        <ele>76</ele>
        <time>2022-04-27T09:55:08.128Z</time>
      </trkpt>
      <trkpt lat="48.40925" lon="2.54571">
        <ele>76</ele>
        <time>2022-04-27T09:55:13.124Z</time>
      </trkpt>
      <trkpt lat="48.40922" lon="2.54565">
        <ele>75</ele>
        <time>2022-04-27T09:55:17.149Z</time>
      </trkpt>
      <trkpt lat="48.40918" lon="2.54559">
        <ele>75</ele>
        <time>2022-04-27T09:55:22.141Z</time>
      </trkpt>
      <trkpt lat="48.40914" lon="2.54554">
        <ele>75</ele>
        <time>2022-04-27T09:55:27.140Z</time>
      </trkpt>
      <trkpt lat="48.4091" lon="2.54554">
        <ele>75</ele>
        <time>2022-04-27T09:55:32.123Z</time>
      </trkpt>
      <trkpt lat="48.40904" lon="2.54552">
        <ele>75</ele>
        <time>2022-04-27T09:55:37.126Z</time>
      </trkpt>
      <trkpt lat="48.40901" lon="2.54545">
        <ele>75</ele>
        <time>2022-04-27T09:55:42.137Z</time>
      </trkpt>
      <trkpt lat="48.40897" lon="2.54524">
        <ele>75</ele>
        <time>2022-04-27T09:55:47.128Z</time>
      </trkpt>
      <trkpt lat="48.40895" lon="2.54519">
        <ele>75</ele>
        <time>2022-04-27T09:55:51.131Z</time>
      </trkpt>
      <trkpt lat="48.4089" lon="2.54515">
        <ele>75</ele>
        <time>2022-04-27T09:55:55.132Z</time>
      </trkpt>
      <trkpt lat="48.40887" lon="2.54508">
        <ele>74</ele>
        <time>2022-04-27T09:56:00.127Z</time>
      </trkpt>
      <trkpt lat="48.40882" lon="2.54503">
        <ele>74</ele>
        <time>2022-04-27T09:56:05.133Z</time>
      </trkpt>
      <trkpt lat="48.40878" lon="2.54499">
        <ele>74</ele>
        <time>2022-04-27T09:56:09.145Z</time>
      </trkpt>
      <trkpt lat="48.40874" lon="2.54492">
        <ele>74</ele>
        <time>2022-04-27T09:56:14.131Z</time>
      </trkpt>
      <trkpt lat="48.40871" lon="2.54482">
        <ele>75</ele>
        <time>2022-04-27T09:56:19.130Z</time>
      </trkpt>
      <trkpt lat="48.40866" lon="2.54478">
        <ele>75</ele>
        <time>2022-04-27T09:56:23.130Z</time>
      </trkpt>
      <trkpt lat="48.40862" lon="2.54469">
        <ele>75</ele>
        <time>2022-04-27T09:56:28.126Z</time>
      </trkpt>
      <trkpt lat="48.40858" lon="2.54464">
        <ele>75</ele>
        <time>2022-04-27T09:56:32.135Z</time>
      </trkpt>
      <trkpt lat="48.40853" lon="2.54455">
        <ele>75</ele>
        <time>2022-04-27T09:56:37.133Z</time>
      </trkpt>
      <trkpt lat="48.4085" lon="2.5445">
        <ele>75</ele>
        <time>2022-04-27T09:56:41.131Z</time>
      </trkpt>
      <trkpt lat="48.40846" lon="2.54441">
        <ele>75</ele>
        <time>2022-04-27T09:56:46.145Z</time>
      </trkpt>
      <trkpt lat="48.40842" lon="2.5443">
        <ele>75</ele>
        <time>2022-04-27T09:56:51.145Z</time>
      </trkpt>
      <trkpt lat="48.40838" lon="2.54423">
        <ele>75</ele>
        <time>2022-04-27T09:56:56.129Z</time>
      </trkpt>
      <trkpt lat="48.40835" lon="2.54414">
        <ele>75</ele>
        <time>2022-04-27T09:57:01.132Z</time>
      </trkpt>
      <trkpt lat="48.40833" lon="2.54405">
        <ele>75</ele>
        <time>2022-04-27T09:57:06.124Z</time>
      </trkpt>
      <trkpt lat="48.40831" lon="2.54398">
        <ele>75</ele>
        <time>2022-04-27T09:57:11.132Z</time>
      </trkpt>
      <trkpt lat="48.40826" lon="2.54397">
        <ele>75</ele>
        <time>2022-04-27T09:57:16.124Z</time>
      </trkpt>
      <trkpt lat="48.40824" lon="2.5439">
        <ele>75</ele>
        <time>2022-04-27T09:57:21.127Z</time>
      </trkpt>
      <trkpt lat="48.40822" lon="2.54385">
        <ele>75</ele>
        <time>2022-04-27T09:57:25.137Z</time>
      </trkpt>
      <trkpt lat="48.40839" lon="2.54362">
        <ele>75</ele>
        <time>2022-04-27T09:57:30.124Z</time>
      </trkpt>
      <trkpt lat="48.40842" lon="2.54353">
        <ele>75</ele>
        <time>2022-04-27T09:57:35.131Z</time>
      </trkpt>
      <trkpt lat="48.40842" lon="2.54344">
        <ele>76</ele>
        <time>2022-04-27T09:57:40.133Z</time>
      </trkpt>
      <trkpt lat="48.40841" lon="2.54337">
        <ele>76</ele>
        <time>2022-04-27T09:57:44.136Z</time>
      </trkpt>
      <trkpt lat="48.4084" lon="2.54329">
        <ele>76</ele>
        <time>2022-04-27T09:57:49.126Z</time>
      </trkpt>
      <trkpt lat="48.40837" lon="2.5432">
        <ele>76</ele>
        <time>2022-04-27T09:57:54.133Z</time>
      </trkpt>
      <trkpt lat="48.40834" lon="2.54311">
        <ele>76</ele>
        <time>2022-04-27T09:57:59.126Z</time>
      </trkpt>
      <trkpt lat="48.40831" lon="2.54305">
        <ele>76</ele>
        <time>2022-04-27T09:58:03.127Z</time>
      </trkpt>
      <trkpt lat="48.40828" lon="2.54299">
        <ele>76</ele>
        <time>2022-04-27T09:58:07.137Z</time>
      </trkpt>
      <trkpt lat="48.40825" lon="2.5429">
        <ele>76</ele>
        <time>2022-04-27T09:58:12.124Z</time>
      </trkpt>
      <trkpt lat="48.40823" lon="2.54283">
        <ele>76</ele>
        <time>2022-04-27T09:58:16.125Z</time>
      </trkpt>
      <trkpt lat="48.4082" lon="2.54275">
        <ele>76</ele>
        <time>2022-04-27T09:58:21.133Z</time>
      </trkpt>
      <trkpt lat="48.40815" lon="2.54268">
        <ele>76</ele>
        <time>2022-04-27T09:58:26.134Z</time>
      </trkpt>
      <trkpt lat="48.40811" lon="2.5426">
        <ele>76</ele>
        <time>2022-04-27T09:58:31.130Z</time>
      </trkpt>
      <trkpt lat="48.40809" lon="2.54252">
        <ele>76</ele>
        <time>2022-04-27T09:58:35.139Z</time>
      </trkpt>
      <trkpt lat="48.40805" lon="2.54244">
        <ele>76</ele>
        <time>2022-04-27T09:58:40.135Z</time>
      </trkpt>
      <trkpt lat="48.40799" lon="2.54236">
        <ele>76</ele>
        <time>2022-04-27T09:58:45.134Z</time>
      </trkpt>
      <trkpt lat="48.40796" lon="2.54229">
        <ele>76</ele>
        <time>2022-04-27T09:58:49.140Z</time>
      </trkpt>
      <trkpt lat="48.40795" lon="2.54219">
        <ele>76</ele>
        <time>2022-04-27T09:58:54.123Z</time>
      </trkpt>
      <trkpt lat="48.40792" lon="2.54214">
        <ele>76</ele>
        <time>2022-04-27T09:58:58.123Z</time>
      </trkpt>
      <trkpt lat="48.40789" lon="2.54205">
        <ele>75</ele>
        <time>2022-04-27T09:59:03.130Z</time>
      </trkpt>
      <trkpt lat="48.40787" lon="2.54198">
        <ele>75</ele>
        <time>2022-04-27T09:59:07.134Z</time>
      </trkpt>
      <trkpt lat="48.40783" lon="2.54189">
        <ele>75</ele>
        <time>2022-04-27T09:59:12.131Z</time>
      </trkpt>
      <trkpt lat="48.4078" lon="2.54181">
        <ele>75</ele>
        <time>2022-04-27T09:59:17.123Z</time>
      </trkpt>
      <trkpt lat="48.40779" lon="2.54174">
        <ele>75</ele>
        <time>2022-04-27T09:59:21.126Z</time>
      </trkpt>
      <trkpt lat="48.40778" lon="2.54167">
        <ele>75</ele>
        <time>2022-04-27T09:59:25.145Z</time>
      </trkpt>
      <trkpt lat="48.40775" lon="2.54159">
        <ele>75</ele>
        <time>2022-04-27T09:59:30.129Z</time>
      </trkpt>
      <trkpt lat="48.40772" lon="2.54153">
        <ele>75</ele>
        <time>2022-04-27T09:59:34.134Z</time>
      </trkpt>
      <trkpt lat="48.40769" lon="2.54143">
        <ele>75</ele>
        <time>2022-04-27T09:59:39.127Z</time>
      </trkpt>
      <trkpt lat="48.40767" lon="2.54132">
        <ele>75</ele>
        <time>2022-04-27T09:59:44.134Z</time>
      </trkpt>
      <trkpt lat="48.40765" lon="2.54122">
        <ele>75</ele>
        <time>2022-04-27T09:59:49.133Z</time>
      </trkpt>
      <trkpt lat="48.40768" lon="2.54116">
        <ele>75</ele>
        <time>2022-04-27T09:59:53.132Z</time>
      </trkpt>
      <trkpt lat="48.4077" lon="2.54109">
        <ele>75</ele>
        <time>2022-04-27T09:59:58.137Z</time>
      </trkpt>
      <trkpt lat="48.40773" lon="2.541">
        <ele>75</ele>
        <time>2022-04-27T10:00:03.135Z</time>
      </trkpt>
      <trkpt lat="48.40768" lon="2.54092">
        <ele>75</ele>
        <time>2022-04-27T10:00:08.126Z</time>
      </trkpt>
      <trkpt lat="48.40758" lon="2.54081">
        <ele>75</ele>
        <time>2022-04-27T10:00:13.138Z</time>
      </trkpt>
      <trkpt lat="48.40753" lon="2.54075">
        <ele>75</ele>
        <time>2022-04-27T10:00:18.120Z</time>
      </trkpt>
      <trkpt lat="48.40747" lon="2.54075">
        <ele>75</ele>
        <time>2022-04-27T10:00:22.143Z</time>
      </trkpt>
      <trkpt lat="48.4074" lon="2.54076">
        <ele>75</ele>
        <time>2022-04-27T10:00:27.145Z</time>
      </trkpt>
      <trkpt lat="48.40733" lon="2.54079">
        <ele>76</ele>
        <time>2022-04-27T10:00:32.122Z</time>
      </trkpt>
      <trkpt lat="48.40727" lon="2.54081">
        <ele>76</ele>
        <time>2022-04-27T10:00:36.138Z</time>
      </trkpt>
      <trkpt lat="48.40719" lon="2.5408">
        <ele>76</ele>
        <time>2022-04-27T10:00:41.135Z</time>
      </trkpt>
      <trkpt lat="48.40714" lon="2.54088">
        <ele>76</ele>
        <time>2022-04-27T10:00:46.130Z</time>
      </trkpt>
      <trkpt lat="48.40709" lon="2.54091">
        <ele>76</ele>
        <time>2022-04-27T10:00:50.145Z</time>
      </trkpt>
      <trkpt lat="48.40703" lon="2.54095">
        <ele>78</ele>
        <time>2022-04-27T10:00:54.123Z</time>
      </trkpt>
      <trkpt lat="48.40697" lon="2.54099">
        <ele>78</ele>
        <time>2022-04-27T10:00:59.120Z</time>
      </trkpt>
      <trkpt lat="48.40693" lon="2.54101">
        <ele>78</ele>
        <time>2022-04-27T10:01:03.134Z</time>
      </trkpt>
      <trkpt lat="48.40687" lon="2.54106">
        <ele>78</ele>
        <time>2022-04-27T10:01:08.127Z</time>
      </trkpt>
      <trkpt lat="48.40683" lon="2.5411">
        <ele>78</ele>
        <time>2022-04-27T10:01:13.124Z</time>
      </trkpt>
      <trkpt lat="48.40678" lon="2.54112">
        <ele>80</ele>
        <time>2022-04-27T10:01:17.133Z</time>
      </trkpt>
      <trkpt lat="48.40673" lon="2.54113">
        <ele>80</ele>
        <time>2022-04-27T10:01:21.132Z</time>
      </trkpt>
      <trkpt lat="48.40666" lon="2.54117">
        <ele>80</ele>
        <time>2022-04-27T10:01:26.134Z</time>
      </trkpt>
      <trkpt lat="48.40659" lon="2.54121">
        <ele>80</ele>
        <time>2022-04-27T10:01:31.130Z</time>
      </trkpt>
      <trkpt lat="48.40652" lon="2.54122">
        <ele>80</ele>
        <time>2022-04-27T10:01:36.134Z</time>
      </trkpt>
      <trkpt lat="48.40646" lon="2.54126">
        <ele>80</ele>
        <time>2022-04-27T10:01:40.276Z</time>
      </trkpt>
      <trkpt lat="48.40639" lon="2.54132">
        <ele>80</ele>
        <time>2022-04-27T10:01:45.137Z</time>
      </trkpt>
      <trkpt lat="48.40634" lon="2.54136">
        <ele>80</ele>
        <time>2022-04-27T10:01:50.130Z</time>
      </trkpt>
      <trkpt lat="48.40629" lon="2.54139">
        <ele>80</ele>
        <time>2022-04-27T10:01:54.137Z</time>
      </trkpt>
      <trkpt lat="48.40622" lon="2.54142">
        <ele>80</ele>
        <time>2022-04-27T10:01:59.133Z</time>
      </trkpt>
      <trkpt lat="48.40615" lon="2.54145">
        <ele>80</ele>
        <time>2022-04-27T10:02:04.132Z</time>
      </trkpt>
      <trkpt lat="48.4061" lon="2.54145">
        <ele>80</ele>
        <time>2022-04-27T10:02:09.125Z</time>
      </trkpt>
      <trkpt lat="48.40603" lon="2.54146">
        <ele>80</ele>
        <time>2022-04-27T10:02:14.140Z</time>
      </trkpt>
      <trkpt lat="48.40596" lon="2.54149">
        <ele>81</ele>
        <time>2022-04-27T10:02:19.125Z</time>
      </trkpt>
      <trkpt lat="48.40591" lon="2.54149">
        <ele>81</ele>
        <time>2022-04-27T10:02:23.128Z</time>
      </trkpt>
      <trkpt lat="48.40584" lon="2.54148">
        <ele>81</ele>
        <time>2022-04-27T10:02:28.136Z</time>
      </trkpt>
      <trkpt lat="48.40579" lon="2.54142">
        <ele>81</ele>
        <time>2022-04-27T10:02:33.121Z</time>
      </trkpt>
      <trkpt lat="48.40575" lon="2.54146">
        <ele>81</ele>
        <time>2022-04-27T10:02:37.133Z</time>
      </trkpt>
      <trkpt lat="48.40569" lon="2.54142">
        <ele>81</ele>
        <time>2022-04-27T10:02:41.135Z</time>
      </trkpt>
      <trkpt lat="48.40567" lon="2.54142">
        <ele>85</ele>
        <time>2022-04-27T10:02:46.129Z</time>
      </trkpt>
      <trkpt lat="48.40559" lon="2.54141">
        <ele>85</ele>
        <time>2022-04-27T10:02:51.127Z</time>
      </trkpt>
      <trkpt lat="48.40553" lon="2.54144">
        <ele>85</ele>
        <time>2022-04-27T10:02:56.128Z</time>
      </trkpt>
      <trkpt lat="48.40545" lon="2.54148">
        <ele>85</ele>
        <time>2022-04-27T10:03:01.128Z</time>
      </trkpt>
      <trkpt lat="48.4054" lon="2.54152">
        <ele>93</ele>
        <time>2022-04-27T10:03:05.124Z</time>
      </trkpt>
      <trkpt lat="48.40535" lon="2.54158">
        <ele>93</ele>
        <time>2022-04-27T10:03:10.126Z</time>
      </trkpt>
      <trkpt lat="48.4053" lon="2.54163">
        <ele>93</ele>
        <time>2022-04-27T10:03:14.128Z</time>
      </trkpt>
      <trkpt lat="48.40527" lon="2.54171">
        <ele>93</ele>
        <time>2022-04-27T10:03:19.134Z</time>
      </trkpt>
      <trkpt lat="48.40522" lon="2.54178">
        <ele>93</ele>
        <time>2022-04-27T10:03:24.129Z</time>
      </trkpt>
      <trkpt lat="48.40517" lon="2.5418">
        <ele>93</ele>
        <time>2022-04-27T10:03:28.126Z</time>
      </trkpt>
      <trkpt lat="48.40513" lon="2.54183">
        <ele>94</ele>
        <time>2022-04-27T10:03:32.138Z</time>
      </trkpt>
      <trkpt lat="48.40508" lon="2.54185">
        <ele>94</ele>
        <time>2022-04-27T10:03:37.139Z</time>
      </trkpt>
      <trkpt lat="48.40503" lon="2.54192">
        <ele>94</ele>
        <time>2022-04-27T10:03:42.133Z</time>
      </trkpt>
      <trkpt lat="48.40499" lon="2.54199">
        <ele>94</ele>
        <time>2022-04-27T10:03:47.132Z</time>
      </trkpt>
      <trkpt lat="48.40493" lon="2.54202">
        <ele>94</ele>
        <time>2022-04-27T10:03:52.129Z</time>
      </trkpt>
      <trkpt lat="48.40487" lon="2.54205">
        <ele>94</ele>
        <time>2022-04-27T10:03:57.132Z</time>
      </trkpt>
      <trkpt lat="48.40482" lon="2.54206">
        <ele>95</ele>
        <time>2022-04-27T10:04:01.133Z</time>
      </trkpt>
      <trkpt lat="48.40475" lon="2.54203">
        <ele>95</ele>
        <time>2022-04-27T10:04:06.129Z</time>
      </trkpt>
      <trkpt lat="48.4047" lon="2.54198">
        <ele>95</ele>
        <time>2022-04-27T10:04:11.130Z</time>
      </trkpt>
      <trkpt lat="48.40465" lon="2.54194">
        <ele>95</ele>
        <time>2022-04-27T10:04:16.125Z</time>
      </trkpt>
      <trkpt lat="48.40459" lon="2.54191">
        <ele>95</ele>
        <time>2022-04-27T10:04:21.134Z</time>
      </trkpt>
      <trkpt lat="48.40453" lon="2.54194">
        <ele>96</ele>
        <time>2022-04-27T10:04:26.127Z</time>
      </trkpt>
      <trkpt lat="48.40447" lon="2.54195">
        <ele>96</ele>
        <time>2022-04-27T10:04:30.136Z</time>
      </trkpt>
      <trkpt lat="48.40443" lon="2.54198">
        <ele>96</ele>
        <time>2022-04-27T10:04:34.138Z</time>
      </trkpt>
      <trkpt lat="48.40437" lon="2.542">
        <ele>96</ele>
        <time>2022-04-27T10:04:39.133Z</time>
      </trkpt>
      <trkpt lat="48.40432" lon="2.54202">
        <ele>96</ele>
        <time>2022-04-27T10:04:44.137Z</time>
      </trkpt>
      <trkpt lat="48.40427" lon="2.54202">
        <ele>96</ele>
        <time>2022-04-27T10:04:49.131Z</time>
      </trkpt>
      <trkpt lat="48.40423" lon="2.54202">
        <ele>96</ele>
        <time>2022-04-27T10:04:54.135Z</time>
      </trkpt>
      <trkpt lat="48.40418" lon="2.542">
        <ele>96</ele>
        <time>2022-04-27T10:04:59.127Z</time>
      </trkpt>
      <trkpt lat="48.40412" lon="2.54197">
        <ele>96</ele>
        <time>2022-04-27T10:05:04.127Z</time>
      </trkpt>
      <trkpt lat="48.40408" lon="2.54196">
        <ele>96</ele>
        <time>2022-04-27T10:05:08.128Z</time>
      </trkpt>
      <trkpt lat="48.40406" lon="2.54189">
        <ele>96</ele>
        <time>2022-04-27T10:05:13.134Z</time>
      </trkpt>
      <trkpt lat="48.404" lon="2.5419">
        <ele>94</ele>
        <time>2022-04-27T10:05:18.125Z</time>
      </trkpt>
      <trkpt lat="48.40397" lon="2.5419">
        <ele>94</ele>
        <time>2022-04-27T10:05:22.133Z</time>
      </trkpt>
      <trkpt lat="48.40393" lon="2.5419">
        <ele>94</ele>
        <time>2022-04-27T10:05:26.137Z</time>
      </trkpt>
      <trkpt lat="48.40389" lon="2.5419">
        <ele>94</ele>
        <time>2022-04-27T10:05:30.136Z</time>
      </trkpt>
      <trkpt lat="48.40387" lon="2.54192">
        <ele>94</ele>
        <time>2022-04-27T10:05:35.145Z</time>
      </trkpt>
      <trkpt lat="48.40382" lon="2.54192">
        <ele>94</ele>
        <time>2022-04-27T10:05:40.129Z</time>
      </trkpt>
      <trkpt lat="48.40378" lon="2.54193">
        <ele>94</ele>
        <time>2022-04-27T10:05:44.134Z</time>
      </trkpt>
      <trkpt lat="48.40374" lon="2.54195">
        <ele>90</ele>
        <time>2022-04-27T10:05:48.140Z</time>
      </trkpt>
      <trkpt lat="48.40369" lon="2.542">
        <ele>90</ele>
        <time>2022-04-27T10:05:53.130Z</time>
      </trkpt>
      <trkpt lat="48.40365" lon="2.54205">
        <ele>90</ele>
        <time>2022-04-27T10:05:58.133Z</time>
      </trkpt>
      <trkpt lat="48.40361" lon="2.54211">
        <ele>90</ele>
        <time>2022-04-27T10:06:03.129Z</time>
      </trkpt>
      <trkpt lat="48.40359" lon="2.54216">
        <ele>90</ele>
        <time>2022-04-27T10:06:07.128Z</time>
      </trkpt>
      <trkpt lat="48.40355" lon="2.54221">
        <ele>90</ele>
        <time>2022-04-27T10:06:12.132Z</time>
      </trkpt>
      <trkpt lat="48.40351" lon="2.54227">
        <ele>90</ele>
        <time>2022-04-27T10:06:17.132Z</time>
      </trkpt>
      <trkpt lat="48.40346" lon="2.54231">
        <ele>87</ele>
        <time>2022-04-27T10:06:22.128Z</time>
      </trkpt>
      <trkpt lat="48.40341" lon="2.54232">
        <ele>87</ele>
        <time>2022-04-27T10:06:27.135Z</time>
      </trkpt>
      <trkpt lat="48.40336" lon="2.54231">
        <ele>87</ele>
        <time>2022-04-27T10:06:32.123Z</time>
      </trkpt>
      <trkpt lat="48.40332" lon="2.54229">
        <ele>87</ele>
        <time>2022-04-27T10:06:36.132Z</time>
      </trkpt>
      <trkpt lat="48.40328" lon="2.54228">
        <ele>87</ele>
        <time>2022-04-27T10:06:40.136Z</time>
      </trkpt>
      <trkpt lat="48.40323" lon="2.54225">
        <ele>87</ele>
        <time>2022-04-27T10:06:45.144Z</time>
      </trkpt>
      <trkpt lat="48.4032" lon="2.54224">
        <ele>87</ele>
        <time>2022-04-27T10:06:49.210Z</time>
      </trkpt>
      <trkpt lat="48.40314" lon="2.54222">
        <ele>85</ele>
        <time>2022-04-27T10:06:54.136Z</time>
      </trkpt>
      <trkpt lat="48.40309" lon="2.5422">
        <ele>85</ele>
        <time>2022-04-27T10:06:59.148Z</time>
      </trkpt>
      <trkpt lat="48.40303" lon="2.54218">
        <ele>85</ele>
        <time>2022-04-27T10:07:04.126Z</time>
      </trkpt>
      <trkpt lat="48.40298" lon="2.54216">
        <ele>85</ele>
        <time>2022-04-27T10:07:09.134Z</time>
      </trkpt>
      <trkpt lat="48.40294" lon="2.54215">
        <ele>85</ele>
        <time>2022-04-27T10:07:13.149Z</time>
      </trkpt>
      <trkpt lat="48.40289" lon="2.54213">
        <ele>86</ele>
        <time>2022-04-27T10:07:18.124Z</time>
      </trkpt>
      <trkpt lat="48.40283" lon="2.54212">
        <ele>86</ele>
        <time>2022-04-27T10:07:23.130Z</time>
      </trkpt>
      <trkpt lat="48.40279" lon="2.54212">
        <ele>86</ele>
        <time>2022-04-27T10:07:27.152Z</time>
      </trkpt>
      <trkpt lat="48.40267" lon="2.54212">
        <ele>86</ele>
        <time>2022-04-27T10:07:55.129Z</time>
      </trkpt>
      <trkpt lat="48.40265" lon="2.5421">
        <ele>86</ele>
        <time>2022-04-27T10:07:59.141Z</time>
      </trkpt>
      <trkpt lat="48.40261" lon="2.54205">
        <ele>89</ele>
        <time>2022-04-27T10:08:04.122Z</time>
      </trkpt>
      <trkpt lat="48.40256" lon="2.54203">
        <ele>89</ele>
        <time>2022-04-27T10:08:08.125Z</time>
      </trkpt>
      <trkpt lat="48.40251" lon="2.54199">
        <ele>89</ele>
        <time>2022-04-27T10:08:13.135Z</time>
      </trkpt>
      <trkpt lat="48.40247" lon="2.54193">
        <ele>89</ele>
        <time>2022-04-27T10:08:17.160Z</time>
      </trkpt>
      <trkpt lat="48.40242" lon="2.5419">
        <ele>89</ele>
        <time>2022-04-27T10:08:22.128Z</time>
      </trkpt>
      <trkpt lat="48.40238" lon="2.54188">
        <ele>89</ele>
        <time>2022-04-27T10:08:26.158Z</time>
      </trkpt>
      <trkpt lat="48.40231" lon="2.54189">
        <ele>89</ele>
        <time>2022-04-27T10:08:31.124Z</time>
      </trkpt>
      <trkpt lat="48.40228" lon="2.54188">
        <ele>89</ele>
        <time>2022-04-27T10:08:35.128Z</time>
      </trkpt>
      <trkpt lat="48.40223" lon="2.54188">
        <ele>89</ele>
        <time>2022-04-27T10:08:40.138Z</time>
      </trkpt>
      <trkpt lat="48.40217" lon="2.54186">
        <ele>89</ele>
        <time>2022-04-27T10:08:45.139Z</time>
      </trkpt>
      <trkpt lat="48.40212" lon="2.54185">
        <ele>89</ele>
        <time>2022-04-27T10:08:50.135Z</time>
      </trkpt>
      <trkpt lat="48.40208" lon="2.54184">
        <ele>87</ele>
        <time>2022-04-27T10:08:54.136Z</time>
      </trkpt>
      <trkpt lat="48.40204" lon="2.54183">
        <ele>87</ele>
        <time>2022-04-27T10:08:58.142Z</time>
      </trkpt>
      <trkpt lat="48.402" lon="2.5418">
        <ele>89</ele>
        <time>2022-04-27T10:09:03.139Z</time>
      </trkpt>
      <trkpt lat="48.40194" lon="2.54176">
        <ele>89</ele>
        <time>2022-04-27T10:09:08.143Z</time>
      </trkpt>
      <trkpt lat="48.4019" lon="2.54173">
        <ele>89</ele>
        <time>2022-04-27T10:09:13.136Z</time>
      </trkpt>
      <trkpt lat="48.40187" lon="2.54172">
        <ele>89</ele>
        <time>2022-04-27T10:09:17.127Z</time>
      </trkpt>
      <trkpt lat="48.40181" lon="2.54172">
        <ele>89</ele>
        <time>2022-04-27T10:09:22.135Z</time>
      </trkpt>
      <trkpt lat="48.40175" lon="2.54169">
        <ele>88</ele>
        <time>2022-04-27T10:09:27.130Z</time>
      </trkpt>
      <trkpt lat="48.40168" lon="2.54167">
        <ele>88</ele>
        <time>2022-04-27T10:09:32.132Z</time>
      </trkpt>
      <trkpt lat="48.40162" lon="2.54164">
        <ele>88</ele>
        <time>2022-04-27T10:09:37.128Z</time>
      </trkpt>
      <trkpt lat="48.40159" lon="2.54164">
        <ele>88</ele>
        <time>2022-04-27T10:09:41.140Z</time>
      </trkpt>
      <trkpt lat="48.40153" lon="2.54162">
        <ele>88</ele>
        <time>2022-04-27T10:09:46.123Z</time>
      </trkpt>
      <trkpt lat="48.40149" lon="2.54161">
        <ele>91</ele>
        <time>2022-04-27T10:09:50.132Z</time>
      </trkpt>
      <trkpt lat="48.40143" lon="2.54162">
        <ele>91</ele>
        <time>2022-04-27T10:09:54.133Z</time>
      </trkpt>
      <trkpt lat="48.40138" lon="2.54162">
        <ele>91</ele>
        <time>2022-04-27T10:09:58.156Z</time>
      </trkpt>
      <trkpt lat="48.40132" lon="2.5416">
        <ele>91</ele>
        <time>2022-04-27T10:10:03.131Z</time>
      </trkpt>
      <trkpt lat="48.40126" lon="2.5416">
        <ele>91</ele>
        <time>2022-04-27T10:10:07.143Z</time>
      </trkpt>
      <trkpt lat="48.40119" lon="2.54159">
        <ele>93</ele>
        <time>2022-04-27T10:10:12.145Z</time>
      </trkpt>
      <trkpt lat="48.40114" lon="2.5416">
        <ele>93</ele>
        <time>2022-04-27T10:10:16.150Z</time>
      </trkpt>
      <trkpt lat="48.40108" lon="2.54162">
        <ele>93</ele>
        <time>2022-04-27T10:10:21.144Z</time>
      </trkpt>
      <trkpt lat="48.40095" lon="2.54164">
        <ele>93</ele>
        <time>2022-04-27T10:10:44.149Z</time>
      </trkpt>
      <trkpt lat="48.40094" lon="2.54165">
        <ele>93</ele>
        <time>2022-04-27T10:10:49.148Z</time>
      </trkpt>
      <trkpt lat="48.4009" lon="2.54166">
        <ele>93</ele>
        <time>2022-04-27T10:10:54.122Z</time>
      </trkpt>
      <trkpt lat="48.40087" lon="2.54166">
        <ele>93</ele>
        <time>2022-04-27T10:10:58.124Z</time>
      </trkpt>
      <trkpt lat="48.40081" lon="2.54167">
        <ele>93</ele>
        <time>2022-04-27T10:11:03.132Z</time>
      </trkpt>
      <trkpt lat="48.40077" lon="2.54169">
        <ele>93</ele>
        <time>2022-04-27T10:11:07.132Z</time>
      </trkpt>
      <trkpt lat="48.40073" lon="2.5417">
        <ele>93</ele>
        <time>2022-04-27T10:11:11.138Z</time>
      </trkpt>
      <trkpt lat="48.40067" lon="2.54172">
        <ele>92</ele>
        <time>2022-04-27T10:11:16.129Z</time>
      </trkpt>
      <trkpt lat="48.40062" lon="2.54172">
        <ele>92</ele>
        <time>2022-04-27T10:11:20.133Z</time>
      </trkpt>
      <trkpt lat="48.40057" lon="2.54174">
        <ele>92</ele>
        <time>2022-04-27T10:11:25.137Z</time>
      </trkpt>
      <trkpt lat="48.40052" lon="2.54176">
        <ele>92</ele>
        <time>2022-04-27T10:11:30.136Z</time>
      </trkpt>
      <trkpt lat="48.40047" lon="2.54178">
        <ele>92</ele>
        <time>2022-04-27T10:11:34.146Z</time>
      </trkpt>
      <trkpt lat="48.40043" lon="2.54182">
        <ele>90</ele>
        <time>2022-04-27T10:11:39.133Z</time>
      </trkpt>
      <trkpt lat="48.4004" lon="2.54188">
        <ele>89</ele>
        <time>2022-04-27T10:11:44.129Z</time>
      </trkpt>
      <trkpt lat="48.4004" lon="2.54198">
        <ele>89</ele>
        <time>2022-04-27T10:11:49.134Z</time>
      </trkpt>
      <trkpt lat="48.40041" lon="2.54206">
        <ele>89</ele>
        <time>2022-04-27T10:11:54.132Z</time>
      </trkpt>
      <trkpt lat="48.4004" lon="2.54212">
        <ele>86</ele>
        <time>2022-04-27T10:11:58.139Z</time>
      </trkpt>
      <trkpt lat="48.40038" lon="2.54219">
        <ele>86</ele>
        <time>2022-04-27T10:12:02.139Z</time>
      </trkpt>
      <trkpt lat="48.40037" lon="2.54227">
        <ele>86</ele>
        <time>2022-04-27T10:12:07.133Z</time>
      </trkpt>
      <trkpt lat="48.40033" lon="2.54235">
        <ele>86</ele>
        <time>2022-04-27T10:12:11.137Z</time>
      </trkpt>
      <trkpt lat="48.40031" lon="2.54242">
        <ele>84</ele>
        <time>2022-04-27T10:12:16.127Z</time>
      </trkpt>
      <trkpt lat="48.4003" lon="2.54251">
        <ele>84</ele>
        <time>2022-04-27T10:12:21.130Z</time>
      </trkpt>
      <trkpt lat="48.40032" lon="2.54256">
        <ele>84</ele>
        <time>2022-04-27T10:12:26.126Z</time>
      </trkpt>
      <trkpt lat="48.40029" lon="2.54262">
        <ele>84</ele>
        <time>2022-04-27T10:12:31.129Z</time>
      </trkpt>
      <trkpt lat="48.40028" lon="2.54269">
        <ele>83</ele>
        <time>2022-04-27T10:12:35.136Z</time>
      </trkpt>
      <trkpt lat="48.40026" lon="2.54276">
        <ele>83</ele>
        <time>2022-04-27T10:12:40.127Z</time>
      </trkpt>
      <trkpt lat="48.40025" lon="2.54282">
        <ele>83</ele>
        <time>2022-04-27T10:12:44.133Z</time>
      </trkpt>
      <trkpt lat="48.40024" lon="2.5429">
        <ele>83</ele>
        <time>2022-04-27T10:12:49.139Z</time>
      </trkpt>
      <trkpt lat="48.40023" lon="2.543">
        <ele>82</ele>
        <time>2022-04-27T10:12:54.132Z</time>
      </trkpt>
      <trkpt lat="48.40022" lon="2.54309">
        <ele>82</ele>
        <time>2022-04-27T10:12:59.131Z</time>
      </trkpt>
      <trkpt lat="48.40022" lon="2.54316">
        <ele>82</ele>
        <time>2022-04-27T10:13:03.132Z</time>
      </trkpt>
      <trkpt lat="48.40023" lon="2.54325">
        <ele>80</ele>
        <time>2022-04-27T10:13:08.135Z</time>
      </trkpt>
      <trkpt lat="48.40022" lon="2.54334">
        <ele>80</ele>
        <time>2022-04-27T10:13:13.136Z</time>
      </trkpt>
      <trkpt lat="48.40021" lon="2.54342">
        <ele>80</ele>
        <time>2022-04-27T10:13:17.137Z</time>
      </trkpt>
      <trkpt lat="48.4002" lon="2.5435">
        <ele>79</ele>
        <time>2022-04-27T10:13:22.126Z</time>
      </trkpt>
      <trkpt lat="48.4002" lon="2.54357">
        <ele>79</ele>
        <time>2022-04-27T10:13:26.141Z</time>
      </trkpt>
      <trkpt lat="48.4002" lon="2.54366">
        <ele>79</ele>
        <time>2022-04-27T10:13:31.135Z</time>
      </trkpt>
      <trkpt lat="48.40019" lon="2.54375">
        <ele>78</ele>
        <time>2022-04-27T10:13:36.138Z</time>
      </trkpt>
      <trkpt lat="48.40019" lon="2.54376">
        <ele>78</ele>
        <time>2022-04-27T10:13:41.138Z</time>
      </trkpt>
      <trkpt lat="48.40019" lon="2.54378">
        <ele>78</ele>
        <time>2022-04-27T10:13:45.142Z</time>
      </trkpt>
      <trkpt lat="48.4002" lon="2.54384">
        <ele>78</ele>
        <time>2022-04-27T10:13:50.138Z</time>
      </trkpt>
      <trkpt lat="48.40022" lon="2.54389">
        <ele>78</ele>
        <time>2022-04-27T10:13:55.133Z</time>
      </trkpt>
      <trkpt lat="48.40024" lon="2.54398">
        <ele>78</ele>
        <time>2022-04-27T10:13:59.143Z</time>
      </trkpt>
      <trkpt lat="48.40024" lon="2.54407">
        <ele>78</ele>
        <time>2022-04-27T10:14:04.144Z</time>
      </trkpt>
      <trkpt lat="48.40022" lon="2.54415">
        <ele>78</ele>
        <time>2022-04-27T10:14:09.140Z</time>
      </trkpt>
      <trkpt lat="48.40021" lon="2.54423">
        <ele>78</ele>
        <time>2022-04-27T10:14:14.143Z</time>
      </trkpt>
      <trkpt lat="48.4002" lon="2.54436">
        <ele>78</ele>
        <time>2022-04-27T10:14:19.128Z</time>
      </trkpt>
      <trkpt lat="48.40018" lon="2.54443">
        <ele>78</ele>
        <time>2022-04-27T10:14:23.132Z</time>
      </trkpt>
      <trkpt lat="48.40017" lon="2.54449">
        <ele>78</ele>
        <time>2022-04-27T10:14:27.136Z</time>
      </trkpt>
      <trkpt lat="48.40016" lon="2.54457">
        <ele>78</ele>
        <time>2022-04-27T10:14:32.133Z</time>
      </trkpt>
      <trkpt lat="48.40014" lon="2.54466">
        <ele>78</ele>
        <time>2022-04-27T10:14:37.134Z</time>
      </trkpt>
      <trkpt lat="48.40014" lon="2.5447">
        <ele>77</ele>
        <time>2022-04-27T10:14:42.128Z</time>
      </trkpt>
      <trkpt lat="48.40011" lon="2.54478">
        <ele>77</ele>
        <time>2022-04-27T10:14:46.125Z</time>
      </trkpt>
      <trkpt lat="48.40008" lon="2.54488">
        <ele>77</ele>
        <time>2022-04-27T10:14:51.133Z</time>
      </trkpt>
      <trkpt lat="48.40007" lon="2.54498">
        <ele>77</ele>
        <time>2022-04-27T10:14:56.139Z</time>
      </trkpt>
      <trkpt lat="48.40005" lon="2.54506">
        <ele>77</ele>
        <time>2022-04-27T10:15:01.130Z</time>
      </trkpt>
      <trkpt lat="48.40004" lon="2.54516">
        <ele>76</ele>
        <time>2022-04-27T10:15:06.139Z</time>
      </trkpt>
      <trkpt lat="48.40003" lon="2.54525">
        <ele>76</ele>
        <time>2022-04-27T10:15:11.129Z</time>
      </trkpt>
      <trkpt lat="48.40002" lon="2.54532">
        <ele>76</ele>
        <time>2022-04-27T10:15:15.132Z</time>
      </trkpt>
      <trkpt lat="48.40002" lon="2.54539">
        <ele>76</ele>
        <time>2022-04-27T10:15:19.132Z</time>
      </trkpt>
      <trkpt lat="48.39999" lon="2.54545">
        <ele>76</ele>
        <time>2022-04-27T10:15:24.133Z</time>
      </trkpt>
      <trkpt lat="48.39993" lon="2.54549">
        <ele>76</ele>
        <time>2022-04-27T10:15:29.126Z</time>
      </trkpt>
      <trkpt lat="48.39989" lon="2.54551">
        <ele>76</ele>
        <time>2022-04-27T10:15:33.136Z</time>
      </trkpt>
      <trkpt lat="48.39985" lon="2.54552">
        <ele>76</ele>
        <time>2022-04-27T10:15:38.129Z</time>
      </trkpt>
      <trkpt lat="48.39981" lon="2.54555">
        <ele>76</ele>
        <time>2022-04-27T10:15:42.137Z</time>
      </trkpt>
      <trkpt lat="48.39976" lon="2.5456">
        <ele>76</ele>
        <time>2022-04-27T10:15:47.137Z</time>
      </trkpt>
      <trkpt lat="48.39971" lon="2.5456">
        <ele>76</ele>
        <time>2022-04-27T10:15:52.145Z</time>
      </trkpt>
      <trkpt lat="48.39966" lon="2.54565">
        <ele>76</ele>
        <time>2022-04-27T10:15:57.130Z</time>
      </trkpt>
      <trkpt lat="48.39961" lon="2.54566">
        <ele>76</ele>
        <time>2022-04-27T10:16:02.133Z</time>
      </trkpt>
      <trkpt lat="48.39955" lon="2.54572">
        <ele>76</ele>
        <time>2022-04-27T10:16:07.129Z</time>
      </trkpt>
      <trkpt lat="48.39951" lon="2.54573">
        <ele>76</ele>
        <time>2022-04-27T10:16:12.142Z</time>
      </trkpt>
      <trkpt lat="48.39948" lon="2.54568">
        <ele>76</ele>
        <time>2022-04-27T10:16:17.131Z</time>
      </trkpt>
      <trkpt lat="48.39946" lon="2.54567">
        <ele>76</ele>
        <time>2022-04-27T10:16:21.135Z</time>
      </trkpt>
      <trkpt lat="48.39943" lon="2.54569">
        <ele>76</ele>
        <time>2022-04-27T10:16:26.130Z</time>
      </trkpt>
      <trkpt lat="48.39939" lon="2.54572">
        <ele>76</ele>
        <time>2022-04-27T10:16:31.132Z</time>
      </trkpt>
      <trkpt lat="48.39935" lon="2.54564">
        <ele>76</ele>
        <time>2022-04-27T10:16:36.140Z</time>
      </trkpt>
      <trkpt lat="48.39933" lon="2.54559">
        <ele>76</ele>
        <time>2022-04-27T10:16:41.136Z</time>
      </trkpt>
      <trkpt lat="48.39929" lon="2.54554">
        <ele>76</ele>
        <time>2022-04-27T10:16:46.130Z</time>
      </trkpt>
      <trkpt lat="48.39921" lon="2.54611">
        <ele>77</ele>
        <time>2022-04-27T10:16:50.135Z</time>
      </trkpt>
      <trkpt lat="48.39915" lon="2.54608">
        <ele>77</ele>
        <time>2022-04-27T10:16:55.135Z</time>
      </trkpt>
      <trkpt lat="48.39909" lon="2.54608">
        <ele>77</ele>
        <time>2022-04-27T10:17:00.123Z</time>
      </trkpt>
      <trkpt lat="48.39903" lon="2.54605">
        <ele>77</ele>
        <time>2022-04-27T10:17:04.129Z</time>
      </trkpt>
      <trkpt lat="48.39897" lon="2.54604">
        <ele>77</ele>
        <time>2022-04-27T10:17:09.132Z</time>
      </trkpt>
      <trkpt lat="48.39892" lon="2.54603">
        <ele>77</ele>
        <time>2022-04-27T10:17:13.141Z</time>
      </trkpt>
      <trkpt lat="48.39886" lon="2.546">
        <ele>77</ele>
        <time>2022-04-27T10:17:18.128Z</time>
      </trkpt>
      <trkpt lat="48.3988" lon="2.54601">
        <ele>77</ele>
        <time>2022-04-27T10:17:23.126Z</time>
      </trkpt>
      <trkpt lat="48.39874" lon="2.54599">
        <ele>78</ele>
        <time>2022-04-27T10:17:28.133Z</time>
      </trkpt>
      <trkpt lat="48.39868" lon="2.54596">
        <ele>78</ele>
        <time>2022-04-27T10:17:33.132Z</time>
      </trkpt>
      <trkpt lat="48.39862" lon="2.54594">
        <ele>78</ele>
        <time>2022-04-27T10:17:38.127Z</time>
      </trkpt>
      <trkpt lat="48.39857" lon="2.54591">
        <ele>78</ele>
        <time>2022-04-27T10:17:42.129Z</time>
      </trkpt>
      <trkpt lat="48.39853" lon="2.54591">
        <ele>78</ele>
        <time>2022-04-27T10:17:46.135Z</time>
      </trkpt>
      <trkpt lat="48.39847" lon="2.54589">
        <ele>80</ele>
        <time>2022-04-27T10:17:51.128Z</time>
      </trkpt>
      <trkpt lat="48.39841" lon="2.54588">
        <ele>80</ele>
        <time>2022-04-27T10:17:56.132Z</time>
      </trkpt>
      <trkpt lat="48.39835" lon="2.54586">
        <ele>80</ele>
        <time>2022-04-27T10:18:01.132Z</time>
      </trkpt>
      <trkpt lat="48.3983" lon="2.54583">
        <ele>80</ele>
        <time>2022-04-27T10:18:06.134Z</time>
      </trkpt>
      <trkpt lat="48.39826" lon="2.5458">
        <ele>80</ele>
        <time>2022-04-27T10:18:10.150Z</time>
      </trkpt>
      <trkpt lat="48.39821" lon="2.54577">
        <ele>80</ele>
        <time>2022-04-27T10:18:15.131Z</time>
      </trkpt>
      <trkpt lat="48.39816" lon="2.54574">
        <ele>81</ele>
        <time>2022-04-27T10:18:19.135Z</time>
      </trkpt>
      <trkpt lat="48.39812" lon="2.54573">
        <ele>81</ele>
        <time>2022-04-27T10:18:23.139Z</time>
      </trkpt>
      <trkpt lat="48.39805" lon="2.54568">
        <ele>80</ele>
        <time>2022-04-27T10:18:28.136Z</time>
      </trkpt>
      <trkpt lat="48.39798" lon="2.54565">
        <ele>80</ele>
        <time>2022-04-27T10:18:33.135Z</time>
      </trkpt>
      <trkpt lat="48.39792" lon="2.54564">
        <ele>80</ele>
        <time>2022-04-27T10:18:38.143Z</time>
      </trkpt>
      <trkpt lat="48.39787" lon="2.54562">
        <ele>79</ele>
        <time>2022-04-27T10:18:42.149Z</time>
      </trkpt>
      <trkpt lat="48.3978" lon="2.5456">
        <ele>79</ele>
        <time>2022-04-27T10:18:47.134Z</time>
      </trkpt>
      <trkpt lat="48.39774" lon="2.54558">
        <ele>79</ele>
        <time>2022-04-27T10:18:51.140Z</time>
      </trkpt>
      <trkpt lat="48.39768" lon="2.54556">
        <ele>79</ele>
        <time>2022-04-27T10:18:56.130Z</time>
      </trkpt>
      <trkpt lat="48.39762" lon="2.54556">
        <ele>78</ele>
        <time>2022-04-27T10:19:01.124Z</time>
      </trkpt>
      <trkpt lat="48.39758" lon="2.54553">
        <ele>78</ele>
        <time>2022-04-27T10:19:05.128Z</time>
      </trkpt>
      <trkpt lat="48.39752" lon="2.5455">
        <ele>78</ele>
        <time>2022-04-27T10:19:10.126Z</time>
      </trkpt>
      <trkpt lat="48.39747" lon="2.54546">
        <ele>78</ele>
        <time>2022-04-27T10:19:14.128Z</time>
      </trkpt>
      <trkpt lat="48.39741" lon="2.54543">
        <ele>78</ele>
        <time>2022-04-27T10:19:19.127Z</time>
      </trkpt>
      <trkpt lat="48.39736" lon="2.54539">
        <ele>78</ele>
        <time>2022-04-27T10:19:24.124Z</time>
      </trkpt>
      <trkpt lat="48.39731" lon="2.54535">
        <ele>78</ele>
        <time>2022-04-27T10:19:29.128Z</time>
      </trkpt>
      <trkpt lat="48.39727" lon="2.54534">
        <ele>78</ele>
        <time>2022-04-27T10:19:33.127Z</time>
      </trkpt>
      <trkpt lat="48.39721" lon="2.54532">
        <ele>78</ele>
        <time>2022-04-27T10:19:38.129Z</time>
      </trkpt>
      <trkpt lat="48.39718" lon="2.54534">
        <ele>78</ele>
        <time>2022-04-27T10:19:43.134Z</time>
      </trkpt>
      <trkpt lat="48.39717" lon="2.54533">
        <ele>78</ele>
        <time>2022-04-27T10:19:48.124Z</time>
      </trkpt>
      <trkpt lat="48.39717" lon="2.54537">
        <ele>78</ele>
        <time>2022-04-27T10:19:52.137Z</time>
      </trkpt>
      <trkpt lat="48.39713" lon="2.54534">
        <ele>78</ele>
        <time>2022-04-27T10:19:57.137Z</time>
      </trkpt>
      <trkpt lat="48.39708" lon="2.5453">
        <ele>78</ele>
        <time>2022-04-27T10:20:02.144Z</time>
      </trkpt>
      <trkpt lat="48.39704" lon="2.54527">
        <ele>78</ele>
        <time>2022-04-27T10:20:07.143Z</time>
      </trkpt>
      <trkpt lat="48.39699" lon="2.54524">
        <ele>78</ele>
        <time>2022-04-27T10:20:12.135Z</time>
      </trkpt>
      <trkpt lat="48.39695" lon="2.54522">
        <ele>78</ele>
        <time>2022-04-27T10:20:17.134Z</time>
      </trkpt>
      <trkpt lat="48.3969" lon="2.54518">
        <ele>78</ele>
        <time>2022-04-27T10:20:22.141Z</time>
      </trkpt>
      <trkpt lat="48.39685" lon="2.54519">
        <ele>78</ele>
        <time>2022-04-27T10:20:27.129Z</time>
      </trkpt>
      <trkpt lat="48.39679" lon="2.5452">
        <ele>80</ele>
        <time>2022-04-27T10:20:32.128Z</time>
      </trkpt>
      <trkpt lat="48.39676" lon="2.54519">
        <ele>80</ele>
        <time>2022-04-27T10:20:36.135Z</time>
      </trkpt>
      <trkpt lat="48.39672" lon="2.54517">
        <ele>80</ele>
        <time>2022-04-27T10:20:41.126Z</time>
      </trkpt>
      <trkpt lat="48.39669" lon="2.54512">
        <ele>80</ele>
        <time>2022-04-27T10:20:46.131Z</time>
      </trkpt>
      <trkpt lat="48.39664" lon="2.54508">
        <ele>80</ele>
        <time>2022-04-27T10:20:51.133Z</time>
      </trkpt>
      <trkpt lat="48.39661" lon="2.54504">
        <ele>80</ele>
        <time>2022-04-27T10:20:56.125Z</time>
      </trkpt>
      <trkpt lat="48.3966" lon="2.54499">
        <ele>80</ele>
        <time>2022-04-27T10:21:01.134Z</time>
      </trkpt>
      <trkpt lat="48.39658" lon="2.54492">
        <ele>80</ele>
        <time>2022-04-27T10:57:52.128Z</time>
      </trkpt>
      <trkpt lat="48.39653" lon="2.54494">
        <ele>80</ele>
        <time>2022-04-27T10:57:57.121Z</time>
      </trkpt>
      <trkpt lat="48.39649" lon="2.54495">
        <ele>84</ele>
        <time>2022-04-27T10:58:01.124Z</time>
      </trkpt>
      <trkpt lat="48.39646" lon="2.54494">
        <ele>84</ele>
        <time>2022-04-27T10:58:05.127Z</time>
      </trkpt>
      <trkpt lat="48.39641" lon="2.54493">
        <ele>84</ele>
        <time>2022-04-27T10:58:10.126Z</time>
      </trkpt>
      <trkpt lat="48.39637" lon="2.54492">
        <ele>84</ele>
        <time>2022-04-27T10:58:15.121Z</time>
      </trkpt>
      <trkpt lat="48.39634" lon="2.54493">
        <ele>84</ele>
        <time>2022-04-27T10:58:19.133Z</time>
      </trkpt>
      <trkpt lat="48.39631" lon="2.54493">
        <ele>84</ele>
        <time>2022-04-27T10:58:24.126Z</time>
      </trkpt>
      <trkpt lat="48.39628" lon="2.54492">
        <ele>84</ele>
        <time>2022-04-27T10:58:28.132Z</time>
      </trkpt>
      <trkpt lat="48.39622" lon="2.5449">
        <ele>91</ele>
        <time>2022-04-27T10:58:33.131Z</time>
      </trkpt>
      <trkpt lat="48.39619" lon="2.54488">
        <ele>91</ele>
        <time>2022-04-27T10:58:38.122Z</time>
      </trkpt>
      <trkpt lat="48.39617" lon="2.54487">
        <ele>91</ele>
        <time>2022-04-27T10:58:43.133Z</time>
      </trkpt>
      <trkpt lat="48.39615" lon="2.54487">
        <ele>91</ele>
        <time>2022-04-27T10:58:48.142Z</time>
      </trkpt>
      <trkpt lat="48.39612" lon="2.54485">
        <ele>91</ele>
        <time>2022-04-27T10:58:53.135Z</time>
      </trkpt>
      <trkpt lat="48.39611" lon="2.54483">
        <ele>91</ele>
        <time>2022-04-27T10:58:58.125Z</time>
      </trkpt>
      <trkpt lat="48.39607" lon="2.54484">
        <ele>91</ele>
        <time>2022-04-27T10:59:03.129Z</time>
      </trkpt>
      <trkpt lat="48.39603" lon="2.54483">
        <ele>91</ele>
        <time>2022-04-27T10:59:08.131Z</time>
      </trkpt>
      <trkpt lat="48.39599" lon="2.54481">
        <ele>91</ele>
        <time>2022-04-27T10:59:13.132Z</time>
      </trkpt>
      <trkpt lat="48.39596" lon="2.54475">
        <ele>97</ele>
        <time>2022-04-27T10:59:18.120Z</time>
      </trkpt>
      <trkpt lat="48.39593" lon="2.54472">
        <ele>97</ele>
        <time>2022-04-27T10:59:23.134Z</time>
      </trkpt>
      <trkpt lat="48.3959" lon="2.54475">
        <ele>97</ele>
        <time>2022-04-27T10:59:28.125Z</time>
      </trkpt>
      <trkpt lat="48.39587" lon="2.54475">
        <ele>97</ele>
        <time>2022-04-27T10:59:33.139Z</time>
      </trkpt>
      <trkpt lat="48.39584" lon="2.54474">
        <ele>97</ele>
        <time>2022-04-27T10:59:38.129Z</time>
      </trkpt>
      <trkpt lat="48.39582" lon="2.54473">
        <ele>97</ele>
        <time>2022-04-27T10:59:43.132Z</time>
      </trkpt>
      <trkpt lat="48.39578" lon="2.54471">
        <ele>97</ele>
        <time>2022-04-27T10:59:48.131Z</time>
      </trkpt>
      <trkpt lat="48.39576" lon="2.54469">
        <ele>97</ele>
        <time>2022-04-27T10:59:52.134Z</time>
      </trkpt>
      <trkpt lat="48.39574" lon="2.54467">
        <ele>97</ele>
        <time>2022-04-27T10:59:57.123Z</time>
      </trkpt>
      <trkpt lat="48.39573" lon="2.54468">
        <ele>97</ele>
        <time>2022-04-27T11:00:02.126Z</time>
      </trkpt>
      <trkpt lat="48.39572" lon="2.54466">
        <ele>97</ele>
        <time>2022-04-27T11:00:06.123Z</time>
      </trkpt>
      <trkpt lat="48.39569" lon="2.54465">
        <ele>102</ele>
        <time>2022-04-27T11:00:11.120Z</time>
      </trkpt>
      <trkpt lat="48.39566" lon="2.54464">
        <ele>102</ele>
        <time>2022-04-27T11:00:16.124Z</time>
      </trkpt>
      <trkpt lat="48.39563" lon="2.54463">
        <ele>102</ele>
        <time>2022-04-27T11:00:21.127Z</time>
      </trkpt>
      <trkpt lat="48.39559" lon="2.54461">
        <ele>102</ele>
        <time>2022-04-27T11:00:26.126Z</time>
      </trkpt>
      <trkpt lat="48.39554" lon="2.54455">
        <ele>104</ele>
        <time>2022-04-27T11:00:31.126Z</time>
      </trkpt>
      <trkpt lat="48.39549" lon="2.54455">
        <ele>104</ele>
        <time>2022-04-27T11:00:35.137Z</time>
      </trkpt>
      <trkpt lat="48.39547" lon="2.54457">
        <ele>104</ele>
        <time>2022-04-27T11:00:40.133Z</time>
      </trkpt>
      <trkpt lat="48.39542" lon="2.54456">
        <ele>104</ele>
        <time>2022-04-27T11:00:45.134Z</time>
      </trkpt>
      <trkpt lat="48.39536" lon="2.54453">
        <ele>108</ele>
        <time>2022-04-27T11:00:50.127Z</time>
      </trkpt>
      <trkpt lat="48.39532" lon="2.54449">
        <ele>108</ele>
        <time>2022-04-27T11:00:54.129Z</time>
      </trkpt>
      <trkpt lat="48.3953" lon="2.54443">
        <ele>108</ele>
        <time>2022-04-27T11:00:59.130Z</time>
      </trkpt>
      <trkpt lat="48.39527" lon="2.54436">
        <ele>108</ele>
        <time>2022-04-27T11:01:04.132Z</time>
      </trkpt>
      <trkpt lat="48.39521" lon="2.54431">
        <ele>108</ele>
        <time>2022-04-27T11:01:09.120Z</time>
      </trkpt>
      <trkpt lat="48.3952" lon="2.54424">
        <ele>110</ele>
        <time>2022-04-27T11:01:14.118Z</time>
      </trkpt>
      <trkpt lat="48.39519" lon="2.5442">
        <ele>110</ele>
        <time>2022-04-27T11:01:18.126Z</time>
      </trkpt>
      <trkpt lat="48.39519" lon="2.54415">
        <ele>110</ele>
        <time>2022-04-27T11:01:22.131Z</time>
      </trkpt>
      <trkpt lat="48.39516" lon="2.54412">
        <ele>110</ele>
        <time>2022-04-27T11:01:27.129Z</time>
      </trkpt>
      <trkpt lat="48.39514" lon="2.54409">
        <ele>110</ele>
        <time>2022-04-27T11:01:32.135Z</time>
      </trkpt>
      <trkpt lat="48.39513" lon="2.54404">
        <ele>114</ele>
        <time>2022-04-27T11:01:37.124Z</time>
      </trkpt>
      <trkpt lat="48.39511" lon="2.54399">
        <ele>115</ele>
        <time>2022-04-27T11:01:42.131Z</time>
      </trkpt>
      <trkpt lat="48.39512" lon="2.54396">
        <ele>115</ele>
        <time>2022-04-27T11:01:47.128Z</time>
      </trkpt>
      <trkpt lat="48.39512" lon="2.54393">
        <ele>115</ele>
        <time>2022-04-27T11:01:51.132Z</time>
      </trkpt>
      <trkpt lat="48.39511" lon="2.54388">
        <ele>115</ele>
        <time>2022-04-27T11:01:56.128Z</time>
      </trkpt>
      <trkpt lat="48.39508" lon="2.54385">
        <ele>115</ele>
        <time>2022-04-27T11:02:01.119Z</time>
      </trkpt>
      <trkpt lat="48.39508" lon="2.54382">
        <ele>115</ele>
        <time>2022-04-27T11:02:05.129Z</time>
      </trkpt>
      <trkpt lat="48.39509" lon="2.54376">
        <ele>115</ele>
        <time>2022-04-27T11:02:10.122Z</time>
      </trkpt>
      <trkpt lat="48.39509" lon="2.54373">
        <ele>117</ele>
        <time>2022-04-27T11:02:14.130Z</time>
      </trkpt>
      <trkpt lat="48.39506" lon="2.5437">
        <ele>117</ele>
        <time>2022-04-27T11:02:19.127Z</time>
      </trkpt>
      <trkpt lat="48.39502" lon="2.54369">
        <ele>117</ele>
        <time>2022-04-27T11:02:24.128Z</time>
      </trkpt>
      <trkpt lat="48.39499" lon="2.5438">
        <ele>115</ele>
        <time>2022-04-27T11:02:39.126Z</time>
      </trkpt>
      <trkpt lat="48.39496" lon="2.54379">
        <ele>115</ele>
        <time>2022-04-27T11:02:44.142Z</time>
      </trkpt>
      <trkpt lat="48.39494" lon="2.54378">
        <ele>115</ele>
        <time>2022-04-27T11:02:49.123Z</time>
      </trkpt>
      <trkpt lat="48.39493" lon="2.5438">
        <ele>115</ele>
        <time>2022-04-27T11:02:53.137Z</time>
      </trkpt>
      <trkpt lat="48.39491" lon="2.54383">
        <ele>115</ele>
        <time>2022-04-27T11:02:58.122Z</time>
      </trkpt>
      <trkpt lat="48.39487" lon="2.54373">
        <ele>117</ele>
        <time>2022-04-27T11:03:11.131Z</time>
      </trkpt>
      <trkpt lat="48.39485" lon="2.54376">
        <ele>116</ele>
        <time>2022-04-27T11:03:16.123Z</time>
      </trkpt>
      <trkpt lat="48.39484" lon="2.54374">
        <ele>115</ele>
        <time>2022-04-27T11:03:21.132Z</time>
      </trkpt>
      <trkpt lat="48.39482" lon="2.54374">
        <ele>115</ele>
        <time>2022-04-27T11:03:26.119Z</time>
      </trkpt>
      <trkpt lat="48.39481" lon="2.54374">
        <ele>115</ele>
        <time>2022-04-27T11:03:30.130Z</time>
      </trkpt>
      <trkpt lat="48.39476" lon="2.54369">
        <ele>115</ele>
        <time>2022-04-27T11:06:14.128Z</time>
      </trkpt>
      <trkpt lat="48.39476" lon="2.54369">
        <ele>115</ele>
        <time>2022-04-27T11:06:19.125Z</time>
      </trkpt>
      <trkpt lat="48.39477" lon="2.54368">
        <ele>115</ele>
        <time>2022-04-27T11:06:24.120Z</time>
      </trkpt>
      <trkpt lat="48.39477" lon="2.54364">
        <ele>115</ele>
        <time>2022-04-27T11:06:29.129Z</time>
      </trkpt>
      <trkpt lat="48.39477" lon="2.54359">
        <ele>115</ele>
        <time>2022-04-27T11:06:34.126Z</time>
      </trkpt>
      <trkpt lat="48.39477" lon="2.54356">
        <ele>115</ele>
        <time>2022-04-27T11:06:39.125Z</time>
      </trkpt>
      <trkpt lat="48.39476" lon="2.54351">
        <ele>115</ele>
        <time>2022-04-27T11:06:43.123Z</time>
      </trkpt>
      <trkpt lat="48.39476" lon="2.54346">
        <ele>115</ele>
        <time>2022-04-27T11:06:48.121Z</time>
      </trkpt>
      <trkpt lat="48.39477" lon="2.54343">
        <ele>115</ele>
        <time>2022-04-27T11:06:53.122Z</time>
      </trkpt>
      <trkpt lat="48.39478" lon="2.54338">
        <ele>115</ele>
        <time>2022-04-27T11:06:58.125Z</time>
      </trkpt>
      <trkpt lat="48.3948" lon="2.54336">
        <ele>115</ele>
        <time>2022-04-27T11:07:02.128Z</time>
      </trkpt>
      <trkpt lat="48.39482" lon="2.5433">
        <ele>115</ele>
        <time>2022-04-27T11:07:07.129Z</time>
      </trkpt>
      <trkpt lat="48.39483" lon="2.54323">
        <ele>115</ele>
        <time>2022-04-27T11:07:12.130Z</time>
      </trkpt>
      <trkpt lat="48.39486" lon="2.54318">
        <ele>115</ele>
        <time>2022-04-27T11:07:17.124Z</time>
      </trkpt>
      <trkpt lat="48.39488" lon="2.54311">
        <ele>119</ele>
        <time>2022-04-27T11:07:22.133Z</time>
      </trkpt>
      <trkpt lat="48.39491" lon="2.54304">
        <ele>119</ele>
        <time>2022-04-27T11:07:27.118Z</time>
      </trkpt>
      <trkpt lat="48.39493" lon="2.54303">
        <ele>119</ele>
        <time>2022-04-27T11:07:31.116Z</time>
      </trkpt>
      <trkpt lat="48.395" lon="2.54306">
        <ele>119</ele>
        <time>2022-04-27T11:07:40.132Z</time>
      </trkpt>
      <trkpt lat="48.39504" lon="2.54308">
        <ele>119</ele>
        <time>2022-04-27T11:07:44.126Z</time>
      </trkpt>
      <trkpt lat="48.39503" lon="2.54311">
        <ele>119</ele>
        <time>2022-04-27T11:07:49.125Z</time>
      </trkpt>
      <trkpt lat="48.39501" lon="2.54315">
        <ele>119</ele>
        <time>2022-04-27T11:07:54.135Z</time>
      </trkpt>
      <trkpt lat="48.395" lon="2.54319">
        <ele>119</ele>
        <time>2022-04-27T11:07:59.128Z</time>
      </trkpt>
      <trkpt lat="48.39498" lon="2.54325">
        <ele>119</ele>
        <time>2022-04-27T11:08:04.125Z</time>
      </trkpt>
      <trkpt lat="48.39499" lon="2.54329">
        <ele>119</ele>
        <time>2022-04-27T11:08:08.140Z</time>
      </trkpt>
      <trkpt lat="48.39499" lon="2.54334">
        <ele>119</ele>
        <time>2022-04-27T11:08:13.130Z</time>
      </trkpt>
      <trkpt lat="48.395" lon="2.54336">
        <ele>119</ele>
        <time>2022-04-27T11:08:18.131Z</time>
      </trkpt>
      <trkpt lat="48.39506" lon="2.54338">
        <ele>119</ele>
        <time>2022-04-27T11:08:23.134Z</time>
      </trkpt>
      <trkpt lat="48.39508" lon="2.54336">
        <ele>119</ele>
        <time>2022-04-27T11:08:28.125Z</time>
      </trkpt>
      <trkpt lat="48.3951" lon="2.5434">
        <ele>119</ele>
        <time>2022-04-27T11:08:32.130Z</time>
      </trkpt>
      <trkpt lat="48.39513" lon="2.54342">
        <ele>119</ele>
        <time>2022-04-27T11:08:37.130Z</time>
      </trkpt>
      <trkpt lat="48.39517" lon="2.54342">
        <ele>119</ele>
        <time>2022-04-27T11:08:42.127Z</time>
      </trkpt>
      <trkpt lat="48.39522" lon="2.54352">
        <ele>116</ele>
        <time>2022-04-27T11:08:55.121Z</time>
      </trkpt>
      <trkpt lat="48.39522" lon="2.54355">
        <ele>116</ele>
        <time>2022-04-27T11:08:59.126Z</time>
      </trkpt>
      <trkpt lat="48.39522" lon="2.54355">
        <ele>116</ele>
        <time>2022-04-27T11:09:04.127Z</time>
      </trkpt>
      <trkpt lat="48.39522" lon="2.54359">
        <ele>116</ele>
        <time>2022-04-27T11:09:08.135Z</time>
      </trkpt>
      <trkpt lat="48.39522" lon="2.5436">
        <ele>116</ele>
        <time>2022-04-27T11:09:12.139Z</time>
      </trkpt>
      <trkpt lat="48.39528" lon="2.54364">
        <ele>116</ele>
        <time>2022-04-27T11:09:31.134Z</time>
      </trkpt>
      <trkpt lat="48.39529" lon="2.54364">
        <ele>116</ele>
        <time>2022-04-27T11:09:35.142Z</time>
      </trkpt>
      <trkpt lat="48.3953" lon="2.54364">
        <ele>116</ele>
        <time>2022-04-27T11:09:40.133Z</time>
      </trkpt>
      <trkpt lat="48.39533" lon="2.54365">
        <ele>116</ele>
        <time>2022-04-27T11:09:44.143Z</time>
      </trkpt>
      <trkpt lat="48.39535" lon="2.54364">
        <ele>116</ele>
        <time>2022-04-27T11:09:49.120Z</time>
      </trkpt>
      <trkpt lat="48.39535" lon="2.5436">
        <ele>116</ele>
        <time>2022-04-27T11:09:53.122Z</time>
      </trkpt>
      <trkpt lat="48.39538" lon="2.54356">
        <ele>116</ele>
        <time>2022-04-27T11:09:58.126Z</time>
      </trkpt>
      <trkpt lat="48.39539" lon="2.54352">
        <ele>116</ele>
        <time>2022-04-27T11:10:03.124Z</time>
      </trkpt>
      <trkpt lat="48.3954" lon="2.54349">
        <ele>116</ele>
        <time>2022-04-27T11:10:07.127Z</time>
      </trkpt>
      <trkpt lat="48.39542" lon="2.5435">
        <ele>113</ele>
        <time>2022-04-27T11:12:05.133Z</time>
      </trkpt>
      <trkpt lat="48.39543" lon="2.54351">
        <ele>113</ele>
        <time>2022-04-27T11:12:10.134Z</time>
      </trkpt>
      <trkpt lat="48.39544" lon="2.54348">
        <ele>113</ele>
        <time>2022-04-27T11:12:15.122Z</time>
      </trkpt>
      <trkpt lat="48.39546" lon="2.54343">
        <ele>116</ele>
        <time>2022-04-27T11:12:19.129Z</time>
      </trkpt>
      <trkpt lat="48.3955" lon="2.54338">
        <ele>116</ele>
        <time>2022-04-27T11:12:24.134Z</time>
      </trkpt>
      <trkpt lat="48.39552" lon="2.54329">
        <ele>116</ele>
        <time>2022-04-27T11:12:29.122Z</time>
      </trkpt>
      <trkpt lat="48.39552" lon="2.54324">
        <ele>116</ele>
        <time>2022-04-27T11:12:34.138Z</time>
      </trkpt>
      <trkpt lat="48.39548" lon="2.54322">
        <ele>116</ele>
        <time>2022-04-27T11:12:39.121Z</time>
      </trkpt>
      <trkpt lat="48.39545" lon="2.54319">
        <ele>118</ele>
        <time>2022-04-27T11:12:43.125Z</time>
      </trkpt>
      <trkpt lat="48.39542" lon="2.54314">
        <ele>118</ele>
        <time>2022-04-27T11:12:48.121Z</time>
      </trkpt>
      <trkpt lat="48.39541" lon="2.54308">
        <ele>120</ele>
        <time>2022-04-27T11:12:52.132Z</time>
      </trkpt>
      <trkpt lat="48.39541" lon="2.54303">
        <ele>120</ele>
        <time>2022-04-27T11:12:57.119Z</time>
      </trkpt>
      <trkpt lat="48.3954" lon="2.543">
        <ele>120</ele>
        <time>2022-04-27T11:13:01.128Z</time>
      </trkpt>
      <trkpt lat="48.39537" lon="2.54296">
        <ele>120</ele>
        <time>2022-04-27T11:13:06.140Z</time>
      </trkpt>
      <trkpt lat="48.39537" lon="2.54292">
        <ele>120</ele>
        <time>2022-04-27T11:13:11.123Z</time>
      </trkpt>
      <trkpt lat="48.39534" lon="2.54286">
        <ele>120</ele>
        <time>2022-04-27T11:13:15.131Z</time>
      </trkpt>
      <trkpt lat="48.39532" lon="2.54278">
        <ele>120</ele>
        <time>2022-04-27T11:13:20.148Z</time>
      </trkpt>
      <trkpt lat="48.39531" lon="2.5427">
        <ele>120</ele>
        <time>2022-04-27T11:13:58.126Z</time>
      </trkpt>
      <trkpt lat="48.39531" lon="2.5427">
        <ele>120</ele>
        <time>2022-04-27T11:14:03.125Z</time>
      </trkpt>
      <trkpt lat="48.39531" lon="2.5427">
        <ele>120</ele>
        <time>2022-04-27T11:14:08.120Z</time>
      </trkpt>
      <trkpt lat="48.39532" lon="2.54267">
        <ele>120</ele>
        <time>2022-04-27T11:14:12.122Z</time>
      </trkpt>
      <trkpt lat="48.39533" lon="2.54262">
        <ele>120</ele>
        <time>2022-04-27T11:14:17.123Z</time>
      </trkpt>
      <trkpt lat="48.39536" lon="2.54256">
        <ele>120</ele>
        <time>2022-04-27T11:14:22.133Z</time>
      </trkpt>
      <trkpt lat="48.39536" lon="2.54247">
        <ele>120</ele>
        <time>2022-04-27T11:14:27.130Z</time>
      </trkpt>
      <trkpt lat="48.39537" lon="2.54241">
        <ele>120</ele>
        <time>2022-04-27T11:14:31.134Z</time>
      </trkpt>
      <trkpt lat="48.39539" lon="2.54236">
        <ele>120</ele>
        <time>2022-04-27T11:14:35.128Z</time>
      </trkpt>
      <trkpt lat="48.39542" lon="2.54232">
        <ele>120</ele>
        <time>2022-04-27T11:14:40.119Z</time>
      </trkpt>
      <trkpt lat="48.39544" lon="2.54227">
        <ele>120</ele>
        <time>2022-04-27T11:14:44.127Z</time>
      </trkpt>
      <trkpt lat="48.39547" lon="2.54218">
        <ele>120</ele>
        <time>2022-04-27T11:14:49.126Z</time>
      </trkpt>
      <trkpt lat="48.3955" lon="2.5421">
        <ele>120</ele>
        <time>2022-04-27T11:14:54.127Z</time>
      </trkpt>
      <trkpt lat="48.39552" lon="2.54203">
        <ele>120</ele>
        <time>2022-04-27T11:14:59.125Z</time>
      </trkpt>
      <trkpt lat="48.39555" lon="2.54197">
        <ele>120</ele>
        <time>2022-04-27T11:15:04.142Z</time>
      </trkpt>
      <trkpt lat="48.39557" lon="2.54193">
        <ele>120</ele>
        <time>2022-04-27T11:15:08.158Z</time>
      </trkpt>
      <trkpt lat="48.39561" lon="2.54187">
        <ele>120</ele>
        <time>2022-04-27T11:15:13.123Z</time>
      </trkpt>
      <trkpt lat="48.39565" lon="2.54183">
        <ele>120</ele>
        <time>2022-04-27T11:15:17.127Z</time>
      </trkpt>
      <trkpt lat="48.39571" lon="2.54179">
        <ele>116</ele>
        <time>2022-04-27T11:15:22.120Z</time>
      </trkpt>
      <trkpt lat="48.39574" lon="2.54177">
        <ele>116</ele>
        <time>2022-04-27T11:15:26.128Z</time>
      </trkpt>
      <trkpt lat="48.39578" lon="2.54173">
        <ele>116</ele>
        <time>2022-04-27T11:15:31.140Z</time>
      </trkpt>
      <trkpt lat="48.39581" lon="2.54167">
        <ele>116</ele>
        <time>2022-04-27T11:15:36.128Z</time>
      </trkpt>
      <trkpt lat="48.39582" lon="2.54162">
        <ele>116</ele>
        <time>2022-04-27T11:15:40.133Z</time>
      </trkpt>
      <trkpt lat="48.39583" lon="2.54158">
        <ele>116</ele>
        <time>2022-04-27T11:15:45.122Z</time>
      </trkpt>
      <trkpt lat="48.39585" lon="2.54156">
        <ele>116</ele>
        <time>2022-04-27T11:15:49.131Z</time>
      </trkpt>
      <trkpt lat="48.39587" lon="2.54152">
        <ele>117</ele>
        <time>2022-04-27T11:15:54.127Z</time>
      </trkpt>
      <trkpt lat="48.39589" lon="2.54148">
        <ele>117</ele>
        <time>2022-04-27T11:15:59.132Z</time>
      </trkpt>
      <trkpt lat="48.39588" lon="2.54141">
        <ele>117</ele>
        <time>2022-04-27T11:16:04.118Z</time>
      </trkpt>
      <trkpt lat="48.39587" lon="2.54135">
        <ele>117</ele>
        <time>2022-04-27T11:16:08.120Z</time>
      </trkpt>
      <trkpt lat="48.39586" lon="2.54129">
        <ele>117</ele>
        <time>2022-04-27T11:16:13.126Z</time>
      </trkpt>
      <trkpt lat="48.39586" lon="2.54124">
        <ele>118</ele>
        <time>2022-04-27T11:16:17.126Z</time>
      </trkpt>
      <trkpt lat="48.39586" lon="2.54118">
        <ele>118</ele>
        <time>2022-04-27T11:16:21.135Z</time>
      </trkpt>
      <trkpt lat="48.39588" lon="2.54112">
        <ele>118</ele>
        <time>2022-04-27T11:16:26.125Z</time>
      </trkpt>
      <trkpt lat="48.39587" lon="2.54108">
        <ele>118</ele>
        <time>2022-04-27T11:16:31.141Z</time>
      </trkpt>
      <trkpt lat="48.39586" lon="2.54107">
        <ele>118</ele>
        <time>2022-04-27T11:17:10.121Z</time>
      </trkpt>
      <trkpt lat="48.39586" lon="2.54107">
        <ele>118</ele>
        <time>2022-04-27T11:17:15.130Z</time>
      </trkpt>
      <trkpt lat="48.39589" lon="2.54106">
        <ele>118</ele>
        <time>2022-04-27T11:17:20.118Z</time>
      </trkpt>
      <trkpt lat="48.39593" lon="2.54105">
        <ele>118</ele>
        <time>2022-04-27T11:17:24.143Z</time>
      </trkpt>
      <trkpt lat="48.39597" lon="2.54103">
        <ele>118</ele>
        <time>2022-04-27T11:17:29.123Z</time>
      </trkpt>
      <trkpt lat="48.39598" lon="2.54099">
        <ele>113</ele>
        <time>2022-04-27T11:17:33.131Z</time>
      </trkpt>
      <trkpt lat="48.39596" lon="2.54096">
        <ele>119</ele>
        <time>2022-04-27T11:17:37.137Z</time>
      </trkpt>
      <trkpt lat="48.39593" lon="2.54092">
        <ele>119</ele>
        <time>2022-04-27T11:17:42.125Z</time>
      </trkpt>
      <trkpt lat="48.39593" lon="2.54092">
        <ele>119</ele>
        <time>2022-04-27T11:17:46.130Z</time>
      </trkpt>
      <trkpt lat="48.3959" lon="2.54089">
        <ele>119</ele>
        <time>2022-04-27T11:17:50.142Z</time>
      </trkpt>
      <trkpt lat="48.39596" lon="2.54084">
        <ele>119</ele>
        <time>2022-04-27T11:17:55.132Z</time>
      </trkpt>
      <trkpt lat="48.39598" lon="2.5408">
        <ele>115</ele>
        <time>2022-04-27T11:18:00.125Z</time>
      </trkpt>
      <trkpt lat="48.39599" lon="2.54077">
        <ele>115</ele>
        <time>2022-04-27T11:18:04.131Z</time>
      </trkpt>
      <trkpt lat="48.39602" lon="2.54078">
        <ele>115</ele>
        <time>2022-04-27T11:18:09.131Z</time>
      </trkpt>
      <trkpt lat="48.39605" lon="2.54073">
        <ele>115</ele>
        <time>2022-04-27T11:18:14.124Z</time>
      </trkpt>
      <trkpt lat="48.39605" lon="2.54069">
        <ele>117</ele>
        <time>2022-04-27T11:18:18.128Z</time>
      </trkpt>
      <trkpt lat="48.39604" lon="2.54066">
        <ele>117</ele>
        <time>2022-04-27T11:18:22.131Z</time>
      </trkpt>
      <trkpt lat="48.39606" lon="2.54062">
        <ele>117</ele>
        <time>2022-04-27T11:18:27.128Z</time>
      </trkpt>
      <trkpt lat="48.39606" lon="2.5406">
        <ele>117</ele>
        <time>2022-04-27T11:18:31.138Z</time>
      </trkpt>
      <trkpt lat="48.39608" lon="2.54055">
        <ele>117</ele>
        <time>2022-04-27T11:18:36.143Z</time>
      </trkpt>
      <trkpt lat="48.39609" lon="2.54048">
        <ele>117</ele>
        <time>2022-04-27T11:18:41.139Z</time>
      </trkpt>
      <trkpt lat="48.3961" lon="2.54048">
        <ele>117</ele>
        <time>2022-04-27T11:18:46.134Z</time>
      </trkpt>
      <trkpt lat="48.39614" lon="2.5405">
        <ele>117</ele>
        <time>2022-04-27T11:18:51.125Z</time>
      </trkpt>
      <trkpt lat="48.39617" lon="2.54052">
        <ele>117</ele>
        <time>2022-04-27T11:18:55.141Z</time>
      </trkpt>
      <trkpt lat="48.3962" lon="2.54056">
        <ele>117</ele>
        <time>2022-04-27T11:18:59.142Z</time>
      </trkpt>
      <trkpt lat="48.39621" lon="2.54058">
        <ele>117</ele>
        <time>2022-04-27T11:19:04.127Z</time>
      </trkpt>
      <trkpt lat="48.39623" lon="2.54054">
        <ele>117</ele>
        <time>2022-04-27T11:19:09.121Z</time>
      </trkpt>
      <trkpt lat="48.39624" lon="2.54052">
        <ele>117</ele>
        <time>2022-04-27T11:19:13.126Z</time>
      </trkpt>
      <trkpt lat="48.39626" lon="2.54048">
        <ele>108</ele>
        <time>2022-04-27T11:19:18.125Z</time>
      </trkpt>
      <trkpt lat="48.39628" lon="2.54044">
        <ele>108</ele>
        <time>2022-04-27T11:19:22.146Z</time>
      </trkpt>
      <trkpt lat="48.39631" lon="2.54042">
        <ele>108</ele>
        <time>2022-04-27T11:19:27.130Z</time>
      </trkpt>
      <trkpt lat="48.3963" lon="2.54036">
        <ele>110</ele>
        <time>2022-04-27T11:19:32.126Z</time>
      </trkpt>
      <trkpt lat="48.39631" lon="2.5403">
        <ele>110</ele>
        <time>2022-04-27T11:19:37.133Z</time>
      </trkpt>
      <trkpt lat="48.39628" lon="2.54024">
        <ele>110</ele>
        <time>2022-04-27T11:19:42.120Z</time>
      </trkpt>
      <trkpt lat="48.39627" lon="2.54018">
        <ele>110</ele>
        <time>2022-04-27T11:19:47.126Z</time>
      </trkpt>
      <trkpt lat="48.39626" lon="2.54013">
        <ele>110</ele>
        <time>2022-04-27T11:19:52.127Z</time>
      </trkpt>
      <trkpt lat="48.39627" lon="2.54009">
        <ele>110</ele>
        <time>2022-04-27T11:19:57.131Z</time>
      </trkpt>
      <trkpt lat="48.39624" lon="2.54007">
        <ele>117</ele>
        <time>2022-04-27T11:20:02.128Z</time>
      </trkpt>
      <trkpt lat="48.39621" lon="2.54008">
        <ele>117</ele>
        <time>2022-04-27T11:20:06.140Z</time>
      </trkpt>
      <trkpt lat="48.39618" lon="2.54009">
        <ele>117</ele>
        <time>2022-04-27T11:20:11.143Z</time>
      </trkpt>
      <trkpt lat="48.39616" lon="2.54008">
        <ele>117</ele>
        <time>2022-04-27T11:20:16.120Z</time>
      </trkpt>
      <trkpt lat="48.39612" lon="2.54004">
        <ele>117</ele>
        <time>2022-04-27T11:20:21.128Z</time>
      </trkpt>
      <trkpt lat="48.39608" lon="2.54004">
        <ele>117</ele>
        <time>2022-04-27T11:20:25.131Z</time>
      </trkpt>
      <trkpt lat="48.39605" lon="2.54">
        <ele>117</ele>
        <time>2022-04-27T11:20:29.139Z</time>
      </trkpt>
      <trkpt lat="48.39602" lon="2.53995">
        <ele>117</ele>
        <time>2022-04-27T11:20:34.118Z</time>
      </trkpt>
      <trkpt lat="48.39599" lon="2.53993">
        <ele>117</ele>
        <time>2022-04-27T11:20:38.126Z</time>
      </trkpt>
      <trkpt lat="48.39595" lon="2.53989">
        <ele>120</ele>
        <time>2022-04-27T11:20:43.113Z</time>
      </trkpt>
      <trkpt lat="48.39593" lon="2.53973">
        <ele>119</ele>
        <time>2022-04-27T11:21:15.115Z</time>
      </trkpt>
      <trkpt lat="48.39593" lon="2.53973">
        <ele>119</ele>
        <time>2022-04-27T11:21:19.125Z</time>
      </trkpt>
      <trkpt lat="48.39593" lon="2.53966">
        <ele>119</ele>
        <time>2022-04-27T11:21:23.117Z</time>
      </trkpt>
      <trkpt lat="48.39595" lon="2.53958">
        <ele>118</ele>
        <time>2022-04-27T11:21:28.139Z</time>
      </trkpt>
      <trkpt lat="48.39598" lon="2.53951">
        <ele>116</ele>
        <time>2022-04-27T11:21:33.122Z</time>
      </trkpt>
      <trkpt lat="48.39598" lon="2.53946">
        <ele>116</ele>
        <time>2022-04-27T11:21:37.126Z</time>
      </trkpt>
      <trkpt lat="48.39599" lon="2.53938">
        <ele>116</ele>
        <time>2022-04-27T11:21:42.120Z</time>
      </trkpt>
      <trkpt lat="48.396" lon="2.53933">
        <ele>116</ele>
        <time>2022-04-27T11:21:46.130Z</time>
      </trkpt>
      <trkpt lat="48.39599" lon="2.53927">
        <ele>116</ele>
        <time>2022-04-27T11:21:50.133Z</time>
      </trkpt>
      <trkpt lat="48.39599" lon="2.53921">
        <ele>116</ele>
        <time>2022-04-27T11:21:54.133Z</time>
      </trkpt>
      <trkpt lat="48.39598" lon="2.53913">
        <ele>116</ele>
        <time>2022-04-27T11:21:59.130Z</time>
      </trkpt>
      <trkpt lat="48.39599" lon="2.53907">
        <ele>116</ele>
        <time>2022-04-27T11:22:04.257Z</time>
      </trkpt>
      <trkpt lat="48.396" lon="2.53898">
        <ele>117</ele>
        <time>2022-04-27T11:22:09.127Z</time>
      </trkpt>
      <trkpt lat="48.39602" lon="2.53893">
        <ele>117</ele>
        <time>2022-04-27T11:22:13.122Z</time>
      </trkpt>
      <trkpt lat="48.39605" lon="2.53887">
        <ele>117</ele>
        <time>2022-04-27T11:22:18.127Z</time>
      </trkpt>
      <trkpt lat="48.39607" lon="2.53881">
        <ele>117</ele>
        <time>2022-04-27T11:22:22.130Z</time>
      </trkpt>
      <trkpt lat="48.39609" lon="2.53878">
        <ele>117</ele>
        <time>2022-04-27T11:22:27.123Z</time>
      </trkpt>
      <trkpt lat="48.39611" lon="2.53872">
        <ele>119</ele>
        <time>2022-04-27T11:22:31.138Z</time>
      </trkpt>
      <trkpt lat="48.39611" lon="2.53865">
        <ele>119</ele>
        <time>2022-04-27T11:22:36.133Z</time>
      </trkpt>
      <trkpt lat="48.39617" lon="2.53862">
        <ele>119</ele>
        <time>2022-04-27T11:22:41.123Z</time>
      </trkpt>
      <trkpt lat="48.39622" lon="2.53859">
        <ele>119</ele>
        <time>2022-04-27T11:22:46.135Z</time>
      </trkpt>
      <trkpt lat="48.39627" lon="2.53859">
        <ele>116</ele>
        <time>2022-04-27T11:22:51.133Z</time>
      </trkpt>
      <trkpt lat="48.3963" lon="2.53857">
        <ele>116</ele>
        <time>2022-04-27T11:22:55.133Z</time>
      </trkpt>
      <trkpt lat="48.39634" lon="2.53857">
        <ele>116</ele>
        <time>2022-04-27T11:23:00.131Z</time>
      </trkpt>
      <trkpt lat="48.39637" lon="2.53856">
        <ele>116</ele>
        <time>2022-04-27T11:23:05.120Z</time>
      </trkpt>
      <trkpt lat="48.39638" lon="2.53852">
        <ele>116</ele>
        <time>2022-04-27T11:23:09.117Z</time>
      </trkpt>
      <trkpt lat="48.39642" lon="2.5385">
        <ele>116</ele>
        <time>2022-04-27T11:23:13.126Z</time>
      </trkpt>
      <trkpt lat="48.39641" lon="2.53842">
        <ele>118</ele>
        <time>2022-04-27T11:23:18.125Z</time>
      </trkpt>
      <trkpt lat="48.39645" lon="2.5384">
        <ele>118</ele>
        <time>2022-04-27T11:23:23.141Z</time>
      </trkpt>
      <trkpt lat="48.39642" lon="2.53827">
        <ele>118</ele>
        <time>2022-04-27T11:23:37.135Z</time>
      </trkpt>
      <trkpt lat="48.39643" lon="2.53826">
        <ele>118</ele>
        <time>2022-04-27T11:23:41.143Z</time>
      </trkpt>
      <trkpt lat="48.39646" lon="2.53825">
        <ele>118</ele>
        <time>2022-04-27T11:23:46.125Z</time>
      </trkpt>
      <trkpt lat="48.39645" lon="2.5382">
        <ele>118</ele>
        <time>2022-04-27T11:23:51.123Z</time>
      </trkpt>
      <trkpt lat="48.39646" lon="2.53819">
        <ele>119</ele>
        <time>2022-04-27T11:23:55.132Z</time>
      </trkpt>
      <trkpt lat="48.39646" lon="2.53818">
        <ele>119</ele>
        <time>2022-04-27T11:23:59.140Z</time>
      </trkpt>
      <trkpt lat="48.39648" lon="2.53813">
        <ele>119</ele>
        <time>2022-04-27T11:24:04.120Z</time>
      </trkpt>
      <trkpt lat="48.39649" lon="2.5381">
        <ele>119</ele>
        <time>2022-04-27T11:24:08.126Z</time>
      </trkpt>
      <trkpt lat="48.39653" lon="2.53809">
        <ele>113</ele>
        <time>2022-04-27T11:24:12.129Z</time>
      </trkpt>
      <trkpt lat="48.39659" lon="2.53804">
        <ele>113</ele>
        <time>2022-04-27T11:24:17.118Z</time>
      </trkpt>
      <trkpt lat="48.39657" lon="2.53795">
        <ele>113</ele>
        <time>2022-04-27T11:24:21.131Z</time>
      </trkpt>
      <trkpt lat="48.39655" lon="2.53787">
        <ele>115</ele>
        <time>2022-04-27T11:24:26.123Z</time>
      </trkpt>
      <trkpt lat="48.39654" lon="2.53781">
        <ele>115</ele>
        <time>2022-04-27T11:24:30.129Z</time>
      </trkpt>
      <trkpt lat="48.39653" lon="2.53774">
        <ele>115</ele>
        <time>2022-04-27T11:24:35.129Z</time>
      </trkpt>
      <trkpt lat="48.3965" lon="2.53768">
        <ele>120</ele>
        <time>2022-04-27T11:24:40.125Z</time>
      </trkpt>
      <trkpt lat="48.39649" lon="2.53763">
        <ele>120</ele>
        <time>2022-04-27T11:24:45.124Z</time>
      </trkpt>
      <trkpt lat="48.39647" lon="2.53758">
        <ele>120</ele>
        <time>2022-04-27T11:24:50.128Z</time>
      </trkpt>
      <trkpt lat="48.39643" lon="2.53753">
        <ele>120</ele>
        <time>2022-04-27T11:24:55.122Z</time>
      </trkpt>
      <trkpt lat="48.39639" lon="2.53748">
        <ele>120</ele>
        <time>2022-04-27T11:24:59.135Z</time>
      </trkpt>
      <trkpt lat="48.39637" lon="2.53741">
        <ele>120</ele>
        <time>2022-04-27T11:25:04.140Z</time>
      </trkpt>
      <trkpt lat="48.39639" lon="2.53739">
        <ele>120</ele>
        <time>2022-04-27T11:25:09.134Z</time>
      </trkpt>
      <trkpt lat="48.39639" lon="2.53739">
        <ele>120</ele>
        <time>2022-04-27T11:25:19.121Z</time>
      </trkpt>
      <trkpt lat="48.39639" lon="2.53739">
        <ele>120</ele>
        <time>2022-04-27T11:25:23.131Z</time>
      </trkpt>
      <trkpt lat="48.39643" lon="2.53736">
        <ele>121</ele>
        <time>2022-04-27T11:25:28.122Z</time>
      </trkpt>
      <trkpt lat="48.39646" lon="2.53733">
        <ele>121</ele>
        <time>2022-04-27T11:25:32.129Z</time>
      </trkpt>
      <trkpt lat="48.39647" lon="2.53729">
        <ele>121</ele>
        <time>2022-04-27T11:25:36.117Z</time>
      </trkpt>
      <trkpt lat="48.39644" lon="2.53727">
        <ele>121</ele>
        <time>2022-04-27T11:25:41.130Z</time>
      </trkpt>
      <trkpt lat="48.39643" lon="2.53719">
        <ele>121</ele>
        <time>2022-04-27T11:25:46.122Z</time>
      </trkpt>
      <trkpt lat="48.39643" lon="2.53712">
        <ele>121</ele>
        <time>2022-04-27T11:25:50.132Z</time>
      </trkpt>
      <trkpt lat="48.39643" lon="2.53706">
        <ele>120</ele>
        <time>2022-04-27T11:25:54.128Z</time>
      </trkpt>
      <trkpt lat="48.39642" lon="2.53698">
        <ele>120</ele>
        <time>2022-04-27T11:25:59.131Z</time>
      </trkpt>
      <trkpt lat="48.39639" lon="2.5369">
        <ele>120</ele>
        <time>2022-04-27T11:26:04.129Z</time>
      </trkpt>
      <trkpt lat="48.39639" lon="2.53683">
        <ele>120</ele>
        <time>2022-04-27T11:26:09.124Z</time>
      </trkpt>
      <trkpt lat="48.39641" lon="2.53676">
        <ele>120</ele>
        <time>2022-04-27T11:26:14.122Z</time>
      </trkpt>
      <trkpt lat="48.39643" lon="2.53672">
        <ele>120</ele>
        <time>2022-04-27T11:26:19.130Z</time>
      </trkpt>
      <trkpt lat="48.39646" lon="2.53671">
        <ele>120</ele>
        <time>2022-04-27T11:26:23.142Z</time>
      </trkpt>
      <trkpt lat="48.39652" lon="2.5367">
        <ele>120</ele>
        <time>2022-04-27T11:26:28.126Z</time>
      </trkpt>
      <trkpt lat="48.39651" lon="2.53663">
        <ele>120</ele>
        <time>2022-04-27T11:26:33.129Z</time>
      </trkpt>
      <trkpt lat="48.39648" lon="2.53659">
        <ele>120</ele>
        <time>2022-04-27T11:26:38.130Z</time>
      </trkpt>
      <trkpt lat="48.39646" lon="2.53654">
        <ele>120</ele>
        <time>2022-04-27T11:26:42.140Z</time>
      </trkpt>
      <trkpt lat="48.39651" lon="2.53649">
        <ele>119</ele>
        <time>2022-04-27T11:26:47.116Z</time>
      </trkpt>
      <trkpt lat="48.39655" lon="2.53647">
        <ele>120</ele>
        <time>2022-04-27T11:26:51.124Z</time>
      </trkpt>
      <trkpt lat="48.39659" lon="2.53645">
        <ele>120</ele>
        <time>2022-04-27T11:26:56.129Z</time>
      </trkpt>
      <trkpt lat="48.39663" lon="2.53638">
        <ele>120</ele>
        <time>2022-04-27T11:27:01.127Z</time>
      </trkpt>
      <trkpt lat="48.39666" lon="2.53633">
        <ele>120</ele>
        <time>2022-04-27T11:27:06.126Z</time>
      </trkpt>
      <trkpt lat="48.39668" lon="2.53631">
        <ele>120</ele>
        <time>2022-04-27T11:27:10.133Z</time>
      </trkpt>
      <trkpt lat="48.39673" lon="2.53632">
        <ele>120</ele>
        <time>2022-04-27T11:27:15.126Z</time>
      </trkpt>
      <trkpt lat="48.39678" lon="2.53632">
        <ele>120</ele>
        <time>2022-04-27T11:27:19.135Z</time>
      </trkpt>
      <trkpt lat="48.3968" lon="2.53627">
        <ele>120</ele>
        <time>2022-04-27T11:27:24.123Z</time>
      </trkpt>
      <trkpt lat="48.39683" lon="2.53621">
        <ele>117</ele>
        <time>2022-04-27T11:27:29.129Z</time>
      </trkpt>
      <trkpt lat="48.39684" lon="2.53615">
        <ele>117</ele>
        <time>2022-04-27T11:27:34.129Z</time>
      </trkpt>
      <trkpt lat="48.39685" lon="2.5361">
        <ele>117</ele>
        <time>2022-04-27T11:27:38.130Z</time>
      </trkpt>
      <trkpt lat="48.39684" lon="2.53604">
        <ele>117</ele>
        <time>2022-04-27T11:27:42.131Z</time>
      </trkpt>
      <trkpt lat="48.39691" lon="2.53602">
        <ele>117</ele>
        <time>2022-04-27T11:27:47.137Z</time>
      </trkpt>
      <trkpt lat="48.39692" lon="2.53595">
        <ele>118</ele>
        <time>2022-04-27T11:27:52.125Z</time>
      </trkpt>
      <trkpt lat="48.39693" lon="2.53589">
        <ele>118</ele>
        <time>2022-04-27T11:27:56.132Z</time>
      </trkpt>
      <trkpt lat="48.39695" lon="2.53583">
        <ele>118</ele>
        <time>2022-04-27T11:28:00.138Z</time>
      </trkpt>
      <trkpt lat="48.39693" lon="2.53578">
        <ele>118</ele>
        <time>2022-04-27T11:28:05.130Z</time>
      </trkpt>
      <trkpt lat="48.39692" lon="2.53576">
        <ele>118</ele>
        <time>2022-04-27T11:28:09.135Z</time>
      </trkpt>
      <trkpt lat="48.39688" lon="2.53574">
        <ele>118</ele>
        <time>2022-04-27T11:28:14.137Z</time>
      </trkpt>
      <trkpt lat="48.39683" lon="2.53572">
        <ele>118</ele>
        <time>2022-04-27T11:28:19.124Z</time>
      </trkpt>
      <trkpt lat="48.39682" lon="2.53566">
        <ele>118</ele>
        <time>2022-04-27T11:28:24.129Z</time>
      </trkpt>
      <trkpt lat="48.39683" lon="2.53562">
        <ele>118</ele>
        <time>2022-04-27T11:28:28.131Z</time>
      </trkpt>
      <trkpt lat="48.39683" lon="2.53558">
        <ele>118</ele>
        <time>2022-04-27T11:28:33.130Z</time>
      </trkpt>
      <trkpt lat="48.39683" lon="2.53553">
        <ele>118</ele>
        <time>2022-04-27T11:28:37.142Z</time>
      </trkpt>
      <trkpt lat="48.39683" lon="2.53545">
        <ele>118</ele>
        <time>2022-04-27T11:28:42.123Z</time>
      </trkpt>
      <trkpt lat="48.39683" lon="2.53539">
        <ele>118</ele>
        <time>2022-04-27T11:28:46.129Z</time>
      </trkpt>
      <trkpt lat="48.39685" lon="2.53533">
        <ele>118</ele>
        <time>2022-04-27T11:28:51.133Z</time>
      </trkpt>
      <trkpt lat="48.39685" lon="2.53528">
        <ele>118</ele>
        <time>2022-04-27T11:28:55.131Z</time>
      </trkpt>
      <trkpt lat="48.39684" lon="2.53522">
        <ele>118</ele>
        <time>2022-04-27T11:29:00.120Z</time>
      </trkpt>
      <trkpt lat="48.39686" lon="2.53516">
        <ele>118</ele>
        <time>2022-04-27T11:29:05.130Z</time>
      </trkpt>
      <trkpt lat="48.39688" lon="2.5351">
        <ele>118</ele>
        <time>2022-04-27T11:29:09.129Z</time>
      </trkpt>
      <trkpt lat="48.39688" lon="2.53501">
        <ele>118</ele>
        <time>2022-04-27T11:29:14.120Z</time>
      </trkpt>
      <trkpt lat="48.3969" lon="2.53495">
        <ele>118</ele>
        <time>2022-04-27T11:29:18.135Z</time>
      </trkpt>
      <trkpt lat="48.39692" lon="2.53489">
        <ele>118</ele>
        <time>2022-04-27T11:29:22.126Z</time>
      </trkpt>
      <trkpt lat="48.39693" lon="2.53482">
        <ele>118</ele>
        <time>2022-04-27T11:29:27.127Z</time>
      </trkpt>
      <trkpt lat="48.39695" lon="2.53474">
        <ele>118</ele>
        <time>2022-04-27T11:29:32.126Z</time>
      </trkpt>
      <trkpt lat="48.39696" lon="2.53469">
        <ele>118</ele>
        <time>2022-04-27T11:29:36.127Z</time>
      </trkpt>
      <trkpt lat="48.39698" lon="2.53462">
        <ele>118</ele>
        <time>2022-04-27T11:29:40.131Z</time>
      </trkpt>
      <trkpt lat="48.397" lon="2.53453">
        <ele>119</ele>
        <time>2022-04-27T11:29:45.120Z</time>
      </trkpt>
      <trkpt lat="48.39702" lon="2.53445">
        <ele>119</ele>
        <time>2022-04-27T11:29:50.126Z</time>
      </trkpt>
      <trkpt lat="48.39706" lon="2.53435">
        <ele>119</ele>
        <time>2022-04-27T11:29:55.125Z</time>
      </trkpt>
      <trkpt lat="48.39708" lon="2.53427">
        <ele>119</ele>
        <time>2022-04-27T11:29:59.123Z</time>
      </trkpt>
      <trkpt lat="48.3971" lon="2.5342">
        <ele>117</ele>
        <time>2022-04-27T11:30:03.135Z</time>
      </trkpt>
      <trkpt lat="48.39713" lon="2.53411">
        <ele>117</ele>
        <time>2022-04-27T11:30:08.129Z</time>
      </trkpt>
      <trkpt lat="48.39717" lon="2.53403">
        <ele>118</ele>
        <time>2022-04-27T11:30:13.126Z</time>
      </trkpt>
      <trkpt lat="48.3972" lon="2.53395">
        <ele>118</ele>
        <time>2022-04-27T11:30:18.129Z</time>
      </trkpt>
      <trkpt lat="48.39722" lon="2.53387">
        <ele>118</ele>
        <time>2022-04-27T11:30:23.122Z</time>
      </trkpt>
      <trkpt lat="48.39724" lon="2.53381">
        <ele>118</ele>
        <time>2022-04-27T11:30:27.125Z</time>
      </trkpt>
      <trkpt lat="48.39727" lon="2.53375">
        <ele>119</ele>
        <time>2022-04-27T11:30:32.128Z</time>
      </trkpt>
      <trkpt lat="48.39729" lon="2.53369">
        <ele>119</ele>
        <time>2022-04-27T11:30:36.128Z</time>
      </trkpt>
      <trkpt lat="48.39732" lon="2.5336">
        <ele>119</ele>
        <time>2022-04-27T11:30:41.128Z</time>
      </trkpt>
      <trkpt lat="48.39734" lon="2.53351">
        <ele>119</ele>
        <time>2022-04-27T11:30:46.128Z</time>
      </trkpt>
      <trkpt lat="48.39736" lon="2.53342">
        <ele>116</ele>
        <time>2022-04-27T11:30:51.126Z</time>
      </trkpt>
      <trkpt lat="48.39739" lon="2.53336">
        <ele>116</ele>
        <time>2022-04-27T11:30:55.128Z</time>
      </trkpt>
      <trkpt lat="48.3974" lon="2.53329">
        <ele>116</ele>
        <time>2022-04-27T11:31:00.129Z</time>
      </trkpt>
      <trkpt lat="48.39742" lon="2.53321">
        <ele>116</ele>
        <time>2022-04-27T11:31:05.132Z</time>
      </trkpt>
      <trkpt lat="48.39745" lon="2.53316">
        <ele>117</ele>
        <time>2022-04-27T11:31:10.131Z</time>
      </trkpt>
      <trkpt lat="48.39749" lon="2.53322">
        <ele>116</ele>
        <time>2022-04-27T11:31:15.120Z</time>
      </trkpt>
      <trkpt lat="48.39751" lon="2.53329">
        <ele>116</ele>
        <time>2022-04-27T11:31:19.123Z</time>
      </trkpt>
      <trkpt lat="48.39754" lon="2.53336">
        <ele>116</ele>
        <time>2022-04-27T11:31:24.130Z</time>
      </trkpt>
      <trkpt lat="48.39756" lon="2.53342">
        <ele>116</ele>
        <time>2022-04-27T11:31:29.122Z</time>
      </trkpt>
      <trkpt lat="48.39759" lon="2.53347">
        <ele>116</ele>
        <time>2022-04-27T11:31:34.125Z</time>
      </trkpt>
      <trkpt lat="48.39761" lon="2.53349">
        <ele>116</ele>
        <time>2022-04-27T11:31:38.131Z</time>
      </trkpt>
      <trkpt lat="48.39763" lon="2.53352">
        <ele>116</ele>
        <time>2022-04-27T11:31:42.135Z</time>
      </trkpt>
      <trkpt lat="48.39766" lon="2.53355">
        <ele>113</ele>
        <time>2022-04-27T11:31:47.124Z</time>
      </trkpt>
      <trkpt lat="48.39767" lon="2.53358">
        <ele>113</ele>
        <time>2022-04-27T11:31:51.122Z</time>
      </trkpt>
      <trkpt lat="48.39767" lon="2.53361">
        <ele>113</ele>
        <time>2022-04-27T11:31:56.121Z</time>
      </trkpt>
      <trkpt lat="48.39769" lon="2.53364">
        <ele>113</ele>
        <time>2022-04-27T11:32:00.128Z</time>
      </trkpt>
      <trkpt lat="48.39771" lon="2.53368">
        <ele>113</ele>
        <time>2022-04-27T11:32:05.123Z</time>
      </trkpt>
      <trkpt lat="48.39774" lon="2.53371">
        <ele>113</ele>
        <time>2022-04-27T11:32:10.130Z</time>
      </trkpt>
      <trkpt lat="48.39775" lon="2.53378">
        <ele>110</ele>
        <time>2022-04-27T11:32:14.131Z</time>
      </trkpt>
      <trkpt lat="48.3977" lon="2.53383">
        <ele>110</ele>
        <time>2022-04-27T11:32:19.123Z</time>
      </trkpt>
      <trkpt lat="48.39769" lon="2.53391">
        <ele>110</ele>
        <time>2022-04-27T11:32:24.131Z</time>
      </trkpt>
      <trkpt lat="48.39768" lon="2.53395">
        <ele>110</ele>
        <time>2022-04-27T11:32:29.138Z</time>
      </trkpt>
      <trkpt lat="48.39768" lon="2.53396">
        <ele>110</ele>
        <time>2022-04-27T11:32:34.130Z</time>
      </trkpt>
      <trkpt lat="48.39765" lon="2.534">
        <ele>110</ele>
        <time>2022-04-27T11:32:38.135Z</time>
      </trkpt>
      <trkpt lat="48.39761" lon="2.53407">
        <ele>113</ele>
        <time>2022-04-27T11:32:43.128Z</time>
      </trkpt>
      <trkpt lat="48.3976" lon="2.53413">
        <ele>113</ele>
        <time>2022-04-27T11:32:47.130Z</time>
      </trkpt>
      <trkpt lat="48.39759" lon="2.53419">
        <ele>113</ele>
        <time>2022-04-27T11:32:51.143Z</time>
      </trkpt>
      <trkpt lat="48.39764" lon="2.53422">
        <ele>113</ele>
        <time>2022-04-27T11:32:56.134Z</time>
      </trkpt>
      <trkpt lat="48.39768" lon="2.53427">
        <ele>107</ele>
        <time>2022-04-27T11:33:01.127Z</time>
      </trkpt>
      <trkpt lat="48.39772" lon="2.5343">
        <ele>107</ele>
        <time>2022-04-27T11:33:06.130Z</time>
      </trkpt>
      <trkpt lat="48.39774" lon="2.53434">
        <ele>105</ele>
        <time>2022-04-27T11:33:10.122Z</time>
      </trkpt>
      <trkpt lat="48.39778" lon="2.53435">
        <ele>105</ele>
        <time>2022-04-27T11:33:15.125Z</time>
      </trkpt>
      <trkpt lat="48.3978" lon="2.53439">
        <ele>105</ele>
        <time>2022-04-27T11:33:19.150Z</time>
      </trkpt>
      <trkpt lat="48.39784" lon="2.53444">
        <ele>105</ele>
        <time>2022-04-27T11:33:24.129Z</time>
      </trkpt>
      <trkpt lat="48.39786" lon="2.53448">
        <ele>105</ele>
        <time>2022-04-27T11:33:28.129Z</time>
      </trkpt>
      <trkpt lat="48.3979" lon="2.53452">
        <ele>105</ele>
        <time>2022-04-27T11:33:33.122Z</time>
      </trkpt>
      <trkpt lat="48.39793" lon="2.53456">
        <ele>101</ele>
        <time>2022-04-27T11:33:37.126Z</time>
      </trkpt>
      <trkpt lat="48.39795" lon="2.53461">
        <ele>100</ele>
        <time>2022-04-27T11:33:42.121Z</time>
      </trkpt>
      <trkpt lat="48.39798" lon="2.53467">
        <ele>100</ele>
        <time>2022-04-27T11:33:46.134Z</time>
      </trkpt>
      <trkpt lat="48.39801" lon="2.53473">
        <ele>100</ele>
        <time>2022-04-27T11:33:51.127Z</time>
      </trkpt>
      <trkpt lat="48.39803" lon="2.53481">
        <ele>100</ele>
        <time>2022-04-27T11:33:56.124Z</time>
      </trkpt>
      <trkpt lat="48.39804" lon="2.53486">
        <ele>100</ele>
        <time>2022-04-27T11:34:00.124Z</time>
      </trkpt>
      <trkpt lat="48.39806" lon="2.53491">
        <ele>98</ele>
        <time>2022-04-27T11:34:04.132Z</time>
      </trkpt>
      <trkpt lat="48.3981" lon="2.53496">
        <ele>98</ele>
        <time>2022-04-27T11:34:09.126Z</time>
      </trkpt>
      <trkpt lat="48.39812" lon="2.535">
        <ele>98</ele>
        <time>2022-04-27T11:34:13.133Z</time>
      </trkpt>
      <trkpt lat="48.39815" lon="2.53502">
        <ele>98</ele>
        <time>2022-04-27T11:34:17.133Z</time>
      </trkpt>
      <trkpt lat="48.39819" lon="2.53507">
        <ele>98</ele>
        <time>2022-04-27T11:34:22.135Z</time>
      </trkpt>
      <trkpt lat="48.39823" lon="2.53511">
        <ele>97</ele>
        <time>2022-04-27T11:34:26.130Z</time>
      </trkpt>
      <trkpt lat="48.39827" lon="2.53511">
        <ele>97</ele>
        <time>2022-04-27T11:34:31.125Z</time>
      </trkpt>
      <trkpt lat="48.3983" lon="2.53508">
        <ele>97</ele>
        <time>2022-04-27T11:34:35.125Z</time>
      </trkpt>
      <trkpt lat="48.39831" lon="2.53508">
        <ele>97</ele>
        <time>2022-04-27T11:37:18.127Z</time>
      </trkpt>
      <trkpt lat="48.39831" lon="2.53508">
        <ele>97</ele>
        <time>2022-04-27T11:37:22.128Z</time>
      </trkpt>
      <trkpt lat="48.39831" lon="2.53508">
        <ele>97</ele>
        <time>2022-04-27T11:37:27.130Z</time>
      </trkpt>
      <trkpt lat="48.39831" lon="2.53508">
        <ele>97</ele>
        <time>2022-04-27T11:37:31.138Z</time>
      </trkpt>
      <trkpt lat="48.39839" lon="2.535">
        <ele>97</ele>
        <time>2022-04-27T11:37:36.130Z</time>
      </trkpt>
      <trkpt lat="48.39841" lon="2.53495">
        <ele>97</ele>
        <time>2022-04-27T11:37:40.137Z</time>
      </trkpt>
      <trkpt lat="48.39843" lon="2.53491">
        <ele>97</ele>
        <time>2022-04-27T11:37:45.121Z</time>
      </trkpt>
      <trkpt lat="48.39845" lon="2.53487">
        <ele>97</ele>
        <time>2022-04-27T11:37:49.125Z</time>
      </trkpt>
      <trkpt lat="48.39848" lon="2.5348">
        <ele>95</ele>
        <time>2022-04-27T11:37:54.127Z</time>
      </trkpt>
      <trkpt lat="48.39851" lon="2.53474">
        <ele>95</ele>
        <time>2022-04-27T11:37:59.120Z</time>
      </trkpt>
      <trkpt lat="48.39852" lon="2.53467">
        <ele>95</ele>
        <time>2022-04-27T11:38:03.134Z</time>
      </trkpt>
      <trkpt lat="48.39856" lon="2.5346">
        <ele>95</ele>
        <time>2022-04-27T11:38:08.126Z</time>
      </trkpt>
      <trkpt lat="48.39857" lon="2.53453">
        <ele>95</ele>
        <time>2022-04-27T11:38:12.129Z</time>
      </trkpt>
      <trkpt lat="48.39861" lon="2.53443">
        <ele>95</ele>
        <time>2022-04-27T11:38:17.137Z</time>
      </trkpt>
      <trkpt lat="48.39863" lon="2.53433">
        <ele>95</ele>
        <time>2022-04-27T11:38:22.138Z</time>
      </trkpt>
      <trkpt lat="48.39864" lon="2.53423">
        <ele>94</ele>
        <time>2022-04-27T11:38:27.129Z</time>
      </trkpt>
      <trkpt lat="48.39866" lon="2.53414">
        <ele>94</ele>
        <time>2022-04-27T11:38:32.124Z</time>
      </trkpt>
      <trkpt lat="48.39867" lon="2.53407">
        <ele>94</ele>
        <time>2022-04-27T11:38:36.121Z</time>
      </trkpt>
      <trkpt lat="48.39869" lon="2.53399">
        <ele>93</ele>
        <time>2022-04-27T11:38:41.115Z</time>
      </trkpt>
      <trkpt lat="48.39869" lon="2.5339">
        <ele>93</ele>
        <time>2022-04-27T11:38:46.122Z</time>
      </trkpt>
      <trkpt lat="48.3987" lon="2.53384">
        <ele>93</ele>
        <time>2022-04-27T11:38:50.125Z</time>
      </trkpt>
      <trkpt lat="48.3987" lon="2.53378">
        <ele>93</ele>
        <time>2022-04-27T11:38:54.139Z</time>
      </trkpt>
      <trkpt lat="48.39871" lon="2.5337">
        <ele>91</ele>
        <time>2022-04-27T11:38:59.135Z</time>
      </trkpt>
      <trkpt lat="48.39871" lon="2.53359">
        <ele>91</ele>
        <time>2022-04-27T11:39:04.129Z</time>
      </trkpt>
      <trkpt lat="48.39872" lon="2.53351">
        <ele>91</ele>
        <time>2022-04-27T11:39:09.131Z</time>
      </trkpt>
      <trkpt lat="48.39871" lon="2.53342">
        <ele>90</ele>
        <time>2022-04-27T11:39:14.124Z</time>
      </trkpt>
      <trkpt lat="48.39872" lon="2.53334">
        <ele>90</ele>
        <time>2022-04-27T11:39:18.127Z</time>
      </trkpt>
      <trkpt lat="48.39875" lon="2.53324">
        <ele>90</ele>
        <time>2022-04-27T11:39:23.124Z</time>
      </trkpt>
      <trkpt lat="48.39877" lon="2.53316">
        <ele>88</ele>
        <time>2022-04-27T11:39:27.126Z</time>
      </trkpt>
      <trkpt lat="48.39879" lon="2.53308">
        <ele>88</ele>
        <time>2022-04-27T11:39:32.134Z</time>
      </trkpt>
      <trkpt lat="48.3988" lon="2.53301">
        <ele>88</ele>
        <time>2022-04-27T11:39:36.136Z</time>
      </trkpt>
      <trkpt lat="48.39882" lon="2.53293">
        <ele>88</ele>
        <time>2022-04-27T11:39:41.142Z</time>
      </trkpt>
      <trkpt lat="48.39885" lon="2.53284">
        <ele>85</ele>
        <time>2022-04-27T11:39:46.128Z</time>
      </trkpt>
      <trkpt lat="48.39887" lon="2.53276">
        <ele>85</ele>
        <time>2022-04-27T11:39:51.127Z</time>
      </trkpt>
      <trkpt lat="48.39889" lon="2.53267">
        <ele>85</ele>
        <time>2022-04-27T11:39:56.130Z</time>
      </trkpt>
      <trkpt lat="48.39894" lon="2.53261">
        <ele>84</ele>
        <time>2022-04-27T11:40:01.127Z</time>
      </trkpt>
      <trkpt lat="48.399" lon="2.53258">
        <ele>84</ele>
        <time>2022-04-27T11:40:06.129Z</time>
      </trkpt>
      <trkpt lat="48.39906" lon="2.53255">
        <ele>86</ele>
        <time>2022-04-27T11:40:11.130Z</time>
      </trkpt>
      <trkpt lat="48.3991" lon="2.53255">
        <ele>86</ele>
        <time>2022-04-27T11:40:16.125Z</time>
      </trkpt>
      <trkpt lat="48.39914" lon="2.53258">
        <ele>86</ele>
        <time>2022-04-27T11:40:20.128Z</time>
      </trkpt>
      <trkpt lat="48.39916" lon="2.53266">
        <ele>87</ele>
        <time>2022-04-27T11:40:25.135Z</time>
      </trkpt>
      <trkpt lat="48.39917" lon="2.53275">
        <ele>87</ele>
        <time>2022-04-27T11:40:30.125Z</time>
      </trkpt>
      <trkpt lat="48.39916" lon="2.53282">
        <ele>87</ele>
        <time>2022-04-27T11:40:35.126Z</time>
      </trkpt>
      <trkpt lat="48.39916" lon="2.53284">
        <ele>87</ele>
        <time>2022-04-27T11:40:40.129Z</time>
      </trkpt>
      <trkpt lat="48.39916" lon="2.53286">
        <ele>87</ele>
        <time>2022-04-27T11:40:45.133Z</time>
      </trkpt>
      <trkpt lat="48.39915" lon="2.53288">
        <ele>87</ele>
        <time>2022-04-27T11:40:50.133Z</time>
      </trkpt>
      <trkpt lat="48.39916" lon="2.53295">
        <ele>89</ele>
        <time>2022-04-27T11:40:55.137Z</time>
      </trkpt>
      <trkpt lat="48.39919" lon="2.53298">
        <ele>89</ele>
        <time>2022-04-27T11:41:00.126Z</time>
      </trkpt>
      <trkpt lat="48.39921" lon="2.53304">
        <ele>89</ele>
        <time>2022-04-27T11:41:05.122Z</time>
      </trkpt>
      <trkpt lat="48.39922" lon="2.53308">
        <ele>89</ele>
        <time>2022-04-27T11:41:09.126Z</time>
      </trkpt>
      <trkpt lat="48.3992" lon="2.53312">
        <ele>89</ele>
        <time>2022-04-27T11:41:14.121Z</time>
      </trkpt>
      <trkpt lat="48.39921" lon="2.53315">
        <ele>89</ele>
        <time>2022-04-27T11:41:18.126Z</time>
      </trkpt>
      <trkpt lat="48.39923" lon="2.53319">
        <ele>89</ele>
        <time>2022-04-27T11:41:23.126Z</time>
      </trkpt>
      <trkpt lat="48.39924" lon="2.53325">
        <ele>92</ele>
        <time>2022-04-27T11:41:28.126Z</time>
      </trkpt>
      <trkpt lat="48.39929" lon="2.53342">
        <ele>92</ele>
        <time>2022-04-27T11:41:43.134Z</time>
      </trkpt>
      <trkpt lat="48.39934" lon="2.53346">
        <ele>95</ele>
        <time>2022-04-27T11:41:48.125Z</time>
      </trkpt>
      <trkpt lat="48.39935" lon="2.53348">
        <ele>98</ele>
        <time>2022-04-27T11:41:53.119Z</time>
      </trkpt>
      <trkpt lat="48.39938" lon="2.53348">
        <ele>98</ele>
        <time>2022-04-27T11:41:57.124Z</time>
      </trkpt>
      <trkpt lat="48.39939" lon="2.53349">
        <ele>98</ele>
        <time>2022-04-27T11:42:02.119Z</time>
      </trkpt>
      <trkpt lat="48.39941" lon="2.53348">
        <ele>98</ele>
        <time>2022-04-27T11:42:06.124Z</time>
      </trkpt>
      <trkpt lat="48.39947" lon="2.53349">
        <ele>98</ele>
        <time>2022-04-27T11:42:11.111Z</time>
      </trkpt>
      <trkpt lat="48.39951" lon="2.53351">
        <ele>98</ele>
        <time>2022-04-27T11:42:15.124Z</time>
      </trkpt>
      <trkpt lat="48.39956" lon="2.53354">
        <ele>98</ele>
        <time>2022-04-27T11:42:20.121Z</time>
      </trkpt>
      <trkpt lat="48.3996" lon="2.53354">
        <ele>102</ele>
        <time>2022-04-27T11:42:24.127Z</time>
      </trkpt>
      <trkpt lat="48.39965" lon="2.53354">
        <ele>102</ele>
        <time>2022-04-27T11:42:29.121Z</time>
      </trkpt>
      <trkpt lat="48.3997" lon="2.53354">
        <ele>102</ele>
        <time>2022-04-27T11:42:34.122Z</time>
      </trkpt>
      <trkpt lat="48.39973" lon="2.53353">
        <ele>102</ele>
        <time>2022-04-27T11:42:38.129Z</time>
      </trkpt>
      <trkpt lat="48.39976" lon="2.53352">
        <ele>102</ele>
        <time>2022-04-27T11:42:43.119Z</time>
      </trkpt>
      <trkpt lat="48.39978" lon="2.53352">
        <ele>102</ele>
        <time>2022-04-27T11:42:47.123Z</time>
      </trkpt>
      <trkpt lat="48.39982" lon="2.53353">
        <ele>102</ele>
        <time>2022-04-27T11:42:52.121Z</time>
      </trkpt>
      <trkpt lat="48.39985" lon="2.53359">
        <ele>102</ele>
        <time>2022-04-27T11:42:57.125Z</time>
      </trkpt>
      <trkpt lat="48.39989" lon="2.5336">
        <ele>105</ele>
        <time>2022-04-27T11:43:02.123Z</time>
      </trkpt>
      <trkpt lat="48.39992" lon="2.53357">
        <ele>105</ele>
        <time>2022-04-27T11:43:07.123Z</time>
      </trkpt>
      <trkpt lat="48.39996" lon="2.53356">
        <ele>105</ele>
        <time>2022-04-27T11:43:12.135Z</time>
      </trkpt>
      <trkpt lat="48.39998" lon="2.5336">
        <ele>105</ele>
        <time>2022-04-27T11:43:17.125Z</time>
      </trkpt>
      <trkpt lat="48.40001" lon="2.53364">
        <ele>105</ele>
        <time>2022-04-27T11:43:22.128Z</time>
      </trkpt>
      <trkpt lat="48.40003" lon="2.53366">
        <ele>105</ele>
        <time>2022-04-27T11:43:27.135Z</time>
      </trkpt>
      <trkpt lat="48.40004" lon="2.5337">
        <ele>105</ele>
        <time>2022-04-27T11:43:32.130Z</time>
      </trkpt>
      <trkpt lat="48.40005" lon="2.53375">
        <ele>109</ele>
        <time>2022-04-27T11:43:37.125Z</time>
      </trkpt>
      <trkpt lat="48.40006" lon="2.5338">
        <ele>109</ele>
        <time>2022-04-27T11:43:42.126Z</time>
      </trkpt>
      <trkpt lat="48.40008" lon="2.53383">
        <ele>109</ele>
        <time>2022-04-27T11:43:46.138Z</time>
      </trkpt>
      <trkpt lat="48.4001" lon="2.53386">
        <ele>109</ele>
        <time>2022-04-27T11:43:51.128Z</time>
      </trkpt>
      <trkpt lat="48.40011" lon="2.53389">
        <ele>109</ele>
        <time>2022-04-27T11:43:55.130Z</time>
      </trkpt>
      <trkpt lat="48.40012" lon="2.53394">
        <ele>109</ele>
        <time>2022-04-27T11:44:00.133Z</time>
      </trkpt>
      <trkpt lat="48.40015" lon="2.53398">
        <ele>113</ele>
        <time>2022-04-27T11:44:05.136Z</time>
      </trkpt>
      <trkpt lat="48.40016" lon="2.534">
        <ele>113</ele>
        <time>2022-04-27T11:44:09.143Z</time>
      </trkpt>
      <trkpt lat="48.40016" lon="2.53404">
        <ele>116</ele>
        <time>2022-04-27T11:44:14.131Z</time>
      </trkpt>
      <trkpt lat="48.40016" lon="2.53408">
        <ele>116</ele>
        <time>2022-04-27T11:44:18.137Z</time>
      </trkpt>
      <trkpt lat="48.40016" lon="2.53415">
        <ele>116</ele>
        <time>2022-04-27T11:44:23.124Z</time>
      </trkpt>
      <trkpt lat="48.40015" lon="2.53417">
        <ele>116</ele>
        <time>2022-04-27T11:49:42.139Z</time>
      </trkpt>
      <trkpt lat="48.4001" lon="2.53423">
        <ele>112</ele>
        <time>2022-04-27T11:49:47.130Z</time>
      </trkpt>
      <trkpt lat="48.40003" lon="2.53426">
        <ele>112</ele>
        <time>2022-04-27T11:49:51.133Z</time>
      </trkpt>
      <trkpt lat="48.4" lon="2.53457">
        <ele>114</ele>
        <time>2022-04-27T11:49:56.126Z</time>
      </trkpt>
      <trkpt lat="48.4" lon="2.53464">
        <ele>117</ele>
        <time>2022-04-27T11:50:01.128Z</time>
      </trkpt>
      <trkpt lat="48.39998" lon="2.53473">
        <ele>117</ele>
        <time>2022-04-27T11:50:06.137Z</time>
      </trkpt>
      <trkpt lat="48.39996" lon="2.53483">
        <ele>117</ele>
        <time>2022-04-27T11:50:11.119Z</time>
      </trkpt>
      <trkpt lat="48.39994" lon="2.53489">
        <ele>119</ele>
        <time>2022-04-27T11:50:15.138Z</time>
      </trkpt>
      <trkpt lat="48.3999" lon="2.53495">
        <ele>119</ele>
        <time>2022-04-27T11:50:20.121Z</time>
      </trkpt>
      <trkpt lat="48.39986" lon="2.535">
        <ele>119</ele>
        <time>2022-04-27T11:50:25.135Z</time>
      </trkpt>
      <trkpt lat="48.39982" lon="2.53506">
        <ele>114</ele>
        <time>2022-04-27T11:50:30.145Z</time>
      </trkpt>
      <trkpt lat="48.3998" lon="2.53513">
        <ele>114</ele>
        <time>2022-04-27T11:50:35.122Z</time>
      </trkpt>
      <trkpt lat="48.39981" lon="2.53518">
        <ele>115</ele>
        <time>2022-04-27T11:50:39.132Z</time>
      </trkpt>
      <trkpt lat="48.39981" lon="2.53525">
        <ele>115</ele>
        <time>2022-04-27T11:50:44.120Z</time>
      </trkpt>
      <trkpt lat="48.39981" lon="2.53531">
        <ele>115</ele>
        <time>2022-04-27T11:50:48.131Z</time>
      </trkpt>
      <trkpt lat="48.39978" lon="2.53538">
        <ele>115</ele>
        <time>2022-04-27T11:50:53.119Z</time>
      </trkpt>
      <trkpt lat="48.39976" lon="2.53544">
        <ele>115</ele>
        <time>2022-04-27T11:50:57.129Z</time>
      </trkpt>
      <trkpt lat="48.39974" lon="2.53552">
        <ele>115</ele>
        <time>2022-04-27T11:51:02.124Z</time>
      </trkpt>
      <trkpt lat="48.39974" lon="2.5356">
        <ele>115</ele>
        <time>2022-04-27T11:51:07.130Z</time>
      </trkpt>
      <trkpt lat="48.39973" lon="2.53567">
        <ele>115</ele>
        <time>2022-04-27T11:51:12.125Z</time>
      </trkpt>
      <trkpt lat="48.39973" lon="2.53573">
        <ele>114</ele>
        <time>2022-04-27T11:51:16.140Z</time>
      </trkpt>
      <trkpt lat="48.39975" lon="2.53578">
        <ele>114</ele>
        <time>2022-04-27T11:51:21.123Z</time>
      </trkpt>
      <trkpt lat="48.39979" lon="2.53582">
        <ele>114</ele>
        <time>2022-04-27T11:51:26.122Z</time>
      </trkpt>
      <trkpt lat="48.39982" lon="2.53586">
        <ele>114</ele>
        <time>2022-04-27T11:51:30.135Z</time>
      </trkpt>
      <trkpt lat="48.39985" lon="2.5359">
        <ele>114</ele>
        <time>2022-04-27T11:51:34.137Z</time>
      </trkpt>
      <trkpt lat="48.39991" lon="2.53594">
        <ele>118</ele>
        <time>2022-04-27T11:51:39.121Z</time>
      </trkpt>
      <trkpt lat="48.39995" lon="2.53599">
        <ele>117</ele>
        <time>2022-04-27T11:51:43.131Z</time>
      </trkpt>
      <trkpt lat="48.39996" lon="2.53604">
        <ele>117</ele>
        <time>2022-04-27T11:51:48.118Z</time>
      </trkpt>
      <trkpt lat="48.4" lon="2.53607">
        <ele>117</ele>
        <time>2022-04-27T11:51:52.120Z</time>
      </trkpt>
      <trkpt lat="48.40003" lon="2.5361">
        <ele>117</ele>
        <time>2022-04-27T11:51:56.138Z</time>
      </trkpt>
      <trkpt lat="48.40009" lon="2.53614">
        <ele>117</ele>
        <time>2022-04-27T11:52:01.122Z</time>
      </trkpt>
      <trkpt lat="48.40011" lon="2.5362">
        <ele>117</ele>
        <time>2022-04-27T11:52:06.130Z</time>
      </trkpt>
      <trkpt lat="48.40013" lon="2.53626">
        <ele>115</ele>
        <time>2022-04-27T11:52:11.130Z</time>
      </trkpt>
      <trkpt lat="48.40015" lon="2.53633">
        <ele>120</ele>
        <time>2022-04-27T11:52:16.123Z</time>
      </trkpt>
      <trkpt lat="48.40018" lon="2.53638">
        <ele>120</ele>
        <time>2022-04-27T11:52:21.127Z</time>
      </trkpt>
      <trkpt lat="48.4002" lon="2.53646">
        <ele>120</ele>
        <time>2022-04-27T11:52:26.124Z</time>
      </trkpt>
      <trkpt lat="48.4002" lon="2.53654">
        <ele>120</ele>
        <time>2022-04-27T11:52:31.133Z</time>
      </trkpt>
      <trkpt lat="48.4002" lon="2.53663">
        <ele>120</ele>
        <time>2022-04-27T11:52:36.123Z</time>
      </trkpt>
      <trkpt lat="48.40021" lon="2.5367">
        <ele>120</ele>
        <time>2022-04-27T11:52:40.132Z</time>
      </trkpt>
      <trkpt lat="48.40023" lon="2.53678">
        <ele>120</ele>
        <time>2022-04-27T11:52:45.129Z</time>
      </trkpt>
      <trkpt lat="48.40025" lon="2.53685">
        <ele>119</ele>
        <time>2022-04-27T11:52:50.121Z</time>
      </trkpt>
      <trkpt lat="48.40028" lon="2.53692">
        <ele>119</ele>
        <time>2022-04-27T11:52:55.131Z</time>
      </trkpt>
      <trkpt lat="48.40028" lon="2.537">
        <ele>119</ele>
        <time>2022-04-27T11:53:00.127Z</time>
      </trkpt>
      <trkpt lat="48.40028" lon="2.53706">
        <ele>119</ele>
        <time>2022-04-27T11:53:05.129Z</time>
      </trkpt>
      <trkpt lat="48.4003" lon="2.53712">
        <ele>118</ele>
        <time>2022-04-27T11:53:10.124Z</time>
      </trkpt>
      <trkpt lat="48.40032" lon="2.53718">
        <ele>118</ele>
        <time>2022-04-27T11:53:14.150Z</time>
      </trkpt>
      <trkpt lat="48.40033" lon="2.53727">
        <ele>118</ele>
        <time>2022-04-27T11:53:19.130Z</time>
      </trkpt>
      <trkpt lat="48.40033" lon="2.53736">
        <ele>118</ele>
        <time>2022-04-27T11:53:24.136Z</time>
      </trkpt>
      <trkpt lat="48.40031" lon="2.53743">
        <ele>117</ele>
        <time>2022-04-27T11:53:29.134Z</time>
      </trkpt>
      <trkpt lat="48.4003" lon="2.53751">
        <ele>117</ele>
        <time>2022-04-27T11:53:34.141Z</time>
      </trkpt>
      <trkpt lat="48.40029" lon="2.53757">
        <ele>117</ele>
        <time>2022-04-27T11:53:38.148Z</time>
      </trkpt>
      <trkpt lat="48.40027" lon="2.53765">
        <ele>116</ele>
        <time>2022-04-27T11:53:43.128Z</time>
      </trkpt>
      <trkpt lat="48.40025" lon="2.53773">
        <ele>116</ele>
        <time>2022-04-27T11:53:48.126Z</time>
      </trkpt>
      <trkpt lat="48.40024" lon="2.53781">
        <ele>116</ele>
        <time>2022-04-27T11:53:53.124Z</time>
      </trkpt>
      <trkpt lat="48.40025" lon="2.53787">
        <ele>116</ele>
        <time>2022-04-27T11:53:57.131Z</time>
      </trkpt>
      <trkpt lat="48.40026" lon="2.53794">
        <ele>116</ele>
        <time>2022-04-27T11:54:02.128Z</time>
      </trkpt>
      <trkpt lat="48.40025" lon="2.53802">
        <ele>116</ele>
        <time>2022-04-27T11:54:06.132Z</time>
      </trkpt>
      <trkpt lat="48.40025" lon="2.5381">
        <ele>116</ele>
        <time>2022-04-27T11:54:11.131Z</time>
      </trkpt>
      <trkpt lat="48.40024" lon="2.53817">
        <ele>116</ele>
        <time>2022-04-27T11:54:16.127Z</time>
      </trkpt>
      <trkpt lat="48.40024" lon="2.53824">
        <ele>116</ele>
        <time>2022-04-27T11:54:21.139Z</time>
      </trkpt>
      <trkpt lat="48.40023" lon="2.53832">
        <ele>116</ele>
        <time>2022-04-27T11:54:26.132Z</time>
      </trkpt>
      <trkpt lat="48.40022" lon="2.53839">
        <ele>116</ele>
        <time>2022-04-27T11:54:30.135Z</time>
      </trkpt>
      <trkpt lat="48.40021" lon="2.53847">
        <ele>116</ele>
        <time>2022-04-27T11:54:35.150Z</time>
      </trkpt>
      <trkpt lat="48.40021" lon="2.53856">
        <ele>116</ele>
        <time>2022-04-27T11:54:40.133Z</time>
      </trkpt>
      <trkpt lat="48.4002" lon="2.53865">
        <ele>116</ele>
        <time>2022-04-27T11:54:45.128Z</time>
      </trkpt>
      <trkpt lat="48.40019" lon="2.53871">
        <ele>116</ele>
        <time>2022-04-27T11:54:49.147Z</time>
      </trkpt>
      <trkpt lat="48.40017" lon="2.53879">
        <ele>116</ele>
        <time>2022-04-27T11:54:54.127Z</time>
      </trkpt>
      <trkpt lat="48.40017" lon="2.53886">
        <ele>116</ele>
        <time>2022-04-27T11:54:59.125Z</time>
      </trkpt>
      <trkpt lat="48.40018" lon="2.53894">
        <ele>116</ele>
        <time>2022-04-27T11:55:04.128Z</time>
      </trkpt>
      <trkpt lat="48.4002" lon="2.53902">
        <ele>116</ele>
        <time>2022-04-27T11:55:09.133Z</time>
      </trkpt>
      <trkpt lat="48.40019" lon="2.53911">
        <ele>116</ele>
        <time>2022-04-27T11:55:14.132Z</time>
      </trkpt>
      <trkpt lat="48.40017" lon="2.53919">
        <ele>116</ele>
        <time>2022-04-27T11:55:19.128Z</time>
      </trkpt>
      <trkpt lat="48.40012" lon="2.5392">
        <ele>110</ele>
        <time>2022-04-27T11:55:24.127Z</time>
      </trkpt>
      <trkpt lat="48.40013" lon="2.53941">
        <ele>111</ele>
        <time>2022-04-27T11:55:29.139Z</time>
      </trkpt>
      <trkpt lat="48.40014" lon="2.53949">
        <ele>116</ele>
        <time>2022-04-27T11:55:34.128Z</time>
      </trkpt>
      <trkpt lat="48.40013" lon="2.53954">
        <ele>111</ele>
        <time>2022-04-27T11:55:38.124Z</time>
      </trkpt>
      <trkpt lat="48.40013" lon="2.53962">
        <ele>111</ele>
        <time>2022-04-27T11:55:43.126Z</time>
      </trkpt>
      <trkpt lat="48.4001" lon="2.53968">
        <ele>111</ele>
        <time>2022-04-27T11:55:53.125Z</time>
      </trkpt>
      <trkpt lat="48.4001" lon="2.53969">
        <ele>111</ele>
        <time>2022-04-27T11:55:58.134Z</time>
      </trkpt>
      <trkpt lat="48.40008" lon="2.53968">
        <ele>111</ele>
        <time>2022-04-27T11:56:03.136Z</time>
      </trkpt>
      <trkpt lat="48.40004" lon="2.53971">
        <ele>111</ele>
        <time>2022-04-27T11:56:08.124Z</time>
      </trkpt>
      <trkpt lat="48.39999" lon="2.5397">
        <ele>111</ele>
        <time>2022-04-27T11:56:13.131Z</time>
      </trkpt>
      <trkpt lat="48.39995" lon="2.5397">
        <ele>111</ele>
        <time>2022-04-27T11:56:18.129Z</time>
      </trkpt>
      <trkpt lat="48.3999" lon="2.53967">
        <ele>111</ele>
        <time>2022-04-27T11:56:23.131Z</time>
      </trkpt>
      <trkpt lat="48.39988" lon="2.53962">
        <ele>111</ele>
        <time>2022-04-27T11:56:28.135Z</time>
      </trkpt>
      <trkpt lat="48.39986" lon="2.53956">
        <ele>106</ele>
        <time>2022-04-27T11:56:33.132Z</time>
      </trkpt>
      <trkpt lat="48.39985" lon="2.53951">
        <ele>106</ele>
        <time>2022-04-27T11:56:38.131Z</time>
      </trkpt>
      <trkpt lat="48.39983" lon="2.53946">
        <ele>106</ele>
        <time>2022-04-27T11:56:43.128Z</time>
      </trkpt>
      <trkpt lat="48.3998" lon="2.53943">
        <ele>106</ele>
        <time>2022-04-27T11:56:48.124Z</time>
      </trkpt>
      <trkpt lat="48.39976" lon="2.53943">
        <ele>106</ele>
        <time>2022-04-27T11:56:52.131Z</time>
      </trkpt>
      <trkpt lat="48.39974" lon="2.53948">
        <ele>106</ele>
        <time>2022-04-27T11:56:57.127Z</time>
      </trkpt>
      <trkpt lat="48.39973" lon="2.53953">
        <ele>106</ele>
        <time>2022-04-27T11:57:01.134Z</time>
      </trkpt>
      <trkpt lat="48.39971" lon="2.53961">
        <ele>106</ele>
        <time>2022-04-27T11:57:06.133Z</time>
      </trkpt>
      <trkpt lat="48.3997" lon="2.53968">
        <ele>106</ele>
        <time>2022-04-27T11:57:11.128Z</time>
      </trkpt>
      <trkpt lat="48.39969" lon="2.53975">
        <ele>106</ele>
        <time>2022-04-27T11:57:16.134Z</time>
      </trkpt>
      <trkpt lat="48.39972" lon="2.53979">
        <ele>106</ele>
        <time>2022-04-27T11:57:21.128Z</time>
      </trkpt>
      <trkpt lat="48.39974" lon="2.53986">
        <ele>104</ele>
        <time>2022-04-27T11:57:26.131Z</time>
      </trkpt>
      <trkpt lat="48.39976" lon="2.53995">
        <ele>104</ele>
        <time>2022-04-27T11:57:31.129Z</time>
      </trkpt>
      <trkpt lat="48.39978" lon="2.53997">
        <ele>104</ele>
        <time>2022-04-27T11:57:36.131Z</time>
      </trkpt>
      <trkpt lat="48.3998" lon="2.54004">
        <ele>104</ele>
        <time>2022-04-27T11:57:41.129Z</time>
      </trkpt>
      <trkpt lat="48.39981" lon="2.54011">
        <ele>104</ele>
        <time>2022-04-27T11:57:45.138Z</time>
      </trkpt>
      <trkpt lat="48.39983" lon="2.54018">
        <ele>103</ele>
        <time>2022-04-27T11:57:50.126Z</time>
      </trkpt>
      <trkpt lat="48.39981" lon="2.54025">
        <ele>103</ele>
        <time>2022-04-27T11:57:55.131Z</time>
      </trkpt>
      <trkpt lat="48.39981" lon="2.54031">
        <ele>103</ele>
        <time>2022-04-27T11:58:00.130Z</time>
      </trkpt>
      <trkpt lat="48.39978" lon="2.54035">
        <ele>103</ele>
        <time>2022-04-27T11:58:04.140Z</time>
      </trkpt>
      <trkpt lat="48.39973" lon="2.54039">
        <ele>103</ele>
        <time>2022-04-27T11:58:09.129Z</time>
      </trkpt>
      <trkpt lat="48.39969" lon="2.54044">
        <ele>101</ele>
        <time>2022-04-27T11:58:14.124Z</time>
      </trkpt>
      <trkpt lat="48.39969" lon="2.5405">
        <ele>101</ele>
        <time>2022-04-27T11:58:18.139Z</time>
      </trkpt>
      <trkpt lat="48.39973" lon="2.54056">
        <ele>101</ele>
        <time>2022-04-27T11:58:23.125Z</time>
      </trkpt>
      <trkpt lat="48.39976" lon="2.5406">
        <ele>101</ele>
        <time>2022-04-27T11:58:28.125Z</time>
      </trkpt>
      <trkpt lat="48.39979" lon="2.54064">
        <ele>101</ele>
        <time>2022-04-27T11:58:32.130Z</time>
      </trkpt>
      <trkpt lat="48.39983" lon="2.54069">
        <ele>101</ele>
        <time>2022-04-27T11:58:37.119Z</time>
      </trkpt>
      <trkpt lat="48.39986" lon="2.54073">
        <ele>100</ele>
        <time>2022-04-27T11:58:41.132Z</time>
      </trkpt>
      <trkpt lat="48.39991" lon="2.54079">
        <ele>100</ele>
        <time>2022-04-27T11:58:46.131Z</time>
      </trkpt>
      <trkpt lat="48.39996" lon="2.54084">
        <ele>100</ele>
        <time>2022-04-27T11:58:51.137Z</time>
      </trkpt>
      <trkpt lat="48.40001" lon="2.54088">
        <ele>100</ele>
        <time>2022-04-27T11:58:56.130Z</time>
      </trkpt>
      <trkpt lat="48.40006" lon="2.54092">
        <ele>100</ele>
        <time>2022-04-27T11:59:01.130Z</time>
      </trkpt>
      <trkpt lat="48.40011" lon="2.54096">
        <ele>100</ele>
        <time>2022-04-27T11:59:06.126Z</time>
      </trkpt>
      <trkpt lat="48.40015" lon="2.54099">
        <ele>98</ele>
        <time>2022-04-27T11:59:10.126Z</time>
      </trkpt>
      <trkpt lat="48.4002" lon="2.54102">
        <ele>98</ele>
        <time>2022-04-27T11:59:15.128Z</time>
      </trkpt>
      <trkpt lat="48.40025" lon="2.54105">
        <ele>98</ele>
        <time>2022-04-27T11:59:20.125Z</time>
      </trkpt>
      <trkpt lat="48.4003" lon="2.54106">
        <ele>98</ele>
        <time>2022-04-27T11:59:25.141Z</time>
      </trkpt>
      <trkpt lat="48.40036" lon="2.54109">
        <ele>98</ele>
        <time>2022-04-27T11:59:30.124Z</time>
      </trkpt>
      <trkpt lat="48.4004" lon="2.54111">
        <ele>98</ele>
        <time>2022-04-27T11:59:34.130Z</time>
      </trkpt>
      <trkpt lat="48.40043" lon="2.54112">
        <ele>99</ele>
        <time>2022-04-27T11:59:38.132Z</time>
      </trkpt>
      <trkpt lat="48.40048" lon="2.54114">
        <ele>99</ele>
        <time>2022-04-27T11:59:43.133Z</time>
      </trkpt>
      <trkpt lat="48.40053" lon="2.54115">
        <ele>99</ele>
        <time>2022-04-27T11:59:48.127Z</time>
      </trkpt>
      <trkpt lat="48.40058" lon="2.54114">
        <ele>99</ele>
        <time>2022-04-27T11:59:52.130Z</time>
      </trkpt>
      <trkpt lat="48.4006" lon="2.54117">
        <ele>99</ele>
        <time>2022-04-27T11:59:57.128Z</time>
      </trkpt>
      <trkpt lat="48.40058" lon="2.54124">
        <ele>99</ele>
        <time>2022-04-27T12:00:02.129Z</time>
      </trkpt>
      <trkpt lat="48.40056" lon="2.54134">
        <ele>95</ele>
        <time>2022-04-27T12:00:07.132Z</time>
      </trkpt>
      <trkpt lat="48.40055" lon="2.54141">
        <ele>95</ele>
        <time>2022-04-27T12:00:12.117Z</time>
      </trkpt>
      <trkpt lat="48.40054" lon="2.54146">
        <ele>95</ele>
        <time>2022-04-27T12:00:16.133Z</time>
      </trkpt>
      <trkpt lat="48.40057" lon="2.54152">
        <ele>95</ele>
        <time>2022-04-27T12:00:21.124Z</time>
      </trkpt>
      <trkpt lat="48.40062" lon="2.54156">
        <ele>92</ele>
        <time>2022-04-27T12:00:26.127Z</time>
      </trkpt>
      <trkpt lat="48.40067" lon="2.54156">
        <ele>92</ele>
        <time>2022-04-27T12:00:31.111Z</time>
      </trkpt>
      <trkpt lat="48.40071" lon="2.54155">
        <ele>93</ele>
        <time>2022-04-27T12:00:35.118Z</time>
      </trkpt>
      <trkpt lat="48.40075" lon="2.54155">
        <ele>93</ele>
        <time>2022-04-27T12:00:39.116Z</time>
      </trkpt>
      <trkpt lat="48.4008" lon="2.54156">
        <ele>93</ele>
        <time>2022-04-27T12:00:44.129Z</time>
      </trkpt>
      <trkpt lat="48.40084" lon="2.54156">
        <ele>93</ele>
        <time>2022-04-27T12:00:48.135Z</time>
      </trkpt>
      <trkpt lat="48.40089" lon="2.54159">
        <ele>93</ele>
        <time>2022-04-27T12:00:53.124Z</time>
      </trkpt>
      <trkpt lat="48.40092" lon="2.54161">
        <ele>93</ele>
        <time>2022-04-27T12:00:57.137Z</time>
      </trkpt>
      <trkpt lat="48.40097" lon="2.54169">
        <ele>93</ele>
        <time>2022-04-27T12:01:02.124Z</time>
      </trkpt>
      <trkpt lat="48.401" lon="2.54173">
        <ele>93</ele>
        <time>2022-04-27T12:01:07.127Z</time>
      </trkpt>
      <trkpt lat="48.40104" lon="2.54174">
        <ele>93</ele>
        <time>2022-04-27T12:01:12.119Z</time>
      </trkpt>
      <trkpt lat="48.4011" lon="2.54171">
        <ele>93</ele>
        <time>2022-04-27T12:01:17.128Z</time>
      </trkpt>
      <trkpt lat="48.40115" lon="2.54168">
        <ele>93</ele>
        <time>2022-04-27T12:01:22.136Z</time>
      </trkpt>
      <trkpt lat="48.40122" lon="2.54163">
        <ele>93</ele>
        <time>2022-04-27T12:01:27.126Z</time>
      </trkpt>
      <trkpt lat="48.40126" lon="2.54161">
        <ele>91</ele>
        <time>2022-04-27T12:01:31.135Z</time>
      </trkpt>
      <trkpt lat="48.4013" lon="2.54161">
        <ele>91</ele>
        <time>2022-04-27T12:01:36.127Z</time>
      </trkpt>
      <trkpt lat="48.40134" lon="2.5416">
        <ele>91</ele>
        <time>2022-04-27T12:01:40.133Z</time>
      </trkpt>
      <trkpt lat="48.40139" lon="2.5416">
        <ele>91</ele>
        <time>2022-04-27T12:01:45.129Z</time>
      </trkpt>
      <trkpt lat="48.40144" lon="2.54159">
        <ele>91</ele>
        <time>2022-04-27T12:01:50.129Z</time>
      </trkpt>
      <trkpt lat="48.4015" lon="2.5416">
        <ele>91</ele>
        <time>2022-04-27T12:01:55.132Z</time>
      </trkpt>
      <trkpt lat="48.40158" lon="2.5416">
        <ele>88</ele>
        <time>2022-04-27T12:02:00.140Z</time>
      </trkpt>
      <trkpt lat="48.40164" lon="2.54162">
        <ele>88</ele>
        <time>2022-04-27T12:02:05.127Z</time>
      </trkpt>
      <trkpt lat="48.40169" lon="2.54162">
        <ele>88</ele>
        <time>2022-04-27T12:02:10.130Z</time>
      </trkpt>
      <trkpt lat="48.40174" lon="2.54163">
        <ele>88</ele>
        <time>2022-04-27T12:02:14.138Z</time>
      </trkpt>
      <trkpt lat="48.40178" lon="2.54164">
        <ele>88</ele>
        <time>2022-04-27T12:02:18.141Z</time>
      </trkpt>
      <trkpt lat="48.40184" lon="2.54165">
        <ele>89</ele>
        <time>2022-04-27T12:02:23.124Z</time>
      </trkpt>
      <trkpt lat="48.40189" lon="2.5417">
        <ele>89</ele>
        <time>2022-04-27T12:02:28.129Z</time>
      </trkpt>
      <trkpt lat="48.40193" lon="2.54172">
        <ele>89</ele>
        <time>2022-04-27T12:02:32.136Z</time>
      </trkpt>
      <trkpt lat="48.40199" lon="2.54174">
        <ele>89</ele>
        <time>2022-04-27T12:02:37.125Z</time>
      </trkpt>
      <trkpt lat="48.40205" lon="2.54178">
        <ele>89</ele>
        <time>2022-04-27T12:02:42.133Z</time>
      </trkpt>
      <trkpt lat="48.4021" lon="2.54179">
        <ele>90</ele>
        <time>2022-04-27T12:02:46.144Z</time>
      </trkpt>
      <trkpt lat="48.40216" lon="2.54182">
        <ele>89</ele>
        <time>2022-04-27T12:02:51.131Z</time>
      </trkpt>
      <trkpt lat="48.4022" lon="2.54184">
        <ele>89</ele>
        <time>2022-04-27T12:02:55.128Z</time>
      </trkpt>
      <trkpt lat="48.40226" lon="2.54185">
        <ele>89</ele>
        <time>2022-04-27T12:03:00.126Z</time>
      </trkpt>
      <trkpt lat="48.4023" lon="2.54188">
        <ele>89</ele>
        <time>2022-04-27T12:03:04.131Z</time>
      </trkpt>
      <trkpt lat="48.40235" lon="2.54189">
        <ele>89</ele>
        <time>2022-04-27T12:03:08.140Z</time>
      </trkpt>
      <trkpt lat="48.40241" lon="2.54191">
        <ele>89</ele>
        <time>2022-04-27T12:03:13.136Z</time>
      </trkpt>
      <trkpt lat="48.40246" lon="2.54191">
        <ele>89</ele>
        <time>2022-04-27T12:03:18.129Z</time>
      </trkpt>
      <trkpt lat="48.40252" lon="2.54192">
        <ele>89</ele>
        <time>2022-04-27T12:03:23.127Z</time>
      </trkpt>
      <trkpt lat="48.40258" lon="2.54193">
        <ele>89</ele>
        <time>2022-04-27T12:03:28.123Z</time>
      </trkpt>
      <trkpt lat="48.40264" lon="2.54194">
        <ele>89</ele>
        <time>2022-04-27T12:03:33.133Z</time>
      </trkpt>
      <trkpt lat="48.40267" lon="2.54195">
        <ele>87</ele>
        <time>2022-04-27T12:03:47.135Z</time>
      </trkpt>
      <trkpt lat="48.40267" lon="2.54195">
        <ele>87</ele>
        <time>2022-04-27T12:03:52.129Z</time>
      </trkpt>
      <trkpt lat="48.40268" lon="2.54196">
        <ele>87</ele>
        <time>2022-04-27T12:03:57.141Z</time>
      </trkpt>
      <trkpt lat="48.40274" lon="2.54199">
        <ele>87</ele>
        <time>2022-04-27T12:04:02.131Z</time>
      </trkpt>
      <trkpt lat="48.40279" lon="2.54201">
        <ele>87</ele>
        <time>2022-04-27T12:04:07.130Z</time>
      </trkpt>
      <trkpt lat="48.40283" lon="2.54203">
        <ele>87</ele>
        <time>2022-04-27T12:04:11.137Z</time>
      </trkpt>
      <trkpt lat="48.40287" lon="2.54206">
        <ele>87</ele>
        <time>2022-04-27T12:04:16.130Z</time>
      </trkpt>
      <trkpt lat="48.40292" lon="2.54207">
        <ele>85</ele>
        <time>2022-04-27T12:04:21.133Z</time>
      </trkpt>
      <trkpt lat="48.40297" lon="2.54209">
        <ele>85</ele>
        <time>2022-04-27T12:04:26.141Z</time>
      </trkpt>
      <trkpt lat="48.40303" lon="2.54211">
        <ele>85</ele>
        <time>2022-04-27T12:04:31.130Z</time>
      </trkpt>
      <trkpt lat="48.40307" lon="2.54214">
        <ele>85</ele>
        <time>2022-04-27T12:04:36.138Z</time>
      </trkpt>
      <trkpt lat="48.40313" lon="2.54215">
        <ele>85</ele>
        <time>2022-04-27T12:04:41.130Z</time>
      </trkpt>
      <trkpt lat="48.40313" lon="2.54218">
        <ele>85</ele>
        <time>2022-04-27T12:04:46.121Z</time>
      </trkpt>
      <trkpt lat="48.40313" lon="2.54218">
        <ele>85</ele>
        <time>2022-04-27T12:04:50.133Z</time>
      </trkpt>
      <trkpt lat="48.40315" lon="2.5422">
        <ele>85</ele>
        <time>2022-04-27T12:04:55.130Z</time>
      </trkpt>
      <trkpt lat="48.40318" lon="2.54224">
        <ele>85</ele>
        <time>2022-04-27T12:04:59.133Z</time>
      </trkpt>
      <trkpt lat="48.40324" lon="2.54226">
        <ele>87</ele>
        <time>2022-04-27T12:05:04.131Z</time>
      </trkpt>
      <trkpt lat="48.40331" lon="2.54228">
        <ele>87</ele>
        <time>2022-04-27T12:05:09.126Z</time>
      </trkpt>
      <trkpt lat="48.40337" lon="2.54229">
        <ele>87</ele>
        <time>2022-04-27T12:05:13.131Z</time>
      </trkpt>
      <trkpt lat="48.40343" lon="2.54229">
        <ele>87</ele>
        <time>2022-04-27T12:05:18.130Z</time>
      </trkpt>
      <trkpt lat="48.40348" lon="2.54225">
        <ele>90</ele>
        <time>2022-04-27T12:05:23.122Z</time>
      </trkpt>
      <trkpt lat="48.40351" lon="2.54222">
        <ele>90</ele>
        <time>2022-04-27T12:05:27.131Z</time>
      </trkpt>
      <trkpt lat="48.40354" lon="2.54216">
        <ele>90</ele>
        <time>2022-04-27T12:05:32.122Z</time>
      </trkpt>
      <trkpt lat="48.40356" lon="2.5421">
        <ele>90</ele>
        <time>2022-04-27T12:05:37.120Z</time>
      </trkpt>
      <trkpt lat="48.40359" lon="2.54205">
        <ele>90</ele>
        <time>2022-04-27T12:05:42.115Z</time>
      </trkpt>
      <trkpt lat="48.40361" lon="2.542">
        <ele>90</ele>
        <time>2022-04-27T12:05:46.122Z</time>
      </trkpt>
      <trkpt lat="48.40365" lon="2.54194">
        <ele>90</ele>
        <time>2022-04-27T12:05:51.129Z</time>
      </trkpt>
      <trkpt lat="48.40369" lon="2.5419">
        <ele>90</ele>
        <time>2022-04-27T12:05:55.126Z</time>
      </trkpt>
      <trkpt lat="48.40374" lon="2.54188">
        <ele>90</ele>
        <time>2022-04-27T12:05:59.134Z</time>
      </trkpt>
      <trkpt lat="48.4038" lon="2.54188">
        <ele>94</ele>
        <time>2022-04-27T12:06:04.124Z</time>
      </trkpt>
      <trkpt lat="48.40385" lon="2.54188">
        <ele>94</ele>
        <time>2022-04-27T12:06:08.122Z</time>
      </trkpt>
      <trkpt lat="48.40393" lon="2.54187">
        <ele>94</ele>
        <time>2022-04-27T12:06:13.121Z</time>
      </trkpt>
      <trkpt lat="48.40398" lon="2.5419">
        <ele>94</ele>
        <time>2022-04-27T12:06:17.130Z</time>
      </trkpt>
      <trkpt lat="48.40403" lon="2.54191">
        <ele>96</ele>
        <time>2022-04-27T12:06:22.129Z</time>
      </trkpt>
      <trkpt lat="48.40408" lon="2.54193">
        <ele>96</ele>
        <time>2022-04-27T12:06:26.133Z</time>
      </trkpt>
      <trkpt lat="48.40414" lon="2.54194">
        <ele>96</ele>
        <time>2022-04-27T12:06:31.129Z</time>
      </trkpt>
      <trkpt lat="48.4042" lon="2.54196">
        <ele>96</ele>
        <time>2022-04-27T12:06:36.132Z</time>
      </trkpt>
      <trkpt lat="48.40424" lon="2.54197">
        <ele>96</ele>
        <time>2022-04-27T12:06:40.129Z</time>
      </trkpt>
      <trkpt lat="48.4043" lon="2.54195">
        <ele>96</ele>
        <time>2022-04-27T12:06:45.124Z</time>
      </trkpt>
      <trkpt lat="48.40434" lon="2.5419">
        <ele>96</ele>
        <time>2022-04-27T12:06:49.137Z</time>
      </trkpt>
      <trkpt lat="48.40439" lon="2.54187">
        <ele>96</ele>
        <time>2022-04-27T12:06:54.124Z</time>
      </trkpt>
      <trkpt lat="48.40444" lon="2.54185">
        <ele>96</ele>
        <time>2022-04-27T12:06:59.127Z</time>
      </trkpt>
      <trkpt lat="48.40449" lon="2.54185">
        <ele>96</ele>
        <time>2022-04-27T12:07:03.136Z</time>
      </trkpt>
      <trkpt lat="48.40455" lon="2.54188">
        <ele>96</ele>
        <time>2022-04-27T12:07:08.119Z</time>
      </trkpt>
      <trkpt lat="48.40461" lon="2.54192">
        <ele>95</ele>
        <time>2022-04-27T12:07:13.121Z</time>
      </trkpt>
      <trkpt lat="48.40464" lon="2.54197">
        <ele>95</ele>
        <time>2022-04-27T12:07:17.126Z</time>
      </trkpt>
      <trkpt lat="48.40468" lon="2.542">
        <ele>95</ele>
        <time>2022-04-27T12:07:21.129Z</time>
      </trkpt>
      <trkpt lat="48.40472" lon="2.54205">
        <ele>95</ele>
        <time>2022-04-27T12:07:26.129Z</time>
      </trkpt>
      <trkpt lat="48.40478" lon="2.54207">
        <ele>95</ele>
        <time>2022-04-27T12:07:31.130Z</time>
      </trkpt>
      <trkpt lat="48.40483" lon="2.54203">
        <ele>95</ele>
        <time>2022-04-27T12:07:36.122Z</time>
      </trkpt>
      <trkpt lat="48.40486" lon="2.542">
        <ele>95</ele>
        <time>2022-04-27T12:07:40.131Z</time>
      </trkpt>
      <trkpt lat="48.40493" lon="2.54197">
        <ele>94</ele>
        <time>2022-04-27T12:07:45.127Z</time>
      </trkpt>
      <trkpt lat="48.40497" lon="2.54191">
        <ele>94</ele>
        <time>2022-04-27T12:07:50.128Z</time>
      </trkpt>
      <trkpt lat="48.40504" lon="2.54191">
        <ele>94</ele>
        <time>2022-04-27T12:07:59.131Z</time>
      </trkpt>
      <trkpt lat="48.40505" lon="2.54191">
        <ele>94</ele>
        <time>2022-04-27T12:08:03.138Z</time>
      </trkpt>
      <trkpt lat="48.40505" lon="2.54191">
        <ele>94</ele>
        <time>2022-04-27T12:08:08.128Z</time>
      </trkpt>
      <trkpt lat="48.40506" lon="2.54189">
        <ele>94</ele>
        <time>2022-04-27T12:08:12.128Z</time>
      </trkpt>
      <trkpt lat="48.4051" lon="2.54184">
        <ele>94</ele>
        <time>2022-04-27T12:08:17.127Z</time>
      </trkpt>
      <trkpt lat="48.40516" lon="2.54181">
        <ele>93</ele>
        <time>2022-04-27T12:08:22.130Z</time>
      </trkpt>
      <trkpt lat="48.40522" lon="2.54176">
        <ele>93</ele>
        <time>2022-04-27T12:08:27.128Z</time>
      </trkpt>
      <trkpt lat="48.40525" lon="2.5417">
        <ele>93</ele>
        <time>2022-04-27T12:08:31.126Z</time>
      </trkpt>
      <trkpt lat="48.40528" lon="2.54164">
        <ele>93</ele>
        <time>2022-04-27T12:08:36.131Z</time>
      </trkpt>
      <trkpt lat="48.40531" lon="2.54159">
        <ele>93</ele>
        <time>2022-04-27T12:08:40.121Z</time>
      </trkpt>
      <trkpt lat="48.40535" lon="2.54151">
        <ele>93</ele>
        <time>2022-04-27T12:08:45.119Z</time>
      </trkpt>
      <trkpt lat="48.40539" lon="2.54146">
        <ele>93</ele>
        <time>2022-04-27T12:08:50.124Z</time>
      </trkpt>
      <trkpt lat="48.40543" lon="2.54142">
        <ele>85</ele>
        <time>2022-04-27T12:08:54.126Z</time>
      </trkpt>
      <trkpt lat="48.40548" lon="2.54139">
        <ele>85</ele>
        <time>2022-04-27T12:08:59.132Z</time>
      </trkpt>
      <trkpt lat="48.40554" lon="2.54139">
        <ele>85</ele>
        <time>2022-04-27T12:09:04.126Z</time>
      </trkpt>
      <trkpt lat="48.40558" lon="2.54139">
        <ele>85</ele>
        <time>2022-04-27T12:09:08.133Z</time>
      </trkpt>
      <trkpt lat="48.40564" lon="2.54139">
        <ele>85</ele>
        <time>2022-04-27T12:09:13.131Z</time>
      </trkpt>
      <trkpt lat="48.40568" lon="2.54138">
        <ele>85</ele>
        <time>2022-04-27T12:09:18.133Z</time>
      </trkpt>
      <trkpt lat="48.40573" lon="2.54133">
        <ele>81</ele>
        <time>2022-04-27T12:09:23.129Z</time>
      </trkpt>
      <trkpt lat="48.40578" lon="2.54128">
        <ele>81</ele>
        <time>2022-04-27T12:09:28.128Z</time>
      </trkpt>
      <trkpt lat="48.40582" lon="2.54124">
        <ele>79</ele>
        <time>2022-04-27T12:09:32.124Z</time>
      </trkpt>
      <trkpt lat="48.40586" lon="2.54117">
        <ele>79</ele>
        <time>2022-04-27T12:09:37.130Z</time>
      </trkpt>
      <trkpt lat="48.40587" lon="2.54112">
        <ele>79</ele>
        <time>2022-04-27T12:09:41.129Z</time>
      </trkpt>
      <trkpt lat="48.4059" lon="2.54106">
        <ele>79</ele>
        <time>2022-04-27T12:09:45.142Z</time>
      </trkpt>
      <trkpt lat="48.40591" lon="2.54099">
        <ele>79</ele>
        <time>2022-04-27T12:09:50.130Z</time>
      </trkpt>
      <trkpt lat="48.40593" lon="2.54092">
        <ele>78</ele>
        <time>2022-04-27T12:09:55.123Z</time>
      </trkpt>
      <trkpt lat="48.40594" lon="2.54086">
        <ele>78</ele>
        <time>2022-04-27T12:10:00.129Z</time>
      </trkpt>
      <trkpt lat="48.40595" lon="2.54077">
        <ele>78</ele>
        <time>2022-04-27T12:10:05.118Z</time>
      </trkpt>
      <trkpt lat="48.40597" lon="2.5407">
        <ele>77</ele>
        <time>2022-04-27T12:10:09.124Z</time>
      </trkpt>
      <trkpt lat="48.40598" lon="2.54062">
        <ele>77</ele>
        <time>2022-04-27T12:10:13.119Z</time>
      </trkpt>
      <trkpt lat="48.40599" lon="2.54055">
        <ele>77</ele>
        <time>2022-04-27T12:10:18.127Z</time>
      </trkpt>
      <trkpt lat="48.406" lon="2.54047">
        <ele>77</ele>
        <time>2022-04-27T12:10:23.121Z</time>
      </trkpt>
      <trkpt lat="48.40601" lon="2.54042">
        <ele>77</ele>
        <time>2022-04-27T12:10:27.123Z</time>
      </trkpt>
      <trkpt lat="48.406" lon="2.54032">
        <ele>77</ele>
        <time>2022-04-27T12:10:32.120Z</time>
      </trkpt>
      <trkpt lat="48.40599" lon="2.54026">
        <ele>77</ele>
        <time>2022-04-27T12:10:37.121Z</time>
      </trkpt>
      <trkpt lat="48.40598" lon="2.54018">
        <ele>77</ele>
        <time>2022-04-27T12:10:42.123Z</time>
      </trkpt>
      <trkpt lat="48.40597" lon="2.54011">
        <ele>78</ele>
        <time>2022-04-27T12:10:46.123Z</time>
      </trkpt>
      <trkpt lat="48.40596" lon="2.54003">
        <ele>78</ele>
        <time>2022-04-27T12:10:51.130Z</time>
      </trkpt>
      <trkpt lat="48.40595" lon="2.53995">
        <ele>78</ele>
        <time>2022-04-27T12:10:56.138Z</time>
      </trkpt>
      <trkpt lat="48.40597" lon="2.53985">
        <ele>78</ele>
        <time>2022-04-27T12:11:01.129Z</time>
      </trkpt>
      <trkpt lat="48.40599" lon="2.53978">
        <ele>77</ele>
        <time>2022-04-27T12:11:06.130Z</time>
      </trkpt>
      <trkpt lat="48.40601" lon="2.53971">
        <ele>77</ele>
        <time>2022-04-27T12:11:11.127Z</time>
      </trkpt>
      <trkpt lat="48.40603" lon="2.53964">
        <ele>77</ele>
        <time>2022-04-27T12:11:16.139Z</time>
      </trkpt>
      <trkpt lat="48.40605" lon="2.53955">
        <ele>79</ele>
        <time>2022-04-27T12:11:21.127Z</time>
      </trkpt>
      <trkpt lat="48.40606" lon="2.53949">
        <ele>79</ele>
        <time>2022-04-27T12:11:26.133Z</time>
      </trkpt>
      <trkpt lat="48.40607" lon="2.53942">
        <ele>79</ele>
        <time>2022-04-27T12:11:31.127Z</time>
      </trkpt>
      <trkpt lat="48.40609" lon="2.53936">
        <ele>79</ele>
        <time>2022-04-27T12:11:35.132Z</time>
      </trkpt>
      <trkpt lat="48.40611" lon="2.53928">
        <ele>81</ele>
        <time>2022-04-27T12:11:40.132Z</time>
      </trkpt>
      <trkpt lat="48.40614" lon="2.53919">
        <ele>81</ele>
        <time>2022-04-27T12:11:45.128Z</time>
      </trkpt>
      <trkpt lat="48.40617" lon="2.5391">
        <ele>81</ele>
        <time>2022-04-27T12:11:50.138Z</time>
      </trkpt>
      <trkpt lat="48.4062" lon="2.53901">
        <ele>83</ele>
        <time>2022-04-27T12:11:55.134Z</time>
      </trkpt>
      <trkpt lat="48.40623" lon="2.53893">
        <ele>83</ele>
        <time>2022-04-27T12:12:00.132Z</time>
      </trkpt>
      <trkpt lat="48.40624" lon="2.53886">
        <ele>83</ele>
        <time>2022-04-27T12:12:05.135Z</time>
      </trkpt>
      <trkpt lat="48.40626" lon="2.5388">
        <ele>82</ele>
        <time>2022-04-27T12:12:09.133Z</time>
      </trkpt>
      <trkpt lat="48.40627" lon="2.53873">
        <ele>81</ele>
        <time>2022-04-27T12:12:14.131Z</time>
      </trkpt>
      <trkpt lat="48.40628" lon="2.53865">
        <ele>81</ele>
        <time>2022-04-27T12:12:18.130Z</time>
      </trkpt>
      <trkpt lat="48.40629" lon="2.53858">
        <ele>81</ele>
        <time>2022-04-27T12:12:22.130Z</time>
      </trkpt>
      <trkpt lat="48.40629" lon="2.53852">
        <ele>81</ele>
        <time>2022-04-27T12:12:26.135Z</time>
      </trkpt>
      <trkpt lat="48.40628" lon="2.53846">
        <ele>80</ele>
        <time>2022-04-27T12:12:31.127Z</time>
      </trkpt>
      <trkpt lat="48.40628" lon="2.53841">
        <ele>80</ele>
        <time>2022-04-27T12:12:35.132Z</time>
      </trkpt>
      <trkpt lat="48.40628" lon="2.53833">
        <ele>80</ele>
        <time>2022-04-27T12:12:40.132Z</time>
      </trkpt>
      <trkpt lat="48.40629" lon="2.53825">
        <ele>80</ele>
        <time>2022-04-27T12:12:45.125Z</time>
      </trkpt>
      <trkpt lat="48.40628" lon="2.53818">
        <ele>79</ele>
        <time>2022-04-27T12:12:50.127Z</time>
      </trkpt>
      <trkpt lat="48.40628" lon="2.53813">
        <ele>79</ele>
        <time>2022-04-27T12:12:54.146Z</time>
      </trkpt>
      <trkpt lat="48.40627" lon="2.53804">
        <ele>79</ele>
        <time>2022-04-27T12:12:59.131Z</time>
      </trkpt>
      <trkpt lat="48.40627" lon="2.53795">
        <ele>79</ele>
        <time>2022-04-27T12:13:04.130Z</time>
      </trkpt>
      <trkpt lat="48.40628" lon="2.53787">
        <ele>79</ele>
        <time>2022-04-27T12:13:09.138Z</time>
      </trkpt>
      <trkpt lat="48.40632" lon="2.53776">
        <ele>79</ele>
        <time>2022-04-27T12:13:14.126Z</time>
      </trkpt>
      <trkpt lat="48.40634" lon="2.5377">
        <ele>79</ele>
        <time>2022-04-27T12:13:18.133Z</time>
      </trkpt>
      <trkpt lat="48.40638" lon="2.53765">
        <ele>79</ele>
        <time>2022-04-27T12:13:23.125Z</time>
      </trkpt>
      <trkpt lat="48.40642" lon="2.53763">
        <ele>79</ele>
        <time>2022-04-27T12:13:28.121Z</time>
      </trkpt>
      <trkpt lat="48.40647" lon="2.53761">
        <ele>79</ele>
        <time>2022-04-27T12:13:33.120Z</time>
      </trkpt>
      <trkpt lat="48.4065" lon="2.53759">
        <ele>79</ele>
        <time>2022-04-27T12:13:37.121Z</time>
      </trkpt>
      <trkpt lat="48.40655" lon="2.53755">
        <ele>77</ele>
        <time>2022-04-27T12:13:42.126Z</time>
      </trkpt>
      <trkpt lat="48.40659" lon="2.53755">
        <ele>77</ele>
        <time>2022-04-27T12:13:47.126Z</time>
      </trkpt>
      <trkpt lat="48.40664" lon="2.53754">
        <ele>77</ele>
        <time>2022-04-27T12:13:52.129Z</time>
      </trkpt>
      <trkpt lat="48.40668" lon="2.53754">
        <ele>77</ele>
        <time>2022-04-27T12:13:56.132Z</time>
      </trkpt>
      <trkpt lat="48.40674" lon="2.53753">
        <ele>77</ele>
        <time>2022-04-27T12:14:01.125Z</time>
      </trkpt>
      <trkpt lat="48.40679" lon="2.5375">
        <ele>77</ele>
        <time>2022-04-27T12:14:06.127Z</time>
      </trkpt>
      <trkpt lat="48.40684" lon="2.53751">
        <ele>77</ele>
        <time>2022-04-27T12:14:11.125Z</time>
      </trkpt>
      <trkpt lat="48.4069" lon="2.5375">
        <ele>77</ele>
        <time>2022-04-27T12:14:16.134Z</time>
      </trkpt>
      <trkpt lat="48.40695" lon="2.53748">
        <ele>77</ele>
        <time>2022-04-27T12:14:21.125Z</time>
      </trkpt>
      <trkpt lat="48.407" lon="2.53747">
        <ele>77</ele>
        <time>2022-04-27T12:14:25.129Z</time>
      </trkpt>
      <trkpt lat="48.40704" lon="2.53747">
        <ele>77</ele>
        <time>2022-04-27T12:14:30.129Z</time>
      </trkpt>
      <trkpt lat="48.40708" lon="2.53746">
        <ele>77</ele>
        <time>2022-04-27T12:14:34.135Z</time>
      </trkpt>
      <trkpt lat="48.40712" lon="2.53747">
        <ele>78</ele>
        <time>2022-04-27T12:14:39.120Z</time>
      </trkpt>
      <trkpt lat="48.40716" lon="2.53746">
        <ele>78</ele>
        <time>2022-04-27T12:14:44.122Z</time>
      </trkpt>
      <trkpt lat="48.40719" lon="2.53743">
        <ele>78</ele>
        <time>2022-04-27T12:14:48.124Z</time>
      </trkpt>
      <trkpt lat="48.40724" lon="2.53742">
        <ele>78</ele>
        <time>2022-04-27T12:14:52.131Z</time>
      </trkpt>
      <trkpt lat="48.40731" lon="2.53742">
        <ele>78</ele>
        <time>2022-04-27T12:14:57.138Z</time>
      </trkpt>
      <trkpt lat="48.40736" lon="2.53741">
        <ele>78</ele>
        <time>2022-04-27T12:15:02.124Z</time>
      </trkpt>
      <trkpt lat="48.4074" lon="2.5374">
        <ele>78</ele>
        <time>2022-04-27T12:15:06.124Z</time>
      </trkpt>
      <trkpt lat="48.40747" lon="2.53739">
        <ele>78</ele>
        <time>2022-04-27T12:15:11.134Z</time>
      </trkpt>
      <trkpt lat="48.40752" lon="2.53737">
        <ele>78</ele>
        <time>2022-04-27T12:15:16.122Z</time>
      </trkpt>
      <trkpt lat="48.40757" lon="2.53737">
        <ele>78</ele>
        <time>2022-04-27T12:15:21.133Z</time>
      </trkpt>
      <trkpt lat="48.40763" lon="2.53736">
        <ele>78</ele>
        <time>2022-04-27T12:15:26.126Z</time>
      </trkpt>
      <trkpt lat="48.40768" lon="2.53736">
        <ele>79</ele>
        <time>2022-04-27T12:15:31.119Z</time>
      </trkpt>
      <trkpt lat="48.40775" lon="2.53735">
        <ele>78</ele>
        <time>2022-04-27T12:15:36.122Z</time>
      </trkpt>
      <trkpt lat="48.4078" lon="2.53734">
        <ele>78</ele>
        <time>2022-04-27T12:15:41.128Z</time>
      </trkpt>
      <trkpt lat="48.40786" lon="2.53734">
        <ele>78</ele>
        <time>2022-04-27T12:15:46.125Z</time>
      </trkpt>
      <trkpt lat="48.40792" lon="2.53732">
        <ele>78</ele>
        <time>2022-04-27T12:15:51.132Z</time>
      </trkpt>
      <trkpt lat="48.40798" lon="2.53731">
        <ele>80</ele>
        <time>2022-04-27T12:15:56.132Z</time>
      </trkpt>
      <trkpt lat="48.40803" lon="2.5373">
        <ele>80</ele>
        <time>2022-04-27T12:16:01.142Z</time>
      </trkpt>
      <trkpt lat="48.40808" lon="2.53729">
        <ele>80</ele>
        <time>2022-04-27T12:16:06.122Z</time>
      </trkpt>
      <trkpt lat="48.40812" lon="2.53727">
        <ele>80</ele>
        <time>2022-04-27T12:16:10.125Z</time>
      </trkpt>
      <trkpt lat="48.40817" lon="2.53726">
        <ele>80</ele>
        <time>2022-04-27T12:16:14.131Z</time>
      </trkpt>
      <trkpt lat="48.40823" lon="2.53726">
        <ele>79</ele>
        <time>2022-04-27T12:16:19.120Z</time>
      </trkpt>
      <trkpt lat="48.40831" lon="2.53726">
        <ele>79</ele>
        <time>2022-04-27T12:16:24.121Z</time>
      </trkpt>
      <trkpt lat="48.40837" lon="2.53725">
        <ele>79</ele>
        <time>2022-04-27T12:16:28.133Z</time>
      </trkpt>
      <trkpt lat="48.40841" lon="2.53724">
        <ele>79</ele>
        <time>2022-04-27T12:16:32.143Z</time>
      </trkpt>
      <trkpt lat="48.40846" lon="2.53723">
        <ele>79</ele>
        <time>2022-04-27T12:16:37.133Z</time>
      </trkpt>
      <trkpt lat="48.40851" lon="2.53722">
        <ele>78</ele>
        <time>2022-04-27T12:16:42.133Z</time>
      </trkpt>
      <trkpt lat="48.40856" lon="2.53722">
        <ele>78</ele>
        <time>2022-04-27T12:16:46.133Z</time>
      </trkpt>
      <trkpt lat="48.40861" lon="2.5372">
        <ele>78</ele>
        <time>2022-04-27T12:16:50.140Z</time>
      </trkpt>
      <trkpt lat="48.40868" lon="2.53719">
        <ele>78</ele>
        <time>2022-04-27T12:16:55.143Z</time>
      </trkpt>
      <trkpt lat="48.40874" lon="2.5372">
        <ele>78</ele>
        <time>2022-04-27T12:17:00.137Z</time>
      </trkpt>
      <trkpt lat="48.40879" lon="2.53717">
        <ele>79</ele>
        <time>2022-04-27T12:17:05.124Z</time>
      </trkpt>
      <trkpt lat="48.40883" lon="2.53712">
        <ele>79</ele>
        <time>2022-04-27T12:17:09.129Z</time>
      </trkpt>
      <trkpt lat="48.40886" lon="2.53707">
        <ele>79</ele>
        <time>2022-04-27T12:17:14.125Z</time>
      </trkpt>
      <trkpt lat="48.40889" lon="2.53704">
        <ele>79</ele>
        <time>2022-04-27T12:17:18.128Z</time>
      </trkpt>
      <trkpt lat="48.40892" lon="2.53699">
        <ele>79</ele>
        <time>2022-04-27T12:17:22.259Z</time>
      </trkpt>
      <trkpt lat="48.40895" lon="2.53693">
        <ele>79</ele>
        <time>2022-04-27T12:17:27.123Z</time>
      </trkpt>
      <trkpt lat="48.40899" lon="2.53687">
        <ele>79</ele>
        <time>2022-04-27T12:17:32.133Z</time>
      </trkpt>
      <trkpt lat="48.40902" lon="2.53682">
        <ele>79</ele>
        <time>2022-04-27T12:17:37.124Z</time>
      </trkpt>
      <trkpt lat="48.40905" lon="2.53678">
        <ele>81</ele>
        <time>2022-04-27T12:17:41.129Z</time>
      </trkpt>
      <trkpt lat="48.40909" lon="2.53674">
        <ele>81</ele>
        <time>2022-04-27T12:17:46.124Z</time>
      </trkpt>
      <trkpt lat="48.40912" lon="2.5367">
        <ele>81</ele>
        <time>2022-04-27T12:17:50.127Z</time>
      </trkpt>
      <trkpt lat="48.40916" lon="2.53665">
        <ele>81</ele>
        <time>2022-04-27T12:17:55.126Z</time>
      </trkpt>
      <trkpt lat="48.40921" lon="2.53659">
        <ele>81</ele>
        <time>2022-04-27T12:18:00.121Z</time>
      </trkpt>
      <trkpt lat="48.40925" lon="2.53654">
        <ele>81</ele>
        <time>2022-04-27T12:18:05.124Z</time>
      </trkpt>
      <trkpt lat="48.40928" lon="2.53648">
        <ele>80</ele>
        <time>2022-04-27T12:18:10.124Z</time>
      </trkpt>
      <trkpt lat="48.40932" lon="2.53642">
        <ele>80</ele>
        <time>2022-04-27T12:18:15.124Z</time>
      </trkpt>
      <trkpt lat="48.40935" lon="2.53636">
        <ele>80</ele>
        <time>2022-04-27T12:18:20.129Z</time>
      </trkpt>
      <trkpt lat="48.40939" lon="2.5363">
        <ele>80</ele>
        <time>2022-04-27T12:18:25.127Z</time>
      </trkpt>
      <trkpt lat="48.40944" lon="2.53624">
        <ele>80</ele>
        <time>2022-04-27T12:18:30.133Z</time>
      </trkpt>
      <trkpt lat="48.40947" lon="2.53617">
        <ele>80</ele>
        <time>2022-04-27T12:18:35.122Z</time>
      </trkpt>
      <trkpt lat="48.40951" lon="2.53612">
        <ele>80</ele>
        <time>2022-04-27T12:18:39.127Z</time>
      </trkpt>
      <trkpt lat="48.40955" lon="2.53607">
        <ele>80</ele>
        <time>2022-04-27T12:18:43.129Z</time>
      </trkpt>
      <trkpt lat="48.40961" lon="2.53602">
        <ele>80</ele>
        <time>2022-04-27T12:18:48.133Z</time>
      </trkpt>
      <trkpt lat="48.40967" lon="2.53596">
        <ele>79</ele>
        <time>2022-04-27T12:18:53.126Z</time>
      </trkpt>
      <trkpt lat="48.40971" lon="2.5359">
        <ele>79</ele>
        <time>2022-04-27T12:18:58.124Z</time>
      </trkpt>
      <trkpt lat="48.40974" lon="2.53585">
        <ele>79</ele>
        <time>2022-04-27T12:19:02.129Z</time>
      </trkpt>
      <trkpt lat="48.40979" lon="2.53579">
        <ele>79</ele>
        <time>2022-04-27T12:19:07.128Z</time>
      </trkpt>
      <trkpt lat="48.40982" lon="2.53571">
        <ele>79</ele>
        <time>2022-04-27T12:19:12.130Z</time>
      </trkpt>
      <trkpt lat="48.40987" lon="2.53565">
        <ele>76</ele>
        <time>2022-04-27T12:19:17.131Z</time>
      </trkpt>
      <trkpt lat="48.4099" lon="2.53559">
        <ele>76</ele>
        <time>2022-04-27T12:19:22.128Z</time>
      </trkpt>
      <trkpt lat="48.40995" lon="2.53553">
        <ele>76</ele>
        <time>2022-04-27T12:19:27.132Z</time>
      </trkpt>
      <trkpt lat="48.40999" lon="2.53549">
        <ele>76</ele>
        <time>2022-04-27T12:19:31.134Z</time>
      </trkpt>
      <trkpt lat="48.41002" lon="2.53543">
        <ele>76</ele>
        <time>2022-04-27T12:19:36.144Z</time>
      </trkpt>
      <trkpt lat="48.41006" lon="2.53537">
        <ele>75</ele>
        <time>2022-04-27T12:19:41.121Z</time>
      </trkpt>
      <trkpt lat="48.4101" lon="2.53532">
        <ele>75</ele>
        <time>2022-04-27T12:19:46.124Z</time>
      </trkpt>
      <trkpt lat="48.41014" lon="2.53527">
        <ele>75</ele>
        <time>2022-04-27T12:19:51.124Z</time>
      </trkpt>
      <trkpt lat="48.41018" lon="2.53521">
        <ele>75</ele>
        <time>2022-04-27T12:19:56.125Z</time>
      </trkpt>
      <trkpt lat="48.41022" lon="2.53515">
        <ele>75</ele>
        <time>2022-04-27T12:20:01.125Z</time>
      </trkpt>
      <trkpt lat="48.41026" lon="2.53511">
        <ele>75</ele>
        <time>2022-04-27T12:20:05.131Z</time>
      </trkpt>
      <trkpt lat="48.41029" lon="2.53506">
        <ele>75</ele>
        <time>2022-04-27T12:20:10.126Z</time>
      </trkpt>
      <trkpt lat="48.41034" lon="2.53498">
        <ele>75</ele>
        <time>2022-04-27T12:20:15.126Z</time>
      </trkpt>
      <trkpt lat="48.41038" lon="2.53491">
        <ele>75</ele>
        <time>2022-04-27T12:20:20.129Z</time>
      </trkpt>
      <trkpt lat="48.41042" lon="2.53485">
        <ele>76</ele>
        <time>2022-04-27T12:20:25.130Z</time>
      </trkpt>
      <trkpt lat="48.41044" lon="2.53481">
        <ele>77</ele>
        <time>2022-04-27T12:20:29.133Z</time>
      </trkpt>
      <trkpt lat="48.41048" lon="2.53475">
        <ele>77</ele>
        <time>2022-04-27T12:20:34.125Z</time>
      </trkpt>
      <trkpt lat="48.41053" lon="2.5347">
        <ele>77</ele>
        <time>2022-04-27T12:20:39.123Z</time>
      </trkpt>
      <trkpt lat="48.41057" lon="2.53463">
        <ele>77</ele>
        <time>2022-04-27T12:20:44.128Z</time>
      </trkpt>
      <trkpt lat="48.41061" lon="2.53459">
        <ele>77</ele>
        <time>2022-04-27T12:20:48.130Z</time>
      </trkpt>
      <trkpt lat="48.41065" lon="2.53453">
        <ele>77</ele>
        <time>2022-04-27T12:20:53.123Z</time>
      </trkpt>
      <trkpt lat="48.4107" lon="2.53446">
        <ele>77</ele>
        <time>2022-04-27T12:20:58.127Z</time>
      </trkpt>
      <trkpt lat="48.41075" lon="2.5344">
        <ele>77</ele>
        <time>2022-04-27T12:21:03.127Z</time>
      </trkpt>
      <trkpt lat="48.41078" lon="2.53434">
        <ele>77</ele>
        <time>2022-04-27T12:21:08.124Z</time>
      </trkpt>
      <trkpt lat="48.41081" lon="2.53429">
        <ele>77</ele>
        <time>2022-04-27T12:21:12.128Z</time>
      </trkpt>
      <trkpt lat="48.41085" lon="2.53422">
        <ele>77</ele>
        <time>2022-04-27T12:21:17.124Z</time>
      </trkpt>
      <trkpt lat="48.41089" lon="2.53416">
        <ele>77</ele>
        <time>2022-04-27T12:21:22.123Z</time>
      </trkpt>
      <trkpt lat="48.41093" lon="2.5341">
        <ele>77</ele>
        <time>2022-04-27T12:21:27.123Z</time>
      </trkpt>
      <trkpt lat="48.41098" lon="2.53406">
        <ele>77</ele>
        <time>2022-04-27T12:21:31.131Z</time>
      </trkpt>
      <trkpt lat="48.41104" lon="2.53399">
        <ele>77</ele>
        <time>2022-04-27T12:21:49.122Z</time>
      </trkpt>
      <trkpt lat="48.41105" lon="2.53398">
        <ele>77</ele>
        <time>2022-04-27T12:21:53.127Z</time>
      </trkpt>
      <trkpt lat="48.41105" lon="2.53406">
        <ele>77</ele>
        <time>2022-04-27T12:21:58.125Z</time>
      </trkpt>
      <trkpt lat="48.41107" lon="2.53412">
        <ele>77</ele>
        <time>2022-04-27T12:22:02.121Z</time>
      </trkpt>
      <trkpt lat="48.4111" lon="2.53419">
        <ele>77</ele>
        <time>2022-04-27T12:22:07.122Z</time>
      </trkpt>
      <trkpt lat="48.4111" lon="2.53426">
        <ele>77</ele>
        <time>2022-04-27T12:22:11.123Z</time>
      </trkpt>
      <trkpt lat="48.41112" lon="2.53434">
        <ele>76</ele>
        <time>2022-04-27T12:22:15.131Z</time>
      </trkpt>
      <trkpt lat="48.41111" lon="2.53444">
        <ele>76</ele>
        <time>2022-04-27T12:22:20.123Z</time>
      </trkpt>
      <trkpt lat="48.41108" lon="2.53447">
        <ele>76</ele>
        <time>2022-04-27T12:22:24.125Z</time>
      </trkpt>
      <trkpt lat="48.41108" lon="2.53443">
        <ele>76</ele>
        <time>2022-04-27T12:23:02.117Z</time>
      </trkpt>
      <trkpt lat="48.4111" lon="2.53443">
        <ele>76</ele>
        <time>2022-04-27T12:23:06.123Z</time>
      </trkpt>
      <trkpt lat="48.41113" lon="2.53442">
        <ele>76</ele>
        <time>2022-04-27T12:23:11.124Z</time>
      </trkpt>
      <trkpt lat="48.41115" lon="2.53439">
        <ele>76</ele>
        <time>2022-04-27T12:23:16.126Z</time>
      </trkpt>
      <trkpt lat="48.41118" lon="2.53434">
        <ele>76</ele>
        <time>2022-04-27T12:23:21.124Z</time>
      </trkpt>
      <trkpt lat="48.41119" lon="2.53434">
        <ele>76</ele>
        <time>2022-04-27T12:23:25.131Z</time>
      </trkpt>
      <trkpt lat="48.41123" lon="2.53431">
        <ele>76</ele>
        <time>2022-04-27T12:23:30.125Z</time>
      </trkpt>
      <trkpt lat="48.41124" lon="2.53427">
        <ele>77</ele>
        <time>2022-04-27T12:23:35.122Z</time>
      </trkpt>
      <trkpt lat="48.4112" lon="2.53423">
        <ele>77</ele>
        <time>2022-04-27T12:23:40.124Z</time>
      </trkpt>
      <trkpt lat="48.41115" lon="2.53417">
        <ele>77</ele>
        <time>2022-04-27T12:23:45.127Z</time>
      </trkpt>
      <trkpt lat="48.41112" lon="2.53411">
        <ele>77</ele>
        <time>2022-04-27T12:23:50.123Z</time>
      </trkpt>
      <trkpt lat="48.4111" lon="2.53404">
        <ele>77</ele>
        <time>2022-04-27T12:23:55.128Z</time>
      </trkpt>
      <trkpt lat="48.4111" lon="2.53398">
        <ele>77</ele>
        <time>2022-04-27T12:24:00.124Z</time>
      </trkpt>
      <trkpt lat="48.41107" lon="2.53395">
        <ele>77</ele>
        <time>2022-04-27T12:24:05.124Z</time>
      </trkpt>
      <trkpt lat="48.41107" lon="2.53393">
        <ele>77</ele>
        <time>2022-04-27T12:27:59.130Z</time>
      </trkpt>
      <trkpt lat="48.41106" lon="2.53385">
        <ele>77</ele>
        <time>2022-04-27T12:28:04.132Z</time>
      </trkpt>
      <trkpt lat="48.41105" lon="2.53378">
        <ele>77</ele>
        <time>2022-04-27T12:28:09.115Z</time>
      </trkpt>
      <trkpt lat="48.41106" lon="2.53372">
        <ele>77</ele>
        <time>2022-04-27T12:28:13.125Z</time>
      </trkpt>
      <trkpt lat="48.41107" lon="2.53367">
        <ele>77</ele>
        <time>2022-04-27T12:28:17.139Z</time>
      </trkpt>
      <trkpt lat="48.41109" lon="2.53362">
        <ele>77</ele>
        <time>2022-04-27T12:28:22.141Z</time>
      </trkpt>
      <trkpt lat="48.4111" lon="2.53355">
        <ele>77</ele>
        <time>2022-04-27T12:28:27.120Z</time>
      </trkpt>
      <trkpt lat="48.41111" lon="2.53348">
        <ele>77</ele>
        <time>2022-04-27T12:28:32.124Z</time>
      </trkpt>
      <trkpt lat="48.41111" lon="2.5334">
        <ele>77</ele>
        <time>2022-04-27T12:28:37.124Z</time>
      </trkpt>
      <trkpt lat="48.41111" lon="2.53329">
        <ele>77</ele>
        <time>2022-04-27T12:28:42.123Z</time>
      </trkpt>
      <trkpt lat="48.41111" lon="2.53321">
        <ele>77</ele>
        <time>2022-04-27T12:28:47.124Z</time>
      </trkpt>
      <trkpt lat="48.41111" lon="2.53311">
        <ele>77</ele>
        <time>2022-04-27T12:28:52.123Z</time>
      </trkpt>
      <trkpt lat="48.41113" lon="2.53302">
        <ele>77</ele>
        <time>2022-04-27T12:28:57.121Z</time>
      </trkpt>
      <trkpt lat="48.41114" lon="2.53296">
        <ele>77</ele>
        <time>2022-04-27T12:29:01.127Z</time>
      </trkpt>
      <trkpt lat="48.41115" lon="2.53289">
        <ele>76</ele>
        <time>2022-04-27T12:29:05.132Z</time>
      </trkpt>
      <trkpt lat="48.41118" lon="2.53282">
        <ele>76</ele>
        <time>2022-04-27T12:29:10.128Z</time>
      </trkpt>
      <trkpt lat="48.4112" lon="2.53275">
        <ele>76</ele>
        <time>2022-04-27T12:29:15.119Z</time>
      </trkpt>
      <trkpt lat="48.41122" lon="2.53268">
        <ele>76</ele>
        <time>2022-04-27T12:29:19.123Z</time>
      </trkpt>
      <trkpt lat="48.41125" lon="2.53261">
        <ele>74</ele>
        <time>2022-04-27T12:29:24.123Z</time>
      </trkpt>
      <trkpt lat="48.41128" lon="2.53254">
        <ele>76</ele>
        <time>2022-04-27T12:29:29.126Z</time>
      </trkpt>
      <trkpt lat="48.4113" lon="2.53247">
        <ele>76</ele>
        <time>2022-04-27T12:29:34.126Z</time>
      </trkpt>
      <trkpt lat="48.41133" lon="2.53242">
        <ele>76</ele>
        <time>2022-04-27T12:29:39.126Z</time>
      </trkpt>
      <trkpt lat="48.41136" lon="2.53237">
        <ele>76</ele>
        <time>2022-04-27T12:29:44.128Z</time>
      </trkpt>
      <trkpt lat="48.41138" lon="2.53229">
        <ele>74</ele>
        <time>2022-04-27T12:29:48.131Z</time>
      </trkpt>
      <trkpt lat="48.41139" lon="2.5322">
        <ele>74</ele>
        <time>2022-04-27T12:29:53.127Z</time>
      </trkpt>
      <trkpt lat="48.41141" lon="2.5321">
        <ele>74</ele>
        <time>2022-04-27T12:29:58.125Z</time>
      </trkpt>
      <trkpt lat="48.41143" lon="2.53202">
        <ele>75</ele>
        <time>2022-04-27T12:30:03.129Z</time>
      </trkpt>
      <trkpt lat="48.41146" lon="2.53194">
        <ele>75</ele>
        <time>2022-04-27T12:30:08.126Z</time>
      </trkpt>
      <trkpt lat="48.41149" lon="2.53187">
        <ele>75</ele>
        <time>2022-04-27T12:30:13.124Z</time>
      </trkpt>
      <trkpt lat="48.41151" lon="2.5318">
        <ele>74</ele>
        <time>2022-04-27T12:30:18.125Z</time>
      </trkpt>
      <trkpt lat="48.41153" lon="2.53172">
        <ele>74</ele>
        <time>2022-04-27T12:30:23.122Z</time>
      </trkpt>
      <trkpt lat="48.41154" lon="2.53165">
        <ele>77</ele>
        <time>2022-04-27T12:30:27.130Z</time>
      </trkpt>
      <trkpt lat="48.41155" lon="2.53158">
        <ele>77</ele>
        <time>2022-04-27T12:30:32.124Z</time>
      </trkpt>
      <trkpt lat="48.41159" lon="2.53148">
        <ele>76</ele>
        <time>2022-04-27T12:30:37.123Z</time>
      </trkpt>
      <trkpt lat="48.41164" lon="2.5314">
        <ele>76</ele>
        <time>2022-04-27T12:30:42.123Z</time>
      </trkpt>
      <trkpt lat="48.41168" lon="2.53134">
        <ele>76</ele>
        <time>2022-04-27T12:30:47.129Z</time>
      </trkpt>
      <trkpt lat="48.41171" lon="2.53126">
        <ele>76</ele>
        <time>2022-04-27T12:30:52.127Z</time>
      </trkpt>
      <trkpt lat="48.41173" lon="2.5312">
        <ele>75</ele>
        <time>2022-04-27T12:30:56.131Z</time>
      </trkpt>
      <trkpt lat="48.41175" lon="2.53112">
        <ele>75</ele>
        <time>2022-04-27T12:31:01.123Z</time>
      </trkpt>
      <trkpt lat="48.41178" lon="2.53104">
        <ele>75</ele>
        <time>2022-04-27T12:31:06.123Z</time>
      </trkpt>
      <trkpt lat="48.41181" lon="2.53094">
        <ele>78</ele>
        <time>2022-04-27T12:31:11.125Z</time>
      </trkpt>
      <trkpt lat="48.41182" lon="2.53086">
        <ele>78</ele>
        <time>2022-04-27T12:31:15.129Z</time>
      </trkpt>
      <trkpt lat="48.41183" lon="2.53076">
        <ele>78</ele>
        <time>2022-04-27T12:31:20.125Z</time>
      </trkpt>
      <trkpt lat="48.41184" lon="2.53069">
        <ele>79</ele>
        <time>2022-04-27T12:31:24.124Z</time>
      </trkpt>
      <trkpt lat="48.41183" lon="2.53058">
        <ele>79</ele>
        <time>2022-04-27T12:31:29.128Z</time>
      </trkpt>
      <trkpt lat="48.41182" lon="2.53047">
        <ele>79</ele>
        <time>2022-04-27T12:31:34.136Z</time>
      </trkpt>
      <trkpt lat="48.41184" lon="2.53038">
        <ele>79</ele>
        <time>2022-04-27T12:31:39.126Z</time>
      </trkpt>
      <trkpt lat="48.41176" lon="2.53005">
        <ele>77</ele>
        <time>2022-04-27T12:31:44.122Z</time>
      </trkpt>
      <trkpt lat="48.41176" lon="2.52998">
        <ele>77</ele>
        <time>2022-04-27T12:31:48.123Z</time>
      </trkpt>
      <trkpt lat="48.41176" lon="2.5299">
        <ele>77</ele>
        <time>2022-04-27T12:31:53.125Z</time>
      </trkpt>
      <trkpt lat="48.41176" lon="2.52984">
        <ele>76</ele>
        <time>2022-04-27T12:31:57.125Z</time>
      </trkpt>
      <trkpt lat="48.41174" lon="2.52969">
        <ele>76</ele>
        <time>2022-04-27T12:32:02.128Z</time>
      </trkpt>
      <trkpt lat="48.41173" lon="2.52958">
        <ele>77</ele>
        <time>2022-04-27T12:32:07.126Z</time>
      </trkpt>
      <trkpt lat="48.41172" lon="2.52951">
        <ele>77</ele>
        <time>2022-04-27T12:32:11.133Z</time>
      </trkpt>
      <trkpt lat="48.4117" lon="2.52944">
        <ele>77</ele>
        <time>2022-04-27T12:32:16.130Z</time>
      </trkpt>
      <trkpt lat="48.41169" lon="2.52936">
        <ele>77</ele>
        <time>2022-04-27T12:32:21.139Z</time>
      </trkpt>
      <trkpt lat="48.41166" lon="2.52928">
        <ele>78</ele>
        <time>2022-04-27T12:32:26.119Z</time>
      </trkpt>
      <trkpt lat="48.41168" lon="2.52923">
        <ele>78</ele>
        <time>2022-04-27T12:32:30.125Z</time>
      </trkpt>
      <trkpt lat="48.41169" lon="2.52915">
        <ele>78</ele>
        <time>2022-04-27T12:32:35.129Z</time>
      </trkpt>
      <trkpt lat="48.41164" lon="2.5291">
        <ele>78</ele>
        <time>2022-04-27T12:32:40.121Z</time>
      </trkpt>
      <trkpt lat="48.41161" lon="2.52896">
        <ele>78</ele>
        <time>2022-04-27T12:32:45.120Z</time>
      </trkpt>
      <trkpt lat="48.41161" lon="2.52889">
        <ele>78</ele>
        <time>2022-04-27T12:32:49.123Z</time>
      </trkpt>
      <trkpt lat="48.41159" lon="2.52883">
        <ele>78</ele>
        <time>2022-04-27T12:32:53.133Z</time>
      </trkpt>
      <trkpt lat="48.41157" lon="2.52876">
        <ele>78</ele>
        <time>2022-04-27T12:32:57.137Z</time>
      </trkpt>
      <trkpt lat="48.41155" lon="2.52868">
        <ele>80</ele>
        <time>2022-04-27T12:33:02.137Z</time>
      </trkpt>
      <trkpt lat="48.41154" lon="2.52858">
        <ele>80</ele>
        <time>2022-04-27T12:33:07.132Z</time>
      </trkpt>
      <trkpt lat="48.41152" lon="2.52848">
        <ele>77</ele>
        <time>2022-04-27T12:33:12.131Z</time>
      </trkpt>
      <trkpt lat="48.41149" lon="2.52838">
        <ele>79</ele>
        <time>2022-04-27T12:33:17.128Z</time>
      </trkpt>
      <trkpt lat="48.41148" lon="2.52831">
        <ele>79</ele>
        <time>2022-04-27T12:33:21.134Z</time>
      </trkpt>
      <trkpt lat="48.41147" lon="2.52823">
        <ele>79</ele>
        <time>2022-04-27T12:33:26.132Z</time>
      </trkpt>
      <trkpt lat="48.41146" lon="2.52815">
        <ele>80</ele>
        <time>2022-04-27T12:33:31.124Z</time>
      </trkpt>
      <trkpt lat="48.41148" lon="2.52813">
        <ele>80</ele>
        <time>2022-04-27T12:33:36.122Z</time>
      </trkpt>
      <trkpt lat="48.41146" lon="2.52801">
        <ele>80</ele>
        <time>2022-04-27T12:33:40.129Z</time>
      </trkpt>
      <trkpt lat="48.41147" lon="2.52794">
        <ele>80</ele>
        <time>2022-04-27T12:33:44.136Z</time>
      </trkpt>
      <trkpt lat="48.41146" lon="2.52783">
        <ele>80</ele>
        <time>2022-04-27T12:33:49.124Z</time>
      </trkpt>
      <trkpt lat="48.41145" lon="2.52775">
        <ele>80</ele>
        <time>2022-04-27T12:33:54.133Z</time>
      </trkpt>
      <trkpt lat="48.41143" lon="2.52766">
        <ele>80</ele>
        <time>2022-04-27T12:33:59.160Z</time>
      </trkpt>
      <trkpt lat="48.41142" lon="2.52757">
        <ele>81</ele>
        <time>2022-04-27T12:34:04.133Z</time>
      </trkpt>
      <trkpt lat="48.41141" lon="2.5275">
        <ele>81</ele>
        <time>2022-04-27T12:34:08.138Z</time>
      </trkpt>
      <trkpt lat="48.41136" lon="2.52746">
        <ele>81</ele>
        <time>2022-04-27T12:34:12.145Z</time>
      </trkpt>
      <trkpt lat="48.41131" lon="2.52742">
        <ele>81</ele>
        <time>2022-04-27T12:34:17.126Z</time>
      </trkpt>
      <trkpt lat="48.41124" lon="2.5274">
        <ele>81</ele>
        <time>2022-04-27T12:34:22.134Z</time>
      </trkpt>
      <trkpt lat="48.4112" lon="2.52739">
        <ele>81</ele>
        <time>2022-04-27T12:34:27.123Z</time>
      </trkpt>
      <trkpt lat="48.41115" lon="2.52735">
        <ele>83</ele>
        <time>2022-04-27T12:34:31.127Z</time>
      </trkpt>
      <trkpt lat="48.41112" lon="2.52734">
        <ele>83</ele>
        <time>2022-04-27T12:34:35.141Z</time>
      </trkpt>
      <trkpt lat="48.41108" lon="2.52734">
        <ele>83</ele>
        <time>2022-04-27T12:34:40.123Z</time>
      </trkpt>
      <trkpt lat="48.41103" lon="2.52734">
        <ele>83</ele>
        <time>2022-04-27T12:34:45.125Z</time>
      </trkpt>
      <trkpt lat="48.41101" lon="2.52745">
        <ele>81</ele>
        <time>2022-04-27T12:34:49.133Z</time>
      </trkpt>
      <trkpt lat="48.41096" lon="2.52748">
        <ele>82</ele>
        <time>2022-04-27T12:34:54.132Z</time>
      </trkpt>
      <trkpt lat="48.41097" lon="2.52752">
        <ele>82</ele>
        <time>2022-04-27T12:35:07.123Z</time>
      </trkpt>
      <trkpt lat="48.41092" lon="2.52755">
        <ele>82</ele>
        <time>2022-04-27T12:35:11.127Z</time>
      </trkpt>
      <trkpt lat="48.41088" lon="2.52755">
        <ele>82</ele>
        <time>2022-04-27T12:35:15.137Z</time>
      </trkpt>
      <trkpt lat="48.41082" lon="2.52754">
        <ele>82</ele>
        <time>2022-04-27T12:35:20.136Z</time>
      </trkpt>
      <trkpt lat="48.41073" lon="2.52753">
        <ele>82</ele>
        <time>2022-04-27T12:35:25.124Z</time>
      </trkpt>
      <trkpt lat="48.41068" lon="2.52754">
        <ele>82</ele>
        <time>2022-04-27T12:35:30.123Z</time>
      </trkpt>
      <trkpt lat="48.41065" lon="2.52752">
        <ele>82</ele>
        <time>2022-04-27T12:35:35.135Z</time>
      </trkpt>
      <trkpt lat="48.41056" lon="2.5275">
        <ele>82</ele>
        <time>2022-04-27T12:35:40.139Z</time>
      </trkpt>
      <trkpt lat="48.41049" lon="2.5275">
        <ele>82</ele>
        <time>2022-04-27T12:35:45.137Z</time>
      </trkpt>
      <trkpt lat="48.41044" lon="2.52751">
        <ele>82</ele>
        <time>2022-04-27T12:35:50.134Z</time>
      </trkpt>
      <trkpt lat="48.4104" lon="2.52743">
        <ele>80</ele>
        <time>2022-04-27T12:35:55.130Z</time>
      </trkpt>
      <trkpt lat="48.41026" lon="2.5272">
        <ele>80</ele>
        <time>2022-04-27T12:35:59.133Z</time>
      </trkpt>
      <trkpt lat="48.41023" lon="2.52714">
        <ele>80</ele>
        <time>2022-04-27T12:36:04.129Z</time>
      </trkpt>
      <trkpt lat="48.41019" lon="2.5271">
        <ele>80</ele>
        <time>2022-04-27T12:36:08.129Z</time>
      </trkpt>
      <trkpt lat="48.41015" lon="2.52708">
        <ele>81</ele>
        <time>2022-04-27T12:36:12.131Z</time>
      </trkpt>
      <trkpt lat="48.4101" lon="2.52708">
        <ele>79</ele>
        <time>2022-04-27T12:36:17.133Z</time>
      </trkpt>
      <trkpt lat="48.41006" lon="2.52707">
        <ele>79</ele>
        <time>2022-04-27T12:36:22.123Z</time>
      </trkpt>
      <trkpt lat="48.41002" lon="2.52707">
        <ele>79</ele>
        <time>2022-04-27T12:36:26.133Z</time>
      </trkpt>
      <trkpt lat="48.40996" lon="2.52701">
        <ele>79</ele>
        <time>2022-04-27T12:36:31.132Z</time>
      </trkpt>
      <trkpt lat="48.40995" lon="2.52695">
        <ele>79</ele>
        <time>2022-04-27T12:36:36.134Z</time>
      </trkpt>
      <trkpt lat="48.40991" lon="2.5269">
        <ele>79</ele>
        <time>2022-04-27T12:36:41.136Z</time>
      </trkpt>
      <trkpt lat="48.40987" lon="2.52689">
        <ele>79</ele>
        <time>2022-04-27T12:36:46.145Z</time>
      </trkpt>
      <trkpt lat="48.40981" lon="2.5269">
        <ele>79</ele>
        <time>2022-04-27T12:36:51.129Z</time>
      </trkpt>
      <trkpt lat="48.40978" lon="2.52688">
        <ele>79</ele>
        <time>2022-04-27T12:36:55.142Z</time>
      </trkpt>
      <trkpt lat="48.40972" lon="2.52683">
        <ele>79</ele>
        <time>2022-04-27T12:37:00.129Z</time>
      </trkpt>
      <trkpt lat="48.40969" lon="2.52688">
        <ele>79</ele>
        <time>2022-04-27T12:37:04.135Z</time>
      </trkpt>
      <trkpt lat="48.40968" lon="2.5269">
        <ele>79</ele>
        <time>2022-04-27T12:37:09.130Z</time>
      </trkpt>
      <trkpt lat="48.40967" lon="2.52692">
        <ele>79</ele>
        <time>2022-04-27T12:37:14.123Z</time>
      </trkpt>
      <trkpt lat="48.40967" lon="2.52663">
        <ele>78</ele>
        <time>2022-04-27T12:37:19.121Z</time>
      </trkpt>
      <trkpt lat="48.40963" lon="2.52658">
        <ele>78</ele>
        <time>2022-04-27T12:37:24.122Z</time>
      </trkpt>
      <trkpt lat="48.40959" lon="2.52656">
        <ele>78</ele>
        <time>2022-04-27T12:37:28.126Z</time>
      </trkpt>
      <trkpt lat="48.40955" lon="2.52647">
        <ele>78</ele>
        <time>2022-04-27T12:37:33.127Z</time>
      </trkpt>
      <trkpt lat="48.40952" lon="2.52645">
        <ele>78</ele>
        <time>2022-04-27T12:37:37.134Z</time>
      </trkpt>
      <trkpt lat="48.40942" lon="2.52632">
        <ele>78</ele>
        <time>2022-04-27T12:37:55.126Z</time>
      </trkpt>
      <trkpt lat="48.4094" lon="2.52627">
        <ele>78</ele>
        <time>2022-04-27T12:37:59.133Z</time>
      </trkpt>
      <trkpt lat="48.40938" lon="2.52621">
        <ele>79</ele>
        <time>2022-04-27T12:38:04.126Z</time>
      </trkpt>
      <trkpt lat="48.40936" lon="2.52616">
        <ele>79</ele>
        <time>2022-04-27T12:38:09.143Z</time>
      </trkpt>
      <trkpt lat="48.40933" lon="2.5261">
        <ele>79</ele>
        <time>2022-04-27T12:38:14.128Z</time>
      </trkpt>
      <trkpt lat="48.40934" lon="2.52603">
        <ele>79</ele>
        <time>2022-04-27T12:38:18.133Z</time>
      </trkpt>
      <trkpt lat="48.40937" lon="2.52599">
        <ele>79</ele>
        <time>2022-04-27T12:38:23.137Z</time>
      </trkpt>
      <trkpt lat="48.40931" lon="2.52594">
        <ele>80</ele>
        <time>2022-04-27T12:38:28.130Z</time>
      </trkpt>
      <trkpt lat="48.40927" lon="2.5259">
        <ele>79</ele>
        <time>2022-04-27T12:38:33.129Z</time>
      </trkpt>
      <trkpt lat="48.40923" lon="2.52587">
        <ele>79</ele>
        <time>2022-04-27T12:38:37.137Z</time>
      </trkpt>
      <trkpt lat="48.40919" lon="2.52582">
        <ele>79</ele>
        <time>2022-04-27T12:38:42.127Z</time>
      </trkpt>
      <trkpt lat="48.40918" lon="2.52575">
        <ele>79</ele>
        <time>2022-04-27T12:38:47.123Z</time>
      </trkpt>
      <trkpt lat="48.40917" lon="2.52568">
        <ele>78</ele>
        <time>2022-04-27T12:38:51.148Z</time>
      </trkpt>
      <trkpt lat="48.40918" lon="2.52562">
        <ele>78</ele>
        <time>2022-04-27T12:38:56.118Z</time>
      </trkpt>
      <trkpt lat="48.40919" lon="2.52555">
        <ele>78</ele>
        <time>2022-04-27T12:39:01.124Z</time>
      </trkpt>
      <trkpt lat="48.4092" lon="2.52546">
        <ele>78</ele>
        <time>2022-04-27T12:39:06.124Z</time>
      </trkpt>
      <trkpt lat="48.40922" lon="2.5254">
        <ele>77</ele>
        <time>2022-04-27T12:39:10.127Z</time>
      </trkpt>
      <trkpt lat="48.40924" lon="2.52532">
        <ele>77</ele>
        <time>2022-04-27T12:39:15.122Z</time>
      </trkpt>
      <trkpt lat="48.40926" lon="2.52522">
        <ele>77</ele>
        <time>2022-04-27T12:39:20.123Z</time>
      </trkpt>
      <trkpt lat="48.40925" lon="2.52512">
        <ele>75</ele>
        <time>2022-04-27T12:39:25.124Z</time>
      </trkpt>
      <trkpt lat="48.40925" lon="2.52503">
        <ele>75</ele>
        <time>2022-04-27T12:39:29.123Z</time>
      </trkpt>
      <trkpt lat="48.40925" lon="2.52495">
        <ele>75</ele>
        <time>2022-04-27T12:39:33.129Z</time>
      </trkpt>
      <trkpt lat="48.40928" lon="2.52489">
        <ele>75</ele>
        <time>2022-04-27T12:39:38.131Z</time>
      </trkpt>
      <trkpt lat="48.4093" lon="2.52481">
        <ele>76</ele>
        <time>2022-04-27T12:39:43.136Z</time>
      </trkpt>
      <trkpt lat="48.40929" lon="2.52458">
        <ele>76</ele>
        <time>2022-04-27T12:39:48.124Z</time>
      </trkpt>
      <trkpt lat="48.4093" lon="2.52452">
        <ele>76</ele>
        <time>2022-04-27T12:39:52.133Z</time>
      </trkpt>
      <trkpt lat="48.40934" lon="2.52444">
        <ele>77</ele>
        <time>2022-04-27T12:39:57.122Z</time>
      </trkpt>
      <trkpt lat="48.40934" lon="2.52438">
        <ele>77</ele>
        <time>2022-04-27T12:40:02.123Z</time>
      </trkpt>
      <trkpt lat="48.40935" lon="2.52431">
        <ele>77</ele>
        <time>2022-04-27T12:40:06.124Z</time>
      </trkpt>
      <trkpt lat="48.40937" lon="2.52424">
        <ele>76</ele>
        <time>2022-04-27T12:40:10.135Z</time>
      </trkpt>
      <trkpt lat="48.40938" lon="2.52415">
        <ele>76</ele>
        <time>2022-04-27T12:40:15.133Z</time>
      </trkpt>
      <trkpt lat="48.40936" lon="2.5241">
        <ele>76</ele>
        <time>2022-04-27T12:40:20.124Z</time>
      </trkpt>
      <trkpt lat="48.40943" lon="2.524">
        <ele>77</ele>
        <time>2022-04-27T12:40:24.130Z</time>
      </trkpt>
      <trkpt lat="48.40943" lon="2.52391">
        <ele>77</ele>
        <time>2022-04-27T12:40:29.122Z</time>
      </trkpt>
      <trkpt lat="48.40944" lon="2.52383">
        <ele>77</ele>
        <time>2022-04-27T12:40:33.129Z</time>
      </trkpt>
      <trkpt lat="48.40946" lon="2.52373">
        <ele>77</ele>
        <time>2022-04-27T12:40:38.125Z</time>
      </trkpt>
      <trkpt lat="48.40947" lon="2.52366">
        <ele>77</ele>
        <time>2022-04-27T12:40:42.133Z</time>
      </trkpt>
      <trkpt lat="48.40949" lon="2.52359">
        <ele>77</ele>
        <time>2022-04-27T12:40:47.129Z</time>
      </trkpt>
      <trkpt lat="48.40949" lon="2.52352">
        <ele>77</ele>
        <time>2022-04-27T12:40:51.139Z</time>
      </trkpt>
      <trkpt lat="48.4095" lon="2.52341">
        <ele>77</ele>
        <time>2022-04-27T12:40:56.129Z</time>
      </trkpt>
      <trkpt lat="48.4095" lon="2.52333">
        <ele>77</ele>
        <time>2022-04-27T12:41:00.135Z</time>
      </trkpt>
      <trkpt lat="48.40955" lon="2.52327">
        <ele>77</ele>
        <time>2022-04-27T12:41:05.128Z</time>
      </trkpt>
      <trkpt lat="48.40952" lon="2.52314">
        <ele>77</ele>
        <time>2022-04-27T12:41:10.126Z</time>
      </trkpt>
      <trkpt lat="48.40953" lon="2.52308">
        <ele>77</ele>
        <time>2022-04-27T12:41:14.129Z</time>
      </trkpt>
      <trkpt lat="48.40954" lon="2.523">
        <ele>77</ele>
        <time>2022-04-27T12:41:19.133Z</time>
      </trkpt>
      <trkpt lat="48.40955" lon="2.52291">
        <ele>77</ele>
        <time>2022-04-27T12:41:23.135Z</time>
      </trkpt>
      <trkpt lat="48.40956" lon="2.52283">
        <ele>77</ele>
        <time>2022-04-27T12:41:28.121Z</time>
      </trkpt>
      <trkpt lat="48.40958" lon="2.52277">
        <ele>78</ele>
        <time>2022-04-27T12:41:32.129Z</time>
      </trkpt>
      <trkpt lat="48.4096" lon="2.52269">
        <ele>78</ele>
        <time>2022-04-27T12:41:36.143Z</time>
      </trkpt>
      <trkpt lat="48.40961" lon="2.5226">
        <ele>78</ele>
        <time>2022-04-27T12:41:41.134Z</time>
      </trkpt>
      <trkpt lat="48.40963" lon="2.52252">
        <ele>78</ele>
        <time>2022-04-27T12:41:46.141Z</time>
      </trkpt>
      <trkpt lat="48.40964" lon="2.52243">
        <ele>78</ele>
        <time>2022-04-27T12:41:51.124Z</time>
      </trkpt>
      <trkpt lat="48.40965" lon="2.52233">
        <ele>78</ele>
        <time>2022-04-27T12:41:56.122Z</time>
      </trkpt>
      <trkpt lat="48.40966" lon="2.52226">
        <ele>78</ele>
        <time>2022-04-27T12:42:00.132Z</time>
      </trkpt>
      <trkpt lat="48.40967" lon="2.52218">
        <ele>78</ele>
        <time>2022-04-27T12:42:04.156Z</time>
      </trkpt>
      <trkpt lat="48.40969" lon="2.52208">
        <ele>79</ele>
        <time>2022-04-27T12:42:09.128Z</time>
      </trkpt>
      <trkpt lat="48.40971" lon="2.52199">
        <ele>79</ele>
        <time>2022-04-27T12:42:14.127Z</time>
      </trkpt>
      <trkpt lat="48.40973" lon="2.5219">
        <ele>79</ele>
        <time>2022-04-27T12:42:19.133Z</time>
      </trkpt>
      <trkpt lat="48.40975" lon="2.52181">
        <ele>79</ele>
        <time>2022-04-27T12:42:24.124Z</time>
      </trkpt>
      <trkpt lat="48.40976" lon="2.52174">
        <ele>81</ele>
        <time>2022-04-27T12:42:28.125Z</time>
      </trkpt>
      <trkpt lat="48.40977" lon="2.52165">
        <ele>81</ele>
        <time>2022-04-27T12:42:33.130Z</time>
      </trkpt>
      <trkpt lat="48.40977" lon="2.52158">
        <ele>81</ele>
        <time>2022-04-27T12:42:37.134Z</time>
      </trkpt>
      <trkpt lat="48.40979" lon="2.52149">
        <ele>82</ele>
        <time>2022-04-27T12:42:42.126Z</time>
      </trkpt>
      <trkpt lat="48.40982" lon="2.52143">
        <ele>82</ele>
        <time>2022-04-27T12:42:46.131Z</time>
      </trkpt>
      <trkpt lat="48.40983" lon="2.52135">
        <ele>82</ele>
        <time>2022-04-27T12:42:51.140Z</time>
      </trkpt>
      <trkpt lat="48.40984" lon="2.52127">
        <ele>82</ele>
        <time>2022-04-27T12:42:56.132Z</time>
      </trkpt>
      <trkpt lat="48.40988" lon="2.52124">
        <ele>81</ele>
        <time>2022-04-27T12:43:01.134Z</time>
      </trkpt>
      <trkpt lat="48.40989" lon="2.52117">
        <ele>81</ele>
        <time>2022-04-27T12:43:06.124Z</time>
      </trkpt>
      <trkpt lat="48.40989" lon="2.52107">
        <ele>81</ele>
        <time>2022-04-27T12:43:11.122Z</time>
      </trkpt>
      <trkpt lat="48.40991" lon="2.52103">
        <ele>81</ele>
        <time>2022-04-27T12:43:15.136Z</time>
      </trkpt>
      <trkpt lat="48.40988" lon="2.52087">
        <ele>82</ele>
        <time>2022-04-27T12:43:20.129Z</time>
      </trkpt>
      <trkpt lat="48.40989" lon="2.52079">
        <ele>82</ele>
        <time>2022-04-27T12:43:25.125Z</time>
      </trkpt>
      <trkpt lat="48.40989" lon="2.52071">
        <ele>82</ele>
        <time>2022-04-27T12:43:29.129Z</time>
      </trkpt>
      <trkpt lat="48.4099" lon="2.52062">
        <ele>82</ele>
        <time>2022-04-27T12:43:34.134Z</time>
      </trkpt>
      <trkpt lat="48.40991" lon="2.52054">
        <ele>82</ele>
        <time>2022-04-27T12:43:38.277Z</time>
      </trkpt>
      <trkpt lat="48.40994" lon="2.52044">
        <ele>82</ele>
        <time>2022-04-27T12:43:43.129Z</time>
      </trkpt>
      <trkpt lat="48.40995" lon="2.52038">
        <ele>83</ele>
        <time>2022-04-27T12:43:47.138Z</time>
      </trkpt>
      <trkpt lat="48.40996" lon="2.52029">
        <ele>83</ele>
        <time>2022-04-27T12:43:52.129Z</time>
      </trkpt>
      <trkpt lat="48.40998" lon="2.52021">
        <ele>83</ele>
        <time>2022-04-27T12:43:56.152Z</time>
      </trkpt>
      <trkpt lat="48.41001" lon="2.52011">
        <ele>83</ele>
        <time>2022-04-27T12:44:01.134Z</time>
      </trkpt>
      <trkpt lat="48.41002" lon="2.52004">
        <ele>83</ele>
        <time>2022-04-27T12:44:06.137Z</time>
      </trkpt>
      <trkpt lat="48.41003" lon="2.51995">
        <ele>83</ele>
        <time>2022-04-27T12:44:11.130Z</time>
      </trkpt>
      <trkpt lat="48.41005" lon="2.51987">
        <ele>83</ele>
        <time>2022-04-27T12:44:15.134Z</time>
      </trkpt>
      <trkpt lat="48.41007" lon="2.51978">
        <ele>83</ele>
        <time>2022-04-27T12:44:20.140Z</time>
      </trkpt>
      <trkpt lat="48.41008" lon="2.51969">
        <ele>83</ele>
        <time>2022-04-27T12:44:25.138Z</time>
      </trkpt>
      <trkpt lat="48.4101" lon="2.51961">
        <ele>83</ele>
        <time>2022-04-27T12:44:30.130Z</time>
      </trkpt>
      <trkpt lat="48.41011" lon="2.51953">
        <ele>83</ele>
        <time>2022-04-27T12:44:35.134Z</time>
      </trkpt>
      <trkpt lat="48.41012" lon="2.51945">
        <ele>83</ele>
        <time>2022-04-27T12:44:39.150Z</time>
      </trkpt>
      <trkpt lat="48.41013" lon="2.51939">
        <ele>83</ele>
        <time>2022-04-27T12:44:44.131Z</time>
      </trkpt>
      <trkpt lat="48.41008" lon="2.51937">
        <ele>83</ele>
        <time>2022-04-27T12:44:53.133Z</time>
      </trkpt>
      <trkpt lat="48.41008" lon="2.51933">
        <ele>83</ele>
        <time>2022-04-27T12:44:58.136Z</time>
      </trkpt>
      <trkpt lat="48.41004" lon="2.51932">
        <ele>83</ele>
        <time>2022-04-27T12:45:03.128Z</time>
      </trkpt>
      <trkpt lat="48.41003" lon="2.51929">
        <ele>85</ele>
        <time>2022-04-27T12:45:08.131Z</time>
      </trkpt>
      <trkpt lat="48.41007" lon="2.51922">
        <ele>85</ele>
        <time>2022-04-27T12:45:13.132Z</time>
      </trkpt>
      <trkpt lat="48.41006" lon="2.51916">
        <ele>85</ele>
        <time>2022-04-27T12:45:18.123Z</time>
      </trkpt>
      <trkpt lat="48.41" lon="2.51912">
        <ele>85</ele>
        <time>2022-04-27T12:45:22.130Z</time>
      </trkpt>
      <trkpt lat="48.40995" lon="2.51912">
        <ele>85</ele>
        <time>2022-04-27T12:45:26.137Z</time>
      </trkpt>
      <trkpt lat="48.40987" lon="2.51913">
        <ele>85</ele>
        <time>2022-04-27T12:45:31.144Z</time>
      </trkpt>
      <trkpt lat="48.40984" lon="2.51908">
        <ele>86</ele>
        <time>2022-04-27T12:45:36.143Z</time>
      </trkpt>
      <trkpt lat="48.40982" lon="2.51905">
        <ele>86</ele>
        <time>2022-04-27T12:45:41.132Z</time>
      </trkpt>
      <trkpt lat="48.40977" lon="2.51906">
        <ele>86</ele>
        <time>2022-04-27T12:45:45.134Z</time>
      </trkpt>
      <trkpt lat="48.40971" lon="2.51904">
        <ele>86</ele>
        <time>2022-04-27T12:45:50.124Z</time>
      </trkpt>
      <trkpt lat="48.40967" lon="2.51903">
        <ele>86</ele>
        <time>2022-04-27T12:45:54.141Z</time>
      </trkpt>
      <trkpt lat="48.40962" lon="2.51902">
        <ele>88</ele>
        <time>2022-04-27T12:45:59.140Z</time>
      </trkpt>
      <trkpt lat="48.40958" lon="2.51897">
        <ele>95</ele>
        <time>2022-04-27T12:46:04.139Z</time>
      </trkpt>
      <trkpt lat="48.40953" lon="2.51894">
        <ele>95</ele>
        <time>2022-04-27T12:46:09.127Z</time>
      </trkpt>
      <trkpt lat="48.40949" lon="2.51894">
        <ele>95</ele>
        <time>2022-04-27T12:46:13.129Z</time>
      </trkpt>
      <trkpt lat="48.40944" lon="2.51892">
        <ele>95</ele>
        <time>2022-04-27T12:46:17.136Z</time>
      </trkpt>
      <trkpt lat="48.40939" lon="2.51888">
        <ele>95</ele>
        <time>2022-04-27T12:46:22.128Z</time>
      </trkpt>
      <trkpt lat="48.40939" lon="2.51881">
        <ele>95</ele>
        <time>2022-04-27T12:46:26.129Z</time>
      </trkpt>
      <trkpt lat="48.40941" lon="2.51873">
        <ele>97</ele>
        <time>2022-04-27T12:46:31.131Z</time>
      </trkpt>
      <trkpt lat="48.4094" lon="2.51866">
        <ele>97</ele>
        <time>2022-04-27T12:46:36.124Z</time>
      </trkpt>
      <trkpt lat="48.40938" lon="2.51861">
        <ele>97</ele>
        <time>2022-04-27T12:46:40.130Z</time>
      </trkpt>
      <trkpt lat="48.40933" lon="2.51864">
        <ele>97</ele>
        <time>2022-04-27T12:46:45.131Z</time>
      </trkpt>
      <trkpt lat="48.4093" lon="2.51865">
        <ele>103</ele>
        <time>2022-04-27T12:46:50.134Z</time>
      </trkpt>
      <trkpt lat="48.40926" lon="2.51863">
        <ele>103</ele>
        <time>2022-04-27T12:46:55.131Z</time>
      </trkpt>
      <trkpt lat="48.40923" lon="2.51862">
        <ele>103</ele>
        <time>2022-04-27T12:46:59.133Z</time>
      </trkpt>
      <trkpt lat="48.4092" lon="2.51861">
        <ele>103</ele>
        <time>2022-04-27T12:47:03.140Z</time>
      </trkpt>
      <trkpt lat="48.40915" lon="2.5186">
        <ele>103</ele>
        <time>2022-04-27T12:47:08.131Z</time>
      </trkpt>
      <trkpt lat="48.40911" lon="2.51861">
        <ele>103</ele>
        <time>2022-04-27T12:47:13.131Z</time>
      </trkpt>
      <trkpt lat="48.40908" lon="2.51858">
        <ele>103</ele>
        <time>2022-04-27T12:47:17.141Z</time>
      </trkpt>
      <trkpt lat="48.40905" lon="2.51854">
        <ele>103</ele>
        <time>2022-04-27T12:47:22.129Z</time>
      </trkpt>
      <trkpt lat="48.40903" lon="2.51853">
        <ele>104</ele>
        <time>2022-04-27T12:47:26.135Z</time>
      </trkpt>
      <trkpt lat="48.40901" lon="2.51856">
        <ele>104</ele>
        <time>2022-04-27T12:47:31.129Z</time>
      </trkpt>
      <trkpt lat="48.40899" lon="2.5186">
        <ele>104</ele>
        <time>2022-04-27T12:47:35.131Z</time>
      </trkpt>
      <trkpt lat="48.40896" lon="2.51861">
        <ele>104</ele>
        <time>2022-04-27T12:47:40.135Z</time>
      </trkpt>
      <trkpt lat="48.40893" lon="2.51861">
        <ele>104</ele>
        <time>2022-04-27T12:47:45.134Z</time>
      </trkpt>
      <trkpt lat="48.4089" lon="2.51859">
        <ele>104</ele>
        <time>2022-04-27T12:47:50.141Z</time>
      </trkpt>
      <trkpt lat="48.40891" lon="2.51857">
        <ele>104</ele>
        <time>2022-04-27T12:47:55.136Z</time>
      </trkpt>
      <trkpt lat="48.40887" lon="2.51855">
        <ele>104</ele>
        <time>2022-04-27T12:48:00.125Z</time>
      </trkpt>
      <trkpt lat="48.40883" lon="2.51849">
        <ele>104</ele>
        <time>2022-04-27T12:48:04.131Z</time>
      </trkpt>
      <trkpt lat="48.40879" lon="2.51849">
        <ele>104</ele>
        <time>2022-04-27T12:48:08.138Z</time>
      </trkpt>
      <trkpt lat="48.40875" lon="2.51843">
        <ele>106</ele>
        <time>2022-04-27T12:48:13.134Z</time>
      </trkpt>
      <trkpt lat="48.40875" lon="2.5184">
        <ele>106</ele>
        <time>2022-04-27T12:48:18.126Z</time>
      </trkpt>
      <trkpt lat="48.40874" lon="2.51835">
        <ele>106</ele>
        <time>2022-04-27T12:48:23.138Z</time>
      </trkpt>
      <trkpt lat="48.40874" lon="2.51828">
        <ele>106</ele>
        <time>2022-04-27T12:48:28.143Z</time>
      </trkpt>
      <trkpt lat="48.40871" lon="2.51823">
        <ele>106</ele>
        <time>2022-04-27T12:48:33.133Z</time>
      </trkpt>
      <trkpt lat="48.4087" lon="2.51818">
        <ele>112</ele>
        <time>2022-04-27T12:48:38.140Z</time>
      </trkpt>
      <trkpt lat="48.40864" lon="2.51819">
        <ele>112</ele>
        <time>2022-04-27T12:48:43.138Z</time>
      </trkpt>
      <trkpt lat="48.40862" lon="2.51819">
        <ele>106</ele>
        <time>2022-04-27T12:48:47.146Z</time>
      </trkpt>
      <trkpt lat="48.40862" lon="2.51814">
        <ele>112</ele>
        <time>2022-04-27T12:48:52.131Z</time>
      </trkpt>
      <trkpt lat="48.40861" lon="2.51812">
        <ele>112</ele>
        <time>2022-04-27T12:48:56.130Z</time>
      </trkpt>
      <trkpt lat="48.40861" lon="2.51805">
        <ele>112</ele>
        <time>2022-04-27T12:49:01.148Z</time>
      </trkpt>
      <trkpt lat="48.40876" lon="2.51804">
        <ele>113</ele>
        <time>2022-04-27T12:49:21.127Z</time>
      </trkpt>
      <trkpt lat="48.40878" lon="2.51809">
        <ele>113</ele>
        <time>2022-04-27T12:49:26.120Z</time>
      </trkpt>
      <trkpt lat="48.4088" lon="2.5181">
        <ele>113</ele>
        <time>2022-04-27T12:49:30.127Z</time>
      </trkpt>
      <trkpt lat="48.40884" lon="2.51812">
        <ele>113</ele>
        <time>2022-04-27T12:49:35.132Z</time>
      </trkpt>
      <trkpt lat="48.40887" lon="2.5181">
        <ele>113</ele>
        <time>2022-04-27T12:49:40.136Z</time>
      </trkpt>
      <trkpt lat="48.40887" lon="2.51804">
        <ele>113</ele>
        <time>2022-04-27T12:49:50.136Z</time>
      </trkpt>
      <trkpt lat="48.40885" lon="2.518">
        <ele>113</ele>
        <time>2022-04-27T12:49:55.128Z</time>
      </trkpt>
      <trkpt lat="48.40885" lon="2.51797">
        <ele>113</ele>
        <time>2022-04-27T12:49:59.137Z</time>
      </trkpt>
      <trkpt lat="48.40887" lon="2.51793">
        <ele>113</ele>
        <time>2022-04-27T12:50:04.150Z</time>
      </trkpt>
      <trkpt lat="48.40885" lon="2.51785">
        <ele>117</ele>
        <time>2022-04-27T12:50:09.139Z</time>
      </trkpt>
      <trkpt lat="48.4089" lon="2.51773">
        <ele>117</ele>
        <time>2022-04-27T12:50:14.133Z</time>
      </trkpt>
      <trkpt lat="48.40897" lon="2.51773">
        <ele>117</ele>
        <time>2022-04-27T12:50:19.126Z</time>
      </trkpt>
      <trkpt lat="48.40901" lon="2.51773">
        <ele>117</ele>
        <time>2022-04-27T12:50:23.129Z</time>
      </trkpt>
      <trkpt lat="48.40902" lon="2.51773">
        <ele>117</ele>
        <time>2022-04-27T12:50:28.131Z</time>
      </trkpt>
      <trkpt lat="48.40903" lon="2.51767">
        <ele>117</ele>
        <time>2022-04-27T12:55:09.139Z</time>
      </trkpt>
      <trkpt lat="48.40905" lon="2.51763">
        <ele>120</ele>
        <time>2022-04-27T12:55:14.134Z</time>
      </trkpt>
      <trkpt lat="48.40906" lon="2.51759">
        <ele>120</ele>
        <time>2022-04-27T12:55:19.158Z</time>
      </trkpt>
      <trkpt lat="48.4091" lon="2.51758">
        <ele>120</ele>
        <time>2022-04-27T12:55:24.125Z</time>
      </trkpt>
      <trkpt lat="48.4091" lon="2.51752">
        <ele>120</ele>
        <time>2022-04-27T12:55:29.145Z</time>
      </trkpt>
      <trkpt lat="48.40914" lon="2.51752">
        <ele>120</ele>
        <time>2022-04-27T12:55:34.123Z</time>
      </trkpt>
      <trkpt lat="48.40917" lon="2.5175">
        <ele>120</ele>
        <time>2022-04-27T12:55:38.130Z</time>
      </trkpt>
      <trkpt lat="48.40919" lon="2.51746">
        <ele>120</ele>
        <time>2022-04-27T12:55:42.135Z</time>
      </trkpt>
      <trkpt lat="48.40921" lon="2.5174">
        <ele>120</ele>
        <time>2022-04-27T12:55:47.135Z</time>
      </trkpt>
      <trkpt lat="48.40923" lon="2.51735">
        <ele>122</ele>
        <time>2022-04-27T12:55:52.125Z</time>
      </trkpt>
      <trkpt lat="48.4093" lon="2.51732">
        <ele>122</ele>
        <time>2022-04-27T12:55:56.129Z</time>
      </trkpt>
      <trkpt lat="48.40933" lon="2.51729">
        <ele>119</ele>
        <time>2022-04-27T12:56:00.133Z</time>
      </trkpt>
      <trkpt lat="48.40935" lon="2.51724">
        <ele>119</ele>
        <time>2022-04-27T12:56:05.132Z</time>
      </trkpt>
      <trkpt lat="48.40934" lon="2.51718">
        <ele>119</ele>
        <time>2022-04-27T12:56:10.136Z</time>
      </trkpt>
      <trkpt lat="48.40935" lon="2.51713">
        <ele>119</ele>
        <time>2022-04-27T12:56:15.137Z</time>
      </trkpt>
      <trkpt lat="48.40936" lon="2.51707">
        <ele>121</ele>
        <time>2022-04-27T12:56:20.131Z</time>
      </trkpt>
      <trkpt lat="48.40935" lon="2.51701">
        <ele>121</ele>
        <time>2022-04-27T12:56:25.138Z</time>
      </trkpt>
      <trkpt lat="48.40933" lon="2.51676">
        <ele>120</ele>
        <time>2022-04-27T12:57:02.141Z</time>
      </trkpt>
      <trkpt lat="48.40934" lon="2.51675">
        <ele>120</ele>
        <time>2022-04-27T12:57:07.130Z</time>
      </trkpt>
      <trkpt lat="48.40936" lon="2.5167">
        <ele>120</ele>
        <time>2022-04-27T12:57:11.138Z</time>
      </trkpt>
      <trkpt lat="48.40938" lon="2.5167">
        <ele>120</ele>
        <time>2022-04-27T12:57:15.137Z</time>
      </trkpt>
      <trkpt lat="48.40938" lon="2.51662">
        <ele>120</ele>
        <time>2022-04-27T12:57:20.141Z</time>
      </trkpt>
      <trkpt lat="48.40939" lon="2.51651">
        <ele>117</ele>
        <time>2022-04-27T12:57:33.139Z</time>
      </trkpt>
      <trkpt lat="48.40938" lon="2.51645">
        <ele>117</ele>
        <time>2022-04-27T12:57:38.138Z</time>
      </trkpt>
      <trkpt lat="48.40938" lon="2.51642">
        <ele>117</ele>
        <time>2022-04-27T12:57:43.131Z</time>
      </trkpt>
      <trkpt lat="48.40936" lon="2.51636">
        <ele>117</ele>
        <time>2022-04-27T12:57:47.133Z</time>
      </trkpt>
      <trkpt lat="48.40935" lon="2.51629">
        <ele>117</ele>
        <time>2022-04-27T12:57:51.134Z</time>
      </trkpt>
      <trkpt lat="48.40933" lon="2.51626">
        <ele>117</ele>
        <time>2022-04-27T12:57:56.142Z</time>
      </trkpt>
      <trkpt lat="48.40933" lon="2.51623">
        <ele>115</ele>
        <time>2022-04-27T12:58:00.137Z</time>
      </trkpt>
      <trkpt lat="48.40927" lon="2.51619">
        <ele>114</ele>
        <time>2022-04-27T12:58:05.136Z</time>
      </trkpt>
      <trkpt lat="48.40924" lon="2.51618">
        <ele>114</ele>
        <time>2022-04-27T12:58:10.140Z</time>
      </trkpt>
      <trkpt lat="48.40923" lon="2.5162">
        <ele>114</ele>
        <time>2022-04-27T12:58:15.139Z</time>
      </trkpt>
      <trkpt lat="48.4092" lon="2.51616">
        <ele>114</ele>
        <time>2022-04-27T12:58:20.123Z</time>
      </trkpt>
      <trkpt lat="48.40922" lon="2.51605">
        <ele>114</ele>
        <time>2022-04-27T12:58:24.132Z</time>
      </trkpt>
      <trkpt lat="48.40922" lon="2.51605">
        <ele>114</ele>
        <time>2022-04-27T12:58:28.131Z</time>
      </trkpt>
      <trkpt lat="48.4092" lon="2.51597">
        <ele>112</ele>
        <time>2022-04-27T12:59:32.139Z</time>
      </trkpt>
      <trkpt lat="48.40917" lon="2.51599">
        <ele>114</ele>
        <time>2022-04-27T12:59:36.132Z</time>
      </trkpt>
      <trkpt lat="48.40914" lon="2.51595">
        <ele>112</ele>
        <time>2022-04-27T12:59:41.130Z</time>
      </trkpt>
      <trkpt lat="48.40911" lon="2.51592">
        <ele>112</ele>
        <time>2022-04-27T12:59:45.132Z</time>
      </trkpt>
      <trkpt lat="48.40908" lon="2.51589">
        <ele>112</ele>
        <time>2022-04-27T12:59:49.130Z</time>
      </trkpt>
      <trkpt lat="48.40903" lon="2.51583">
        <ele>112</ele>
        <time>2022-04-27T12:59:54.133Z</time>
      </trkpt>
      <trkpt lat="48.40904" lon="2.51581">
        <ele>112</ele>
        <time>2022-04-27T12:59:59.137Z</time>
      </trkpt>
      <trkpt lat="48.40901" lon="2.51576">
        <ele>110</ele>
        <time>2022-04-27T13:00:03.136Z</time>
      </trkpt>
      <trkpt lat="48.40898" lon="2.51572">
        <ele>110</ele>
        <time>2022-04-27T13:00:07.146Z</time>
      </trkpt>
      <trkpt lat="48.40894" lon="2.51574">
        <ele>110</ele>
        <time>2022-04-27T13:00:12.123Z</time>
      </trkpt>
      <trkpt lat="48.40892" lon="2.51569">
        <ele>107</ele>
        <time>2022-04-27T13:02:04.143Z</time>
      </trkpt>
      <trkpt lat="48.40892" lon="2.51569">
        <ele>107</ele>
        <time>2022-04-27T13:02:09.133Z</time>
      </trkpt>
      <trkpt lat="48.40892" lon="2.51568">
        <ele>107</ele>
        <time>2022-04-27T13:02:14.137Z</time>
      </trkpt>
      <trkpt lat="48.40892" lon="2.51563">
        <ele>107</ele>
        <time>2022-04-27T13:02:19.135Z</time>
      </trkpt>
      <trkpt lat="48.40892" lon="2.51555">
        <ele>107</ele>
        <time>2022-04-27T13:02:24.139Z</time>
      </trkpt>
      <trkpt lat="48.40894" lon="2.51549">
        <ele>107</ele>
        <time>2022-04-27T13:02:28.143Z</time>
      </trkpt>
      <trkpt lat="48.40896" lon="2.51543">
        <ele>107</ele>
        <time>2022-04-27T13:02:33.140Z</time>
      </trkpt>
      <trkpt lat="48.40893" lon="2.51537">
        <ele>103</ele>
        <time>2022-04-27T13:02:38.136Z</time>
      </trkpt>
      <trkpt lat="48.40892" lon="2.5153">
        <ele>103</ele>
        <time>2022-04-27T13:02:42.137Z</time>
      </trkpt>
      <trkpt lat="48.40893" lon="2.51524">
        <ele>103</ele>
        <time>2022-04-27T13:02:47.127Z</time>
      </trkpt>
      <trkpt lat="48.40893" lon="2.51518">
        <ele>103</ele>
        <time>2022-04-27T13:02:51.141Z</time>
      </trkpt>
      <trkpt lat="48.40893" lon="2.51509">
        <ele>100</ele>
        <time>2022-04-27T13:02:56.132Z</time>
      </trkpt>
      <trkpt lat="48.40895" lon="2.51503">
        <ele>100</ele>
        <time>2022-04-27T13:03:01.143Z</time>
      </trkpt>
      <trkpt lat="48.409" lon="2.5151">
        <ele>100</ele>
        <time>2022-04-27T13:03:06.123Z</time>
      </trkpt>
      <trkpt lat="48.40901" lon="2.51506">
        <ele>100</ele>
        <time>2022-04-27T13:03:10.130Z</time>
      </trkpt>
      <trkpt lat="48.40903" lon="2.51502">
        <ele>105</ele>
        <time>2022-04-27T13:03:15.131Z</time>
      </trkpt>
      <trkpt lat="48.40905" lon="2.515">
        <ele>105</ele>
        <time>2022-04-27T13:03:20.122Z</time>
      </trkpt>
      <trkpt lat="48.40908" lon="2.51502">
        <ele>105</ele>
        <time>2022-04-27T13:03:25.133Z</time>
      </trkpt>
      <trkpt lat="48.40911" lon="2.51505">
        <ele>105</ele>
        <time>2022-04-27T13:03:35.123Z</time>
      </trkpt>
      <trkpt lat="48.40912" lon="2.51508">
        <ele>105</ele>
        <time>2022-04-27T13:03:39.134Z</time>
      </trkpt>
      <trkpt lat="48.40915" lon="2.51504">
        <ele>105</ele>
        <time>2022-04-27T13:03:44.124Z</time>
      </trkpt>
      <trkpt lat="48.40919" lon="2.51504">
        <ele>105</ele>
        <time>2022-04-27T13:03:49.132Z</time>
      </trkpt>
      <trkpt lat="48.40926" lon="2.51509">
        <ele>105</ele>
        <time>2022-04-27T13:03:54.130Z</time>
      </trkpt>
      <trkpt lat="48.40941" lon="2.51509">
        <ele>107</ele>
        <time>2022-04-27T13:04:46.125Z</time>
      </trkpt>
      <trkpt lat="48.40942" lon="2.51505">
        <ele>107</ele>
        <time>2022-04-27T13:04:50.137Z</time>
      </trkpt>
      <trkpt lat="48.40945" lon="2.51501">
        <ele>107</ele>
        <time>2022-04-27T13:04:54.143Z</time>
      </trkpt>
      <trkpt lat="48.40949" lon="2.51497">
        <ele>107</ele>
        <time>2022-04-27T13:04:59.133Z</time>
      </trkpt>
      <trkpt lat="48.40962" lon="2.5151">
        <ele>106</ele>
        <time>2022-04-27T13:05:03.130Z</time>
      </trkpt>
      <trkpt lat="48.40969" lon="2.51519">
        <ele>105</ele>
        <time>2022-04-27T13:05:08.139Z</time>
      </trkpt>
      <trkpt lat="48.40962" lon="2.5151">
        <ele>106</ele>
        <time>2022-04-27T13:05:13.129Z</time>
      </trkpt>
      <trkpt lat="48.40962" lon="2.51509">
        <ele>106</ele>
        <time>2022-04-27T13:05:17.133Z</time>
      </trkpt>
      <trkpt lat="48.40962" lon="2.51509">
        <ele>106</ele>
        <time>2022-04-27T13:05:22.133Z</time>
      </trkpt>
      <trkpt lat="48.40967" lon="2.51504">
        <ele>106</ele>
        <time>2022-04-27T13:05:54.127Z</time>
      </trkpt>
      <trkpt lat="48.40994" lon="2.51507">
        <ele>103</ele>
        <time>2022-04-27T13:05:59.124Z</time>
      </trkpt>
      <trkpt lat="48.41" lon="2.51509">
        <ele>103</ele>
        <time>2022-04-27T13:06:04.122Z</time>
      </trkpt>
      <trkpt lat="48.41005" lon="2.5151">
        <ele>103</ele>
        <time>2022-04-27T13:06:09.123Z</time>
      </trkpt>
      <trkpt lat="48.41008" lon="2.5151">
        <ele>103</ele>
        <time>2022-04-27T13:06:14.123Z</time>
      </trkpt>
      <trkpt lat="48.41014" lon="2.51511">
        <ele>103</ele>
        <time>2022-04-27T13:06:19.123Z</time>
      </trkpt>
      <trkpt lat="48.41017" lon="2.51518">
        <ele>96</ele>
        <time>2022-04-27T13:06:24.122Z</time>
      </trkpt>
      <trkpt lat="48.41021" lon="2.51522">
        <ele>96</ele>
        <time>2022-04-27T13:06:29.123Z</time>
      </trkpt>
      <trkpt lat="48.41023" lon="2.51525">
        <ele>96</ele>
        <time>2022-04-27T13:06:33.132Z</time>
      </trkpt>
      <trkpt lat="48.41027" lon="2.51526">
        <ele>96</ele>
        <time>2022-04-27T13:06:38.125Z</time>
      </trkpt>
      <trkpt lat="48.4103" lon="2.51526">
        <ele>96</ele>
        <time>2022-04-27T13:06:43.125Z</time>
      </trkpt>
      <trkpt lat="48.41036" lon="2.51524">
        <ele>96</ele>
        <time>2022-04-27T13:06:48.128Z</time>
      </trkpt>
      <trkpt lat="48.41039" lon="2.51521">
        <ele>96</ele>
        <time>2022-04-27T13:06:53.121Z</time>
      </trkpt>
      <trkpt lat="48.41039" lon="2.51518">
        <ele>96</ele>
        <time>2022-04-27T13:06:57.127Z</time>
      </trkpt>
      <trkpt lat="48.41042" lon="2.51515">
        <ele>90</ele>
        <time>2022-04-27T13:07:02.133Z</time>
      </trkpt>
      <trkpt lat="48.41047" lon="2.51514">
        <ele>90</ele>
        <time>2022-04-27T13:07:07.127Z</time>
      </trkpt>
      <trkpt lat="48.41051" lon="2.51508">
        <ele>91</ele>
        <time>2022-04-27T13:07:12.126Z</time>
      </trkpt>
      <trkpt lat="48.41054" lon="2.51501">
        <ele>91</ele>
        <time>2022-04-27T13:07:17.128Z</time>
      </trkpt>
      <trkpt lat="48.41056" lon="2.51496">
        <ele>91</ele>
        <time>2022-04-27T13:07:21.133Z</time>
      </trkpt>
      <trkpt lat="48.41059" lon="2.51488">
        <ele>91</ele>
        <time>2022-04-27T13:07:26.133Z</time>
      </trkpt>
      <trkpt lat="48.41064" lon="2.51481">
        <ele>93</ele>
        <time>2022-04-27T13:07:31.130Z</time>
      </trkpt>
      <trkpt lat="48.41067" lon="2.51472">
        <ele>93</ele>
        <time>2022-04-27T13:07:36.127Z</time>
      </trkpt>
      <trkpt lat="48.41069" lon="2.51466">
        <ele>93</ele>
        <time>2022-04-27T13:07:40.122Z</time>
      </trkpt>
      <trkpt lat="48.41071" lon="2.51461">
        <ele>91</ele>
        <time>2022-04-27T13:07:44.132Z</time>
      </trkpt>
      <trkpt lat="48.41073" lon="2.51455">
        <ele>91</ele>
        <time>2022-04-27T13:07:49.126Z</time>
      </trkpt>
      <trkpt lat="48.41074" lon="2.5145">
        <ele>91</ele>
        <time>2022-04-27T13:07:53.133Z</time>
      </trkpt>
      <trkpt lat="48.41075" lon="2.51444">
        <ele>91</ele>
        <time>2022-04-27T13:07:58.127Z</time>
      </trkpt>
      <trkpt lat="48.41077" lon="2.51437">
        <ele>91</ele>
        <time>2022-04-27T13:08:03.125Z</time>
      </trkpt>
      <trkpt lat="48.41079" lon="2.51431">
        <ele>91</ele>
        <time>2022-04-27T13:08:07.129Z</time>
      </trkpt>
      <trkpt lat="48.41081" lon="2.51424">
        <ele>91</ele>
        <time>2022-04-27T13:08:12.121Z</time>
      </trkpt>
      <trkpt lat="48.41082" lon="2.51419">
        <ele>91</ele>
        <time>2022-04-27T13:08:16.130Z</time>
      </trkpt>
      <trkpt lat="48.41082" lon="2.51413">
        <ele>91</ele>
        <time>2022-04-27T13:08:20.137Z</time>
      </trkpt>
      <trkpt lat="48.41083" lon="2.51406">
        <ele>91</ele>
        <time>2022-04-27T13:08:25.131Z</time>
      </trkpt>
      <trkpt lat="48.41085" lon="2.51399">
        <ele>92</ele>
        <time>2022-04-27T13:08:30.136Z</time>
      </trkpt>
      <trkpt lat="48.41088" lon="2.51394">
        <ele>92</ele>
        <time>2022-04-27T13:08:34.134Z</time>
      </trkpt>
      <trkpt lat="48.41089" lon="2.51386">
        <ele>92</ele>
        <time>2022-04-27T13:08:39.134Z</time>
      </trkpt>
      <trkpt lat="48.4109" lon="2.51377">
        <ele>92</ele>
        <time>2022-04-27T13:08:44.131Z</time>
      </trkpt>
      <trkpt lat="48.41093" lon="2.51369">
        <ele>93</ele>
        <time>2022-04-27T13:08:49.133Z</time>
      </trkpt>
      <trkpt lat="48.41095" lon="2.51359">
        <ele>93</ele>
        <time>2022-04-27T13:08:54.123Z</time>
      </trkpt>
      <trkpt lat="48.41096" lon="2.51349">
        <ele>93</ele>
        <time>2022-04-27T13:08:59.125Z</time>
      </trkpt>
      <trkpt lat="48.41097" lon="2.51342">
        <ele>95</ele>
        <time>2022-04-27T13:09:03.128Z</time>
      </trkpt>
      <trkpt lat="48.41098" lon="2.51336">
        <ele>90</ele>
        <time>2022-04-27T13:09:07.133Z</time>
      </trkpt>
      <trkpt lat="48.41099" lon="2.51323">
        <ele>90</ele>
        <time>2022-04-27T13:09:12.120Z</time>
      </trkpt>
      <trkpt lat="48.41102" lon="2.51315">
        <ele>90</ele>
        <time>2022-04-27T13:09:17.134Z</time>
      </trkpt>
      <trkpt lat="48.41102" lon="2.51306">
        <ele>90</ele>
        <time>2022-04-27T13:09:22.141Z</time>
      </trkpt>
      <trkpt lat="48.41103" lon="2.51297">
        <ele>90</ele>
        <time>2022-04-27T13:09:27.125Z</time>
      </trkpt>
      <trkpt lat="48.41105" lon="2.51289">
        <ele>91</ele>
        <time>2022-04-27T13:09:32.133Z</time>
      </trkpt>
      <trkpt lat="48.41107" lon="2.51281">
        <ele>91</ele>
        <time>2022-04-27T13:09:37.126Z</time>
      </trkpt>
      <trkpt lat="48.41109" lon="2.51275">
        <ele>91</ele>
        <time>2022-04-27T13:09:41.138Z</time>
      </trkpt>
      <trkpt lat="48.4111" lon="2.51267">
        <ele>91</ele>
        <time>2022-04-27T13:09:46.148Z</time>
      </trkpt>
      <trkpt lat="48.41112" lon="2.51259">
        <ele>93</ele>
        <time>2022-04-27T13:09:51.124Z</time>
      </trkpt>
      <trkpt lat="48.41113" lon="2.51252">
        <ele>93</ele>
        <time>2022-04-27T13:09:55.126Z</time>
      </trkpt>
      <trkpt lat="48.41115" lon="2.51245">
        <ele>93</ele>
        <time>2022-04-27T13:10:00.126Z</time>
      </trkpt>
      <trkpt lat="48.41116" lon="2.51239">
        <ele>93</ele>
        <time>2022-04-27T13:10:04.127Z</time>
      </trkpt>
      <trkpt lat="48.41117" lon="2.51229">
        <ele>95</ele>
        <time>2022-04-27T13:10:09.125Z</time>
      </trkpt>
      <trkpt lat="48.4112" lon="2.51223">
        <ele>95</ele>
        <time>2022-04-27T13:10:13.133Z</time>
      </trkpt>
      <trkpt lat="48.41123" lon="2.5121">
        <ele>95</ele>
        <time>2022-04-27T13:10:18.124Z</time>
      </trkpt>
      <trkpt lat="48.41127" lon="2.51204">
        <ele>94</ele>
        <time>2022-04-27T13:10:23.126Z</time>
      </trkpt>
      <trkpt lat="48.4113" lon="2.51196">
        <ele>94</ele>
        <time>2022-04-27T13:10:28.124Z</time>
      </trkpt>
      <trkpt lat="48.41132" lon="2.5119">
        <ele>94</ele>
        <time>2022-04-27T13:10:33.124Z</time>
      </trkpt>
      <trkpt lat="48.41133" lon="2.51185">
        <ele>94</ele>
        <time>2022-04-27T13:10:38.125Z</time>
      </trkpt>
      <trkpt lat="48.41133" lon="2.5118">
        <ele>96</ele>
        <time>2022-04-27T13:10:42.128Z</time>
      </trkpt>
      <trkpt lat="48.41133" lon="2.51174">
        <ele>96</ele>
        <time>2022-04-27T13:10:46.131Z</time>
      </trkpt>
      <trkpt lat="48.41134" lon="2.51169">
        <ele>96</ele>
        <time>2022-04-27T13:10:50.134Z</time>
      </trkpt>
      <trkpt lat="48.41136" lon="2.5116">
        <ele>96</ele>
        <time>2022-04-27T13:10:55.130Z</time>
      </trkpt>
      <trkpt lat="48.41137" lon="2.51153">
        <ele>96</ele>
        <time>2022-04-27T13:11:00.133Z</time>
      </trkpt>
      <trkpt lat="48.41139" lon="2.51144">
        <ele>97</ele>
        <time>2022-04-27T13:11:05.122Z</time>
      </trkpt>
      <trkpt lat="48.41142" lon="2.51141">
        <ele>97</ele>
        <time>2022-04-27T13:11:09.126Z</time>
      </trkpt>
      <trkpt lat="48.41146" lon="2.51137">
        <ele>97</ele>
        <time>2022-04-27T13:11:14.129Z</time>
      </trkpt>
      <trkpt lat="48.41148" lon="2.51132">
        <ele>97</ele>
        <time>2022-04-27T13:11:18.131Z</time>
      </trkpt>
      <trkpt lat="48.41151" lon="2.51124">
        <ele>96</ele>
        <time>2022-04-27T13:11:22.137Z</time>
      </trkpt>
      <trkpt lat="48.41151" lon="2.51112">
        <ele>96</ele>
        <time>2022-04-27T13:11:27.137Z</time>
      </trkpt>
      <trkpt lat="48.41154" lon="2.51105">
        <ele>93</ele>
        <time>2022-04-27T13:11:32.132Z</time>
      </trkpt>
      <trkpt lat="48.41157" lon="2.51097">
        <ele>93</ele>
        <time>2022-04-27T13:11:37.130Z</time>
      </trkpt>
      <trkpt lat="48.41157" lon="2.51087">
        <ele>93</ele>
        <time>2022-04-27T13:11:42.136Z</time>
      </trkpt>
      <trkpt lat="48.41158" lon="2.51079">
        <ele>93</ele>
        <time>2022-04-27T13:11:47.136Z</time>
      </trkpt>
      <trkpt lat="48.41161" lon="2.51072">
        <ele>93</ele>
        <time>2022-04-27T13:11:52.122Z</time>
      </trkpt>
      <trkpt lat="48.41162" lon="2.51066">
        <ele>94</ele>
        <time>2022-04-27T13:11:56.125Z</time>
      </trkpt>
      <trkpt lat="48.41162" lon="2.51057">
        <ele>94</ele>
        <time>2022-04-27T13:12:01.131Z</time>
      </trkpt>
      <trkpt lat="48.41165" lon="2.51053">
        <ele>94</ele>
        <time>2022-04-27T13:12:06.127Z</time>
      </trkpt>
      <trkpt lat="48.41169" lon="2.51056">
        <ele>94</ele>
        <time>2022-04-27T13:12:11.125Z</time>
      </trkpt>
      <trkpt lat="48.41172" lon="2.51055">
        <ele>94</ele>
        <time>2022-04-27T13:12:16.123Z</time>
      </trkpt>
      <trkpt lat="48.41175" lon="2.51026">
        <ele>96</ele>
        <time>2022-04-27T13:12:21.124Z</time>
      </trkpt>
      <trkpt lat="48.41177" lon="2.51024">
        <ele>96</ele>
        <time>2022-04-27T13:12:26.124Z</time>
      </trkpt>
      <trkpt lat="48.41181" lon="2.51021">
        <ele>98</ele>
        <time>2022-04-27T13:12:31.121Z</time>
      </trkpt>
      <trkpt lat="48.41184" lon="2.51016">
        <ele>98</ele>
        <time>2022-04-27T13:12:35.125Z</time>
      </trkpt>
      <trkpt lat="48.41188" lon="2.51012">
        <ele>100</ele>
        <time>2022-04-27T13:12:39.128Z</time>
      </trkpt>
      <trkpt lat="48.41192" lon="2.51007">
        <ele>100</ele>
        <time>2022-04-27T13:12:44.126Z</time>
      </trkpt>
      <trkpt lat="48.41199" lon="2.51001">
        <ele>100</ele>
        <time>2022-04-27T13:12:49.129Z</time>
      </trkpt>
      <trkpt lat="48.41203" lon="2.50999">
        <ele>100</ele>
        <time>2022-04-27T13:12:54.129Z</time>
      </trkpt>
      <trkpt lat="48.41205" lon="2.50998">
        <ele>100</ele>
        <time>2022-04-27T13:12:58.130Z</time>
      </trkpt>
      <trkpt lat="48.41209" lon="2.50995">
        <ele>99</ele>
        <time>2022-04-27T13:13:03.130Z</time>
      </trkpt>
      <trkpt lat="48.41213" lon="2.50993">
        <ele>99</ele>
        <time>2022-04-27T13:13:08.131Z</time>
      </trkpt>
      <trkpt lat="48.41217" lon="2.5099">
        <ele>99</ele>
        <time>2022-04-27T13:13:13.130Z</time>
      </trkpt>
      <trkpt lat="48.41222" lon="2.50988">
        <ele>99</ele>
        <time>2022-04-27T13:13:18.129Z</time>
      </trkpt>
      <trkpt lat="48.41228" lon="2.50985">
        <ele>102</ele>
        <time>2022-04-27T13:13:23.125Z</time>
      </trkpt>
      <trkpt lat="48.41233" lon="2.50982">
        <ele>102</ele>
        <time>2022-04-27T13:13:27.130Z</time>
      </trkpt>
      <trkpt lat="48.41238" lon="2.5098">
        <ele>103</ele>
        <time>2022-04-27T13:13:32.133Z</time>
      </trkpt>
      <trkpt lat="48.41242" lon="2.50977">
        <ele>103</ele>
        <time>2022-04-27T13:13:37.126Z</time>
      </trkpt>
      <trkpt lat="48.41245" lon="2.50973">
        <ele>103</ele>
        <time>2022-04-27T13:13:42.128Z</time>
      </trkpt>
      <trkpt lat="48.4125" lon="2.50971">
        <ele>103</ele>
        <time>2022-04-27T13:13:47.126Z</time>
      </trkpt>
      <trkpt lat="48.41255" lon="2.5097">
        <ele>103</ele>
        <time>2022-04-27T13:13:52.125Z</time>
      </trkpt>
      <trkpt lat="48.41257" lon="2.50966">
        <ele>103</ele>
        <time>2022-04-27T13:13:57.137Z</time>
      </trkpt>
      <trkpt lat="48.4126" lon="2.50965">
        <ele>103</ele>
        <time>2022-04-27T13:14:02.123Z</time>
      </trkpt>
      <trkpt lat="48.41265" lon="2.50963">
        <ele>105</ele>
        <time>2022-04-27T13:14:07.127Z</time>
      </trkpt>
      <trkpt lat="48.41268" lon="2.50962">
        <ele>105</ele>
        <time>2022-04-27T13:14:11.130Z</time>
      </trkpt>
      <trkpt lat="48.41272" lon="2.50959">
        <ele>105</ele>
        <time>2022-04-27T13:14:16.124Z</time>
      </trkpt>
      <trkpt lat="48.41274" lon="2.50958">
        <ele>109</ele>
        <time>2022-04-27T13:14:20.139Z</time>
      </trkpt>
      <trkpt lat="48.4128" lon="2.50954">
        <ele>109</ele>
        <time>2022-04-27T13:14:25.146Z</time>
      </trkpt>
      <trkpt lat="48.41286" lon="2.5095">
        <ele>109</ele>
        <time>2022-04-27T13:14:30.124Z</time>
      </trkpt>
      <trkpt lat="48.41291" lon="2.50947">
        <ele>109</ele>
        <time>2022-04-27T13:14:35.119Z</time>
      </trkpt>
      <trkpt lat="48.41295" lon="2.50945">
        <ele>113</ele>
        <time>2022-04-27T13:14:39.122Z</time>
      </trkpt>
      <trkpt lat="48.413" lon="2.50942">
        <ele>113</ele>
        <time>2022-04-27T13:14:44.120Z</time>
      </trkpt>
      <trkpt lat="48.41303" lon="2.50939">
        <ele>113</ele>
        <time>2022-04-27T13:14:49.121Z</time>
      </trkpt>
      <trkpt lat="48.41304" lon="2.50935">
        <ele>113</ele>
        <time>2022-04-27T13:14:54.123Z</time>
      </trkpt>
      <trkpt lat="48.41309" lon="2.50938">
        <ele>113</ele>
        <time>2022-04-27T13:14:59.127Z</time>
      </trkpt>
      <trkpt lat="48.41313" lon="2.50937">
        <ele>113</ele>
        <time>2022-04-27T13:15:04.122Z</time>
      </trkpt>
      <trkpt lat="48.41317" lon="2.50937">
        <ele>113</ele>
        <time>2022-04-27T13:15:09.129Z</time>
      </trkpt>
      <trkpt lat="48.4132" lon="2.50935">
        <ele>118</ele>
        <time>2022-04-27T13:15:14.129Z</time>
      </trkpt>
      <trkpt lat="48.41325" lon="2.50937">
        <ele>118</ele>
        <time>2022-04-27T13:15:19.130Z</time>
      </trkpt>
      <trkpt lat="48.41328" lon="2.50935">
        <ele>118</ele>
        <time>2022-04-27T13:15:24.124Z</time>
      </trkpt>
      <trkpt lat="48.41334" lon="2.50932">
        <ele>118</ele>
        <time>2022-04-27T13:15:43.131Z</time>
      </trkpt>
      <trkpt lat="48.41335" lon="2.5093">
        <ele>121</ele>
        <time>2022-04-27T13:15:48.128Z</time>
      </trkpt>
      <trkpt lat="48.41336" lon="2.5093">
        <ele>121</ele>
        <time>2022-04-27T13:15:52.124Z</time>
      </trkpt>
      <trkpt lat="48.41339" lon="2.50929">
        <ele>121</ele>
        <time>2022-04-27T13:15:57.133Z</time>
      </trkpt>
      <trkpt lat="48.4134" lon="2.50929">
        <ele>121</ele>
        <time>2022-04-27T13:16:01.152Z</time>
      </trkpt>
      <trkpt lat="48.41347" lon="2.50925">
        <ele>121</ele>
        <time>2022-04-27T13:16:25.126Z</time>
      </trkpt>
      <trkpt lat="48.41348" lon="2.50927">
        <ele>125</ele>
        <time>2022-04-27T13:16:29.130Z</time>
      </trkpt>
      <trkpt lat="48.41349" lon="2.50928">
        <ele>125</ele>
        <time>2022-04-27T13:16:34.126Z</time>
      </trkpt>
      <trkpt lat="48.41352" lon="2.50929">
        <ele>125</ele>
        <time>2022-04-27T13:16:39.129Z</time>
      </trkpt>
      <trkpt lat="48.41354" lon="2.50929">
        <ele>125</ele>
        <time>2022-04-27T13:16:44.124Z</time>
      </trkpt>
      <trkpt lat="48.41352" lon="2.50926">
        <ele>125</ele>
        <time>2022-04-27T13:20:39.133Z</time>
      </trkpt>
      <trkpt lat="48.41352" lon="2.50926">
        <ele>125</ele>
        <time>2022-04-27T13:20:44.122Z</time>
      </trkpt>
      <trkpt lat="48.41353" lon="2.50923">
        <ele>125</ele>
        <time>2022-04-27T13:20:48.123Z</time>
      </trkpt>
      <trkpt lat="48.41356" lon="2.50918">
        <ele>125</ele>
        <time>2022-04-27T13:20:53.142Z</time>
      </trkpt>
      <trkpt lat="48.41357" lon="2.50915">
        <ele>125</ele>
        <time>2022-04-27T13:20:58.122Z</time>
      </trkpt>
      <trkpt lat="48.41359" lon="2.50912">
        <ele>125</ele>
        <time>2022-04-27T13:21:02.133Z</time>
      </trkpt>
      <trkpt lat="48.41364" lon="2.50909">
        <ele>125</ele>
        <time>2022-04-27T13:21:07.128Z</time>
      </trkpt>
      <trkpt lat="48.41366" lon="2.50907">
        <ele>125</ele>
        <time>2022-04-27T13:21:11.144Z</time>
      </trkpt>
      <trkpt lat="48.41371" lon="2.50904">
        <ele>125</ele>
        <time>2022-04-27T13:21:16.128Z</time>
      </trkpt>
      <trkpt lat="48.41374" lon="2.50903">
        <ele>125</ele>
        <time>2022-04-27T13:21:20.133Z</time>
      </trkpt>
      <trkpt lat="48.41378" lon="2.50901">
        <ele>128</ele>
        <time>2022-04-27T13:21:25.128Z</time>
      </trkpt>
      <trkpt lat="48.41383" lon="2.50899">
        <ele>128</ele>
        <time>2022-04-27T13:21:30.131Z</time>
      </trkpt>
      <trkpt lat="48.41389" lon="2.50898">
        <ele>128</ele>
        <time>2022-04-27T13:21:35.129Z</time>
      </trkpt>
      <trkpt lat="48.41394" lon="2.50896">
        <ele>128</ele>
        <time>2022-04-27T13:21:40.125Z</time>
      </trkpt>
      <trkpt lat="48.41401" lon="2.50893">
        <ele>128</ele>
        <time>2022-04-27T13:21:45.128Z</time>
      </trkpt>
      <trkpt lat="48.41405" lon="2.50891">
        <ele>128</ele>
        <time>2022-04-27T13:21:49.157Z</time>
      </trkpt>
      <trkpt lat="48.41409" lon="2.50887">
        <ele>128</ele>
        <time>2022-04-27T13:21:54.130Z</time>
      </trkpt>
      <trkpt lat="48.41409" lon="2.50886">
        <ele>128</ele>
        <time>2022-04-27T13:22:11.150Z</time>
      </trkpt>
      <trkpt lat="48.41419" lon="2.50887">
        <ele>128</ele>
        <time>2022-04-27T13:22:16.129Z</time>
      </trkpt>
      <trkpt lat="48.41426" lon="2.50888">
        <ele>128</ele>
        <time>2022-04-27T13:22:21.118Z</time>
      </trkpt>
      <trkpt lat="48.41434" lon="2.50889">
        <ele>130</ele>
        <time>2022-04-27T13:22:26.128Z</time>
      </trkpt>
      <trkpt lat="48.41442" lon="2.50888">
        <ele>130</ele>
        <time>2022-04-27T13:22:30.150Z</time>
      </trkpt>
      <trkpt lat="48.41448" lon="2.50887">
        <ele>130</ele>
        <time>2022-04-27T13:22:35.123Z</time>
      </trkpt>
      <trkpt lat="48.41453" lon="2.50886">
        <ele>130</ele>
        <time>2022-04-27T13:22:39.133Z</time>
      </trkpt>
      <trkpt lat="48.4146" lon="2.50885">
        <ele>132</ele>
        <time>2022-04-27T13:22:44.125Z</time>
      </trkpt>
      <trkpt lat="48.41468" lon="2.50883">
        <ele>132</ele>
        <time>2022-04-27T13:22:49.136Z</time>
      </trkpt>
      <trkpt lat="48.41475" lon="2.50879">
        <ele>132</ele>
        <time>2022-04-27T13:22:54.127Z</time>
      </trkpt>
      <trkpt lat="48.41481" lon="2.50877">
        <ele>132</ele>
        <time>2022-04-27T13:22:59.132Z</time>
      </trkpt>
      <trkpt lat="48.41486" lon="2.50874">
        <ele>131</ele>
        <time>2022-04-27T13:23:04.133Z</time>
      </trkpt>
      <trkpt lat="48.41489" lon="2.50866">
        <ele>131</ele>
        <time>2022-04-27T13:23:08.137Z</time>
      </trkpt>
      <trkpt lat="48.4149" lon="2.50855">
        <ele>131</ele>
        <time>2022-04-27T13:23:13.131Z</time>
      </trkpt>
      <trkpt lat="48.41488" lon="2.50846">
        <ele>128</ele>
        <time>2022-04-27T13:23:18.119Z</time>
      </trkpt>
      <trkpt lat="48.41485" lon="2.50837">
        <ele>127</ele>
        <time>2022-04-27T13:23:23.131Z</time>
      </trkpt>
      <trkpt lat="48.41484" lon="2.50828">
        <ele>127</ele>
        <time>2022-04-27T13:23:27.132Z</time>
      </trkpt>
      <trkpt lat="48.41486" lon="2.50819">
        <ele>126</ele>
        <time>2022-04-27T13:23:32.135Z</time>
      </trkpt>
      <trkpt lat="48.41488" lon="2.50813">
        <ele>126</ele>
        <time>2022-04-27T13:23:36.136Z</time>
      </trkpt>
      <trkpt lat="48.41491" lon="2.50806">
        <ele>126</ele>
        <time>2022-04-27T13:23:41.123Z</time>
      </trkpt>
      <trkpt lat="48.41494" lon="2.50799">
        <ele>126</ele>
        <time>2022-04-27T13:23:46.127Z</time>
      </trkpt>
      <trkpt lat="48.41497" lon="2.50792">
        <ele>126</ele>
        <time>2022-04-27T13:23:51.125Z</time>
      </trkpt>
      <trkpt lat="48.41498" lon="2.50783">
        <ele>124</ele>
        <time>2022-04-27T13:23:56.128Z</time>
      </trkpt>
      <trkpt lat="48.41498" lon="2.50775">
        <ele>124</ele>
        <time>2022-04-27T13:24:01.126Z</time>
      </trkpt>
      <trkpt lat="48.41498" lon="2.50767">
        <ele>124</ele>
        <time>2022-04-27T13:24:06.130Z</time>
      </trkpt>
      <trkpt lat="48.41497" lon="2.50758">
        <ele>123</ele>
        <time>2022-04-27T13:24:11.137Z</time>
      </trkpt>
      <trkpt lat="48.41494" lon="2.5075">
        <ele>123</ele>
        <time>2022-04-27T13:24:16.121Z</time>
      </trkpt>
      <trkpt lat="48.41493" lon="2.50743">
        <ele>123</ele>
        <time>2022-04-27T13:24:20.129Z</time>
      </trkpt>
      <trkpt lat="48.41493" lon="2.50735">
        <ele>123</ele>
        <time>2022-04-27T13:24:25.124Z</time>
      </trkpt>
      <trkpt lat="48.41491" lon="2.50729">
        <ele>123</ele>
        <time>2022-04-27T13:24:29.125Z</time>
      </trkpt>
      <trkpt lat="48.41489" lon="2.50721">
        <ele>123</ele>
        <time>2022-04-27T13:24:34.133Z</time>
      </trkpt>
      <trkpt lat="48.41489" lon="2.50712">
        <ele>123</ele>
        <time>2022-04-27T13:24:39.145Z</time>
      </trkpt>
      <trkpt lat="48.41498" lon="2.50712">
        <ele>123</ele>
        <time>2022-04-27T13:24:44.134Z</time>
      </trkpt>
      <trkpt lat="48.41503" lon="2.5071">
        <ele>123</ele>
        <time>2022-04-27T13:24:48.137Z</time>
      </trkpt>
      <trkpt lat="48.4151" lon="2.50706">
        <ele>122</ele>
        <time>2022-04-27T13:24:53.130Z</time>
      </trkpt>
      <trkpt lat="48.41515" lon="2.50704">
        <ele>125</ele>
        <time>2022-04-27T13:24:58.137Z</time>
      </trkpt>
      <trkpt lat="48.4152" lon="2.50699">
        <ele>125</ele>
        <time>2022-04-27T13:25:03.138Z</time>
      </trkpt>
      <trkpt lat="48.41523" lon="2.50691">
        <ele>125</ele>
        <time>2022-04-27T13:25:08.134Z</time>
      </trkpt>
      <trkpt lat="48.41525" lon="2.50683">
        <ele>125</ele>
        <time>2022-04-27T13:25:13.131Z</time>
      </trkpt>
      <trkpt lat="48.41526" lon="2.50676">
        <ele>125</ele>
        <time>2022-04-27T13:25:18.123Z</time>
      </trkpt>
      <trkpt lat="48.41526" lon="2.50669">
        <ele>125</ele>
        <time>2022-04-27T13:25:22.136Z</time>
      </trkpt>
      <trkpt lat="48.41526" lon="2.50662">
        <ele>125</ele>
        <time>2022-04-27T13:25:27.151Z</time>
      </trkpt>
      <trkpt lat="48.41526" lon="2.50654">
        <ele>125</ele>
        <time>2022-04-27T13:25:32.124Z</time>
      </trkpt>
      <trkpt lat="48.41526" lon="2.50646">
        <ele>126</ele>
        <time>2022-04-27T13:25:36.128Z</time>
      </trkpt>
      <trkpt lat="48.41525" lon="2.50637">
        <ele>126</ele>
        <time>2022-04-27T13:25:40.130Z</time>
      </trkpt>
      <trkpt lat="48.41517" lon="2.50632">
        <ele>126</ele>
        <time>2022-04-27T13:25:45.125Z</time>
      </trkpt>
      <trkpt lat="48.4151" lon="2.50629">
        <ele>121</ele>
        <time>2022-04-27T13:25:50.130Z</time>
      </trkpt>
      <trkpt lat="48.41506" lon="2.50622">
        <ele>120</ele>
        <time>2022-04-27T13:25:54.134Z</time>
      </trkpt>
      <trkpt lat="48.41499" lon="2.50619">
        <ele>120</ele>
        <time>2022-04-27T13:25:59.134Z</time>
      </trkpt>
      <trkpt lat="48.41494" lon="2.50613">
        <ele>120</ele>
        <time>2022-04-27T13:26:04.130Z</time>
      </trkpt>
      <trkpt lat="48.41489" lon="2.50607">
        <ele>120</ele>
        <time>2022-04-27T13:26:09.129Z</time>
      </trkpt>
      <trkpt lat="48.41485" lon="2.50603">
        <ele>118</ele>
        <time>2022-04-27T13:26:13.135Z</time>
      </trkpt>
      <trkpt lat="48.4148" lon="2.50599">
        <ele>118</ele>
        <time>2022-04-27T13:26:18.132Z</time>
      </trkpt>
      <trkpt lat="48.41476" lon="2.50595">
        <ele>117</ele>
        <time>2022-04-27T13:26:23.123Z</time>
      </trkpt>
      <trkpt lat="48.41473" lon="2.50593">
        <ele>117</ele>
        <time>2022-04-27T13:26:27.129Z</time>
      </trkpt>
      <trkpt lat="48.4147" lon="2.50589">
        <ele>117</ele>
        <time>2022-04-27T13:26:31.135Z</time>
      </trkpt>
      <trkpt lat="48.41467" lon="2.50582">
        <ele>117</ele>
        <time>2022-04-27T13:26:36.128Z</time>
      </trkpt>
      <trkpt lat="48.41466" lon="2.50573">
        <ele>117</ele>
        <time>2022-04-27T13:26:41.130Z</time>
      </trkpt>
      <trkpt lat="48.41466" lon="2.50564">
        <ele>116</ele>
        <time>2022-04-27T13:26:46.121Z</time>
      </trkpt>
      <trkpt lat="48.41468" lon="2.50556">
        <ele>116</ele>
        <time>2022-04-27T13:26:50.125Z</time>
      </trkpt>
      <trkpt lat="48.41467" lon="2.50549">
        <ele>116</ele>
        <time>2022-04-27T13:26:54.128Z</time>
      </trkpt>
      <trkpt lat="48.41465" lon="2.50454">
        <ele>115</ele>
        <time>2022-04-27T13:26:59.121Z</time>
      </trkpt>
      <trkpt lat="48.41462" lon="2.50448">
        <ele>115</ele>
        <time>2022-04-27T13:27:03.125Z</time>
      </trkpt>
      <trkpt lat="48.41458" lon="2.50434">
        <ele>114</ele>
        <time>2022-04-27T13:27:08.124Z</time>
      </trkpt>
      <trkpt lat="48.41456" lon="2.50425">
        <ele>113</ele>
        <time>2022-04-27T13:27:12.128Z</time>
      </trkpt>
      <trkpt lat="48.41456" lon="2.50414">
        <ele>113</ele>
        <time>2022-04-27T13:27:17.122Z</time>
      </trkpt>
      <trkpt lat="48.41456" lon="2.50408">
        <ele>113</ele>
        <time>2022-04-27T13:27:21.125Z</time>
      </trkpt>
      <trkpt lat="48.41457" lon="2.50395">
        <ele>112</ele>
        <time>2022-04-27T13:27:26.123Z</time>
      </trkpt>
      <trkpt lat="48.41458" lon="2.50384">
        <ele>112</ele>
        <time>2022-04-27T13:27:31.121Z</time>
      </trkpt>
      <trkpt lat="48.41459" lon="2.50377">
        <ele>114</ele>
        <time>2022-04-27T13:27:35.124Z</time>
      </trkpt>
      <trkpt lat="48.4146" lon="2.50366">
        <ele>113</ele>
        <time>2022-04-27T13:27:40.121Z</time>
      </trkpt>
      <trkpt lat="48.4146" lon="2.50357">
        <ele>113</ele>
        <time>2022-04-27T13:27:44.125Z</time>
      </trkpt>
      <trkpt lat="48.4146" lon="2.50347">
        <ele>114</ele>
        <time>2022-04-27T13:27:49.123Z</time>
      </trkpt>
      <trkpt lat="48.4146" lon="2.50339">
        <ele>114</ele>
        <time>2022-04-27T13:27:53.126Z</time>
      </trkpt>
      <trkpt lat="48.41459" lon="2.5033">
        <ele>114</ele>
        <time>2022-04-27T13:27:58.127Z</time>
      </trkpt>
      <trkpt lat="48.41459" lon="2.50322">
        <ele>114</ele>
        <time>2022-04-27T13:28:02.126Z</time>
      </trkpt>
      <trkpt lat="48.41459" lon="2.50311">
        <ele>114</ele>
        <time>2022-04-27T13:28:07.123Z</time>
      </trkpt>
      <trkpt lat="48.41459" lon="2.50302">
        <ele>114</ele>
        <time>2022-04-27T13:28:12.122Z</time>
      </trkpt>
      <trkpt lat="48.41457" lon="2.50296">
        <ele>112</ele>
        <time>2022-04-27T13:28:16.124Z</time>
      </trkpt>
      <trkpt lat="48.41455" lon="2.50287">
        <ele>112</ele>
        <time>2022-04-27T13:28:21.126Z</time>
      </trkpt>
      <trkpt lat="48.41452" lon="2.50279">
        <ele>112</ele>
        <time>2022-04-27T13:28:25.260Z</time>
      </trkpt>
      <trkpt lat="48.4145" lon="2.50271">
        <ele>112</ele>
        <time>2022-04-27T13:28:30.124Z</time>
      </trkpt>
      <trkpt lat="48.41449" lon="2.50263">
        <ele>111</ele>
        <time>2022-04-27T13:28:35.125Z</time>
      </trkpt>
      <trkpt lat="48.41449" lon="2.50254">
        <ele>111</ele>
        <time>2022-04-27T13:28:40.125Z</time>
      </trkpt>
      <trkpt lat="48.41448" lon="2.50244">
        <ele>111</ele>
        <time>2022-04-27T13:28:45.122Z</time>
      </trkpt>
      <trkpt lat="48.41447" lon="2.50236">
        <ele>111</ele>
        <time>2022-04-27T13:28:49.123Z</time>
      </trkpt>
      <trkpt lat="48.41448" lon="2.50226">
        <ele>111</ele>
        <time>2022-04-27T13:28:54.123Z</time>
      </trkpt>
      <trkpt lat="48.4145" lon="2.50217">
        <ele>111</ele>
        <time>2022-04-27T13:28:58.122Z</time>
      </trkpt>
      <trkpt lat="48.41453" lon="2.50208">
        <ele>111</ele>
        <time>2022-04-27T13:29:03.122Z</time>
      </trkpt>
      <trkpt lat="48.41455" lon="2.50199">
        <ele>111</ele>
        <time>2022-04-27T13:29:08.126Z</time>
      </trkpt>
      <trkpt lat="48.41457" lon="2.50191">
        <ele>111</ele>
        <time>2022-04-27T13:29:12.129Z</time>
      </trkpt>
      <trkpt lat="48.41459" lon="2.50182">
        <ele>107</ele>
        <time>2022-04-27T13:29:17.121Z</time>
      </trkpt>
      <trkpt lat="48.41461" lon="2.50175">
        <ele>104</ele>
        <time>2022-04-27T13:29:21.123Z</time>
      </trkpt>
      <trkpt lat="48.41462" lon="2.50166">
        <ele>104</ele>
        <time>2022-04-27T13:29:26.122Z</time>
      </trkpt>
      <trkpt lat="48.41462" lon="2.50157">
        <ele>104</ele>
        <time>2022-04-27T13:29:31.126Z</time>
      </trkpt>
      <trkpt lat="48.41462" lon="2.50148">
        <ele>98</ele>
        <time>2022-04-27T13:29:36.123Z</time>
      </trkpt>
      <trkpt lat="48.41462" lon="2.50139">
        <ele>98</ele>
        <time>2022-04-27T13:29:41.123Z</time>
      </trkpt>
      <trkpt lat="48.41461" lon="2.50128">
        <ele>98</ele>
        <time>2022-04-27T13:29:46.121Z</time>
      </trkpt>
      <trkpt lat="48.4146" lon="2.50121">
        <ele>94</ele>
        <time>2022-04-27T13:29:50.127Z</time>
      </trkpt>
      <trkpt lat="48.4146" lon="2.50111">
        <ele>94</ele>
        <time>2022-04-27T13:29:55.132Z</time>
      </trkpt>
      <trkpt lat="48.41459" lon="2.50101">
        <ele>94</ele>
        <time>2022-04-27T13:30:00.132Z</time>
      </trkpt>
      <trkpt lat="48.41458" lon="2.50093">
        <ele>94</ele>
        <time>2022-04-27T13:30:04.135Z</time>
      </trkpt>
      <trkpt lat="48.41457" lon="2.50083">
        <ele>94</ele>
        <time>2022-04-27T13:30:09.129Z</time>
      </trkpt>
      <trkpt lat="48.41456" lon="2.50076">
        <ele>94</ele>
        <time>2022-04-27T13:30:13.138Z</time>
      </trkpt>
      <trkpt lat="48.41455" lon="2.50067">
        <ele>92</ele>
        <time>2022-04-27T13:30:18.132Z</time>
      </trkpt>
      <trkpt lat="48.41453" lon="2.50059">
        <ele>92</ele>
        <time>2022-04-27T13:30:23.121Z</time>
      </trkpt>
      <trkpt lat="48.41451" lon="2.50049">
        <ele>92</ele>
        <time>2022-04-27T13:30:28.128Z</time>
      </trkpt>
      <trkpt lat="48.4145" lon="2.50043">
        <ele>92</ele>
        <time>2022-04-27T13:30:33.121Z</time>
      </trkpt>
      <trkpt lat="48.41446" lon="2.50044">
        <ele>92</ele>
        <time>2022-04-27T13:30:37.132Z</time>
      </trkpt>
      <trkpt lat="48.41442" lon="2.50042">
        <ele>94</ele>
        <time>2022-04-27T13:30:42.122Z</time>
      </trkpt>
      <trkpt lat="48.41439" lon="2.50039">
        <ele>94</ele>
        <time>2022-04-27T13:30:46.131Z</time>
      </trkpt>
      <trkpt lat="48.41435" lon="2.50036">
        <ele>94</ele>
        <time>2022-04-27T13:30:51.130Z</time>
      </trkpt>
      <trkpt lat="48.4143" lon="2.50033">
        <ele>92</ele>
        <time>2022-04-27T13:30:56.123Z</time>
      </trkpt>
      <trkpt lat="48.41425" lon="2.50031">
        <ele>92</ele>
        <time>2022-04-27T13:31:01.121Z</time>
      </trkpt>
      <trkpt lat="48.41421" lon="2.50028">
        <ele>92</ele>
        <time>2022-04-27T13:31:06.129Z</time>
      </trkpt>
      <trkpt lat="48.41416" lon="2.50027">
        <ele>92</ele>
        <time>2022-04-27T13:31:11.127Z</time>
      </trkpt>
      <trkpt lat="48.41412" lon="2.50025">
        <ele>92</ele>
        <time>2022-04-27T13:31:15.127Z</time>
      </trkpt>
      <trkpt lat="48.41411" lon="2.50026">
        <ele>92</ele>
        <time>2022-04-27T13:31:20.123Z</time>
      </trkpt>
      <trkpt lat="48.41406" lon="2.50026">
        <ele>92</ele>
        <time>2022-04-27T13:31:24.130Z</time>
      </trkpt>
      <trkpt lat="48.41402" lon="2.50027">
        <ele>92</ele>
        <time>2022-04-27T13:31:29.130Z</time>
      </trkpt>
      <trkpt lat="48.41397" lon="2.50027">
        <ele>92</ele>
        <time>2022-04-27T13:31:34.125Z</time>
      </trkpt>
      <trkpt lat="48.41389" lon="2.50029">
        <ele>92</ele>
        <time>2022-04-27T13:31:39.129Z</time>
      </trkpt>
      <trkpt lat="48.41385" lon="2.50033">
        <ele>92</ele>
        <time>2022-04-27T13:31:44.119Z</time>
      </trkpt>
      <trkpt lat="48.41381" lon="2.50037">
        <ele>92</ele>
        <time>2022-04-27T13:31:49.123Z</time>
      </trkpt>
      <trkpt lat="48.41376" lon="2.50039">
        <ele>92</ele>
        <time>2022-04-27T13:31:54.121Z</time>
      </trkpt>
      <trkpt lat="48.41373" lon="2.50041">
        <ele>91</ele>
        <time>2022-04-27T13:31:59.125Z</time>
      </trkpt>
      <trkpt lat="48.41369" lon="2.50045">
        <ele>91</ele>
        <time>2022-04-27T13:32:04.125Z</time>
      </trkpt>
      <trkpt lat="48.41366" lon="2.50049">
        <ele>91</ele>
        <time>2022-04-27T13:32:08.130Z</time>
      </trkpt>
      <trkpt lat="48.41362" lon="2.50052">
        <ele>91</ele>
        <time>2022-04-27T13:32:13.123Z</time>
      </trkpt>
      <trkpt lat="48.41358" lon="2.50056">
        <ele>91</ele>
        <time>2022-04-27T13:32:18.125Z</time>
      </trkpt>
      <trkpt lat="48.41354" lon="2.50062">
        <ele>91</ele>
        <time>2022-04-27T13:32:23.126Z</time>
      </trkpt>
      <trkpt lat="48.41351" lon="2.50068">
        <ele>91</ele>
        <time>2022-04-27T13:32:28.122Z</time>
      </trkpt>
      <trkpt lat="48.41349" lon="2.50076">
        <ele>93</ele>
        <time>2022-04-27T13:32:32.129Z</time>
      </trkpt>
      <trkpt lat="48.41363" lon="2.50079">
        <ele>93</ele>
        <time>2022-04-27T13:32:37.123Z</time>
      </trkpt>
      <trkpt lat="48.41342" lon="2.50084">
        <ele>89</ele>
        <time>2022-04-27T13:32:42.130Z</time>
      </trkpt>
      <trkpt lat="48.41337" lon="2.5009">
        <ele>89</ele>
        <time>2022-04-27T13:32:47.127Z</time>
      </trkpt>
      <trkpt lat="48.41333" lon="2.50094">
        <ele>89</ele>
        <time>2022-04-27T13:32:52.139Z</time>
      </trkpt>
      <trkpt lat="48.41329" lon="2.50101">
        <ele>92</ele>
        <time>2022-04-27T13:32:57.140Z</time>
      </trkpt>
      <trkpt lat="48.41325" lon="2.50108">
        <ele>92</ele>
        <time>2022-04-27T13:33:02.145Z</time>
      </trkpt>
      <trkpt lat="48.4132" lon="2.50114">
        <ele>92</ele>
        <time>2022-04-27T13:33:07.131Z</time>
      </trkpt>
      <trkpt lat="48.41315" lon="2.5012">
        <ele>88</ele>
        <time>2022-04-27T13:33:12.131Z</time>
      </trkpt>
      <trkpt lat="48.41312" lon="2.50127">
        <ele>89</ele>
        <time>2022-04-27T13:33:17.123Z</time>
      </trkpt>
      <trkpt lat="48.41309" lon="2.50134">
        <ele>89</ele>
        <time>2022-04-27T13:33:22.121Z</time>
      </trkpt>
      <trkpt lat="48.41308" lon="2.5014">
        <ele>89</ele>
        <time>2022-04-27T13:33:26.123Z</time>
      </trkpt>
      <trkpt lat="48.41306" lon="2.50146">
        <ele>89</ele>
        <time>2022-04-27T13:33:30.121Z</time>
      </trkpt>
      <trkpt lat="48.41303" lon="2.50153">
        <ele>90</ele>
        <time>2022-04-27T13:33:35.129Z</time>
      </trkpt>
      <trkpt lat="48.41301" lon="2.50161">
        <ele>90</ele>
        <time>2022-04-27T13:33:40.127Z</time>
      </trkpt>
      <trkpt lat="48.413" lon="2.50166">
        <ele>90</ele>
        <time>2022-04-27T13:33:44.156Z</time>
      </trkpt>
      <trkpt lat="48.413" lon="2.50174">
        <ele>90</ele>
        <time>2022-04-27T13:33:49.125Z</time>
      </trkpt>
      <trkpt lat="48.41299" lon="2.50179">
        <ele>90</ele>
        <time>2022-04-27T13:33:53.137Z</time>
      </trkpt>
      <trkpt lat="48.41299" lon="2.50187">
        <ele>93</ele>
        <time>2022-04-27T13:33:58.136Z</time>
      </trkpt>
      <trkpt lat="48.41296" lon="2.5019">
        <ele>93</ele>
        <time>2022-04-27T13:34:02.140Z</time>
      </trkpt>
      <trkpt lat="48.41295" lon="2.50196">
        <ele>93</ele>
        <time>2022-04-27T13:34:07.135Z</time>
      </trkpt>
      <trkpt lat="48.41293" lon="2.50202">
        <ele>93</ele>
        <time>2022-04-27T13:34:12.138Z</time>
      </trkpt>
      <trkpt lat="48.41291" lon="2.50209">
        <ele>92</ele>
        <time>2022-04-27T13:34:17.127Z</time>
      </trkpt>
      <trkpt lat="48.41288" lon="2.50214">
        <ele>92</ele>
        <time>2022-04-27T13:34:21.130Z</time>
      </trkpt>
      <trkpt lat="48.41284" lon="2.5022">
        <ele>92</ele>
        <time>2022-04-27T13:34:26.132Z</time>
      </trkpt>
      <trkpt lat="48.41282" lon="2.50226">
        <ele>92</ele>
        <time>2022-04-27T13:34:31.135Z</time>
      </trkpt>
      <trkpt lat="48.41278" lon="2.50233">
        <ele>92</ele>
        <time>2022-04-27T13:34:36.135Z</time>
      </trkpt>
      <trkpt lat="48.41274" lon="2.50237">
        <ele>94</ele>
        <time>2022-04-27T13:34:41.127Z</time>
      </trkpt>
      <trkpt lat="48.4127" lon="2.50241">
        <ele>94</ele>
        <time>2022-04-27T13:34:46.122Z</time>
      </trkpt>
      <trkpt lat="48.41266" lon="2.50246">
        <ele>94</ele>
        <time>2022-04-27T13:34:51.123Z</time>
      </trkpt>
      <trkpt lat="48.41262" lon="2.50251">
        <ele>92</ele>
        <time>2022-04-27T13:34:55.136Z</time>
      </trkpt>
      <trkpt lat="48.41255" lon="2.50252">
        <ele>92</ele>
        <time>2022-04-27T13:35:00.144Z</time>
      </trkpt>
      <trkpt lat="48.41251" lon="2.50257">
        <ele>92</ele>
        <time>2022-04-27T13:35:05.122Z</time>
      </trkpt>
      <trkpt lat="48.41246" lon="2.50257">
        <ele>92</ele>
        <time>2022-04-27T13:35:09.130Z</time>
      </trkpt>
      <trkpt lat="48.4124" lon="2.5026">
        <ele>92</ele>
        <time>2022-04-27T13:35:14.131Z</time>
      </trkpt>
      <trkpt lat="48.41235" lon="2.50266">
        <ele>95</ele>
        <time>2022-04-27T13:35:19.122Z</time>
      </trkpt>
      <trkpt lat="48.4123" lon="2.5027">
        <ele>95</ele>
        <time>2022-04-27T13:35:23.135Z</time>
      </trkpt>
      <trkpt lat="48.41223" lon="2.50273">
        <ele>95</ele>
        <time>2022-04-27T13:35:28.133Z</time>
      </trkpt>
      <trkpt lat="48.41218" lon="2.50277">
        <ele>95</ele>
        <time>2022-04-27T13:35:33.134Z</time>
      </trkpt>
      <trkpt lat="48.41214" lon="2.50281">
        <ele>95</ele>
        <time>2022-04-27T13:35:38.124Z</time>
      </trkpt>
      <trkpt lat="48.4121" lon="2.50284">
        <ele>95</ele>
        <time>2022-04-27T13:35:42.127Z</time>
      </trkpt>
      <trkpt lat="48.41204" lon="2.50289">
        <ele>94</ele>
        <time>2022-04-27T13:35:47.129Z</time>
      </trkpt>
      <trkpt lat="48.41198" lon="2.50293">
        <ele>97</ele>
        <time>2022-04-27T13:35:52.125Z</time>
      </trkpt>
      <trkpt lat="48.41193" lon="2.50295">
        <ele>97</ele>
        <time>2022-04-27T13:35:56.132Z</time>
      </trkpt>
      <trkpt lat="48.41187" lon="2.503">
        <ele>97</ele>
        <time>2022-04-27T13:36:01.125Z</time>
      </trkpt>
      <trkpt lat="48.41182" lon="2.50303">
        <ele>97</ele>
        <time>2022-04-27T13:36:05.130Z</time>
      </trkpt>
      <trkpt lat="48.41177" lon="2.50303">
        <ele>95</ele>
        <time>2022-04-27T13:36:10.128Z</time>
      </trkpt>
      <trkpt lat="48.41171" lon="2.5031">
        <ele>95</ele>
        <time>2022-04-27T13:36:15.123Z</time>
      </trkpt>
      <trkpt lat="48.41165" lon="2.50316">
        <ele>95</ele>
        <time>2022-04-27T13:36:20.126Z</time>
      </trkpt>
      <trkpt lat="48.4116" lon="2.50319">
        <ele>95</ele>
        <time>2022-04-27T13:36:24.129Z</time>
      </trkpt>
      <trkpt lat="48.41154" lon="2.50318">
        <ele>95</ele>
        <time>2022-04-27T13:36:29.133Z</time>
      </trkpt>
      <trkpt lat="48.41148" lon="2.50319">
        <ele>93</ele>
        <time>2022-04-27T13:36:34.124Z</time>
      </trkpt>
      <trkpt lat="48.41143" lon="2.50319">
        <ele>93</ele>
        <time>2022-04-27T13:36:38.133Z</time>
      </trkpt>
      <trkpt lat="48.41137" lon="2.50316">
        <ele>93</ele>
        <time>2022-04-27T13:36:43.122Z</time>
      </trkpt>
      <trkpt lat="48.41131" lon="2.50313">
        <ele>93</ele>
        <time>2022-04-27T13:36:47.120Z</time>
      </trkpt>
      <trkpt lat="48.41125" lon="2.5031">
        <ele>93</ele>
        <time>2022-04-27T13:36:52.129Z</time>
      </trkpt>
      <trkpt lat="48.4112" lon="2.50307">
        <ele>90</ele>
        <time>2022-04-27T13:36:56.129Z</time>
      </trkpt>
      <trkpt lat="48.41115" lon="2.50304">
        <ele>90</ele>
        <time>2022-04-27T13:37:01.123Z</time>
      </trkpt>
      <trkpt lat="48.41109" lon="2.50301">
        <ele>90</ele>
        <time>2022-04-27T13:37:06.123Z</time>
      </trkpt>
      <trkpt lat="48.41105" lon="2.50295">
        <ele>90</ele>
        <time>2022-04-27T13:37:11.118Z</time>
      </trkpt>
      <trkpt lat="48.411" lon="2.50294">
        <ele>90</ele>
        <time>2022-04-27T13:37:15.130Z</time>
      </trkpt>
      <trkpt lat="48.41095" lon="2.50293">
        <ele>88</ele>
        <time>2022-04-27T13:37:20.119Z</time>
      </trkpt>
      <trkpt lat="48.4109" lon="2.50293">
        <ele>88</ele>
        <time>2022-04-27T13:37:24.127Z</time>
      </trkpt>
      <trkpt lat="48.41084" lon="2.5029">
        <ele>88</ele>
        <time>2022-04-27T13:37:29.126Z</time>
      </trkpt>
      <trkpt lat="48.41078" lon="2.50288">
        <ele>88</ele>
        <time>2022-04-27T13:37:34.123Z</time>
      </trkpt>
      <trkpt lat="48.41071" lon="2.50284">
        <ele>88</ele>
        <time>2022-04-27T13:37:39.122Z</time>
      </trkpt>
      <trkpt lat="48.41067" lon="2.50283">
        <ele>87</ele>
        <time>2022-04-27T13:37:43.122Z</time>
      </trkpt>
      <trkpt lat="48.41062" lon="2.50288">
        <ele>87</ele>
        <time>2022-04-27T13:37:48.122Z</time>
      </trkpt>
      <trkpt lat="48.4106" lon="2.50296">
        <ele>86</ele>
        <time>2022-04-27T13:37:52.130Z</time>
      </trkpt>
      <trkpt lat="48.41055" lon="2.50297">
        <ele>86</ele>
        <time>2022-04-27T13:37:57.123Z</time>
      </trkpt>
      <trkpt lat="48.4105" lon="2.50298">
        <ele>86</ele>
        <time>2022-04-27T13:38:01.130Z</time>
      </trkpt>
      <trkpt lat="48.41044" lon="2.50299">
        <ele>86</ele>
        <time>2022-04-27T13:38:06.118Z</time>
      </trkpt>
      <trkpt lat="48.4104" lon="2.503">
        <ele>85</ele>
        <time>2022-04-27T13:38:10.125Z</time>
      </trkpt>
      <trkpt lat="48.4103" lon="2.50316">
        <ele>85</ele>
        <time>2022-04-27T13:38:47.126Z</time>
      </trkpt>
      <trkpt lat="48.41029" lon="2.50316">
        <ele>85</ele>
        <time>2022-04-27T13:38:52.125Z</time>
      </trkpt>
      <trkpt lat="48.41021" lon="2.50307">
        <ele>85</ele>
        <time>2022-04-27T13:38:57.122Z</time>
      </trkpt>
      <trkpt lat="48.41013" lon="2.50314">
        <ele>83</ele>
        <time>2022-04-27T13:39:02.123Z</time>
      </trkpt>
      <trkpt lat="48.41009" lon="2.50315">
        <ele>83</ele>
        <time>2022-04-27T13:39:06.135Z</time>
      </trkpt>
      <trkpt lat="48.41004" lon="2.5032">
        <ele>83</ele>
        <time>2022-04-27T13:39:11.139Z</time>
      </trkpt>
      <trkpt lat="48.40998" lon="2.50323">
        <ele>83</ele>
        <time>2022-04-27T13:39:16.123Z</time>
      </trkpt>
      <trkpt lat="48.40994" lon="2.50319">
        <ele>83</ele>
        <time>2022-04-27T13:39:21.129Z</time>
      </trkpt>
      <trkpt lat="48.40993" lon="2.50333">
        <ele>83</ele>
        <time>2022-04-27T13:39:26.127Z</time>
      </trkpt>
      <trkpt lat="48.40989" lon="2.50338">
        <ele>83</ele>
        <time>2022-04-27T13:39:31.120Z</time>
      </trkpt>
      <trkpt lat="48.40984" lon="2.50341">
        <ele>82</ele>
        <time>2022-04-27T13:39:35.123Z</time>
      </trkpt>
      <trkpt lat="48.40978" lon="2.50345">
        <ele>82</ele>
        <time>2022-04-27T13:39:40.130Z</time>
      </trkpt>
      <trkpt lat="48.40972" lon="2.5035">
        <ele>83</ele>
        <time>2022-04-27T13:39:45.126Z</time>
      </trkpt>
      <trkpt lat="48.40969" lon="2.50353">
        <ele>83</ele>
        <time>2022-04-27T13:39:49.128Z</time>
      </trkpt>
      <trkpt lat="48.40964" lon="2.50359">
        <ele>83</ele>
        <time>2022-04-27T13:39:54.128Z</time>
      </trkpt>
      <trkpt lat="48.40961" lon="2.50364">
        <ele>83</ele>
        <time>2022-04-27T13:39:59.126Z</time>
      </trkpt>
      <trkpt lat="48.40957" lon="2.50368">
        <ele>82</ele>
        <time>2022-04-27T13:40:04.133Z</time>
      </trkpt>
      <trkpt lat="48.4095" lon="2.50373">
        <ele>82</ele>
        <time>2022-04-27T13:45:11.132Z</time>
      </trkpt>
      <trkpt lat="48.4095" lon="2.50373">
        <ele>82</ele>
        <time>2022-04-27T13:45:16.131Z</time>
      </trkpt>
      <trkpt lat="48.4095" lon="2.50373">
        <ele>82</ele>
        <time>2022-04-27T13:45:21.124Z</time>
      </trkpt>
      <trkpt lat="48.40948" lon="2.50375">
        <ele>82</ele>
        <time>2022-04-27T13:45:26.125Z</time>
      </trkpt>
      <trkpt lat="48.40945" lon="2.50379">
        <ele>81</ele>
        <time>2022-04-27T13:45:30.130Z</time>
      </trkpt>
      <trkpt lat="48.40939" lon="2.50384">
        <ele>81</ele>
        <time>2022-04-27T13:45:35.127Z</time>
      </trkpt>
      <trkpt lat="48.40935" lon="2.50386">
        <ele>81</ele>
        <time>2022-04-27T13:45:39.130Z</time>
      </trkpt>
      <trkpt lat="48.4093" lon="2.50388">
        <ele>81</ele>
        <time>2022-04-27T13:45:43.140Z</time>
      </trkpt>
      <trkpt lat="48.40925" lon="2.50392">
        <ele>81</ele>
        <time>2022-04-27T13:45:48.128Z</time>
      </trkpt>
      <trkpt lat="48.4092" lon="2.50395">
        <ele>81</ele>
        <time>2022-04-27T13:45:53.122Z</time>
      </trkpt>
      <trkpt lat="48.40915" lon="2.50399">
        <ele>81</ele>
        <time>2022-04-27T13:45:58.122Z</time>
      </trkpt>
      <trkpt lat="48.4091" lon="2.50403">
        <ele>81</ele>
        <time>2022-04-27T13:46:03.121Z</time>
      </trkpt>
      <trkpt lat="48.40906" lon="2.50408">
        <ele>81</ele>
        <time>2022-04-27T13:46:08.135Z</time>
      </trkpt>
      <trkpt lat="48.409" lon="2.50413">
        <ele>81</ele>
        <time>2022-04-27T13:46:13.118Z</time>
      </trkpt>
      <trkpt lat="48.40895" lon="2.50416">
        <ele>81</ele>
        <time>2022-04-27T13:46:17.123Z</time>
      </trkpt>
      <trkpt lat="48.40889" lon="2.5042">
        <ele>81</ele>
        <time>2022-04-27T13:46:22.122Z</time>
      </trkpt>
      <trkpt lat="48.40884" lon="2.50425">
        <ele>81</ele>
        <time>2022-04-27T13:46:26.134Z</time>
      </trkpt>
      <trkpt lat="48.40878" lon="2.5043">
        <ele>81</ele>
        <time>2022-04-27T13:46:31.125Z</time>
      </trkpt>
      <trkpt lat="48.40872" lon="2.50435">
        <ele>81</ele>
        <time>2022-04-27T13:46:36.128Z</time>
      </trkpt>
      <trkpt lat="48.40868" lon="2.5044">
        <ele>81</ele>
        <time>2022-04-27T13:46:40.146Z</time>
      </trkpt>
      <trkpt lat="48.40862" lon="2.50446">
        <ele>81</ele>
        <time>2022-04-27T13:46:45.122Z</time>
      </trkpt>
      <trkpt lat="48.40858" lon="2.5045">
        <ele>81</ele>
        <time>2022-04-27T13:46:49.127Z</time>
      </trkpt>
      <trkpt lat="48.40852" lon="2.50456">
        <ele>81</ele>
        <time>2022-04-27T13:46:54.130Z</time>
      </trkpt>
      <trkpt lat="48.40847" lon="2.50462">
        <ele>80</ele>
        <time>2022-04-27T13:46:58.131Z</time>
      </trkpt>
      <trkpt lat="48.40841" lon="2.50468">
        <ele>80</ele>
        <time>2022-04-27T13:47:03.120Z</time>
      </trkpt>
      <trkpt lat="48.40836" lon="2.50473">
        <ele>80</ele>
        <time>2022-04-27T13:47:07.125Z</time>
      </trkpt>
      <trkpt lat="48.40831" lon="2.50481">
        <ele>80</ele>
        <time>2022-04-27T13:47:12.130Z</time>
      </trkpt>
      <trkpt lat="48.40826" lon="2.50487">
        <ele>80</ele>
        <time>2022-04-27T13:47:17.121Z</time>
      </trkpt>
      <trkpt lat="48.4082" lon="2.50495">
        <ele>80</ele>
        <time>2022-04-27T13:47:22.132Z</time>
      </trkpt>
      <trkpt lat="48.40815" lon="2.505">
        <ele>81</ele>
        <time>2022-04-27T13:47:27.124Z</time>
      </trkpt>
      <trkpt lat="48.4081" lon="2.50505">
        <ele>81</ele>
        <time>2022-04-27T13:47:32.123Z</time>
      </trkpt>
      <trkpt lat="48.40805" lon="2.5051">
        <ele>81</ele>
        <time>2022-04-27T13:47:36.129Z</time>
      </trkpt>
      <trkpt lat="48.40799" lon="2.50515">
        <ele>81</ele>
        <time>2022-04-27T13:47:41.123Z</time>
      </trkpt>
      <trkpt lat="48.40794" lon="2.5052">
        <ele>81</ele>
        <time>2022-04-27T13:47:45.129Z</time>
      </trkpt>
      <trkpt lat="48.40791" lon="2.50527">
        <ele>81</ele>
        <time>2022-04-27T13:47:49.129Z</time>
      </trkpt>
      <trkpt lat="48.40787" lon="2.50534">
        <ele>81</ele>
        <time>2022-04-27T13:47:54.127Z</time>
      </trkpt>
      <trkpt lat="48.40783" lon="2.50537">
        <ele>81</ele>
        <time>2022-04-27T13:47:58.137Z</time>
      </trkpt>
      <trkpt lat="48.40777" lon="2.50544">
        <ele>81</ele>
        <time>2022-04-27T13:48:03.134Z</time>
      </trkpt>
      <trkpt lat="48.40773" lon="2.50548">
        <ele>81</ele>
        <time>2022-04-27T13:48:07.134Z</time>
      </trkpt>
      <trkpt lat="48.40768" lon="2.50553">
        <ele>81</ele>
        <time>2022-04-27T13:48:12.126Z</time>
      </trkpt>
      <trkpt lat="48.40764" lon="2.50559">
        <ele>80</ele>
        <time>2022-04-27T13:48:16.137Z</time>
      </trkpt>
      <trkpt lat="48.4076" lon="2.50568">
        <ele>80</ele>
        <time>2022-04-27T13:48:21.137Z</time>
      </trkpt>
      <trkpt lat="48.40755" lon="2.50576">
        <ele>80</ele>
        <time>2022-04-27T13:48:26.131Z</time>
      </trkpt>
      <trkpt lat="48.40751" lon="2.5058">
        <ele>80</ele>
        <time>2022-04-27T13:48:30.141Z</time>
      </trkpt>
      <trkpt lat="48.40747" lon="2.50585">
        <ele>80</ele>
        <time>2022-04-27T13:48:34.138Z</time>
      </trkpt>
      <trkpt lat="48.40742" lon="2.50591">
        <ele>80</ele>
        <time>2022-04-27T13:48:39.134Z</time>
      </trkpt>
      <trkpt lat="48.40737" lon="2.50597">
        <ele>80</ele>
        <time>2022-04-27T13:48:44.122Z</time>
      </trkpt>
      <trkpt lat="48.40732" lon="2.506">
        <ele>81</ele>
        <time>2022-04-27T13:48:48.127Z</time>
      </trkpt>
      <trkpt lat="48.40727" lon="2.50606">
        <ele>81</ele>
        <time>2022-04-27T13:48:53.137Z</time>
      </trkpt>
      <trkpt lat="48.40721" lon="2.50612">
        <ele>81</ele>
        <time>2022-04-27T13:48:58.134Z</time>
      </trkpt>
      <trkpt lat="48.40715" lon="2.50617">
        <ele>81</ele>
        <time>2022-04-27T13:49:03.131Z</time>
      </trkpt>
      <trkpt lat="48.40712" lon="2.50623">
        <ele>81</ele>
        <time>2022-04-27T13:49:07.137Z</time>
      </trkpt>
      <trkpt lat="48.40708" lon="2.50628">
        <ele>81</ele>
        <time>2022-04-27T13:49:11.140Z</time>
      </trkpt>
      <trkpt lat="48.40703" lon="2.50634">
        <ele>81</ele>
        <time>2022-04-27T13:49:16.141Z</time>
      </trkpt>
      <trkpt lat="48.40698" lon="2.5064">
        <ele>81</ele>
        <time>2022-04-27T13:49:21.135Z</time>
      </trkpt>
      <trkpt lat="48.40692" lon="2.50645">
        <ele>81</ele>
        <time>2022-04-27T13:49:26.120Z</time>
      </trkpt>
      <trkpt lat="48.40687" lon="2.50651">
        <ele>81</ele>
        <time>2022-04-27T13:49:31.125Z</time>
      </trkpt>
      <trkpt lat="48.40682" lon="2.50657">
        <ele>82</ele>
        <time>2022-04-27T13:49:36.126Z</time>
      </trkpt>
      <trkpt lat="48.40678" lon="2.50663">
        <ele>82</ele>
        <time>2022-04-27T13:49:40.136Z</time>
      </trkpt>
      <trkpt lat="48.40673" lon="2.50669">
        <ele>82</ele>
        <time>2022-04-27T13:49:45.136Z</time>
      </trkpt>
      <trkpt lat="48.40669" lon="2.50675">
        <ele>82</ele>
        <time>2022-04-27T13:49:50.134Z</time>
      </trkpt>
      <trkpt lat="48.40661" lon="2.50685">
        <ele>81</ele>
        <time>2022-04-27T13:49:55.122Z</time>
      </trkpt>
      <trkpt lat="48.40656" lon="2.50692">
        <ele>81</ele>
        <time>2022-04-27T13:50:00.132Z</time>
      </trkpt>
      <trkpt lat="48.40652" lon="2.50697">
        <ele>81</ele>
        <time>2022-04-27T13:50:05.125Z</time>
      </trkpt>
      <trkpt lat="48.40647" lon="2.50703">
        <ele>81</ele>
        <time>2022-04-27T13:50:09.126Z</time>
      </trkpt>
      <trkpt lat="48.40642" lon="2.5071">
        <ele>80</ele>
        <time>2022-04-27T13:50:14.137Z</time>
      </trkpt>
      <trkpt lat="48.40637" lon="2.50708">
        <ele>80</ele>
        <time>2022-04-27T13:50:19.124Z</time>
      </trkpt>
      <trkpt lat="48.40635" lon="2.50705">
        <ele>81</ele>
        <time>2022-04-27T13:50:24.139Z</time>
      </trkpt>
      <trkpt lat="48.40626" lon="2.50729">
        <ele>80</ele>
        <time>2022-04-27T13:50:29.126Z</time>
      </trkpt>
      <trkpt lat="48.40621" lon="2.50734">
        <ele>79</ele>
        <time>2022-04-27T13:50:34.129Z</time>
      </trkpt>
      <trkpt lat="48.40618" lon="2.5074">
        <ele>79</ele>
        <time>2022-04-27T13:50:38.130Z</time>
      </trkpt>
      <trkpt lat="48.40614" lon="2.50746">
        <ele>79</ele>
        <time>2022-04-27T13:50:43.126Z</time>
      </trkpt>
      <trkpt lat="48.40611" lon="2.5075">
        <ele>79</ele>
        <time>2022-04-27T13:50:47.134Z</time>
      </trkpt>
      <trkpt lat="48.40608" lon="2.50762">
        <ele>79</ele>
        <time>2022-04-27T13:51:10.135Z</time>
      </trkpt>
      <trkpt lat="48.40587" lon="2.50779">
        <ele>79</ele>
        <time>2022-04-27T13:51:15.126Z</time>
      </trkpt>
      <trkpt lat="48.40585" lon="2.50781">
        <ele>79</ele>
        <time>2022-04-27T13:51:20.125Z</time>
      </trkpt>
      <trkpt lat="48.4058" lon="2.50787">
        <ele>79</ele>
        <time>2022-04-27T13:51:24.130Z</time>
      </trkpt>
      <trkpt lat="48.40575" lon="2.50791">
        <ele>79</ele>
        <time>2022-04-27T13:51:29.126Z</time>
      </trkpt>
      <trkpt lat="48.40572" lon="2.50794">
        <ele>78</ele>
        <time>2022-04-27T13:51:33.132Z</time>
      </trkpt>
      <trkpt lat="48.40566" lon="2.50798">
        <ele>79</ele>
        <time>2022-04-27T13:51:38.126Z</time>
      </trkpt>
      <trkpt lat="48.40563" lon="2.50803">
        <ele>79</ele>
        <time>2022-04-27T13:51:42.134Z</time>
      </trkpt>
      <trkpt lat="48.40559" lon="2.50807">
        <ele>79</ele>
        <time>2022-04-27T13:51:46.126Z</time>
      </trkpt>
      <trkpt lat="48.40552" lon="2.50812">
        <ele>79</ele>
        <time>2022-04-27T13:51:51.122Z</time>
      </trkpt>
      <trkpt lat="48.40546" lon="2.50814">
        <ele>79</ele>
        <time>2022-04-27T13:51:56.121Z</time>
      </trkpt>
      <trkpt lat="48.40542" lon="2.50811">
        <ele>77</ele>
        <time>2022-04-27T13:52:01.126Z</time>
      </trkpt>
      <trkpt lat="48.40538" lon="2.50804">
        <ele>77</ele>
        <time>2022-04-27T13:52:06.122Z</time>
      </trkpt>
    </trkseg>
  </trk>
</gpx>